<?xml version="1.0" encoding="UTF-8" standalone="no" ?>
<gpx xmlns="http://www.topografix.com/GPX/1/1" xmlns:xsi="http://www.w3.org/2001/XMLSchema-instance" xsi:schemaLocation="http://www.topografix.com/GPX/1/1 http://www.topografix.com/GPX/1/1/gpx.xsd" version="1.1" creator="VisuGPX - https://www.visugpx.com">
  <metadata>
    <name>RocAmadour 2011</name>
    <desc><![CDATA[dimanche 20 mars 2011]]></desc>
  </metadata>
  <wpt lat="45.334" lon="1.84392">
    <ele>526.92</ele>
    <name><![CDATA[001]]></name>
    <desc><![CDATA[31-OCT-10 14:44:48]]></desc>
    <cmt><![CDATA[31-OCT-10 14:44:48]]></cmt>
  </wpt>
  <wpt lat="45.42676" lon="1.71342">
    <ele>414.21</ele>
    <name><![CDATA[001 1]]></name>
    <desc><![CDATA[14-JUIL-09 10:56:40]]></desc>
    <cmt><![CDATA[14-JUIL-09 10:56:40]]></cmt>
  </wpt>
  <wpt lat="45.33591" lon="1.84016">
    <ele>512.5</ele>
    <name><![CDATA[002]]></name>
    <desc><![CDATA[31-OCT-10 14:47:56]]></desc>
    <cmt><![CDATA[31-OCT-10 14:47:56]]></cmt>
  </wpt>
  <wpt lat="45.39858" lon="1.85984">
    <ele>585.8</ele>
    <name><![CDATA[002 1]]></name>
    <desc><![CDATA[16-AOU-09 15:43:20]]></desc>
    <cmt><![CDATA[16-AOU-09 15:43:20]]></cmt>
  </wpt>
  <wpt lat="45.33597" lon="1.84012">
    <ele>525.96</ele>
    <name><![CDATA[003]]></name>
    <desc><![CDATA[06-MARS-11 14:50:03]]></desc>
    <cmt><![CDATA[06-MARS-11 14:50:03]]></cmt>
  </wpt>
  <wpt lat="45.01145" lon="1.31326">
    <ele>296.45</ele>
    <name><![CDATA[003 1]]></name>
    <desc><![CDATA[23-AOU-09 11:37:17]]></desc>
    <cmt><![CDATA[23-AOU-09 11:37:17]]></cmt>
  </wpt>
  <wpt lat="45.34563" lon="1.84251">
    <ele>381.53</ele>
    <name><![CDATA[004]]></name>
    <desc><![CDATA[06-MARS-11 15:10:14]]></desc>
    <cmt><![CDATA[06-MARS-11 15:10:14]]></cmt>
  </wpt>
  <wpt lat="44.81242" lon="1.59553">
    <ele>253.67</ele>
    <name><![CDATA[005]]></name>
    <desc><![CDATA[20-MARS-11 8:55:43]]></desc>
    <cmt><![CDATA[20-MARS-11 8:55:43]]></cmt>
  </wpt>
  <wpt lat="44.80768" lon="1.58829">
    <ele>159.22</ele>
    <name><![CDATA[006]]></name>
    <desc><![CDATA[20-MARS-11 9:32:52]]></desc>
    <cmt><![CDATA[20-MARS-11 9:32:52]]></cmt>
  </wpt>
  <wpt lat="44.80582" lon="1.58877">
    <ele>147.21</ele>
    <name><![CDATA[007]]></name>
    <desc><![CDATA[20-MARS-11 9:36:29]]></desc>
    <cmt><![CDATA[20-MARS-11 9:36:29]]></cmt>
  </wpt>
  <wpt lat="44.7893" lon="1.62549">
    <ele>279.87</ele>
    <name><![CDATA[008]]></name>
    <desc><![CDATA[20-MARS-11 12:20:53]]></desc>
    <cmt><![CDATA[20-MARS-11 12:20:53]]></cmt>
  </wpt>
  <wpt lat="45.53122" lon="1.98297">
    <ele>824.93</ele>
    <name><![CDATA[Bonnefond - Circuit  du  Menhi]]></name>
    <desc><![CDATA[Bonnefond - Circuit  du  Menhi]]></desc>
    <cmt><![CDATA[Bonnefond - Circuit  du  Menhi]]></cmt>
  </wpt>
  <wpt lat="38.85555" lon="-94.79902">
    <ele>325.05</ele>
    <name><![CDATA[Garmin]]></name>
    <desc><![CDATA[Garmin]]></desc>
    <cmt><![CDATA[Garmin]]></cmt>
  </wpt>
  <wpt lat="25.06178" lon="121.64027">
    <ele>38.1</ele>
    <name><![CDATA[Garmin Asia]]></name>
    <desc><![CDATA[Garmin Asia]]></desc>
    <cmt><![CDATA[Garmin Asia]]></cmt>
  </wpt>
  <wpt lat="50.9017" lon="-1.48935">
    <ele>35.93</ele>
    <name><![CDATA[Garmin Europe]]></name>
    <desc><![CDATA[Garmin Europe]]></desc>
    <cmt><![CDATA[Garmin Europe]]></cmt>
  </wpt>
  <wpt lat="45.25157" lon="1.76447">
    <ele>206.81</ele>
    <name><![CDATA[HOME]]></name>
    <desc><![CDATA[04-FEV-09 15:42:46]]></desc>
    <cmt><![CDATA[04-FEV-09 15:42:46]]></cmt>
  </wpt>
  <trk>
    <name><![CDATA[RocAmadour: 20 MARS 2011 07:57 001]]></name>
    <trkseg>
      <trkpt lat="44.80136" lon="1.61632">
        <ele>142.41</ele>
        <time>2011-03-20T06:57:38Z</time>
      </trkpt>
      <trkpt lat="44.80137" lon="1.61631">
        <ele>142.41</ele>
        <time>2011-03-20T06:57:39Z</time>
      </trkpt>
      <trkpt lat="44.80144" lon="1.61629">
        <ele>142.41</ele>
        <time>2011-03-20T06:57:43Z</time>
      </trkpt>
      <trkpt lat="44.80153" lon="1.61614">
        <ele>143.37</ele>
        <time>2011-03-20T06:57:53Z</time>
      </trkpt>
      <trkpt lat="44.80159" lon="1.616">
        <ele>144.34</ele>
        <time>2011-03-20T06:58:01Z</time>
      </trkpt>
      <trkpt lat="44.80162" lon="1.61598">
        <ele>144.34</ele>
        <time>2011-03-20T06:58:03Z</time>
      </trkpt>
      <trkpt lat="44.80164" lon="1.61585">
        <ele>144.82</ele>
        <time>2011-03-20T06:58:12Z</time>
      </trkpt>
      <trkpt lat="44.80166" lon="1.61581">
        <ele>144.82</ele>
        <time>2011-03-20T06:58:14Z</time>
      </trkpt>
      <trkpt lat="44.80174" lon="1.61563">
        <ele>145.78</ele>
        <time>2011-03-20T06:58:22Z</time>
      </trkpt>
      <trkpt lat="44.80179" lon="1.61551">
        <ele>146.74</ele>
        <time>2011-03-20T06:58:28Z</time>
      </trkpt>
      <trkpt lat="44.8018" lon="1.61549">
        <ele>146.74</ele>
        <time>2011-03-20T06:58:29Z</time>
      </trkpt>
      <trkpt lat="44.80193" lon="1.6153">
        <ele>147.7</ele>
        <time>2011-03-20T06:58:40Z</time>
      </trkpt>
      <trkpt lat="44.80199" lon="1.61529">
        <ele>148.18</ele>
        <time>2011-03-20T06:58:44Z</time>
      </trkpt>
      <trkpt lat="44.80209" lon="1.61539">
        <ele>149.14</ele>
        <time>2011-03-20T06:58:52Z</time>
      </trkpt>
      <trkpt lat="44.80217" lon="1.61547">
        <ele>149.14</ele>
        <time>2011-03-20T06:58:56Z</time>
      </trkpt>
      <trkpt lat="44.80224" lon="1.61559">
        <ele>149.62</ele>
        <time>2011-03-20T06:59:05Z</time>
      </trkpt>
      <trkpt lat="44.80228" lon="1.61567">
        <ele>149.62</ele>
        <time>2011-03-20T06:59:09Z</time>
      </trkpt>
      <trkpt lat="44.80232" lon="1.61574">
        <ele>150.1</ele>
        <time>2011-03-20T06:59:14Z</time>
      </trkpt>
      <trkpt lat="44.80238" lon="1.61575">
        <ele>150.1</ele>
        <time>2011-03-20T06:59:18Z</time>
      </trkpt>
      <trkpt lat="44.80242" lon="1.61574">
        <ele>150.58</ele>
        <time>2011-03-20T06:59:20Z</time>
      </trkpt>
      <trkpt lat="44.80251" lon="1.61559">
        <ele>151.06</ele>
        <time>2011-03-20T06:59:27Z</time>
      </trkpt>
      <trkpt lat="44.80254" lon="1.61556">
        <ele>151.06</ele>
        <time>2011-03-20T06:59:29Z</time>
      </trkpt>
      <trkpt lat="44.80258" lon="1.61552">
        <ele>151.06</ele>
        <time>2011-03-20T06:59:33Z</time>
      </trkpt>
      <trkpt lat="44.80263" lon="1.61544">
        <ele>152.03</ele>
        <time>2011-03-20T06:59:38Z</time>
      </trkpt>
      <trkpt lat="44.80264" lon="1.6154">
        <ele>152.03</ele>
        <time>2011-03-20T06:59:40Z</time>
      </trkpt>
      <trkpt lat="44.80268" lon="1.61527">
        <ele>152.51</ele>
        <time>2011-03-20T06:59:46Z</time>
      </trkpt>
      <trkpt lat="44.80275" lon="1.61515">
        <ele>153.47</ele>
        <time>2011-03-20T06:59:53Z</time>
      </trkpt>
      <trkpt lat="44.80277" lon="1.61512">
        <ele>153.47</ele>
        <time>2011-03-20T06:59:56Z</time>
      </trkpt>
      <trkpt lat="44.80279" lon="1.61505">
        <ele>153.95</ele>
        <time>2011-03-20T07:00:00Z</time>
      </trkpt>
      <trkpt lat="44.80287" lon="1.61484">
        <ele>153.95</ele>
        <time>2011-03-20T07:00:10Z</time>
      </trkpt>
      <trkpt lat="44.80288" lon="1.61483">
        <ele>154.43</ele>
        <time>2011-03-20T07:00:11Z</time>
      </trkpt>
      <trkpt lat="44.80288" lon="1.61477">
        <ele>154.43</ele>
        <time>2011-03-20T07:00:15Z</time>
      </trkpt>
      <trkpt lat="44.80294" lon="1.61464">
        <ele>155.39</ele>
        <time>2011-03-20T07:00:22Z</time>
      </trkpt>
      <trkpt lat="44.80301" lon="1.61452">
        <ele>156.35</ele>
        <time>2011-03-20T07:00:29Z</time>
      </trkpt>
      <trkpt lat="44.80307" lon="1.61439">
        <ele>157.79</ele>
        <time>2011-03-20T07:00:36Z</time>
      </trkpt>
      <trkpt lat="44.80316" lon="1.61426">
        <ele>157.79</ele>
        <time>2011-03-20T07:00:42Z</time>
      </trkpt>
      <trkpt lat="44.80318" lon="1.61421">
        <ele>157.79</ele>
        <time>2011-03-20T07:00:45Z</time>
      </trkpt>
      <trkpt lat="44.8032" lon="1.61418">
        <ele>157.79</ele>
        <time>2011-03-20T07:00:49Z</time>
      </trkpt>
      <trkpt lat="44.80322" lon="1.61412">
        <ele>158.27</ele>
        <time>2011-03-20T07:00:53Z</time>
      </trkpt>
      <trkpt lat="44.80329" lon="1.614">
        <ele>158.75</ele>
        <time>2011-03-20T07:00:59Z</time>
      </trkpt>
      <trkpt lat="44.80332" lon="1.61392">
        <ele>158.75</ele>
        <time>2011-03-20T07:01:05Z</time>
      </trkpt>
      <trkpt lat="44.80333" lon="1.61388">
        <ele>159.24</ele>
        <time>2011-03-20T07:01:08Z</time>
      </trkpt>
      <trkpt lat="44.80336" lon="1.61383">
        <ele>159.72</ele>
        <time>2011-03-20T07:01:11Z</time>
      </trkpt>
      <trkpt lat="44.80343" lon="1.61371">
        <ele>159.72</ele>
        <time>2011-03-20T07:01:17Z</time>
      </trkpt>
      <trkpt lat="44.80349" lon="1.61364">
        <ele>160.2</ele>
        <time>2011-03-20T07:01:24Z</time>
      </trkpt>
      <trkpt lat="44.80355" lon="1.61354">
        <ele>160.68</ele>
        <time>2011-03-20T07:01:29Z</time>
      </trkpt>
      <trkpt lat="44.80356" lon="1.61352">
        <ele>161.16</ele>
        <time>2011-03-20T07:01:31Z</time>
      </trkpt>
      <trkpt lat="44.80359" lon="1.61346">
        <ele>161.16</ele>
        <time>2011-03-20T07:01:36Z</time>
      </trkpt>
      <trkpt lat="44.80367" lon="1.61336">
        <ele>161.64</ele>
        <time>2011-03-20T07:01:43Z</time>
      </trkpt>
      <trkpt lat="44.80375" lon="1.61327">
        <ele>161.64</ele>
        <time>2011-03-20T07:01:48Z</time>
      </trkpt>
      <trkpt lat="44.80382" lon="1.6132">
        <ele>161.64</ele>
        <time>2011-03-20T07:01:53Z</time>
      </trkpt>
      <trkpt lat="44.80386" lon="1.61316">
        <ele>161.64</ele>
        <time>2011-03-20T07:01:58Z</time>
      </trkpt>
      <trkpt lat="44.80388" lon="1.61315">
        <ele>162.12</ele>
        <time>2011-03-20T07:02:01Z</time>
      </trkpt>
      <trkpt lat="44.80393" lon="1.6131">
        <ele>161.64</ele>
        <time>2011-03-20T07:02:05Z</time>
      </trkpt>
      <trkpt lat="44.80396" lon="1.61304">
        <ele>162.6</ele>
        <time>2011-03-20T07:02:07Z</time>
      </trkpt>
      <trkpt lat="44.80405" lon="1.61297">
        <ele>162.12</ele>
        <time>2011-03-20T07:02:14Z</time>
      </trkpt>
      <trkpt lat="44.80405" lon="1.61296">
        <ele>162.6</ele>
        <time>2011-03-20T07:02:15Z</time>
      </trkpt>
      <trkpt lat="44.80407" lon="1.61296">
        <ele>162.12</ele>
        <time>2011-03-20T07:02:17Z</time>
      </trkpt>
      <trkpt lat="44.80409" lon="1.61293">
        <ele>163.08</ele>
        <time>2011-03-20T07:02:19Z</time>
      </trkpt>
      <trkpt lat="44.80412" lon="1.61292">
        <ele>163.08</ele>
        <time>2011-03-20T07:02:21Z</time>
      </trkpt>
      <trkpt lat="44.8042" lon="1.61284">
        <ele>162.6</ele>
        <time>2011-03-20T07:02:27Z</time>
      </trkpt>
      <trkpt lat="44.80425" lon="1.61276">
        <ele>163.08</ele>
        <time>2011-03-20T07:02:33Z</time>
      </trkpt>
      <trkpt lat="44.80434" lon="1.61267">
        <ele>163.56</ele>
        <time>2011-03-20T07:02:40Z</time>
      </trkpt>
      <trkpt lat="44.80441" lon="1.61261">
        <ele>163.56</ele>
        <time>2011-03-20T07:02:45Z</time>
      </trkpt>
      <trkpt lat="44.80446" lon="1.61259">
        <ele>164.52</ele>
        <time>2011-03-20T07:02:49Z</time>
      </trkpt>
      <trkpt lat="44.80451" lon="1.61261">
        <ele>164.04</ele>
        <time>2011-03-20T07:02:54Z</time>
      </trkpt>
      <trkpt lat="44.80455" lon="1.61263">
        <ele>164.52</ele>
        <time>2011-03-20T07:02:56Z</time>
      </trkpt>
      <trkpt lat="44.80468" lon="1.61276">
        <ele>164.52</ele>
        <time>2011-03-20T07:03:04Z</time>
      </trkpt>
      <trkpt lat="44.80478" lon="1.61281">
        <ele>164.52</ele>
        <time>2011-03-20T07:03:13Z</time>
      </trkpt>
      <trkpt lat="44.8048" lon="1.61282">
        <ele>164.52</ele>
        <time>2011-03-20T07:03:15Z</time>
      </trkpt>
      <trkpt lat="44.80491" lon="1.61289">
        <ele>164.52</ele>
        <time>2011-03-20T07:03:22Z</time>
      </trkpt>
      <trkpt lat="44.80499" lon="1.61295">
        <ele>165</ele>
        <time>2011-03-20T07:03:27Z</time>
      </trkpt>
      <trkpt lat="44.80504" lon="1.61299">
        <ele>164.52</ele>
        <time>2011-03-20T07:03:33Z</time>
      </trkpt>
      <trkpt lat="44.8051" lon="1.61306">
        <ele>164.52</ele>
        <time>2011-03-20T07:03:41Z</time>
      </trkpt>
      <trkpt lat="44.80518" lon="1.61313">
        <ele>164.04</ele>
        <time>2011-03-20T07:03:45Z</time>
      </trkpt>
      <trkpt lat="44.80522" lon="1.61315">
        <ele>164.04</ele>
        <time>2011-03-20T07:03:47Z</time>
      </trkpt>
      <trkpt lat="44.80531" lon="1.61319">
        <ele>164.52</ele>
        <time>2011-03-20T07:03:54Z</time>
      </trkpt>
      <trkpt lat="44.8054" lon="1.61323">
        <ele>164.04</ele>
        <time>2011-03-20T07:04:00Z</time>
      </trkpt>
      <trkpt lat="44.80544" lon="1.61325">
        <ele>164.04</ele>
        <time>2011-03-20T07:04:02Z</time>
      </trkpt>
      <trkpt lat="44.80553" lon="1.61328">
        <ele>164.04</ele>
        <time>2011-03-20T07:04:09Z</time>
      </trkpt>
      <trkpt lat="44.80557" lon="1.61329">
        <ele>164.04</ele>
        <time>2011-03-20T07:04:12Z</time>
      </trkpt>
      <trkpt lat="44.80569" lon="1.61339">
        <ele>164.04</ele>
        <time>2011-03-20T07:04:20Z</time>
      </trkpt>
      <trkpt lat="44.80577" lon="1.61351">
        <ele>163.56</ele>
        <time>2011-03-20T07:04:25Z</time>
      </trkpt>
      <trkpt lat="44.80581" lon="1.61362">
        <ele>163.56</ele>
        <time>2011-03-20T07:04:32Z</time>
      </trkpt>
      <trkpt lat="44.80582" lon="1.61365">
        <ele>163.56</ele>
        <time>2011-03-20T07:04:34Z</time>
      </trkpt>
      <trkpt lat="44.80584" lon="1.61377">
        <ele>164.04</ele>
        <time>2011-03-20T07:04:41Z</time>
      </trkpt>
      <trkpt lat="44.80585" lon="1.61395">
        <ele>164.52</ele>
        <time>2011-03-20T07:04:48Z</time>
      </trkpt>
      <trkpt lat="44.80583" lon="1.61412">
        <ele>164.52</ele>
        <time>2011-03-20T07:04:55Z</time>
      </trkpt>
      <trkpt lat="44.8058" lon="1.61421">
        <ele>164.52</ele>
        <time>2011-03-20T07:05:01Z</time>
      </trkpt>
      <trkpt lat="44.8058" lon="1.61425">
        <ele>164.52</ele>
        <time>2011-03-20T07:05:03Z</time>
      </trkpt>
      <trkpt lat="44.8058" lon="1.6143">
        <ele>164.52</ele>
        <time>2011-03-20T07:05:05Z</time>
      </trkpt>
      <trkpt lat="44.8058" lon="1.61437">
        <ele>164.52</ele>
        <time>2011-03-20T07:05:09Z</time>
      </trkpt>
      <trkpt lat="44.80581" lon="1.61442">
        <ele>164.52</ele>
        <time>2011-03-20T07:05:11Z</time>
      </trkpt>
      <trkpt lat="44.80581" lon="1.61458">
        <ele>164.52</ele>
        <time>2011-03-20T07:05:17Z</time>
      </trkpt>
      <trkpt lat="44.80578" lon="1.61465">
        <ele>164.52</ele>
        <time>2011-03-20T07:05:20Z</time>
      </trkpt>
      <trkpt lat="44.80575" lon="1.61474">
        <ele>164.52</ele>
        <time>2011-03-20T07:05:25Z</time>
      </trkpt>
      <trkpt lat="44.80572" lon="1.6149">
        <ele>165</ele>
        <time>2011-03-20T07:05:33Z</time>
      </trkpt>
      <trkpt lat="44.8057" lon="1.61502">
        <ele>165</ele>
        <time>2011-03-20T07:05:40Z</time>
      </trkpt>
      <trkpt lat="44.80568" lon="1.61515">
        <ele>165</ele>
        <time>2011-03-20T07:05:46Z</time>
      </trkpt>
      <trkpt lat="44.80564" lon="1.61532">
        <ele>165.48</ele>
        <time>2011-03-20T07:05:53Z</time>
      </trkpt>
      <trkpt lat="44.80563" lon="1.61535">
        <ele>165.48</ele>
        <time>2011-03-20T07:05:54Z</time>
      </trkpt>
      <trkpt lat="44.8056" lon="1.61542">
        <ele>165</ele>
        <time>2011-03-20T07:05:57Z</time>
      </trkpt>
      <trkpt lat="44.80558" lon="1.61547">
        <ele>165.48</ele>
        <time>2011-03-20T07:06:00Z</time>
      </trkpt>
      <trkpt lat="44.80551" lon="1.61557">
        <ele>165.48</ele>
        <time>2011-03-20T07:06:06Z</time>
      </trkpt>
      <trkpt lat="44.80546" lon="1.61564">
        <ele>165.96</ele>
        <time>2011-03-20T07:06:12Z</time>
      </trkpt>
      <trkpt lat="44.80546" lon="1.61567">
        <ele>166.45</ele>
        <time>2011-03-20T07:06:14Z</time>
      </trkpt>
      <trkpt lat="44.80543" lon="1.61573">
        <ele>166.93</ele>
        <time>2011-03-20T07:06:17Z</time>
      </trkpt>
      <trkpt lat="44.80535" lon="1.61599">
        <ele>167.89</ele>
        <time>2011-03-20T07:06:29Z</time>
      </trkpt>
      <trkpt lat="44.80529" lon="1.61615">
        <ele>168.37</ele>
        <time>2011-03-20T07:06:36Z</time>
      </trkpt>
      <trkpt lat="44.80526" lon="1.61622">
        <ele>168.37</ele>
        <time>2011-03-20T07:06:40Z</time>
      </trkpt>
      <trkpt lat="44.8052" lon="1.61633">
        <ele>168.37</ele>
        <time>2011-03-20T07:06:46Z</time>
      </trkpt>
      <trkpt lat="44.80516" lon="1.61641">
        <ele>168.85</ele>
        <time>2011-03-20T07:06:51Z</time>
      </trkpt>
      <trkpt lat="44.80511" lon="1.61651">
        <ele>168.85</ele>
        <time>2011-03-20T07:06:57Z</time>
      </trkpt>
      <trkpt lat="44.80508" lon="1.61659">
        <ele>169.33</ele>
        <time>2011-03-20T07:07:03Z</time>
      </trkpt>
      <trkpt lat="44.80502" lon="1.61672">
        <ele>169.81</ele>
        <time>2011-03-20T07:07:10Z</time>
      </trkpt>
      <trkpt lat="44.805" lon="1.61674">
        <ele>169.81</ele>
        <time>2011-03-20T07:07:12Z</time>
      </trkpt>
      <trkpt lat="44.80498" lon="1.61685">
        <ele>169.81</ele>
        <time>2011-03-20T07:07:18Z</time>
      </trkpt>
      <trkpt lat="44.80497" lon="1.61688">
        <ele>169.81</ele>
        <time>2011-03-20T07:07:19Z</time>
      </trkpt>
      <trkpt lat="44.80494" lon="1.61704">
        <ele>169.81</ele>
        <time>2011-03-20T07:07:27Z</time>
      </trkpt>
      <trkpt lat="44.80494" lon="1.61705">
        <ele>170.29</ele>
        <time>2011-03-20T07:07:28Z</time>
      </trkpt>
      <trkpt lat="44.80495" lon="1.61729">
        <ele>169.81</ele>
        <time>2011-03-20T07:07:41Z</time>
      </trkpt>
      <trkpt lat="44.80495" lon="1.61759">
        <ele>171.25</ele>
        <time>2011-03-20T07:07:55Z</time>
      </trkpt>
      <trkpt lat="44.80496" lon="1.61785">
        <ele>171.25</ele>
        <time>2011-03-20T07:08:08Z</time>
      </trkpt>
      <trkpt lat="44.80496" lon="1.61814">
        <ele>171.25</ele>
        <time>2011-03-20T07:08:18Z</time>
      </trkpt>
      <trkpt lat="44.80497" lon="1.61832">
        <ele>172.21</ele>
        <time>2011-03-20T07:08:26Z</time>
      </trkpt>
      <trkpt lat="44.80496" lon="1.61837">
        <ele>171.73</ele>
        <time>2011-03-20T07:08:28Z</time>
      </trkpt>
      <trkpt lat="44.80493" lon="1.61866">
        <ele>171.25</ele>
        <time>2011-03-20T07:08:39Z</time>
      </trkpt>
      <trkpt lat="44.8049" lon="1.61886">
        <ele>170.77</ele>
        <time>2011-03-20T07:08:49Z</time>
      </trkpt>
      <trkpt lat="44.80487" lon="1.61906">
        <ele>170.29</ele>
        <time>2011-03-20T07:09:01Z</time>
      </trkpt>
      <trkpt lat="44.80484" lon="1.61922">
        <ele>170.29</ele>
        <time>2011-03-20T07:09:09Z</time>
      </trkpt>
      <trkpt lat="44.80479" lon="1.61942">
        <ele>170.29</ele>
        <time>2011-03-20T07:09:19Z</time>
      </trkpt>
      <trkpt lat="44.80476" lon="1.61964">
        <ele>170.29</ele>
        <time>2011-03-20T07:09:30Z</time>
      </trkpt>
      <trkpt lat="44.80471" lon="1.61987">
        <ele>170.77</ele>
        <time>2011-03-20T07:09:41Z</time>
      </trkpt>
      <trkpt lat="44.80467" lon="1.62012">
        <ele>170.77</ele>
        <time>2011-03-20T07:09:52Z</time>
      </trkpt>
      <trkpt lat="44.80462" lon="1.62032">
        <ele>171.25</ele>
        <time>2011-03-20T07:10:02Z</time>
      </trkpt>
      <trkpt lat="44.80457" lon="1.62058">
        <ele>171.25</ele>
        <time>2011-03-20T07:10:17Z</time>
      </trkpt>
      <trkpt lat="44.80455" lon="1.62086">
        <ele>172.21</ele>
        <time>2011-03-20T07:10:31Z</time>
      </trkpt>
      <trkpt lat="44.80455" lon="1.62125">
        <ele>172.21</ele>
        <time>2011-03-20T07:10:48Z</time>
      </trkpt>
      <trkpt lat="44.80456" lon="1.62141">
        <ele>173.17</ele>
        <time>2011-03-20T07:10:56Z</time>
      </trkpt>
      <trkpt lat="44.80459" lon="1.62154">
        <ele>172.21</ele>
        <time>2011-03-20T07:11:05Z</time>
      </trkpt>
      <trkpt lat="44.80476" lon="1.62146">
        <ele>169.33</ele>
        <time>2011-03-20T07:11:20Z</time>
      </trkpt>
      <trkpt lat="44.80493" lon="1.62134">
        <ele>167.41</ele>
        <time>2011-03-20T07:11:35Z</time>
      </trkpt>
      <trkpt lat="44.805" lon="1.62127">
        <ele>166.45</ele>
        <time>2011-03-20T07:11:41Z</time>
      </trkpt>
      <trkpt lat="44.80524" lon="1.62111">
        <ele>164.04</ele>
        <time>2011-03-20T07:11:57Z</time>
      </trkpt>
      <trkpt lat="44.80539" lon="1.621">
        <ele>162.6</ele>
        <time>2011-03-20T07:12:06Z</time>
      </trkpt>
      <trkpt lat="44.80552" lon="1.62084">
        <ele>162.6</ele>
        <time>2011-03-20T07:12:16Z</time>
      </trkpt>
      <trkpt lat="44.80562" lon="1.62071">
        <ele>162.6</ele>
        <time>2011-03-20T07:12:24Z</time>
      </trkpt>
      <trkpt lat="44.80574" lon="1.6206">
        <ele>162.12</ele>
        <time>2011-03-20T07:12:33Z</time>
      </trkpt>
      <trkpt lat="44.80584" lon="1.62049">
        <ele>162.12</ele>
        <time>2011-03-20T07:12:41Z</time>
      </trkpt>
      <trkpt lat="44.80591" lon="1.62038">
        <ele>162.6</ele>
        <time>2011-03-20T07:12:51Z</time>
      </trkpt>
      <trkpt lat="44.80602" lon="1.6202">
        <ele>163.56</ele>
        <time>2011-03-20T07:13:02Z</time>
      </trkpt>
      <trkpt lat="44.80614" lon="1.62002">
        <ele>163.56</ele>
        <time>2011-03-20T07:13:13Z</time>
      </trkpt>
      <trkpt lat="44.80624" lon="1.61986">
        <ele>164.04</ele>
        <time>2011-03-20T07:13:22Z</time>
      </trkpt>
      <trkpt lat="44.80632" lon="1.61973">
        <ele>164.04</ele>
        <time>2011-03-20T07:13:30Z</time>
      </trkpt>
      <trkpt lat="44.80641" lon="1.61958">
        <ele>164.04</ele>
        <time>2011-03-20T07:13:38Z</time>
      </trkpt>
      <trkpt lat="44.80645" lon="1.61953">
        <ele>164.04</ele>
        <time>2011-03-20T07:13:41Z</time>
      </trkpt>
      <trkpt lat="44.80655" lon="1.61937">
        <ele>164.04</ele>
        <time>2011-03-20T07:13:51Z</time>
      </trkpt>
      <trkpt lat="44.80668" lon="1.61917">
        <ele>164.04</ele>
        <time>2011-03-20T07:14:03Z</time>
      </trkpt>
      <trkpt lat="44.80674" lon="1.61902">
        <ele>164.04</ele>
        <time>2011-03-20T07:14:12Z</time>
      </trkpt>
      <trkpt lat="44.80679" lon="1.61887">
        <ele>164.52</ele>
        <time>2011-03-20T07:14:21Z</time>
      </trkpt>
      <trkpt lat="44.80697" lon="1.61869">
        <ele>164.04</ele>
        <time>2011-03-20T07:14:32Z</time>
      </trkpt>
      <trkpt lat="44.80705" lon="1.61857">
        <ele>164.04</ele>
        <time>2011-03-20T07:14:38Z</time>
      </trkpt>
      <trkpt lat="44.8071" lon="1.61849">
        <ele>164.52</ele>
        <time>2011-03-20T07:14:44Z</time>
      </trkpt>
      <trkpt lat="44.80713" lon="1.61842">
        <ele>165.48</ele>
        <time>2011-03-20T07:14:49Z</time>
      </trkpt>
      <trkpt lat="44.80714" lon="1.61838">
        <ele>165</ele>
        <time>2011-03-20T07:14:51Z</time>
      </trkpt>
      <trkpt lat="44.80716" lon="1.61831">
        <ele>165</ele>
        <time>2011-03-20T07:14:54Z</time>
      </trkpt>
      <trkpt lat="44.8072" lon="1.61822">
        <ele>165</ele>
        <time>2011-03-20T07:14:59Z</time>
      </trkpt>
      <trkpt lat="44.80722" lon="1.61808">
        <ele>165.96</ele>
        <time>2011-03-20T07:15:05Z</time>
      </trkpt>
      <trkpt lat="44.80723" lon="1.61805">
        <ele>165.96</ele>
        <time>2011-03-20T07:15:06Z</time>
      </trkpt>
      <trkpt lat="44.80732" lon="1.61787">
        <ele>165.96</ele>
        <time>2011-03-20T07:15:14Z</time>
      </trkpt>
      <trkpt lat="44.80738" lon="1.61772">
        <ele>166.45</ele>
        <time>2011-03-20T07:15:20Z</time>
      </trkpt>
      <trkpt lat="44.80741" lon="1.61759">
        <ele>166.93</ele>
        <time>2011-03-20T07:15:27Z</time>
      </trkpt>
      <trkpt lat="44.80744" lon="1.61746">
        <ele>167.41</ele>
        <time>2011-03-20T07:15:33Z</time>
      </trkpt>
      <trkpt lat="44.80749" lon="1.61733">
        <ele>167.41</ele>
        <time>2011-03-20T07:15:41Z</time>
      </trkpt>
      <trkpt lat="44.80759" lon="1.61707">
        <ele>168.37</ele>
        <time>2011-03-20T07:15:55Z</time>
      </trkpt>
      <trkpt lat="44.80767" lon="1.61691">
        <ele>168.37</ele>
        <time>2011-03-20T07:16:01Z</time>
      </trkpt>
      <trkpt lat="44.80771" lon="1.61681">
        <ele>168.85</ele>
        <time>2011-03-20T07:16:06Z</time>
      </trkpt>
      <trkpt lat="44.80773" lon="1.61677">
        <ele>168.85</ele>
        <time>2011-03-20T07:16:09Z</time>
      </trkpt>
      <trkpt lat="44.80776" lon="1.61675">
        <ele>168.85</ele>
        <time>2011-03-20T07:16:11Z</time>
      </trkpt>
      <trkpt lat="44.80777" lon="1.6167">
        <ele>168.85</ele>
        <time>2011-03-20T07:16:15Z</time>
      </trkpt>
      <trkpt lat="44.8078" lon="1.61666">
        <ele>169.33</ele>
        <time>2011-03-20T07:16:19Z</time>
      </trkpt>
      <trkpt lat="44.80788" lon="1.61654">
        <ele>169.33</ele>
        <time>2011-03-20T07:16:26Z</time>
      </trkpt>
      <trkpt lat="44.808" lon="1.61644">
        <ele>169.33</ele>
        <time>2011-03-20T07:16:33Z</time>
      </trkpt>
      <trkpt lat="44.80809" lon="1.61635">
        <ele>169.81</ele>
        <time>2011-03-20T07:16:39Z</time>
      </trkpt>
      <trkpt lat="44.80811" lon="1.61633">
        <ele>170.29</ele>
        <time>2011-03-20T07:16:42Z</time>
      </trkpt>
      <trkpt lat="44.80823" lon="1.6163">
        <ele>170.29</ele>
        <time>2011-03-20T07:16:50Z</time>
      </trkpt>
      <trkpt lat="44.80828" lon="1.61631">
        <ele>170.77</ele>
        <time>2011-03-20T07:16:54Z</time>
      </trkpt>
      <trkpt lat="44.80834" lon="1.61635">
        <ele>171.73</ele>
        <time>2011-03-20T07:16:59Z</time>
      </trkpt>
      <trkpt lat="44.80838" lon="1.61638">
        <ele>171.73</ele>
        <time>2011-03-20T07:17:02Z</time>
      </trkpt>
      <trkpt lat="44.80843" lon="1.6164">
        <ele>172.21</ele>
        <time>2011-03-20T07:17:05Z</time>
      </trkpt>
      <trkpt lat="44.80851" lon="1.61648">
        <ele>172.69</ele>
        <time>2011-03-20T07:17:12Z</time>
      </trkpt>
      <trkpt lat="44.80853" lon="1.61649">
        <ele>173.17</ele>
        <time>2011-03-20T07:17:14Z</time>
      </trkpt>
      <trkpt lat="44.80862" lon="1.61657">
        <ele>173.66</ele>
        <time>2011-03-20T07:17:20Z</time>
      </trkpt>
      <trkpt lat="44.80874" lon="1.61666">
        <ele>175.1</ele>
        <time>2011-03-20T07:17:31Z</time>
      </trkpt>
      <trkpt lat="44.80885" lon="1.61674">
        <ele>176.06</ele>
        <time>2011-03-20T07:17:39Z</time>
      </trkpt>
      <trkpt lat="44.80895" lon="1.61682">
        <ele>176.54</ele>
        <time>2011-03-20T07:17:45Z</time>
      </trkpt>
      <trkpt lat="44.80909" lon="1.61684">
        <ele>177.5</ele>
        <time>2011-03-20T07:17:52Z</time>
      </trkpt>
      <trkpt lat="44.80913" lon="1.61687">
        <ele>177.02</ele>
        <time>2011-03-20T07:17:55Z</time>
      </trkpt>
      <trkpt lat="44.8092" lon="1.61698">
        <ele>177.5</ele>
        <time>2011-03-20T07:18:02Z</time>
      </trkpt>
      <trkpt lat="44.80923" lon="1.61707">
        <ele>177.5</ele>
        <time>2011-03-20T07:18:07Z</time>
      </trkpt>
      <trkpt lat="44.80924" lon="1.61717">
        <ele>177.5</ele>
        <time>2011-03-20T07:18:13Z</time>
      </trkpt>
      <trkpt lat="44.80928" lon="1.61734">
        <ele>177.5</ele>
        <time>2011-03-20T07:18:19Z</time>
      </trkpt>
      <trkpt lat="44.8093" lon="1.61745">
        <ele>177.98</ele>
        <time>2011-03-20T07:18:24Z</time>
      </trkpt>
      <trkpt lat="44.80926" lon="1.6176">
        <ele>177.5</ele>
        <time>2011-03-20T07:18:31Z</time>
      </trkpt>
      <trkpt lat="44.80926" lon="1.6177">
        <ele>177.5</ele>
        <time>2011-03-20T07:18:35Z</time>
      </trkpt>
      <trkpt lat="44.80923" lon="1.61785">
        <ele>177.5</ele>
        <time>2011-03-20T07:18:42Z</time>
      </trkpt>
      <trkpt lat="44.80921" lon="1.61798">
        <ele>177.5</ele>
        <time>2011-03-20T07:18:47Z</time>
      </trkpt>
      <trkpt lat="44.8092" lon="1.61811">
        <ele>177.02</ele>
        <time>2011-03-20T07:18:52Z</time>
      </trkpt>
      <trkpt lat="44.80922" lon="1.61824">
        <ele>177.02</ele>
        <time>2011-03-20T07:18:58Z</time>
      </trkpt>
      <trkpt lat="44.80926" lon="1.6184">
        <ele>177.02</ele>
        <time>2011-03-20T07:19:06Z</time>
      </trkpt>
      <trkpt lat="44.80929" lon="1.6185">
        <ele>177.02</ele>
        <time>2011-03-20T07:19:11Z</time>
      </trkpt>
      <trkpt lat="44.80934" lon="1.61861">
        <ele>177.02</ele>
        <time>2011-03-20T07:19:17Z</time>
      </trkpt>
      <trkpt lat="44.80937" lon="1.61874">
        <ele>177.5</ele>
        <time>2011-03-20T07:19:23Z</time>
      </trkpt>
      <trkpt lat="44.80942" lon="1.61887">
        <ele>177.5</ele>
        <time>2011-03-20T07:19:30Z</time>
      </trkpt>
      <trkpt lat="44.80945" lon="1.61899">
        <ele>177.98</ele>
        <time>2011-03-20T07:19:38Z</time>
      </trkpt>
      <trkpt lat="44.80947" lon="1.61913">
        <ele>178.46</ele>
        <time>2011-03-20T07:19:44Z</time>
      </trkpt>
      <trkpt lat="44.8095" lon="1.61927">
        <ele>178.46</ele>
        <time>2011-03-20T07:19:50Z</time>
      </trkpt>
      <trkpt lat="44.80955" lon="1.61942">
        <ele>178.94</ele>
        <time>2011-03-20T07:19:57Z</time>
      </trkpt>
      <trkpt lat="44.80958" lon="1.61951">
        <ele>178.46</ele>
        <time>2011-03-20T07:20:02Z</time>
      </trkpt>
      <trkpt lat="44.80957" lon="1.61958">
        <ele>178.46</ele>
        <time>2011-03-20T07:20:08Z</time>
      </trkpt>
      <trkpt lat="44.80965" lon="1.61957">
        <ele>178.46</ele>
        <time>2011-03-20T07:20:12Z</time>
      </trkpt>
      <trkpt lat="44.80975" lon="1.61946">
        <ele>179.42</ele>
        <time>2011-03-20T07:20:20Z</time>
      </trkpt>
      <trkpt lat="44.80984" lon="1.61935">
        <ele>179.9</ele>
        <time>2011-03-20T07:20:26Z</time>
      </trkpt>
      <trkpt lat="44.80986" lon="1.61934">
        <ele>179.42</ele>
        <time>2011-03-20T07:20:29Z</time>
      </trkpt>
      <trkpt lat="44.80987" lon="1.61932">
        <ele>179.9</ele>
        <time>2011-03-20T07:20:31Z</time>
      </trkpt>
      <trkpt lat="44.80997" lon="1.6192">
        <ele>180.87</ele>
        <time>2011-03-20T07:20:41Z</time>
      </trkpt>
      <trkpt lat="44.81005" lon="1.6191">
        <ele>180.87</ele>
        <time>2011-03-20T07:20:48Z</time>
      </trkpt>
      <trkpt lat="44.81011" lon="1.61901">
        <ele>181.83</ele>
        <time>2011-03-20T07:20:53Z</time>
      </trkpt>
      <trkpt lat="44.81012" lon="1.619">
        <ele>181.35</ele>
        <time>2011-03-20T07:20:54Z</time>
      </trkpt>
      <trkpt lat="44.81016" lon="1.6189">
        <ele>181.83</ele>
        <time>2011-03-20T07:20:58Z</time>
      </trkpt>
      <trkpt lat="44.81026" lon="1.61879">
        <ele>181.83</ele>
        <time>2011-03-20T07:21:06Z</time>
      </trkpt>
      <trkpt lat="44.8103" lon="1.61872">
        <ele>181.83</ele>
        <time>2011-03-20T07:21:12Z</time>
      </trkpt>
      <trkpt lat="44.81038" lon="1.61864">
        <ele>182.79</ele>
        <time>2011-03-20T07:21:19Z</time>
      </trkpt>
      <trkpt lat="44.81043" lon="1.61859">
        <ele>183.27</ele>
        <time>2011-03-20T07:21:23Z</time>
      </trkpt>
      <trkpt lat="44.81048" lon="1.61851">
        <ele>183.27</ele>
        <time>2011-03-20T07:21:27Z</time>
      </trkpt>
      <trkpt lat="44.8105" lon="1.61849">
        <ele>183.75</ele>
        <time>2011-03-20T07:21:29Z</time>
      </trkpt>
      <trkpt lat="44.81052" lon="1.61845">
        <ele>183.75</ele>
        <time>2011-03-20T07:21:32Z</time>
      </trkpt>
      <trkpt lat="44.81057" lon="1.61835">
        <ele>184.23</ele>
        <time>2011-03-20T07:21:39Z</time>
      </trkpt>
      <trkpt lat="44.81061" lon="1.61827">
        <ele>184.23</ele>
        <time>2011-03-20T07:21:44Z</time>
      </trkpt>
      <trkpt lat="44.81067" lon="1.61822">
        <ele>184.71</ele>
        <time>2011-03-20T07:21:48Z</time>
      </trkpt>
      <trkpt lat="44.81075" lon="1.61812">
        <ele>185.19</ele>
        <time>2011-03-20T07:21:54Z</time>
      </trkpt>
      <trkpt lat="44.81079" lon="1.61801">
        <ele>185.67</ele>
        <time>2011-03-20T07:22:01Z</time>
      </trkpt>
      <trkpt lat="44.8108" lon="1.61796">
        <ele>186.15</ele>
        <time>2011-03-20T07:22:04Z</time>
      </trkpt>
      <trkpt lat="44.81088" lon="1.61783">
        <ele>186.63</ele>
        <time>2011-03-20T07:22:10Z</time>
      </trkpt>
      <trkpt lat="44.81096" lon="1.61772">
        <ele>186.63</ele>
        <time>2011-03-20T07:22:16Z</time>
      </trkpt>
      <trkpt lat="44.81104" lon="1.61762">
        <ele>187.11</ele>
        <time>2011-03-20T07:22:22Z</time>
      </trkpt>
      <trkpt lat="44.81108" lon="1.61758">
        <ele>188.08</ele>
        <time>2011-03-20T07:22:28Z</time>
      </trkpt>
      <trkpt lat="44.81114" lon="1.6175">
        <ele>188.56</ele>
        <time>2011-03-20T07:22:34Z</time>
      </trkpt>
      <trkpt lat="44.81122" lon="1.61739">
        <ele>189.04</ele>
        <time>2011-03-20T07:22:40Z</time>
      </trkpt>
      <trkpt lat="44.8113" lon="1.61731">
        <ele>189.52</ele>
        <time>2011-03-20T07:22:47Z</time>
      </trkpt>
      <trkpt lat="44.81134" lon="1.61727">
        <ele>189.52</ele>
        <time>2011-03-20T07:22:50Z</time>
      </trkpt>
      <trkpt lat="44.81141" lon="1.61711">
        <ele>190.48</ele>
        <time>2011-03-20T07:22:58Z</time>
      </trkpt>
      <trkpt lat="44.81146" lon="1.61706">
        <ele>190.96</ele>
        <time>2011-03-20T07:23:03Z</time>
      </trkpt>
      <trkpt lat="44.8115" lon="1.617">
        <ele>191.92</ele>
        <time>2011-03-20T07:23:07Z</time>
      </trkpt>
      <trkpt lat="44.8116" lon="1.61689">
        <ele>191.92</ele>
        <time>2011-03-20T07:23:15Z</time>
      </trkpt>
      <trkpt lat="44.81167" lon="1.61681">
        <ele>192.4</ele>
        <time>2011-03-20T07:23:21Z</time>
      </trkpt>
      <trkpt lat="44.81175" lon="1.61672">
        <ele>193.36</ele>
        <time>2011-03-20T07:23:28Z</time>
      </trkpt>
      <trkpt lat="44.81185" lon="1.61663">
        <ele>193.84</ele>
        <time>2011-03-20T07:23:35Z</time>
      </trkpt>
      <trkpt lat="44.81189" lon="1.61659">
        <ele>194.32</ele>
        <time>2011-03-20T07:23:40Z</time>
      </trkpt>
      <trkpt lat="44.81198" lon="1.61651">
        <ele>194.8</ele>
        <time>2011-03-20T07:23:46Z</time>
      </trkpt>
      <trkpt lat="44.812" lon="1.61648">
        <ele>194.8</ele>
        <time>2011-03-20T07:23:48Z</time>
      </trkpt>
      <trkpt lat="44.81206" lon="1.61636">
        <ele>195.77</ele>
        <time>2011-03-20T07:23:56Z</time>
      </trkpt>
      <trkpt lat="44.81213" lon="1.61627">
        <ele>196.25</ele>
        <time>2011-03-20T07:24:02Z</time>
      </trkpt>
      <trkpt lat="44.81214" lon="1.61617">
        <ele>197.21</ele>
        <time>2011-03-20T07:24:08Z</time>
      </trkpt>
      <trkpt lat="44.81219" lon="1.61611">
        <ele>197.21</ele>
        <time>2011-03-20T07:24:14Z</time>
      </trkpt>
      <trkpt lat="44.81227" lon="1.61602">
        <ele>197.21</ele>
        <time>2011-03-20T07:24:19Z</time>
      </trkpt>
      <trkpt lat="44.81235" lon="1.61592">
        <ele>197.69</ele>
        <time>2011-03-20T07:24:26Z</time>
      </trkpt>
      <trkpt lat="44.81239" lon="1.6159">
        <ele>197.69</ele>
        <time>2011-03-20T07:24:28Z</time>
      </trkpt>
      <trkpt lat="44.81241" lon="1.61588">
        <ele>197.69</ele>
        <time>2011-03-20T07:24:30Z</time>
      </trkpt>
      <trkpt lat="44.81249" lon="1.61584">
        <ele>198.17</ele>
        <time>2011-03-20T07:24:37Z</time>
      </trkpt>
      <trkpt lat="44.81255" lon="1.61578">
        <ele>198.65</ele>
        <time>2011-03-20T07:24:41Z</time>
      </trkpt>
      <trkpt lat="44.81258" lon="1.61575">
        <ele>198.65</ele>
        <time>2011-03-20T07:24:43Z</time>
      </trkpt>
      <trkpt lat="44.81266" lon="1.61571">
        <ele>199.13</ele>
        <time>2011-03-20T07:24:48Z</time>
      </trkpt>
      <trkpt lat="44.81274" lon="1.61565">
        <ele>198.17</ele>
        <time>2011-03-20T07:24:55Z</time>
      </trkpt>
      <trkpt lat="44.81275" lon="1.61563">
        <ele>198.65</ele>
        <time>2011-03-20T07:24:56Z</time>
      </trkpt>
      <trkpt lat="44.81277" lon="1.61561">
        <ele>199.61</ele>
        <time>2011-03-20T07:24:58Z</time>
      </trkpt>
      <trkpt lat="44.81281" lon="1.61558">
        <ele>199.61</ele>
        <time>2011-03-20T07:25:02Z</time>
      </trkpt>
      <trkpt lat="44.81291" lon="1.61551">
        <ele>199.61</ele>
        <time>2011-03-20T07:25:08Z</time>
      </trkpt>
      <trkpt lat="44.81301" lon="1.61543">
        <ele>199.61</ele>
        <time>2011-03-20T07:25:14Z</time>
      </trkpt>
      <trkpt lat="44.81308" lon="1.61537">
        <ele>199.61</ele>
        <time>2011-03-20T07:25:18Z</time>
      </trkpt>
      <trkpt lat="44.81314" lon="1.61531">
        <ele>199.61</ele>
        <time>2011-03-20T07:25:23Z</time>
      </trkpt>
      <trkpt lat="44.81318" lon="1.6153">
        <ele>199.61</ele>
        <time>2011-03-20T07:25:27Z</time>
      </trkpt>
      <trkpt lat="44.81321" lon="1.6153">
        <ele>199.61</ele>
        <time>2011-03-20T07:25:29Z</time>
      </trkpt>
      <trkpt lat="44.81328" lon="1.61526">
        <ele>199.13</ele>
        <time>2011-03-20T07:25:35Z</time>
      </trkpt>
      <trkpt lat="44.81336" lon="1.61517">
        <ele>199.13</ele>
        <time>2011-03-20T07:25:42Z</time>
      </trkpt>
      <trkpt lat="44.81341" lon="1.61513">
        <ele>199.13</ele>
        <time>2011-03-20T07:25:46Z</time>
      </trkpt>
      <trkpt lat="44.81352" lon="1.61507">
        <ele>199.13</ele>
        <time>2011-03-20T07:25:51Z</time>
      </trkpt>
      <trkpt lat="44.81358" lon="1.61503">
        <ele>199.13</ele>
        <time>2011-03-20T07:25:55Z</time>
      </trkpt>
      <trkpt lat="44.81365" lon="1.61501">
        <ele>198.65</ele>
        <time>2011-03-20T07:26:00Z</time>
      </trkpt>
      <trkpt lat="44.81371" lon="1.61497">
        <ele>199.13</ele>
        <time>2011-03-20T07:26:05Z</time>
      </trkpt>
      <trkpt lat="44.81379" lon="1.61491">
        <ele>199.13</ele>
        <time>2011-03-20T07:26:13Z</time>
      </trkpt>
      <trkpt lat="44.81392" lon="1.61483">
        <ele>199.13</ele>
        <time>2011-03-20T07:26:19Z</time>
      </trkpt>
      <trkpt lat="44.81405" lon="1.61471">
        <ele>199.13</ele>
        <time>2011-03-20T07:26:27Z</time>
      </trkpt>
      <trkpt lat="44.81406" lon="1.61469">
        <ele>199.13</ele>
        <time>2011-03-20T07:26:28Z</time>
      </trkpt>
      <trkpt lat="44.81409" lon="1.61466">
        <ele>199.13</ele>
        <time>2011-03-20T07:26:30Z</time>
      </trkpt>
      <trkpt lat="44.81411" lon="1.61465">
        <ele>199.13</ele>
        <time>2011-03-20T07:26:32Z</time>
      </trkpt>
      <trkpt lat="44.81416" lon="1.6146">
        <ele>199.13</ele>
        <time>2011-03-20T07:26:37Z</time>
      </trkpt>
      <trkpt lat="44.81422" lon="1.61454">
        <ele>198.65</ele>
        <time>2011-03-20T07:26:43Z</time>
      </trkpt>
      <trkpt lat="44.81423" lon="1.61452">
        <ele>199.13</ele>
        <time>2011-03-20T07:26:44Z</time>
      </trkpt>
      <trkpt lat="44.81427" lon="1.61451">
        <ele>199.13</ele>
        <time>2011-03-20T07:26:46Z</time>
      </trkpt>
      <trkpt lat="44.81441" lon="1.61438">
        <ele>199.61</ele>
        <time>2011-03-20T07:26:54Z</time>
      </trkpt>
      <trkpt lat="44.81447" lon="1.61435">
        <ele>199.13</ele>
        <time>2011-03-20T07:26:58Z</time>
      </trkpt>
      <trkpt lat="44.81453" lon="1.61429">
        <ele>199.13</ele>
        <time>2011-03-20T07:27:04Z</time>
      </trkpt>
      <trkpt lat="44.81456" lon="1.61425">
        <ele>199.61</ele>
        <time>2011-03-20T07:27:07Z</time>
      </trkpt>
      <trkpt lat="44.81457" lon="1.61419">
        <ele>199.61</ele>
        <time>2011-03-20T07:27:11Z</time>
      </trkpt>
      <trkpt lat="44.81462" lon="1.61408">
        <ele>199.61</ele>
        <time>2011-03-20T07:27:16Z</time>
      </trkpt>
      <trkpt lat="44.81465" lon="1.61398">
        <ele>199.61</ele>
        <time>2011-03-20T07:27:20Z</time>
      </trkpt>
      <trkpt lat="44.81473" lon="1.61383">
        <ele>200.09</ele>
        <time>2011-03-20T07:27:27Z</time>
      </trkpt>
      <trkpt lat="44.81481" lon="1.6137">
        <ele>200.09</ele>
        <time>2011-03-20T07:27:34Z</time>
      </trkpt>
      <trkpt lat="44.81485" lon="1.61364">
        <ele>200.09</ele>
        <time>2011-03-20T07:27:39Z</time>
      </trkpt>
      <trkpt lat="44.81489" lon="1.61353">
        <ele>200.57</ele>
        <time>2011-03-20T07:27:47Z</time>
      </trkpt>
      <trkpt lat="44.8149" lon="1.6135">
        <ele>201.05</ele>
        <time>2011-03-20T07:27:50Z</time>
      </trkpt>
      <trkpt lat="44.81495" lon="1.61341">
        <ele>201.05</ele>
        <time>2011-03-20T07:27:55Z</time>
      </trkpt>
      <trkpt lat="44.81499" lon="1.61336">
        <ele>201.05</ele>
        <time>2011-03-20T07:27:59Z</time>
      </trkpt>
      <trkpt lat="44.815" lon="1.61332">
        <ele>201.53</ele>
        <time>2011-03-20T07:28:01Z</time>
      </trkpt>
      <trkpt lat="44.81502" lon="1.61323">
        <ele>201.53</ele>
        <time>2011-03-20T07:28:05Z</time>
      </trkpt>
      <trkpt lat="44.81514" lon="1.61306">
        <ele>201.53</ele>
        <time>2011-03-20T07:28:13Z</time>
      </trkpt>
      <trkpt lat="44.81519" lon="1.61296">
        <ele>201.53</ele>
        <time>2011-03-20T07:28:18Z</time>
      </trkpt>
      <trkpt lat="44.81523" lon="1.61287">
        <ele>202.01</ele>
        <time>2011-03-20T07:28:22Z</time>
      </trkpt>
      <trkpt lat="44.81528" lon="1.61274">
        <ele>202.49</ele>
        <time>2011-03-20T07:28:30Z</time>
      </trkpt>
      <trkpt lat="44.81535" lon="1.61265">
        <ele>202.49</ele>
        <time>2011-03-20T07:28:38Z</time>
      </trkpt>
      <trkpt lat="44.81539" lon="1.61254">
        <ele>202.49</ele>
        <time>2011-03-20T07:28:43Z</time>
      </trkpt>
      <trkpt lat="44.81546" lon="1.61236">
        <ele>203.46</ele>
        <time>2011-03-20T07:28:51Z</time>
      </trkpt>
      <trkpt lat="44.8155" lon="1.6123">
        <ele>203.46</ele>
        <time>2011-03-20T07:28:55Z</time>
      </trkpt>
      <trkpt lat="44.81556" lon="1.61216">
        <ele>203.94</ele>
        <time>2011-03-20T07:29:03Z</time>
      </trkpt>
      <trkpt lat="44.81558" lon="1.61213">
        <ele>203.94</ele>
        <time>2011-03-20T07:29:06Z</time>
      </trkpt>
      <trkpt lat="44.81565" lon="1.61201">
        <ele>203.94</ele>
        <time>2011-03-20T07:29:13Z</time>
      </trkpt>
      <trkpt lat="44.81571" lon="1.61186">
        <ele>204.42</ele>
        <time>2011-03-20T07:29:19Z</time>
      </trkpt>
      <trkpt lat="44.81573" lon="1.61177">
        <ele>204.9</ele>
        <time>2011-03-20T07:29:26Z</time>
      </trkpt>
      <trkpt lat="44.81574" lon="1.61175">
        <ele>205.38</ele>
        <time>2011-03-20T07:29:27Z</time>
      </trkpt>
      <trkpt lat="44.81583" lon="1.61163">
        <ele>205.86</ele>
        <time>2011-03-20T07:29:33Z</time>
      </trkpt>
      <trkpt lat="44.81591" lon="1.61152">
        <ele>206.34</ele>
        <time>2011-03-20T07:29:39Z</time>
      </trkpt>
      <trkpt lat="44.81596" lon="1.61147">
        <ele>206.82</ele>
        <time>2011-03-20T07:29:44Z</time>
      </trkpt>
      <trkpt lat="44.816" lon="1.61144">
        <ele>206.82</ele>
        <time>2011-03-20T07:29:47Z</time>
      </trkpt>
      <trkpt lat="44.81609" lon="1.6113">
        <ele>207.3</ele>
        <time>2011-03-20T07:29:54Z</time>
      </trkpt>
      <trkpt lat="44.8161" lon="1.61127">
        <ele>207.3</ele>
        <time>2011-03-20T07:29:57Z</time>
      </trkpt>
      <trkpt lat="44.81614" lon="1.61121">
        <ele>208.26</ele>
        <time>2011-03-20T07:30:02Z</time>
      </trkpt>
      <trkpt lat="44.81622" lon="1.61111">
        <ele>208.74</ele>
        <time>2011-03-20T07:30:08Z</time>
      </trkpt>
      <trkpt lat="44.81623" lon="1.61108">
        <ele>208.74</ele>
        <time>2011-03-20T07:30:09Z</time>
      </trkpt>
      <trkpt lat="44.81627" lon="1.611">
        <ele>209.7</ele>
        <time>2011-03-20T07:30:15Z</time>
      </trkpt>
      <trkpt lat="44.81629" lon="1.61088">
        <ele>210.67</ele>
        <time>2011-03-20T07:30:21Z</time>
      </trkpt>
      <trkpt lat="44.81634" lon="1.6108">
        <ele>210.67</ele>
        <time>2011-03-20T07:30:27Z</time>
      </trkpt>
      <trkpt lat="44.8164" lon="1.6107">
        <ele>211.63</ele>
        <time>2011-03-20T07:30:33Z</time>
      </trkpt>
      <trkpt lat="44.81645" lon="1.61063">
        <ele>212.11</ele>
        <time>2011-03-20T07:30:37Z</time>
      </trkpt>
      <trkpt lat="44.81652" lon="1.61052">
        <ele>212.11</ele>
        <time>2011-03-20T07:30:45Z</time>
      </trkpt>
      <trkpt lat="44.81657" lon="1.61042">
        <ele>213.07</ele>
        <time>2011-03-20T07:30:51Z</time>
      </trkpt>
      <trkpt lat="44.81666" lon="1.61034">
        <ele>214.51</ele>
        <time>2011-03-20T07:30:59Z</time>
      </trkpt>
      <trkpt lat="44.8167" lon="1.61026">
        <ele>214.99</ele>
        <time>2011-03-20T07:31:04Z</time>
      </trkpt>
      <trkpt lat="44.81676" lon="1.61017">
        <ele>216.43</ele>
        <time>2011-03-20T07:31:10Z</time>
      </trkpt>
      <trkpt lat="44.81682" lon="1.6101">
        <ele>216.43</ele>
        <time>2011-03-20T07:31:15Z</time>
      </trkpt>
      <trkpt lat="44.81686" lon="1.61003">
        <ele>216.91</ele>
        <time>2011-03-20T07:31:19Z</time>
      </trkpt>
      <trkpt lat="44.81693" lon="1.60993">
        <ele>217.88</ele>
        <time>2011-03-20T07:31:26Z</time>
      </trkpt>
      <trkpt lat="44.817" lon="1.60984">
        <ele>218.84</ele>
        <time>2011-03-20T07:31:32Z</time>
      </trkpt>
      <trkpt lat="44.81702" lon="1.60983">
        <ele>218.84</ele>
        <time>2011-03-20T07:31:34Z</time>
      </trkpt>
      <trkpt lat="44.81709" lon="1.60971">
        <ele>219.8</ele>
        <time>2011-03-20T07:31:41Z</time>
      </trkpt>
      <trkpt lat="44.81712" lon="1.60965">
        <ele>220.28</ele>
        <time>2011-03-20T07:31:45Z</time>
      </trkpt>
      <trkpt lat="44.81718" lon="1.60955">
        <ele>221.72</ele>
        <time>2011-03-20T07:31:53Z</time>
      </trkpt>
      <trkpt lat="44.81722" lon="1.60945">
        <ele>222.68</ele>
        <time>2011-03-20T07:31:59Z</time>
      </trkpt>
      <trkpt lat="44.81727" lon="1.60936">
        <ele>224.12</ele>
        <time>2011-03-20T07:32:06Z</time>
      </trkpt>
      <trkpt lat="44.8173" lon="1.60933">
        <ele>224.12</ele>
        <time>2011-03-20T07:32:08Z</time>
      </trkpt>
      <trkpt lat="44.81736" lon="1.60924">
        <ele>224.61</ele>
        <time>2011-03-20T07:32:15Z</time>
      </trkpt>
      <trkpt lat="44.81748" lon="1.60912">
        <ele>225.57</ele>
        <time>2011-03-20T07:32:23Z</time>
      </trkpt>
      <trkpt lat="44.81754" lon="1.60906">
        <ele>226.53</ele>
        <time>2011-03-20T07:32:29Z</time>
      </trkpt>
      <trkpt lat="44.8176" lon="1.60899">
        <ele>227.01</ele>
        <time>2011-03-20T07:32:33Z</time>
      </trkpt>
      <trkpt lat="44.81761" lon="1.60895">
        <ele>227.01</ele>
        <time>2011-03-20T07:32:35Z</time>
      </trkpt>
      <trkpt lat="44.81771" lon="1.6088">
        <ele>227.97</ele>
        <time>2011-03-20T07:32:45Z</time>
      </trkpt>
      <trkpt lat="44.81772" lon="1.60878">
        <ele>228.45</ele>
        <time>2011-03-20T07:32:47Z</time>
      </trkpt>
      <trkpt lat="44.81777" lon="1.60868">
        <ele>228.93</ele>
        <time>2011-03-20T07:32:54Z</time>
      </trkpt>
      <trkpt lat="44.81778" lon="1.60867">
        <ele>228.93</ele>
        <time>2011-03-20T07:32:55Z</time>
      </trkpt>
      <trkpt lat="44.81784" lon="1.60857">
        <ele>229.89</ele>
        <time>2011-03-20T07:33:03Z</time>
      </trkpt>
      <trkpt lat="44.81793" lon="1.60842">
        <ele>230.85</ele>
        <time>2011-03-20T07:33:11Z</time>
      </trkpt>
      <trkpt lat="44.81798" lon="1.60835">
        <ele>231.81</ele>
        <time>2011-03-20T07:33:17Z</time>
      </trkpt>
      <trkpt lat="44.81806" lon="1.60825">
        <ele>232.3</ele>
        <time>2011-03-20T07:33:23Z</time>
      </trkpt>
      <trkpt lat="44.81811" lon="1.60818">
        <ele>233.26</ele>
        <time>2011-03-20T07:33:30Z</time>
      </trkpt>
      <trkpt lat="44.81813" lon="1.60813">
        <ele>233.26</ele>
        <time>2011-03-20T07:33:34Z</time>
      </trkpt>
      <trkpt lat="44.8182" lon="1.60802">
        <ele>234.22</ele>
        <time>2011-03-20T07:33:39Z</time>
      </trkpt>
      <trkpt lat="44.81832" lon="1.60787">
        <ele>234.22</ele>
        <time>2011-03-20T07:33:48Z</time>
      </trkpt>
      <trkpt lat="44.81838" lon="1.60781">
        <ele>235.18</ele>
        <time>2011-03-20T07:33:53Z</time>
      </trkpt>
      <trkpt lat="44.81845" lon="1.60775">
        <ele>235.66</ele>
        <time>2011-03-20T07:33:59Z</time>
      </trkpt>
      <trkpt lat="44.81853" lon="1.60761">
        <ele>236.62</ele>
        <time>2011-03-20T07:34:06Z</time>
      </trkpt>
      <trkpt lat="44.81854" lon="1.60759">
        <ele>236.62</ele>
        <time>2011-03-20T07:34:08Z</time>
      </trkpt>
      <trkpt lat="44.81856" lon="1.60757">
        <ele>236.62</ele>
        <time>2011-03-20T07:34:10Z</time>
      </trkpt>
      <trkpt lat="44.8186" lon="1.60752">
        <ele>237.1</ele>
        <time>2011-03-20T07:34:13Z</time>
      </trkpt>
      <trkpt lat="44.81865" lon="1.60743">
        <ele>237.58</ele>
        <time>2011-03-20T07:34:19Z</time>
      </trkpt>
      <trkpt lat="44.81866" lon="1.6074">
        <ele>238.06</ele>
        <time>2011-03-20T07:34:21Z</time>
      </trkpt>
      <trkpt lat="44.81873" lon="1.6073">
        <ele>238.54</ele>
        <time>2011-03-20T07:34:27Z</time>
      </trkpt>
      <trkpt lat="44.81876" lon="1.60724">
        <ele>239.02</ele>
        <time>2011-03-20T07:34:31Z</time>
      </trkpt>
      <trkpt lat="44.81887" lon="1.60716">
        <ele>239.99</ele>
        <time>2011-03-20T07:34:39Z</time>
      </trkpt>
      <trkpt lat="44.81891" lon="1.60706">
        <ele>240.95</ele>
        <time>2011-03-20T07:34:46Z</time>
      </trkpt>
      <trkpt lat="44.81896" lon="1.60699">
        <ele>240.95</ele>
        <time>2011-03-20T07:34:51Z</time>
      </trkpt>
      <trkpt lat="44.81902" lon="1.60687">
        <ele>241.43</ele>
        <time>2011-03-20T07:34:58Z</time>
      </trkpt>
      <trkpt lat="44.81913" lon="1.60672">
        <ele>242.39</ele>
        <time>2011-03-20T07:35:07Z</time>
      </trkpt>
      <trkpt lat="44.81916" lon="1.60664">
        <ele>242.39</ele>
        <time>2011-03-20T07:35:13Z</time>
      </trkpt>
      <trkpt lat="44.81918" lon="1.6066">
        <ele>242.87</ele>
        <time>2011-03-20T07:35:16Z</time>
      </trkpt>
      <trkpt lat="44.81923" lon="1.60653">
        <ele>242.87</ele>
        <time>2011-03-20T07:35:19Z</time>
      </trkpt>
      <trkpt lat="44.81929" lon="1.60643">
        <ele>243.35</ele>
        <time>2011-03-20T07:35:25Z</time>
      </trkpt>
      <trkpt lat="44.81934" lon="1.60636">
        <ele>243.35</ele>
        <time>2011-03-20T07:35:30Z</time>
      </trkpt>
      <trkpt lat="44.81939" lon="1.60629">
        <ele>243.83</ele>
        <time>2011-03-20T07:35:34Z</time>
      </trkpt>
      <trkpt lat="44.81942" lon="1.60625">
        <ele>243.83</ele>
        <time>2011-03-20T07:35:36Z</time>
      </trkpt>
      <trkpt lat="44.81942" lon="1.60621">
        <ele>244.31</ele>
        <time>2011-03-20T07:35:38Z</time>
      </trkpt>
      <trkpt lat="44.81949" lon="1.60616">
        <ele>244.79</ele>
        <time>2011-03-20T07:35:44Z</time>
      </trkpt>
      <trkpt lat="44.81957" lon="1.60606">
        <ele>244.79</ele>
        <time>2011-03-20T07:35:52Z</time>
      </trkpt>
      <trkpt lat="44.81961" lon="1.60598">
        <ele>245.75</ele>
        <time>2011-03-20T07:35:56Z</time>
      </trkpt>
      <trkpt lat="44.81967" lon="1.60589">
        <ele>245.75</ele>
        <time>2011-03-20T07:36:03Z</time>
      </trkpt>
      <trkpt lat="44.81971" lon="1.60582">
        <ele>246.23</ele>
        <time>2011-03-20T07:36:07Z</time>
      </trkpt>
      <trkpt lat="44.81978" lon="1.60573">
        <ele>245.27</ele>
        <time>2011-03-20T07:36:13Z</time>
      </trkpt>
      <trkpt lat="44.81987" lon="1.60558">
        <ele>245.75</ele>
        <time>2011-03-20T07:36:20Z</time>
      </trkpt>
      <trkpt lat="44.81993" lon="1.60551">
        <ele>246.23</ele>
        <time>2011-03-20T07:36:24Z</time>
      </trkpt>
      <trkpt lat="44.81995" lon="1.60547">
        <ele>245.75</ele>
        <time>2011-03-20T07:36:28Z</time>
      </trkpt>
      <trkpt lat="44.81998" lon="1.60541">
        <ele>245.75</ele>
        <time>2011-03-20T07:36:32Z</time>
      </trkpt>
      <trkpt lat="44.82006" lon="1.60533">
        <ele>245.75</ele>
        <time>2011-03-20T07:36:37Z</time>
      </trkpt>
      <trkpt lat="44.8201" lon="1.60525">
        <ele>245.75</ele>
        <time>2011-03-20T07:36:41Z</time>
      </trkpt>
      <trkpt lat="44.82013" lon="1.60521">
        <ele>245.27</ele>
        <time>2011-03-20T07:36:45Z</time>
      </trkpt>
      <trkpt lat="44.82021" lon="1.60514">
        <ele>245.75</ele>
        <time>2011-03-20T07:36:53Z</time>
      </trkpt>
      <trkpt lat="44.82025" lon="1.60508">
        <ele>245.27</ele>
        <time>2011-03-20T07:36:57Z</time>
      </trkpt>
      <trkpt lat="44.8203" lon="1.605">
        <ele>245.75</ele>
        <time>2011-03-20T07:37:01Z</time>
      </trkpt>
      <trkpt lat="44.82038" lon="1.60485">
        <ele>245.27</ele>
        <time>2011-03-20T07:37:08Z</time>
      </trkpt>
      <trkpt lat="44.82039" lon="1.60483">
        <ele>245.27</ele>
        <time>2011-03-20T07:37:09Z</time>
      </trkpt>
      <trkpt lat="44.82044" lon="1.60479">
        <ele>245.27</ele>
        <time>2011-03-20T07:37:15Z</time>
      </trkpt>
      <trkpt lat="44.82051" lon="1.60472">
        <ele>244.79</ele>
        <time>2011-03-20T07:37:22Z</time>
      </trkpt>
      <trkpt lat="44.82057" lon="1.60464">
        <ele>245.27</ele>
        <time>2011-03-20T07:37:26Z</time>
      </trkpt>
      <trkpt lat="44.82064" lon="1.60455">
        <ele>245.27</ele>
        <time>2011-03-20T07:37:30Z</time>
      </trkpt>
      <trkpt lat="44.82066" lon="1.60449">
        <ele>245.27</ele>
        <time>2011-03-20T07:37:32Z</time>
      </trkpt>
      <trkpt lat="44.82072" lon="1.60442">
        <ele>245.27</ele>
        <time>2011-03-20T07:37:37Z</time>
      </trkpt>
      <trkpt lat="44.82074" lon="1.60436">
        <ele>244.79</ele>
        <time>2011-03-20T07:37:43Z</time>
      </trkpt>
      <trkpt lat="44.82075" lon="1.60435">
        <ele>245.27</ele>
        <time>2011-03-20T07:37:45Z</time>
      </trkpt>
      <trkpt lat="44.82084" lon="1.60425">
        <ele>245.27</ele>
        <time>2011-03-20T07:37:50Z</time>
      </trkpt>
      <trkpt lat="44.82087" lon="1.60421">
        <ele>245.75</ele>
        <time>2011-03-20T07:37:52Z</time>
      </trkpt>
      <trkpt lat="44.82084" lon="1.60416">
        <ele>246.23</ele>
        <time>2011-03-20T07:37:56Z</time>
      </trkpt>
      <trkpt lat="44.82074" lon="1.60421">
        <ele>246.72</ele>
        <time>2011-03-20T07:38:02Z</time>
      </trkpt>
      <trkpt lat="44.82061" lon="1.60423">
        <ele>247.68</ele>
        <time>2011-03-20T07:38:09Z</time>
      </trkpt>
      <trkpt lat="44.82054" lon="1.60421">
        <ele>248.16</ele>
        <time>2011-03-20T07:38:15Z</time>
      </trkpt>
      <trkpt lat="44.82051" lon="1.60421">
        <ele>248.64</ele>
        <time>2011-03-20T07:38:18Z</time>
      </trkpt>
      <trkpt lat="44.82042" lon="1.60416">
        <ele>249.12</ele>
        <time>2011-03-20T07:38:24Z</time>
      </trkpt>
      <trkpt lat="44.82029" lon="1.60411">
        <ele>249.12</ele>
        <time>2011-03-20T07:38:31Z</time>
      </trkpt>
      <trkpt lat="44.82026" lon="1.60403">
        <ele>249.12</ele>
        <time>2011-03-20T07:38:36Z</time>
      </trkpt>
      <trkpt lat="44.82022" lon="1.60401">
        <ele>250.08</ele>
        <time>2011-03-20T07:38:39Z</time>
      </trkpt>
      <trkpt lat="44.82014" lon="1.60399">
        <ele>249.6</ele>
        <time>2011-03-20T07:38:43Z</time>
      </trkpt>
      <trkpt lat="44.82003" lon="1.60393">
        <ele>250.08</ele>
        <time>2011-03-20T07:38:51Z</time>
      </trkpt>
      <trkpt lat="44.81996" lon="1.60391">
        <ele>251.04</ele>
        <time>2011-03-20T07:38:58Z</time>
      </trkpt>
      <trkpt lat="44.81994" lon="1.6039">
        <ele>251.04</ele>
        <time>2011-03-20T07:38:59Z</time>
      </trkpt>
      <trkpt lat="44.81987" lon="1.60385">
        <ele>251.52</ele>
        <time>2011-03-20T07:39:04Z</time>
      </trkpt>
      <trkpt lat="44.81979" lon="1.60381">
        <ele>251.04</ele>
        <time>2011-03-20T07:39:08Z</time>
      </trkpt>
      <trkpt lat="44.81976" lon="1.6038">
        <ele>251.52</ele>
        <time>2011-03-20T07:39:10Z</time>
      </trkpt>
      <trkpt lat="44.81968" lon="1.60375">
        <ele>251.52</ele>
        <time>2011-03-20T07:39:16Z</time>
      </trkpt>
      <trkpt lat="44.81966" lon="1.60373">
        <ele>252</ele>
        <time>2011-03-20T07:39:18Z</time>
      </trkpt>
      <trkpt lat="44.81964" lon="1.60371">
        <ele>252</ele>
        <time>2011-03-20T07:39:21Z</time>
      </trkpt>
      <trkpt lat="44.81957" lon="1.60369">
        <ele>252.48</ele>
        <time>2011-03-20T07:39:26Z</time>
      </trkpt>
      <trkpt lat="44.81948" lon="1.60362">
        <ele>252</ele>
        <time>2011-03-20T07:39:32Z</time>
      </trkpt>
      <trkpt lat="44.81935" lon="1.60355">
        <ele>252</ele>
        <time>2011-03-20T07:39:38Z</time>
      </trkpt>
      <trkpt lat="44.8193" lon="1.60345">
        <ele>252</ele>
        <time>2011-03-20T07:39:44Z</time>
      </trkpt>
      <trkpt lat="44.81925" lon="1.60343">
        <ele>252.48</ele>
        <time>2011-03-20T07:39:51Z</time>
      </trkpt>
      <trkpt lat="44.8192" lon="1.60343">
        <ele>252.48</ele>
        <time>2011-03-20T07:39:54Z</time>
      </trkpt>
      <trkpt lat="44.81915" lon="1.60341">
        <ele>252.48</ele>
        <time>2011-03-20T07:39:58Z</time>
      </trkpt>
      <trkpt lat="44.81896" lon="1.60331">
        <ele>252.96</ele>
        <time>2011-03-20T07:40:07Z</time>
      </trkpt>
      <trkpt lat="44.81887" lon="1.60325">
        <ele>252.96</ele>
        <time>2011-03-20T07:40:13Z</time>
      </trkpt>
      <trkpt lat="44.81882" lon="1.60321">
        <ele>252.96</ele>
        <time>2011-03-20T07:40:18Z</time>
      </trkpt>
      <trkpt lat="44.81881" lon="1.6032">
        <ele>252.96</ele>
        <time>2011-03-20T07:40:20Z</time>
      </trkpt>
      <trkpt lat="44.81877" lon="1.60316">
        <ele>253.44</ele>
        <time>2011-03-20T07:40:24Z</time>
      </trkpt>
      <trkpt lat="44.81872" lon="1.60314">
        <ele>252.96</ele>
        <time>2011-03-20T07:40:28Z</time>
      </trkpt>
      <trkpt lat="44.81866" lon="1.60313">
        <ele>253.44</ele>
        <time>2011-03-20T07:40:32Z</time>
      </trkpt>
      <trkpt lat="44.81861" lon="1.6031">
        <ele>253.44</ele>
        <time>2011-03-20T07:40:35Z</time>
      </trkpt>
      <trkpt lat="44.81855" lon="1.60306">
        <ele>253.93</ele>
        <time>2011-03-20T07:40:39Z</time>
      </trkpt>
      <trkpt lat="44.8184" lon="1.60295">
        <ele>253.93</ele>
        <time>2011-03-20T07:40:46Z</time>
      </trkpt>
      <trkpt lat="44.8183" lon="1.60291">
        <ele>254.41</ele>
        <time>2011-03-20T07:40:52Z</time>
      </trkpt>
      <trkpt lat="44.81823" lon="1.60287">
        <ele>254.41</ele>
        <time>2011-03-20T07:40:57Z</time>
      </trkpt>
      <trkpt lat="44.81814" lon="1.60286">
        <ele>254.89</ele>
        <time>2011-03-20T07:41:03Z</time>
      </trkpt>
      <trkpt lat="44.81808" lon="1.60283">
        <ele>255.37</ele>
        <time>2011-03-20T07:41:08Z</time>
      </trkpt>
      <trkpt lat="44.81802" lon="1.6028">
        <ele>255.85</ele>
        <time>2011-03-20T07:41:13Z</time>
      </trkpt>
      <trkpt lat="44.81793" lon="1.60275">
        <ele>255.85</ele>
        <time>2011-03-20T07:41:18Z</time>
      </trkpt>
      <trkpt lat="44.81786" lon="1.6027">
        <ele>256.33</ele>
        <time>2011-03-20T07:41:23Z</time>
      </trkpt>
      <trkpt lat="44.81773" lon="1.60269">
        <ele>256.33</ele>
        <time>2011-03-20T07:41:30Z</time>
      </trkpt>
      <trkpt lat="44.81768" lon="1.60266">
        <ele>256.81</ele>
        <time>2011-03-20T07:41:34Z</time>
      </trkpt>
      <trkpt lat="44.81759" lon="1.60261">
        <ele>256.33</ele>
        <time>2011-03-20T07:41:41Z</time>
      </trkpt>
      <trkpt lat="44.81745" lon="1.60252">
        <ele>256.33</ele>
        <time>2011-03-20T07:41:51Z</time>
      </trkpt>
      <trkpt lat="44.81744" lon="1.60252">
        <ele>256.33</ele>
        <time>2011-03-20T07:41:52Z</time>
      </trkpt>
      <trkpt lat="44.81742" lon="1.60251">
        <ele>256.33</ele>
        <time>2011-03-20T07:41:54Z</time>
      </trkpt>
      <trkpt lat="44.8174" lon="1.6025">
        <ele>256.81</ele>
        <time>2011-03-20T07:41:56Z</time>
      </trkpt>
      <trkpt lat="44.81727" lon="1.60252">
        <ele>255.37</ele>
        <time>2011-03-20T07:42:05Z</time>
      </trkpt>
      <trkpt lat="44.81723" lon="1.60249">
        <ele>255.37</ele>
        <time>2011-03-20T07:42:10Z</time>
      </trkpt>
      <trkpt lat="44.81715" lon="1.60248">
        <ele>255.85</ele>
        <time>2011-03-20T07:42:13Z</time>
      </trkpt>
      <trkpt lat="44.81707" lon="1.6025">
        <ele>255.37</ele>
        <time>2011-03-20T07:42:17Z</time>
      </trkpt>
      <trkpt lat="44.81686" lon="1.60249">
        <ele>254.41</ele>
        <time>2011-03-20T07:42:27Z</time>
      </trkpt>
      <trkpt lat="44.81676" lon="1.60246">
        <ele>253.93</ele>
        <time>2011-03-20T07:42:33Z</time>
      </trkpt>
      <trkpt lat="44.81661" lon="1.60245">
        <ele>252.96</ele>
        <time>2011-03-20T07:42:41Z</time>
      </trkpt>
      <trkpt lat="44.81655" lon="1.60244">
        <ele>252.96</ele>
        <time>2011-03-20T07:42:45Z</time>
      </trkpt>
      <trkpt lat="44.81649" lon="1.60242">
        <ele>252.48</ele>
        <time>2011-03-20T07:42:51Z</time>
      </trkpt>
      <trkpt lat="44.8164" lon="1.60239">
        <ele>252.48</ele>
        <time>2011-03-20T07:42:58Z</time>
      </trkpt>
      <trkpt lat="44.81631" lon="1.60236">
        <ele>253.44</ele>
        <time>2011-03-20T07:43:04Z</time>
      </trkpt>
      <trkpt lat="44.81625" lon="1.60234">
        <ele>253.93</ele>
        <time>2011-03-20T07:43:10Z</time>
      </trkpt>
      <trkpt lat="44.81621" lon="1.60234">
        <ele>253.93</ele>
        <time>2011-03-20T07:43:12Z</time>
      </trkpt>
      <trkpt lat="44.8161" lon="1.60233">
        <ele>254.41</ele>
        <time>2011-03-20T07:43:18Z</time>
      </trkpt>
      <trkpt lat="44.81603" lon="1.60232">
        <ele>254.41</ele>
        <time>2011-03-20T07:43:21Z</time>
      </trkpt>
      <trkpt lat="44.81589" lon="1.60233">
        <ele>253.44</ele>
        <time>2011-03-20T07:43:30Z</time>
      </trkpt>
      <trkpt lat="44.81572" lon="1.60238">
        <ele>252.96</ele>
        <time>2011-03-20T07:43:39Z</time>
      </trkpt>
      <trkpt lat="44.81562" lon="1.60241">
        <ele>252</ele>
        <time>2011-03-20T07:43:45Z</time>
      </trkpt>
      <trkpt lat="44.81549" lon="1.60245">
        <ele>251.04</ele>
        <time>2011-03-20T07:43:53Z</time>
      </trkpt>
      <trkpt lat="44.81536" lon="1.60251">
        <ele>250.56</ele>
        <time>2011-03-20T07:44:00Z</time>
      </trkpt>
      <trkpt lat="44.81527" lon="1.60252">
        <ele>249.6</ele>
        <time>2011-03-20T07:44:06Z</time>
      </trkpt>
      <trkpt lat="44.8152" lon="1.60251">
        <ele>250.08</ele>
        <time>2011-03-20T07:44:11Z</time>
      </trkpt>
      <trkpt lat="44.81514" lon="1.60252">
        <ele>249.6</ele>
        <time>2011-03-20T07:44:17Z</time>
      </trkpt>
      <trkpt lat="44.81502" lon="1.60257">
        <ele>250.56</ele>
        <time>2011-03-20T07:44:25Z</time>
      </trkpt>
      <trkpt lat="44.81499" lon="1.60258">
        <ele>251.04</ele>
        <time>2011-03-20T07:44:27Z</time>
      </trkpt>
      <trkpt lat="44.81489" lon="1.60264">
        <ele>249.6</ele>
        <time>2011-03-20T07:44:35Z</time>
      </trkpt>
      <trkpt lat="44.81477" lon="1.60265">
        <ele>249.6</ele>
        <time>2011-03-20T07:44:41Z</time>
      </trkpt>
      <trkpt lat="44.81466" lon="1.60267">
        <ele>249.6</ele>
        <time>2011-03-20T07:44:47Z</time>
      </trkpt>
      <trkpt lat="44.81459" lon="1.6027">
        <ele>250.08</ele>
        <time>2011-03-20T07:44:52Z</time>
      </trkpt>
      <trkpt lat="44.81444" lon="1.60276">
        <ele>249.6</ele>
        <time>2011-03-20T07:45:00Z</time>
      </trkpt>
      <trkpt lat="44.8143" lon="1.6028">
        <ele>248.64</ele>
        <time>2011-03-20T07:45:07Z</time>
      </trkpt>
      <trkpt lat="44.81423" lon="1.60284">
        <ele>248.64</ele>
        <time>2011-03-20T07:45:11Z</time>
      </trkpt>
      <trkpt lat="44.81413" lon="1.60285">
        <ele>248.16</ele>
        <time>2011-03-20T07:45:17Z</time>
      </trkpt>
      <trkpt lat="44.81408" lon="1.60285">
        <ele>248.16</ele>
        <time>2011-03-20T07:45:20Z</time>
      </trkpt>
      <trkpt lat="44.81398" lon="1.60291">
        <ele>247.2</ele>
        <time>2011-03-20T07:45:27Z</time>
      </trkpt>
      <trkpt lat="44.81391" lon="1.60293">
        <ele>246.72</ele>
        <time>2011-03-20T07:45:32Z</time>
      </trkpt>
      <trkpt lat="44.81383" lon="1.60298">
        <ele>246.72</ele>
        <time>2011-03-20T07:45:38Z</time>
      </trkpt>
      <trkpt lat="44.81375" lon="1.60302">
        <ele>246.72</ele>
        <time>2011-03-20T07:45:43Z</time>
      </trkpt>
      <trkpt lat="44.81366" lon="1.60305">
        <ele>246.23</ele>
        <time>2011-03-20T07:45:49Z</time>
      </trkpt>
      <trkpt lat="44.81359" lon="1.60315">
        <ele>244.79</ele>
        <time>2011-03-20T07:45:57Z</time>
      </trkpt>
      <trkpt lat="44.81358" lon="1.60318">
        <ele>244.31</ele>
        <time>2011-03-20T07:45:59Z</time>
      </trkpt>
      <trkpt lat="44.81347" lon="1.60325">
        <ele>243.83</ele>
        <time>2011-03-20T07:46:05Z</time>
      </trkpt>
      <trkpt lat="44.81337" lon="1.60334">
        <ele>244.31</ele>
        <time>2011-03-20T07:46:11Z</time>
      </trkpt>
      <trkpt lat="44.81336" lon="1.60338">
        <ele>244.31</ele>
        <time>2011-03-20T07:46:12Z</time>
      </trkpt>
      <trkpt lat="44.81329" lon="1.60346">
        <ele>244.79</ele>
        <time>2011-03-20T07:46:19Z</time>
      </trkpt>
      <trkpt lat="44.81325" lon="1.60349">
        <ele>244.79</ele>
        <time>2011-03-20T07:46:23Z</time>
      </trkpt>
      <trkpt lat="44.8132" lon="1.60354">
        <ele>244.79</ele>
        <time>2011-03-20T07:46:27Z</time>
      </trkpt>
      <trkpt lat="44.81317" lon="1.60356">
        <ele>244.31</ele>
        <time>2011-03-20T07:46:30Z</time>
      </trkpt>
      <trkpt lat="44.81314" lon="1.6036">
        <ele>243.83</ele>
        <time>2011-03-20T07:46:33Z</time>
      </trkpt>
      <trkpt lat="44.81307" lon="1.60371">
        <ele>243.35</ele>
        <time>2011-03-20T07:46:39Z</time>
      </trkpt>
      <trkpt lat="44.81306" lon="1.60372">
        <ele>243.83</ele>
        <time>2011-03-20T07:46:40Z</time>
      </trkpt>
      <trkpt lat="44.81297" lon="1.60382">
        <ele>243.83</ele>
        <time>2011-03-20T07:46:47Z</time>
      </trkpt>
      <trkpt lat="44.81289" lon="1.60387">
        <ele>243.83</ele>
        <time>2011-03-20T07:46:52Z</time>
      </trkpt>
      <trkpt lat="44.81284" lon="1.60392">
        <ele>242.39</ele>
        <time>2011-03-20T07:46:56Z</time>
      </trkpt>
      <trkpt lat="44.81274" lon="1.60404">
        <ele>242.39</ele>
        <time>2011-03-20T07:47:03Z</time>
      </trkpt>
      <trkpt lat="44.81268" lon="1.60412">
        <ele>241.91</ele>
        <time>2011-03-20T07:47:08Z</time>
      </trkpt>
      <trkpt lat="44.81265" lon="1.60415">
        <ele>241.91</ele>
        <time>2011-03-20T07:47:11Z</time>
      </trkpt>
      <trkpt lat="44.81263" lon="1.60417">
        <ele>241.43</ele>
        <time>2011-03-20T07:47:13Z</time>
      </trkpt>
      <trkpt lat="44.81253" lon="1.60424">
        <ele>240.95</ele>
        <time>2011-03-20T07:47:19Z</time>
      </trkpt>
      <trkpt lat="44.81249" lon="1.6043">
        <ele>240.47</ele>
        <time>2011-03-20T07:47:22Z</time>
      </trkpt>
      <trkpt lat="44.81238" lon="1.60439">
        <ele>240.47</ele>
        <time>2011-03-20T07:47:29Z</time>
      </trkpt>
      <trkpt lat="44.81233" lon="1.60444">
        <ele>240.95</ele>
        <time>2011-03-20T07:47:33Z</time>
      </trkpt>
      <trkpt lat="44.81226" lon="1.6045">
        <ele>240.47</ele>
        <time>2011-03-20T07:47:38Z</time>
      </trkpt>
      <trkpt lat="44.81221" lon="1.6046">
        <ele>239.02</ele>
        <time>2011-03-20T07:47:44Z</time>
      </trkpt>
      <trkpt lat="44.81212" lon="1.60462">
        <ele>239.51</ele>
        <time>2011-03-20T07:47:48Z</time>
      </trkpt>
      <trkpt lat="44.81207" lon="1.60462">
        <ele>238.54</ele>
        <time>2011-03-20T07:47:50Z</time>
      </trkpt>
      <trkpt lat="44.812" lon="1.6046">
        <ele>233.74</ele>
        <time>2011-03-20T07:47:54Z</time>
      </trkpt>
      <trkpt lat="44.81198" lon="1.60455">
        <ele>235.18</ele>
        <time>2011-03-20T07:47:57Z</time>
      </trkpt>
      <trkpt lat="44.81189" lon="1.60441">
        <ele>236.62</ele>
        <time>2011-03-20T07:48:04Z</time>
      </trkpt>
      <trkpt lat="44.81187" lon="1.60438">
        <ele>236.62</ele>
        <time>2011-03-20T07:48:06Z</time>
      </trkpt>
      <trkpt lat="44.81181" lon="1.60423">
        <ele>237.58</ele>
        <time>2011-03-20T07:48:14Z</time>
      </trkpt>
      <trkpt lat="44.81178" lon="1.60418">
        <ele>237.1</ele>
        <time>2011-03-20T07:48:19Z</time>
      </trkpt>
      <trkpt lat="44.81177" lon="1.60413">
        <ele>236.62</ele>
        <time>2011-03-20T07:48:21Z</time>
      </trkpt>
      <trkpt lat="44.81172" lon="1.60389">
        <ele>236.62</ele>
        <time>2011-03-20T07:48:30Z</time>
      </trkpt>
      <trkpt lat="44.81169" lon="1.60375">
        <ele>237.1</ele>
        <time>2011-03-20T07:48:37Z</time>
      </trkpt>
      <trkpt lat="44.81167" lon="1.60359">
        <ele>239.02</ele>
        <time>2011-03-20T07:48:44Z</time>
      </trkpt>
      <trkpt lat="44.81165" lon="1.6035">
        <ele>239.99</ele>
        <time>2011-03-20T07:48:48Z</time>
      </trkpt>
      <trkpt lat="44.81162" lon="1.60337">
        <ele>239.99</ele>
        <time>2011-03-20T07:48:54Z</time>
      </trkpt>
      <trkpt lat="44.81162" lon="1.60329">
        <ele>240.95</ele>
        <time>2011-03-20T07:49:01Z</time>
      </trkpt>
      <trkpt lat="44.81164" lon="1.60319">
        <ele>240.95</ele>
        <time>2011-03-20T07:49:11Z</time>
      </trkpt>
      <trkpt lat="44.81157" lon="1.60291">
        <ele>241.91</ele>
        <time>2011-03-20T07:49:19Z</time>
      </trkpt>
      <trkpt lat="44.81157" lon="1.60287">
        <ele>240.95</ele>
        <time>2011-03-20T07:49:20Z</time>
      </trkpt>
      <trkpt lat="44.81152" lon="1.60272">
        <ele>240.95</ele>
        <time>2011-03-20T07:49:26Z</time>
      </trkpt>
      <trkpt lat="44.81148" lon="1.60263">
        <ele>240.47</ele>
        <time>2011-03-20T07:49:32Z</time>
      </trkpt>
      <trkpt lat="44.81147" lon="1.60258">
        <ele>240.47</ele>
        <time>2011-03-20T07:49:37Z</time>
      </trkpt>
      <trkpt lat="44.81143" lon="1.60248">
        <ele>239.99</ele>
        <time>2011-03-20T07:49:44Z</time>
      </trkpt>
      <trkpt lat="44.81139" lon="1.60234">
        <ele>239.51</ele>
        <time>2011-03-20T07:49:53Z</time>
      </trkpt>
      <trkpt lat="44.81137" lon="1.6022">
        <ele>239.99</ele>
        <time>2011-03-20T07:49:59Z</time>
      </trkpt>
      <trkpt lat="44.81131" lon="1.60205">
        <ele>239.99</ele>
        <time>2011-03-20T07:50:05Z</time>
      </trkpt>
      <trkpt lat="44.81127" lon="1.60189">
        <ele>240.47</ele>
        <time>2011-03-20T07:50:09Z</time>
      </trkpt>
      <trkpt lat="44.81122" lon="1.60175">
        <ele>240.47</ele>
        <time>2011-03-20T07:50:12Z</time>
      </trkpt>
      <trkpt lat="44.8112" lon="1.60169">
        <ele>240.95</ele>
        <time>2011-03-20T07:50:15Z</time>
      </trkpt>
      <trkpt lat="44.81116" lon="1.60158">
        <ele>240.95</ele>
        <time>2011-03-20T07:50:19Z</time>
      </trkpt>
      <trkpt lat="44.81115" lon="1.60155">
        <ele>241.43</ele>
        <time>2011-03-20T07:50:21Z</time>
      </trkpt>
      <trkpt lat="44.81118" lon="1.60153">
        <ele>241.43</ele>
        <time>2011-03-20T07:50:27Z</time>
      </trkpt>
      <trkpt lat="44.81117" lon="1.60151">
        <ele>240.95</ele>
        <time>2011-03-20T07:50:29Z</time>
      </trkpt>
      <trkpt lat="44.81117" lon="1.60146">
        <ele>241.43</ele>
        <time>2011-03-20T07:50:31Z</time>
      </trkpt>
      <trkpt lat="44.8111" lon="1.60121">
        <ele>241.43</ele>
        <time>2011-03-20T07:50:39Z</time>
      </trkpt>
      <trkpt lat="44.81108" lon="1.6011">
        <ele>241.91</ele>
        <time>2011-03-20T07:50:44Z</time>
      </trkpt>
      <trkpt lat="44.81103" lon="1.60099">
        <ele>241.91</ele>
        <time>2011-03-20T07:50:53Z</time>
      </trkpt>
      <trkpt lat="44.811" lon="1.6009">
        <ele>242.39</ele>
        <time>2011-03-20T07:50:59Z</time>
      </trkpt>
      <trkpt lat="44.81098" lon="1.60083">
        <ele>241.91</ele>
        <time>2011-03-20T07:51:04Z</time>
      </trkpt>
      <trkpt lat="44.81092" lon="1.6007">
        <ele>242.39</ele>
        <time>2011-03-20T07:51:09Z</time>
      </trkpt>
      <trkpt lat="44.81083" lon="1.60054">
        <ele>241.91</ele>
        <time>2011-03-20T07:51:16Z</time>
      </trkpt>
      <trkpt lat="44.81076" lon="1.60035">
        <ele>241.43</ele>
        <time>2011-03-20T07:51:23Z</time>
      </trkpt>
      <trkpt lat="44.81074" lon="1.60027">
        <ele>240.95</ele>
        <time>2011-03-20T07:51:26Z</time>
      </trkpt>
      <trkpt lat="44.81078" lon="1.60018">
        <ele>240.95</ele>
        <time>2011-03-20T07:51:30Z</time>
      </trkpt>
      <trkpt lat="44.81088" lon="1.60008">
        <ele>241.43</ele>
        <time>2011-03-20T07:51:38Z</time>
      </trkpt>
      <trkpt lat="44.81091" lon="1.60004">
        <ele>241.91</ele>
        <time>2011-03-20T07:51:45Z</time>
      </trkpt>
      <trkpt lat="44.81095" lon="1.59999">
        <ele>241.43</ele>
        <time>2011-03-20T07:51:51Z</time>
      </trkpt>
      <trkpt lat="44.81106" lon="1.59988">
        <ele>241.91</ele>
        <time>2011-03-20T07:51:57Z</time>
      </trkpt>
      <trkpt lat="44.81117" lon="1.59972">
        <ele>242.39</ele>
        <time>2011-03-20T07:52:08Z</time>
      </trkpt>
      <trkpt lat="44.81125" lon="1.59961">
        <ele>242.39</ele>
        <time>2011-03-20T07:52:16Z</time>
      </trkpt>
      <trkpt lat="44.81135" lon="1.59947">
        <ele>242.39</ele>
        <time>2011-03-20T07:52:26Z</time>
      </trkpt>
      <trkpt lat="44.81144" lon="1.59928">
        <ele>243.35</ele>
        <time>2011-03-20T07:52:37Z</time>
      </trkpt>
      <trkpt lat="44.81146" lon="1.59925">
        <ele>243.35</ele>
        <time>2011-03-20T07:52:40Z</time>
      </trkpt>
      <trkpt lat="44.81151" lon="1.59909">
        <ele>244.31</ele>
        <time>2011-03-20T07:52:47Z</time>
      </trkpt>
      <trkpt lat="44.81155" lon="1.59894">
        <ele>244.79</ele>
        <time>2011-03-20T07:52:54Z</time>
      </trkpt>
      <trkpt lat="44.8116" lon="1.59879">
        <ele>245.75</ele>
        <time>2011-03-20T07:53:02Z</time>
      </trkpt>
      <trkpt lat="44.81171" lon="1.59856">
        <ele>246.72</ele>
        <time>2011-03-20T07:53:11Z</time>
      </trkpt>
      <trkpt lat="44.81177" lon="1.59843">
        <ele>247.68</ele>
        <time>2011-03-20T07:53:18Z</time>
      </trkpt>
      <trkpt lat="44.81179" lon="1.59834">
        <ele>248.16</ele>
        <time>2011-03-20T07:53:22Z</time>
      </trkpt>
      <trkpt lat="44.81182" lon="1.59829">
        <ele>248.16</ele>
        <time>2011-03-20T07:53:25Z</time>
      </trkpt>
      <trkpt lat="44.81185" lon="1.59829">
        <ele>248.16</ele>
        <time>2011-03-20T07:53:27Z</time>
      </trkpt>
      <trkpt lat="44.81187" lon="1.59822">
        <ele>248.64</ele>
        <time>2011-03-20T07:53:30Z</time>
      </trkpt>
      <trkpt lat="44.81187" lon="1.59816">
        <ele>249.12</ele>
        <time>2011-03-20T07:53:33Z</time>
      </trkpt>
      <trkpt lat="44.81191" lon="1.59808">
        <ele>249.12</ele>
        <time>2011-03-20T07:53:37Z</time>
      </trkpt>
      <trkpt lat="44.81193" lon="1.59804">
        <ele>249.12</ele>
        <time>2011-03-20T07:53:39Z</time>
      </trkpt>
      <trkpt lat="44.81201" lon="1.59802">
        <ele>249.6</ele>
        <time>2011-03-20T07:53:44Z</time>
      </trkpt>
      <trkpt lat="44.81201" lon="1.59796">
        <ele>250.08</ele>
        <time>2011-03-20T07:53:46Z</time>
      </trkpt>
      <trkpt lat="44.812" lon="1.59792">
        <ele>250.08</ele>
        <time>2011-03-20T07:53:48Z</time>
      </trkpt>
      <trkpt lat="44.81204" lon="1.59782">
        <ele>250.56</ele>
        <time>2011-03-20T07:53:53Z</time>
      </trkpt>
      <trkpt lat="44.81204" lon="1.59764">
        <ele>251.04</ele>
        <time>2011-03-20T07:54:00Z</time>
      </trkpt>
      <trkpt lat="44.81204" lon="1.59757">
        <ele>251.52</ele>
        <time>2011-03-20T07:54:06Z</time>
      </trkpt>
      <trkpt lat="44.81204" lon="1.59739">
        <ele>252</ele>
        <time>2011-03-20T07:54:12Z</time>
      </trkpt>
      <trkpt lat="44.81204" lon="1.59733">
        <ele>251.52</ele>
        <time>2011-03-20T07:54:14Z</time>
      </trkpt>
      <trkpt lat="44.81206" lon="1.59722">
        <ele>252</ele>
        <time>2011-03-20T07:54:19Z</time>
      </trkpt>
      <trkpt lat="44.81206" lon="1.59718">
        <ele>252.48</ele>
        <time>2011-03-20T07:54:22Z</time>
      </trkpt>
      <trkpt lat="44.81206" lon="1.59711">
        <ele>252.96</ele>
        <time>2011-03-20T07:54:28Z</time>
      </trkpt>
      <trkpt lat="44.81206" lon="1.59707">
        <ele>252.96</ele>
        <time>2011-03-20T07:54:30Z</time>
      </trkpt>
      <trkpt lat="44.81206" lon="1.59684">
        <ele>252.96</ele>
        <time>2011-03-20T07:54:37Z</time>
      </trkpt>
      <trkpt lat="44.81206" lon="1.5968">
        <ele>253.44</ele>
        <time>2011-03-20T07:54:38Z</time>
      </trkpt>
      <trkpt lat="44.81207" lon="1.59667">
        <ele>253.44</ele>
        <time>2011-03-20T07:54:43Z</time>
      </trkpt>
      <trkpt lat="44.81205" lon="1.59659">
        <ele>252.96</ele>
        <time>2011-03-20T07:54:47Z</time>
      </trkpt>
      <trkpt lat="44.81207" lon="1.59656">
        <ele>253.44</ele>
        <time>2011-03-20T07:54:50Z</time>
      </trkpt>
      <trkpt lat="44.81208" lon="1.59649">
        <ele>253.93</ele>
        <time>2011-03-20T07:54:55Z</time>
      </trkpt>
      <trkpt lat="44.8121" lon="1.5964">
        <ele>254.41</ele>
        <time>2011-03-20T07:55:00Z</time>
      </trkpt>
      <trkpt lat="44.81213" lon="1.59629">
        <ele>253.44</ele>
        <time>2011-03-20T07:55:04Z</time>
      </trkpt>
      <trkpt lat="44.81217" lon="1.5961">
        <ele>253.44</ele>
        <time>2011-03-20T07:55:11Z</time>
      </trkpt>
      <trkpt lat="44.81218" lon="1.59597">
        <ele>253.93</ele>
        <time>2011-03-20T07:55:15Z</time>
      </trkpt>
      <trkpt lat="44.81219" lon="1.5959">
        <ele>253.93</ele>
        <time>2011-03-20T07:55:17Z</time>
      </trkpt>
      <trkpt lat="44.81221" lon="1.59586">
        <ele>253.93</ele>
        <time>2011-03-20T07:55:19Z</time>
      </trkpt>
      <trkpt lat="44.81225" lon="1.59578">
        <ele>253.93</ele>
        <time>2011-03-20T07:55:26Z</time>
      </trkpt>
      <trkpt lat="44.81227" lon="1.59576">
        <ele>253.93</ele>
        <time>2011-03-20T07:55:29Z</time>
      </trkpt>
      <trkpt lat="44.81233" lon="1.59568">
        <ele>253.93</ele>
        <time>2011-03-20T07:55:34Z</time>
      </trkpt>
      <trkpt lat="44.81237" lon="1.59564">
        <ele>253.93</ele>
        <time>2011-03-20T07:55:36Z</time>
      </trkpt>
      <trkpt lat="44.81239" lon="1.59556">
        <ele>253.93</ele>
        <time>2011-03-20T07:55:40Z</time>
      </trkpt>
      <trkpt lat="44.81246" lon="1.59551">
        <ele>252.96</ele>
        <time>2011-03-20T07:55:47Z</time>
      </trkpt>
      <trkpt lat="44.81251" lon="1.5955">
        <ele>252.96</ele>
        <time>2011-03-20T07:55:50Z</time>
      </trkpt>
      <trkpt lat="44.8126" lon="1.5954">
        <ele>253.44</ele>
        <time>2011-03-20T07:55:57Z</time>
      </trkpt>
      <trkpt lat="44.81264" lon="1.59531">
        <ele>252.96</ele>
        <time>2011-03-20T07:56:01Z</time>
      </trkpt>
      <trkpt lat="44.81272" lon="1.59521">
        <ele>252.96</ele>
        <time>2011-03-20T07:56:08Z</time>
      </trkpt>
      <trkpt lat="44.81272" lon="1.59517">
        <ele>252.48</ele>
        <time>2011-03-20T07:56:10Z</time>
      </trkpt>
      <trkpt lat="44.81274" lon="1.5951">
        <ele>251.52</ele>
        <time>2011-03-20T07:56:15Z</time>
      </trkpt>
      <trkpt lat="44.81274" lon="1.59507">
        <ele>251.04</ele>
        <time>2011-03-20T07:56:17Z</time>
      </trkpt>
      <trkpt lat="44.81275" lon="1.59498">
        <ele>251.04</ele>
        <time>2011-03-20T07:56:21Z</time>
      </trkpt>
      <trkpt lat="44.81278" lon="1.59486">
        <ele>251.04</ele>
        <time>2011-03-20T07:56:27Z</time>
      </trkpt>
      <trkpt lat="44.81279" lon="1.59478">
        <ele>251.04</ele>
        <time>2011-03-20T07:56:31Z</time>
      </trkpt>
      <trkpt lat="44.81282" lon="1.59468">
        <ele>250.08</ele>
        <time>2011-03-20T07:56:35Z</time>
      </trkpt>
      <trkpt lat="44.81287" lon="1.59457">
        <ele>249.6</ele>
        <time>2011-03-20T07:56:39Z</time>
      </trkpt>
      <trkpt lat="44.81291" lon="1.59443">
        <ele>248.64</ele>
        <time>2011-03-20T07:56:45Z</time>
      </trkpt>
      <trkpt lat="44.81292" lon="1.59441">
        <ele>248.64</ele>
        <time>2011-03-20T07:56:46Z</time>
      </trkpt>
      <trkpt lat="44.81294" lon="1.5943">
        <ele>247.68</ele>
        <time>2011-03-20T07:56:50Z</time>
      </trkpt>
      <trkpt lat="44.81298" lon="1.59416">
        <ele>246.23</ele>
        <time>2011-03-20T07:56:56Z</time>
      </trkpt>
      <trkpt lat="44.81299" lon="1.59415">
        <ele>246.23</ele>
        <time>2011-03-20T07:56:59Z</time>
      </trkpt>
      <trkpt lat="44.813" lon="1.59409">
        <ele>245.27</ele>
        <time>2011-03-20T07:57:03Z</time>
      </trkpt>
      <trkpt lat="44.81303" lon="1.59386">
        <ele>243.35</ele>
        <time>2011-03-20T07:57:11Z</time>
      </trkpt>
      <trkpt lat="44.81306" lon="1.59376">
        <ele>243.35</ele>
        <time>2011-03-20T07:57:15Z</time>
      </trkpt>
      <trkpt lat="44.81306" lon="1.59369">
        <ele>242.87</ele>
        <time>2011-03-20T07:57:21Z</time>
      </trkpt>
      <trkpt lat="44.81309" lon="1.5936">
        <ele>242.39</ele>
        <time>2011-03-20T07:57:26Z</time>
      </trkpt>
      <trkpt lat="44.81312" lon="1.59347">
        <ele>241.91</ele>
        <time>2011-03-20T07:57:31Z</time>
      </trkpt>
      <trkpt lat="44.81314" lon="1.59337">
        <ele>242.39</ele>
        <time>2011-03-20T07:57:36Z</time>
      </trkpt>
      <trkpt lat="44.81314" lon="1.59333">
        <ele>241.91</ele>
        <time>2011-03-20T07:57:38Z</time>
      </trkpt>
      <trkpt lat="44.81315" lon="1.59322">
        <ele>241.43</ele>
        <time>2011-03-20T07:57:44Z</time>
      </trkpt>
      <trkpt lat="44.81317" lon="1.59317">
        <ele>242.39</ele>
        <time>2011-03-20T07:57:47Z</time>
      </trkpt>
      <trkpt lat="44.81319" lon="1.59301">
        <ele>241.43</ele>
        <time>2011-03-20T07:57:52Z</time>
      </trkpt>
      <trkpt lat="44.81324" lon="1.59298">
        <ele>241.43</ele>
        <time>2011-03-20T07:57:55Z</time>
      </trkpt>
      <trkpt lat="44.81326" lon="1.5929">
        <ele>240.95</ele>
        <time>2011-03-20T07:58:01Z</time>
      </trkpt>
      <trkpt lat="44.81328" lon="1.59279">
        <ele>240.47</ele>
        <time>2011-03-20T07:58:06Z</time>
      </trkpt>
      <trkpt lat="44.81329" lon="1.59271">
        <ele>239.99</ele>
        <time>2011-03-20T07:58:09Z</time>
      </trkpt>
      <trkpt lat="44.81331" lon="1.59263">
        <ele>239.51</ele>
        <time>2011-03-20T07:58:12Z</time>
      </trkpt>
      <trkpt lat="44.81334" lon="1.59255">
        <ele>239.51</ele>
        <time>2011-03-20T07:58:18Z</time>
      </trkpt>
      <trkpt lat="44.8134" lon="1.59237">
        <ele>237.58</ele>
        <time>2011-03-20T07:58:27Z</time>
      </trkpt>
      <trkpt lat="44.81342" lon="1.59228">
        <ele>237.1</ele>
        <time>2011-03-20T07:58:31Z</time>
      </trkpt>
      <trkpt lat="44.8135" lon="1.59227">
        <ele>237.1</ele>
        <time>2011-03-20T07:58:38Z</time>
      </trkpt>
      <trkpt lat="44.81357" lon="1.59225">
        <ele>236.62</ele>
        <time>2011-03-20T07:58:43Z</time>
      </trkpt>
      <trkpt lat="44.81362" lon="1.59209">
        <ele>235.66</ele>
        <time>2011-03-20T07:58:49Z</time>
      </trkpt>
      <trkpt lat="44.81368" lon="1.592">
        <ele>235.66</ele>
        <time>2011-03-20T07:58:54Z</time>
      </trkpt>
      <trkpt lat="44.81374" lon="1.59188">
        <ele>235.18</ele>
        <time>2011-03-20T07:59:01Z</time>
      </trkpt>
      <trkpt lat="44.81375" lon="1.59186">
        <ele>235.18</ele>
        <time>2011-03-20T07:59:02Z</time>
      </trkpt>
      <trkpt lat="44.81381" lon="1.59179">
        <ele>234.22</ele>
        <time>2011-03-20T07:59:09Z</time>
      </trkpt>
      <trkpt lat="44.81383" lon="1.5918">
        <ele>234.22</ele>
        <time>2011-03-20T07:59:10Z</time>
      </trkpt>
      <trkpt lat="44.81387" lon="1.59171">
        <ele>234.22</ele>
        <time>2011-03-20T07:59:14Z</time>
      </trkpt>
      <trkpt lat="44.81391" lon="1.59171">
        <ele>233.74</ele>
        <time>2011-03-20T07:59:16Z</time>
      </trkpt>
      <trkpt lat="44.814" lon="1.59153">
        <ele>232.78</ele>
        <time>2011-03-20T07:59:23Z</time>
      </trkpt>
      <trkpt lat="44.81409" lon="1.59139">
        <ele>231.33</ele>
        <time>2011-03-20T07:59:28Z</time>
      </trkpt>
      <trkpt lat="44.81414" lon="1.59131">
        <ele>230.37</ele>
        <time>2011-03-20T07:59:31Z</time>
      </trkpt>
      <trkpt lat="44.81419" lon="1.59114">
        <ele>228.93</ele>
        <time>2011-03-20T07:59:36Z</time>
      </trkpt>
      <trkpt lat="44.81424" lon="1.59101">
        <ele>226.05</ele>
        <time>2011-03-20T07:59:40Z</time>
      </trkpt>
      <trkpt lat="44.81429" lon="1.59091">
        <ele>224.12</ele>
        <time>2011-03-20T07:59:43Z</time>
      </trkpt>
      <trkpt lat="44.81432" lon="1.59085">
        <ele>223.16</ele>
        <time>2011-03-20T07:59:45Z</time>
      </trkpt>
      <trkpt lat="44.81438" lon="1.5907">
        <ele>219.32</ele>
        <time>2011-03-20T07:59:50Z</time>
      </trkpt>
      <trkpt lat="44.81444" lon="1.59059">
        <ele>217.4</ele>
        <time>2011-03-20T07:59:54Z</time>
      </trkpt>
      <trkpt lat="44.81455" lon="1.59048">
        <ele>215.47</ele>
        <time>2011-03-20T08:00:00Z</time>
      </trkpt>
      <trkpt lat="44.81456" lon="1.59032">
        <ele>213.07</ele>
        <time>2011-03-20T08:00:05Z</time>
      </trkpt>
      <trkpt lat="44.81457" lon="1.59027">
        <ele>212.11</ele>
        <time>2011-03-20T08:00:08Z</time>
      </trkpt>
      <trkpt lat="44.81462" lon="1.59015">
        <ele>210.67</ele>
        <time>2011-03-20T08:00:13Z</time>
      </trkpt>
      <trkpt lat="44.81466" lon="1.5901">
        <ele>210.19</ele>
        <time>2011-03-20T08:00:15Z</time>
      </trkpt>
      <trkpt lat="44.81476" lon="1.59006">
        <ele>209.7</ele>
        <time>2011-03-20T08:00:20Z</time>
      </trkpt>
      <trkpt lat="44.81479" lon="1.58998">
        <ele>207.3</ele>
        <time>2011-03-20T08:00:26Z</time>
      </trkpt>
      <trkpt lat="44.8148" lon="1.58995">
        <ele>207.3</ele>
        <time>2011-03-20T08:00:27Z</time>
      </trkpt>
      <trkpt lat="44.81482" lon="1.58992">
        <ele>205.38</ele>
        <time>2011-03-20T08:00:30Z</time>
      </trkpt>
      <trkpt lat="44.81486" lon="1.58985">
        <ele>203.94</ele>
        <time>2011-03-20T08:00:34Z</time>
      </trkpt>
      <trkpt lat="44.8149" lon="1.58976">
        <ele>202.49</ele>
        <time>2011-03-20T08:00:38Z</time>
      </trkpt>
      <trkpt lat="44.81492" lon="1.58972">
        <ele>201.53</ele>
        <time>2011-03-20T08:00:40Z</time>
      </trkpt>
      <trkpt lat="44.81494" lon="1.58966">
        <ele>201.05</ele>
        <time>2011-03-20T08:00:43Z</time>
      </trkpt>
      <trkpt lat="44.81495" lon="1.58956">
        <ele>197.21</ele>
        <time>2011-03-20T08:00:48Z</time>
      </trkpt>
      <trkpt lat="44.81493" lon="1.5895">
        <ele>196.25</ele>
        <time>2011-03-20T08:00:52Z</time>
      </trkpt>
      <trkpt lat="44.81499" lon="1.5894">
        <ele>194.32</ele>
        <time>2011-03-20T08:00:59Z</time>
      </trkpt>
      <trkpt lat="44.81508" lon="1.58933">
        <ele>192.4</ele>
        <time>2011-03-20T08:01:04Z</time>
      </trkpt>
      <trkpt lat="44.81508" lon="1.58933">
        <ele>192.4</ele>
        <time>2011-03-20T08:01:05Z</time>
      </trkpt>
      <trkpt lat="44.81515" lon="1.58923">
        <ele>191.44</ele>
        <time>2011-03-20T08:01:11Z</time>
      </trkpt>
      <trkpt lat="44.81517" lon="1.58913">
        <ele>190</ele>
        <time>2011-03-20T08:01:17Z</time>
      </trkpt>
      <trkpt lat="44.81518" lon="1.58911">
        <ele>190.48</ele>
        <time>2011-03-20T08:01:18Z</time>
      </trkpt>
      <trkpt lat="44.81514" lon="1.58903">
        <ele>189.04</ele>
        <time>2011-03-20T08:01:22Z</time>
      </trkpt>
      <trkpt lat="44.81503" lon="1.58898">
        <ele>187.59</ele>
        <time>2011-03-20T08:01:28Z</time>
      </trkpt>
      <trkpt lat="44.81493" lon="1.58894">
        <ele>189.52</ele>
        <time>2011-03-20T08:01:34Z</time>
      </trkpt>
      <trkpt lat="44.81486" lon="1.58891">
        <ele>190.48</ele>
        <time>2011-03-20T08:01:41Z</time>
      </trkpt>
      <trkpt lat="44.81484" lon="1.58884">
        <ele>192.4</ele>
        <time>2011-03-20T08:01:46Z</time>
      </trkpt>
      <trkpt lat="44.81477" lon="1.58882">
        <ele>194.32</ele>
        <time>2011-03-20T08:01:51Z</time>
      </trkpt>
      <trkpt lat="44.81472" lon="1.58875">
        <ele>195.77</ele>
        <time>2011-03-20T08:01:56Z</time>
      </trkpt>
      <trkpt lat="44.81469" lon="1.58874">
        <ele>196.73</ele>
        <time>2011-03-20T08:01:58Z</time>
      </trkpt>
      <trkpt lat="44.81467" lon="1.58869">
        <ele>198.17</ele>
        <time>2011-03-20T08:02:01Z</time>
      </trkpt>
      <trkpt lat="44.81461" lon="1.58856">
        <ele>199.13</ele>
        <time>2011-03-20T08:02:06Z</time>
      </trkpt>
      <trkpt lat="44.81453" lon="1.58857">
        <ele>201.53</ele>
        <time>2011-03-20T08:02:12Z</time>
      </trkpt>
      <trkpt lat="44.8145" lon="1.58859">
        <ele>202.01</ele>
        <time>2011-03-20T08:02:17Z</time>
      </trkpt>
      <trkpt lat="44.8145" lon="1.58863">
        <ele>201.53</ele>
        <time>2011-03-20T08:02:21Z</time>
      </trkpt>
      <trkpt lat="44.81445" lon="1.58859">
        <ele>201.53</ele>
        <time>2011-03-20T08:02:25Z</time>
      </trkpt>
      <trkpt lat="44.8144" lon="1.58851">
        <ele>204.42</ele>
        <time>2011-03-20T08:02:28Z</time>
      </trkpt>
      <trkpt lat="44.81434" lon="1.58849">
        <ele>203.94</ele>
        <time>2011-03-20T08:02:33Z</time>
      </trkpt>
      <trkpt lat="44.81433" lon="1.58849">
        <ele>204.9</ele>
        <time>2011-03-20T08:02:34Z</time>
      </trkpt>
      <trkpt lat="44.81428" lon="1.58847">
        <ele>206.82</ele>
        <time>2011-03-20T08:02:40Z</time>
      </trkpt>
      <trkpt lat="44.81426" lon="1.58844">
        <ele>208.26</ele>
        <time>2011-03-20T08:02:43Z</time>
      </trkpt>
      <trkpt lat="44.81422" lon="1.58834">
        <ele>209.22</ele>
        <time>2011-03-20T08:02:50Z</time>
      </trkpt>
      <trkpt lat="44.81413" lon="1.58816">
        <ele>212.11</ele>
        <time>2011-03-20T08:03:04Z</time>
      </trkpt>
      <trkpt lat="44.81406" lon="1.58804">
        <ele>214.51</ele>
        <time>2011-03-20T08:03:15Z</time>
      </trkpt>
      <trkpt lat="44.81405" lon="1.58802">
        <ele>214.51</ele>
        <time>2011-03-20T08:03:17Z</time>
      </trkpt>
      <trkpt lat="44.814" lon="1.58797">
        <ele>215.47</ele>
        <time>2011-03-20T08:03:20Z</time>
      </trkpt>
      <trkpt lat="44.81399" lon="1.58797">
        <ele>215.95</ele>
        <time>2011-03-20T08:03:22Z</time>
      </trkpt>
      <trkpt lat="44.8139" lon="1.58794">
        <ele>217.4</ele>
        <time>2011-03-20T08:03:30Z</time>
      </trkpt>
      <trkpt lat="44.81385" lon="1.58786">
        <ele>217.88</ele>
        <time>2011-03-20T08:03:34Z</time>
      </trkpt>
      <trkpt lat="44.81383" lon="1.58784">
        <ele>218.84</ele>
        <time>2011-03-20T08:03:36Z</time>
      </trkpt>
      <trkpt lat="44.8138" lon="1.58776">
        <ele>219.8</ele>
        <time>2011-03-20T08:03:42Z</time>
      </trkpt>
      <trkpt lat="44.81377" lon="1.58766">
        <ele>221.24</ele>
        <time>2011-03-20T08:03:50Z</time>
      </trkpt>
      <trkpt lat="44.81375" lon="1.58762">
        <ele>221.24</ele>
        <time>2011-03-20T08:03:53Z</time>
      </trkpt>
      <trkpt lat="44.81371" lon="1.5875">
        <ele>223.64</ele>
        <time>2011-03-20T08:04:01Z</time>
      </trkpt>
      <trkpt lat="44.81369" lon="1.58746">
        <ele>224.12</ele>
        <time>2011-03-20T08:04:05Z</time>
      </trkpt>
      <trkpt lat="44.81366" lon="1.58736">
        <ele>225.57</ele>
        <time>2011-03-20T08:04:11Z</time>
      </trkpt>
      <trkpt lat="44.81367" lon="1.58724">
        <ele>228.93</ele>
        <time>2011-03-20T08:04:21Z</time>
      </trkpt>
      <trkpt lat="44.81367" lon="1.58717">
        <ele>230.85</ele>
        <time>2011-03-20T08:04:26Z</time>
      </trkpt>
      <trkpt lat="44.81368" lon="1.5871">
        <ele>233.26</ele>
        <time>2011-03-20T08:04:34Z</time>
      </trkpt>
      <trkpt lat="44.8137" lon="1.58705">
        <ele>234.22</ele>
        <time>2011-03-20T08:04:38Z</time>
      </trkpt>
      <trkpt lat="44.81375" lon="1.58696">
        <ele>235.66</ele>
        <time>2011-03-20T08:04:46Z</time>
      </trkpt>
      <trkpt lat="44.81378" lon="1.5869">
        <ele>236.14</ele>
        <time>2011-03-20T08:04:50Z</time>
      </trkpt>
      <trkpt lat="44.81381" lon="1.58684">
        <ele>237.1</ele>
        <time>2011-03-20T08:04:54Z</time>
      </trkpt>
      <trkpt lat="44.81383" lon="1.5867">
        <ele>239.99</ele>
        <time>2011-03-20T08:05:02Z</time>
      </trkpt>
      <trkpt lat="44.81387" lon="1.58657">
        <ele>243.35</ele>
        <time>2011-03-20T08:05:10Z</time>
      </trkpt>
      <trkpt lat="44.81387" lon="1.58657">
        <ele>244.31</ele>
        <time>2011-03-20T08:05:11Z</time>
      </trkpt>
      <trkpt lat="44.81388" lon="1.58651">
        <ele>246.23</ele>
        <time>2011-03-20T08:05:15Z</time>
      </trkpt>
      <trkpt lat="44.81388" lon="1.58641">
        <ele>247.68</ele>
        <time>2011-03-20T08:05:19Z</time>
      </trkpt>
      <trkpt lat="44.81391" lon="1.58634">
        <ele>248.64</ele>
        <time>2011-03-20T08:05:24Z</time>
      </trkpt>
      <trkpt lat="44.81394" lon="1.58625">
        <ele>249.6</ele>
        <time>2011-03-20T08:05:28Z</time>
      </trkpt>
      <trkpt lat="44.81401" lon="1.58618">
        <ele>250.56</ele>
        <time>2011-03-20T08:05:33Z</time>
      </trkpt>
      <trkpt lat="44.81412" lon="1.58624">
        <ele>250.56</ele>
        <time>2011-03-20T08:05:42Z</time>
      </trkpt>
      <trkpt lat="44.81417" lon="1.58621">
        <ele>251.04</ele>
        <time>2011-03-20T08:05:45Z</time>
      </trkpt>
      <trkpt lat="44.8142" lon="1.58613">
        <ele>251.52</ele>
        <time>2011-03-20T08:05:50Z</time>
      </trkpt>
      <trkpt lat="44.8142" lon="1.58603">
        <ele>252.48</ele>
        <time>2011-03-20T08:05:56Z</time>
      </trkpt>
      <trkpt lat="44.81424" lon="1.58588">
        <ele>252.96</ele>
        <time>2011-03-20T08:06:01Z</time>
      </trkpt>
      <trkpt lat="44.81427" lon="1.58578">
        <ele>253.93</ele>
        <time>2011-03-20T08:06:10Z</time>
      </trkpt>
      <trkpt lat="44.81429" lon="1.58575">
        <ele>254.89</ele>
        <time>2011-03-20T08:06:11Z</time>
      </trkpt>
      <trkpt lat="44.81432" lon="1.58565">
        <ele>254.89</ele>
        <time>2011-03-20T08:06:18Z</time>
      </trkpt>
      <trkpt lat="44.81436" lon="1.58554">
        <ele>254.89</ele>
        <time>2011-03-20T08:06:22Z</time>
      </trkpt>
      <trkpt lat="44.81441" lon="1.58536">
        <ele>254.41</ele>
        <time>2011-03-20T08:06:28Z</time>
      </trkpt>
      <trkpt lat="44.81442" lon="1.5853">
        <ele>254.89</ele>
        <time>2011-03-20T08:06:35Z</time>
      </trkpt>
      <trkpt lat="44.81446" lon="1.58514">
        <ele>254.41</ele>
        <time>2011-03-20T08:06:42Z</time>
      </trkpt>
      <trkpt lat="44.81448" lon="1.58508">
        <ele>254.41</ele>
        <time>2011-03-20T08:06:44Z</time>
      </trkpt>
      <trkpt lat="44.81451" lon="1.58498">
        <ele>254.41</ele>
        <time>2011-03-20T08:06:48Z</time>
      </trkpt>
      <trkpt lat="44.81455" lon="1.58483">
        <ele>253.93</ele>
        <time>2011-03-20T08:06:54Z</time>
      </trkpt>
      <trkpt lat="44.81458" lon="1.58468">
        <ele>252.96</ele>
        <time>2011-03-20T08:06:59Z</time>
      </trkpt>
      <trkpt lat="44.81459" lon="1.58466">
        <ele>252.96</ele>
        <time>2011-03-20T08:07:00Z</time>
      </trkpt>
      <trkpt lat="44.81463" lon="1.58448">
        <ele>252.96</ele>
        <time>2011-03-20T08:07:05Z</time>
      </trkpt>
      <trkpt lat="44.81461" lon="1.58434">
        <ele>252</ele>
        <time>2011-03-20T08:07:11Z</time>
      </trkpt>
      <trkpt lat="44.81462" lon="1.5843">
        <ele>251.04</ele>
        <time>2011-03-20T08:07:14Z</time>
      </trkpt>
      <trkpt lat="44.81472" lon="1.58417">
        <ele>250.08</ele>
        <time>2011-03-20T08:07:21Z</time>
      </trkpt>
      <trkpt lat="44.81478" lon="1.58406">
        <ele>249.12</ele>
        <time>2011-03-20T08:07:27Z</time>
      </trkpt>
      <trkpt lat="44.81481" lon="1.584">
        <ele>248.16</ele>
        <time>2011-03-20T08:07:32Z</time>
      </trkpt>
      <trkpt lat="44.81483" lon="1.58391">
        <ele>247.2</ele>
        <time>2011-03-20T08:07:37Z</time>
      </trkpt>
      <trkpt lat="44.81484" lon="1.58388">
        <ele>246.72</ele>
        <time>2011-03-20T08:07:39Z</time>
      </trkpt>
      <trkpt lat="44.81485" lon="1.58382">
        <ele>246.23</ele>
        <time>2011-03-20T08:07:42Z</time>
      </trkpt>
      <trkpt lat="44.81491" lon="1.58378">
        <ele>245.27</ele>
        <time>2011-03-20T08:07:45Z</time>
      </trkpt>
      <trkpt lat="44.81492" lon="1.58373">
        <ele>243.83</ele>
        <time>2011-03-20T08:07:48Z</time>
      </trkpt>
      <trkpt lat="44.81495" lon="1.58365">
        <ele>242.39</ele>
        <time>2011-03-20T08:07:53Z</time>
      </trkpt>
      <trkpt lat="44.81499" lon="1.58358">
        <ele>240.47</ele>
        <time>2011-03-20T08:07:57Z</time>
      </trkpt>
      <trkpt lat="44.815" lon="1.58346">
        <ele>239.99</ele>
        <time>2011-03-20T08:08:01Z</time>
      </trkpt>
      <trkpt lat="44.81504" lon="1.58342">
        <ele>239.02</ele>
        <time>2011-03-20T08:08:03Z</time>
      </trkpt>
      <trkpt lat="44.81506" lon="1.58338">
        <ele>238.54</ele>
        <time>2011-03-20T08:08:05Z</time>
      </trkpt>
      <trkpt lat="44.81508" lon="1.58326">
        <ele>237.58</ele>
        <time>2011-03-20T08:08:10Z</time>
      </trkpt>
      <trkpt lat="44.81508" lon="1.58321">
        <ele>235.66</ele>
        <time>2011-03-20T08:08:13Z</time>
      </trkpt>
      <trkpt lat="44.81509" lon="1.58317">
        <ele>235.18</ele>
        <time>2011-03-20T08:08:15Z</time>
      </trkpt>
      <trkpt lat="44.8151" lon="1.58316">
        <ele>234.7</ele>
        <time>2011-03-20T08:08:16Z</time>
      </trkpt>
      <trkpt lat="44.81515" lon="1.58306">
        <ele>232.78</ele>
        <time>2011-03-20T08:08:21Z</time>
      </trkpt>
      <trkpt lat="44.81514" lon="1.583">
        <ele>232.3</ele>
        <time>2011-03-20T08:08:25Z</time>
      </trkpt>
      <trkpt lat="44.81513" lon="1.58298">
        <ele>231.33</ele>
        <time>2011-03-20T08:08:26Z</time>
      </trkpt>
      <trkpt lat="44.81508" lon="1.58292">
        <ele>230.37</ele>
        <time>2011-03-20T08:08:31Z</time>
      </trkpt>
      <trkpt lat="44.81503" lon="1.58284">
        <ele>229.89</ele>
        <time>2011-03-20T08:08:35Z</time>
      </trkpt>
      <trkpt lat="44.81499" lon="1.58278">
        <ele>228.93</ele>
        <time>2011-03-20T08:08:40Z</time>
      </trkpt>
      <trkpt lat="44.81495" lon="1.58266">
        <ele>227.49</ele>
        <time>2011-03-20T08:08:46Z</time>
      </trkpt>
      <trkpt lat="44.8149" lon="1.58256">
        <ele>227.01</ele>
        <time>2011-03-20T08:08:50Z</time>
      </trkpt>
      <trkpt lat="44.81486" lon="1.58246">
        <ele>225.57</ele>
        <time>2011-03-20T08:08:55Z</time>
      </trkpt>
      <trkpt lat="44.81484" lon="1.58241">
        <ele>224.61</ele>
        <time>2011-03-20T08:08:57Z</time>
      </trkpt>
      <trkpt lat="44.81482" lon="1.58229">
        <ele>222.68</ele>
        <time>2011-03-20T08:09:02Z</time>
      </trkpt>
      <trkpt lat="44.81485" lon="1.58215">
        <ele>220.28</ele>
        <time>2011-03-20T08:09:08Z</time>
      </trkpt>
      <trkpt lat="44.81489" lon="1.5821">
        <ele>218.84</ele>
        <time>2011-03-20T08:09:13Z</time>
      </trkpt>
      <trkpt lat="44.81489" lon="1.5821">
        <ele>219.32</ele>
        <time>2011-03-20T08:09:14Z</time>
      </trkpt>
      <trkpt lat="44.81497" lon="1.58209">
        <ele>217.4</ele>
        <time>2011-03-20T08:09:18Z</time>
      </trkpt>
      <trkpt lat="44.81503" lon="1.58197">
        <ele>215.95</ele>
        <time>2011-03-20T08:09:24Z</time>
      </trkpt>
      <trkpt lat="44.81508" lon="1.58188">
        <ele>214.03</ele>
        <time>2011-03-20T08:09:28Z</time>
      </trkpt>
      <trkpt lat="44.81511" lon="1.58189">
        <ele>212.59</ele>
        <time>2011-03-20T08:09:32Z</time>
      </trkpt>
      <trkpt lat="44.81511" lon="1.5819">
        <ele>212.11</ele>
        <time>2011-03-20T08:09:33Z</time>
      </trkpt>
      <trkpt lat="44.81518" lon="1.58191">
        <ele>209.7</ele>
        <time>2011-03-20T08:09:40Z</time>
      </trkpt>
      <trkpt lat="44.8152" lon="1.58187">
        <ele>209.22</ele>
        <time>2011-03-20T08:09:42Z</time>
      </trkpt>
      <trkpt lat="44.81524" lon="1.58182">
        <ele>208.26</ele>
        <time>2011-03-20T08:09:45Z</time>
      </trkpt>
      <trkpt lat="44.81531" lon="1.58179">
        <ele>205.86</ele>
        <time>2011-03-20T08:09:51Z</time>
      </trkpt>
      <trkpt lat="44.8154" lon="1.58172">
        <ele>204.9</ele>
        <time>2011-03-20T08:09:56Z</time>
      </trkpt>
      <trkpt lat="44.81542" lon="1.58164">
        <ele>202.49</ele>
        <time>2011-03-20T08:10:00Z</time>
      </trkpt>
      <trkpt lat="44.81547" lon="1.58158">
        <ele>200.57</ele>
        <time>2011-03-20T08:10:06Z</time>
      </trkpt>
      <trkpt lat="44.81549" lon="1.58154">
        <ele>199.61</ele>
        <time>2011-03-20T08:10:09Z</time>
      </trkpt>
      <trkpt lat="44.81549" lon="1.58149">
        <ele>198.17</ele>
        <time>2011-03-20T08:10:12Z</time>
      </trkpt>
      <trkpt lat="44.81549" lon="1.58146">
        <ele>198.17</ele>
        <time>2011-03-20T08:10:13Z</time>
      </trkpt>
      <trkpt lat="44.81554" lon="1.58139">
        <ele>195.77</ele>
        <time>2011-03-20T08:10:18Z</time>
      </trkpt>
      <trkpt lat="44.81553" lon="1.5814">
        <ele>195.28</ele>
        <time>2011-03-20T08:10:19Z</time>
      </trkpt>
      <trkpt lat="44.81553" lon="1.58134">
        <ele>193.84</ele>
        <time>2011-03-20T08:10:22Z</time>
      </trkpt>
      <trkpt lat="44.81547" lon="1.58125">
        <ele>190</ele>
        <time>2011-03-20T08:10:28Z</time>
      </trkpt>
      <trkpt lat="44.81547" lon="1.58119">
        <ele>186.63</ele>
        <time>2011-03-20T08:10:32Z</time>
      </trkpt>
      <trkpt lat="44.81548" lon="1.58118">
        <ele>185.67</ele>
        <time>2011-03-20T08:10:33Z</time>
      </trkpt>
      <trkpt lat="44.8155" lon="1.58115">
        <ele>184.71</ele>
        <time>2011-03-20T08:10:35Z</time>
      </trkpt>
      <trkpt lat="44.81551" lon="1.58113">
        <ele>182.31</ele>
        <time>2011-03-20T08:10:38Z</time>
      </trkpt>
      <trkpt lat="44.81552" lon="1.58108">
        <ele>180.87</ele>
        <time>2011-03-20T08:10:41Z</time>
      </trkpt>
      <trkpt lat="44.81552" lon="1.58105">
        <ele>179.9</ele>
        <time>2011-03-20T08:10:43Z</time>
      </trkpt>
      <trkpt lat="44.81545" lon="1.58094">
        <ele>181.35</ele>
        <time>2011-03-20T08:10:50Z</time>
      </trkpt>
      <trkpt lat="44.81544" lon="1.58092">
        <ele>181.83</ele>
        <time>2011-03-20T08:10:51Z</time>
      </trkpt>
      <trkpt lat="44.81539" lon="1.58091">
        <ele>181.35</ele>
        <time>2011-03-20T08:10:54Z</time>
      </trkpt>
      <trkpt lat="44.81532" lon="1.58091">
        <ele>179.9</ele>
        <time>2011-03-20T08:10:58Z</time>
      </trkpt>
      <trkpt lat="44.81523" lon="1.58087">
        <ele>179.42</ele>
        <time>2011-03-20T08:11:04Z</time>
      </trkpt>
      <trkpt lat="44.81514" lon="1.58082">
        <ele>179.9</ele>
        <time>2011-03-20T08:11:10Z</time>
      </trkpt>
      <trkpt lat="44.81508" lon="1.58083">
        <ele>179.9</ele>
        <time>2011-03-20T08:11:14Z</time>
      </trkpt>
      <trkpt lat="44.81496" lon="1.58084">
        <ele>181.35</ele>
        <time>2011-03-20T08:11:21Z</time>
      </trkpt>
      <trkpt lat="44.81491" lon="1.58086">
        <ele>181.35</ele>
        <time>2011-03-20T08:11:25Z</time>
      </trkpt>
      <trkpt lat="44.81487" lon="1.58088">
        <ele>180.87</ele>
        <time>2011-03-20T08:11:27Z</time>
      </trkpt>
      <trkpt lat="44.81485" lon="1.58089">
        <ele>180.87</ele>
        <time>2011-03-20T08:11:29Z</time>
      </trkpt>
      <trkpt lat="44.81481" lon="1.5809">
        <ele>180.87</ele>
        <time>2011-03-20T08:11:33Z</time>
      </trkpt>
      <trkpt lat="44.81471" lon="1.58087">
        <ele>180.38</ele>
        <time>2011-03-20T08:11:38Z</time>
      </trkpt>
      <trkpt lat="44.81466" lon="1.58084">
        <ele>180.38</ele>
        <time>2011-03-20T08:11:41Z</time>
      </trkpt>
      <trkpt lat="44.81454" lon="1.58085">
        <ele>179.42</ele>
        <time>2011-03-20T08:11:50Z</time>
      </trkpt>
      <trkpt lat="44.81446" lon="1.58084">
        <ele>178.94</ele>
        <time>2011-03-20T08:11:57Z</time>
      </trkpt>
      <trkpt lat="44.81443" lon="1.58082">
        <ele>177.98</ele>
        <time>2011-03-20T08:12:01Z</time>
      </trkpt>
      <trkpt lat="44.81429" lon="1.58076">
        <ele>177.5</ele>
        <time>2011-03-20T08:12:07Z</time>
      </trkpt>
      <trkpt lat="44.81418" lon="1.58071">
        <ele>177.5</ele>
        <time>2011-03-20T08:12:12Z</time>
      </trkpt>
      <trkpt lat="44.81413" lon="1.58071">
        <ele>174.62</ele>
        <time>2011-03-20T08:12:15Z</time>
      </trkpt>
      <trkpt lat="44.81403" lon="1.58063">
        <ele>173.66</ele>
        <time>2011-03-20T08:12:21Z</time>
      </trkpt>
      <trkpt lat="44.81397" lon="1.58056">
        <ele>173.66</ele>
        <time>2011-03-20T08:12:26Z</time>
      </trkpt>
      <trkpt lat="44.81389" lon="1.58053">
        <ele>173.17</ele>
        <time>2011-03-20T08:12:33Z</time>
      </trkpt>
      <trkpt lat="44.81373" lon="1.5805">
        <ele>170.29</ele>
        <time>2011-03-20T08:12:44Z</time>
      </trkpt>
      <trkpt lat="44.81366" lon="1.58046">
        <ele>170.77</ele>
        <time>2011-03-20T08:12:50Z</time>
      </trkpt>
      <trkpt lat="44.81362" lon="1.58045">
        <ele>170.77</ele>
        <time>2011-03-20T08:12:53Z</time>
      </trkpt>
      <trkpt lat="44.81354" lon="1.58043">
        <ele>169.33</ele>
        <time>2011-03-20T08:12:57Z</time>
      </trkpt>
      <trkpt lat="44.81345" lon="1.58037">
        <ele>168.85</ele>
        <time>2011-03-20T08:13:03Z</time>
      </trkpt>
      <trkpt lat="44.81343" lon="1.58036">
        <ele>168.85</ele>
        <time>2011-03-20T08:13:05Z</time>
      </trkpt>
      <trkpt lat="44.81322" lon="1.58022">
        <ele>168.37</ele>
        <time>2011-03-20T08:13:17Z</time>
      </trkpt>
      <trkpt lat="44.81315" lon="1.58014">
        <ele>167.41</ele>
        <time>2011-03-20T08:13:21Z</time>
      </trkpt>
      <trkpt lat="44.81306" lon="1.58003">
        <ele>166.45</ele>
        <time>2011-03-20T08:13:27Z</time>
      </trkpt>
      <trkpt lat="44.81301" lon="1.57993">
        <ele>166.93</ele>
        <time>2011-03-20T08:13:32Z</time>
      </trkpt>
      <trkpt lat="44.813" lon="1.57992">
        <ele>166.45</ele>
        <time>2011-03-20T08:13:33Z</time>
      </trkpt>
      <trkpt lat="44.81291" lon="1.57984">
        <ele>166.45</ele>
        <time>2011-03-20T08:13:40Z</time>
      </trkpt>
      <trkpt lat="44.81278" lon="1.57962">
        <ele>164.04</ele>
        <time>2011-03-20T08:13:51Z</time>
      </trkpt>
      <trkpt lat="44.81274" lon="1.57958">
        <ele>164.04</ele>
        <time>2011-03-20T08:13:54Z</time>
      </trkpt>
      <trkpt lat="44.81264" lon="1.57947">
        <ele>163.56</ele>
        <time>2011-03-20T08:14:03Z</time>
      </trkpt>
      <trkpt lat="44.8125" lon="1.57935">
        <ele>163.08</ele>
        <time>2011-03-20T08:14:12Z</time>
      </trkpt>
      <trkpt lat="44.81241" lon="1.57925">
        <ele>163.08</ele>
        <time>2011-03-20T08:14:20Z</time>
      </trkpt>
      <trkpt lat="44.81229" lon="1.5792">
        <ele>163.56</ele>
        <time>2011-03-20T08:14:30Z</time>
      </trkpt>
      <trkpt lat="44.81217" lon="1.57915">
        <ele>162.6</ele>
        <time>2011-03-20T08:14:39Z</time>
      </trkpt>
      <trkpt lat="44.81199" lon="1.5791">
        <ele>161.16</ele>
        <time>2011-03-20T08:14:50Z</time>
      </trkpt>
      <trkpt lat="44.81195" lon="1.57909">
        <ele>161.64</ele>
        <time>2011-03-20T08:14:52Z</time>
      </trkpt>
      <trkpt lat="44.81182" lon="1.57908">
        <ele>160.2</ele>
        <time>2011-03-20T08:15:00Z</time>
      </trkpt>
      <trkpt lat="44.81173" lon="1.57908">
        <ele>160.2</ele>
        <time>2011-03-20T08:15:06Z</time>
      </trkpt>
      <trkpt lat="44.81169" lon="1.57909">
        <ele>160.2</ele>
        <time>2011-03-20T08:15:08Z</time>
      </trkpt>
      <trkpt lat="44.81161" lon="1.5791">
        <ele>158.75</ele>
        <time>2011-03-20T08:15:13Z</time>
      </trkpt>
      <trkpt lat="44.81153" lon="1.57915">
        <ele>156.83</ele>
        <time>2011-03-20T08:15:19Z</time>
      </trkpt>
      <trkpt lat="44.81149" lon="1.57918">
        <ele>155.87</ele>
        <time>2011-03-20T08:15:22Z</time>
      </trkpt>
      <trkpt lat="44.8114" lon="1.57924">
        <ele>154.43</ele>
        <time>2011-03-20T08:15:30Z</time>
      </trkpt>
      <trkpt lat="44.81138" lon="1.57925">
        <ele>154.43</ele>
        <time>2011-03-20T08:15:31Z</time>
      </trkpt>
      <trkpt lat="44.81123" lon="1.57933">
        <ele>153.95</ele>
        <time>2011-03-20T08:15:42Z</time>
      </trkpt>
      <trkpt lat="44.81116" lon="1.5794">
        <ele>152.99</ele>
        <time>2011-03-20T08:15:48Z</time>
      </trkpt>
      <trkpt lat="44.81108" lon="1.57937">
        <ele>152.51</ele>
        <time>2011-03-20T08:15:53Z</time>
      </trkpt>
      <trkpt lat="44.81094" lon="1.57932">
        <ele>151.06</ele>
        <time>2011-03-20T08:16:00Z</time>
      </trkpt>
      <trkpt lat="44.81084" lon="1.57929">
        <ele>151.54</ele>
        <time>2011-03-20T08:16:05Z</time>
      </trkpt>
      <trkpt lat="44.81076" lon="1.57932">
        <ele>152.03</ele>
        <time>2011-03-20T08:16:09Z</time>
      </trkpt>
      <trkpt lat="44.81072" lon="1.57932">
        <ele>151.54</ele>
        <time>2011-03-20T08:16:11Z</time>
      </trkpt>
      <trkpt lat="44.81063" lon="1.57931">
        <ele>150.58</ele>
        <time>2011-03-20T08:16:16Z</time>
      </trkpt>
      <trkpt lat="44.81057" lon="1.57932">
        <ele>150.1</ele>
        <time>2011-03-20T08:16:19Z</time>
      </trkpt>
      <trkpt lat="44.81045" lon="1.57925">
        <ele>148.18</ele>
        <time>2011-03-20T08:16:26Z</time>
      </trkpt>
      <trkpt lat="44.81039" lon="1.57927">
        <ele>146.74</ele>
        <time>2011-03-20T08:16:31Z</time>
      </trkpt>
      <trkpt lat="44.81027" lon="1.57931">
        <ele>145.78</ele>
        <time>2011-03-20T08:16:37Z</time>
      </trkpt>
      <trkpt lat="44.81021" lon="1.57936">
        <ele>146.74</ele>
        <time>2011-03-20T08:16:42Z</time>
      </trkpt>
      <trkpt lat="44.81016" lon="1.5794">
        <ele>146.26</ele>
        <time>2011-03-20T08:16:45Z</time>
      </trkpt>
      <trkpt lat="44.81011" lon="1.57944">
        <ele>146.26</ele>
        <time>2011-03-20T08:16:50Z</time>
      </trkpt>
      <trkpt lat="44.81003" lon="1.57957">
        <ele>144.82</ele>
        <time>2011-03-20T08:16:57Z</time>
      </trkpt>
      <trkpt lat="44.80996" lon="1.57963">
        <ele>142.89</ele>
        <time>2011-03-20T08:17:01Z</time>
      </trkpt>
      <trkpt lat="44.8099" lon="1.57977">
        <ele>142.41</ele>
        <time>2011-03-20T08:17:07Z</time>
      </trkpt>
      <trkpt lat="44.80988" lon="1.57986">
        <ele>142.89</ele>
        <time>2011-03-20T08:17:13Z</time>
      </trkpt>
      <trkpt lat="44.80984" lon="1.58006">
        <ele>144.82</ele>
        <time>2011-03-20T08:17:22Z</time>
      </trkpt>
      <trkpt lat="44.80985" lon="1.58018">
        <ele>143.37</ele>
        <time>2011-03-20T08:17:27Z</time>
      </trkpt>
      <trkpt lat="44.80984" lon="1.58025">
        <ele>141.93</ele>
        <time>2011-03-20T08:17:31Z</time>
      </trkpt>
      <trkpt lat="44.80983" lon="1.58029">
        <ele>141.45</ele>
        <time>2011-03-20T08:17:33Z</time>
      </trkpt>
      <trkpt lat="44.80986" lon="1.58041">
        <ele>142.89</ele>
        <time>2011-03-20T08:17:38Z</time>
      </trkpt>
      <trkpt lat="44.80983" lon="1.5805">
        <ele>143.85</ele>
        <time>2011-03-20T08:17:44Z</time>
      </trkpt>
      <trkpt lat="44.80983" lon="1.58055">
        <ele>144.34</ele>
        <time>2011-03-20T08:17:47Z</time>
      </trkpt>
      <trkpt lat="44.80983" lon="1.58061">
        <ele>144.82</ele>
        <time>2011-03-20T08:17:50Z</time>
      </trkpt>
      <trkpt lat="44.80982" lon="1.58077">
        <ele>146.26</ele>
        <time>2011-03-20T08:17:58Z</time>
      </trkpt>
      <trkpt lat="44.8098" lon="1.58084">
        <ele>147.22</ele>
        <time>2011-03-20T08:18:01Z</time>
      </trkpt>
      <trkpt lat="44.80975" lon="1.58098">
        <ele>150.1</ele>
        <time>2011-03-20T08:18:10Z</time>
      </trkpt>
      <trkpt lat="44.80975" lon="1.58101">
        <ele>150.1</ele>
        <time>2011-03-20T08:18:12Z</time>
      </trkpt>
      <trkpt lat="44.80967" lon="1.58108">
        <ele>150.58</ele>
        <time>2011-03-20T08:18:20Z</time>
      </trkpt>
      <trkpt lat="44.80959" lon="1.58107">
        <ele>151.54</ele>
        <time>2011-03-20T08:18:27Z</time>
      </trkpt>
      <trkpt lat="44.80959" lon="1.58102">
        <ele>151.54</ele>
        <time>2011-03-20T08:18:31Z</time>
      </trkpt>
      <trkpt lat="44.80961" lon="1.58092">
        <ele>153.95</ele>
        <time>2011-03-20T08:18:40Z</time>
      </trkpt>
      <trkpt lat="44.80961" lon="1.5808">
        <ele>155.39</ele>
        <time>2011-03-20T08:18:46Z</time>
      </trkpt>
      <trkpt lat="44.80961" lon="1.58069">
        <ele>155.87</ele>
        <time>2011-03-20T08:18:53Z</time>
      </trkpt>
      <trkpt lat="44.80955" lon="1.58064">
        <ele>155.87</ele>
        <time>2011-03-20T08:18:59Z</time>
      </trkpt>
      <trkpt lat="44.80948" lon="1.5806">
        <ele>156.35</ele>
        <time>2011-03-20T08:19:05Z</time>
      </trkpt>
      <trkpt lat="44.80947" lon="1.58059">
        <ele>155.87</ele>
        <time>2011-03-20T08:19:06Z</time>
      </trkpt>
      <trkpt lat="44.80937" lon="1.58053">
        <ele>157.31</ele>
        <time>2011-03-20T08:19:13Z</time>
      </trkpt>
      <trkpt lat="44.80933" lon="1.58052">
        <ele>157.31</ele>
        <time>2011-03-20T08:19:17Z</time>
      </trkpt>
      <trkpt lat="44.80929" lon="1.58049">
        <ele>157.79</ele>
        <time>2011-03-20T08:19:21Z</time>
      </trkpt>
      <trkpt lat="44.80922" lon="1.58042">
        <ele>158.27</ele>
        <time>2011-03-20T08:19:26Z</time>
      </trkpt>
      <trkpt lat="44.80913" lon="1.5804">
        <ele>159.24</ele>
        <time>2011-03-20T08:19:32Z</time>
      </trkpt>
      <trkpt lat="44.80903" lon="1.58044">
        <ele>161.64</ele>
        <time>2011-03-20T08:19:41Z</time>
      </trkpt>
      <trkpt lat="44.80895" lon="1.58046">
        <ele>164.52</ele>
        <time>2011-03-20T08:19:48Z</time>
      </trkpt>
      <trkpt lat="44.8089" lon="1.58046">
        <ele>165.96</ele>
        <time>2011-03-20T08:19:55Z</time>
      </trkpt>
      <trkpt lat="44.80878" lon="1.58049">
        <ele>164.52</ele>
        <time>2011-03-20T08:20:07Z</time>
      </trkpt>
      <trkpt lat="44.80877" lon="1.58049">
        <ele>165.48</ele>
        <time>2011-03-20T08:20:09Z</time>
      </trkpt>
      <trkpt lat="44.80871" lon="1.58051">
        <ele>168.37</ele>
        <time>2011-03-20T08:20:14Z</time>
      </trkpt>
      <trkpt lat="44.80861" lon="1.58058">
        <ele>169.33</ele>
        <time>2011-03-20T08:20:25Z</time>
      </trkpt>
      <trkpt lat="44.80849" lon="1.58065">
        <ele>170.29</ele>
        <time>2011-03-20T08:20:38Z</time>
      </trkpt>
      <trkpt lat="44.80835" lon="1.58071">
        <ele>172.69</ele>
        <time>2011-03-20T08:20:51Z</time>
      </trkpt>
      <trkpt lat="44.8082" lon="1.5807">
        <ele>174.14</ele>
        <time>2011-03-20T08:21:03Z</time>
      </trkpt>
      <trkpt lat="44.80809" lon="1.58076">
        <ele>176.06</ele>
        <time>2011-03-20T08:21:14Z</time>
      </trkpt>
      <trkpt lat="44.80796" lon="1.5808">
        <ele>178.94</ele>
        <time>2011-03-20T08:21:26Z</time>
      </trkpt>
      <trkpt lat="44.80794" lon="1.5808">
        <ele>184.23</ele>
        <time>2011-03-20T08:21:30Z</time>
      </trkpt>
      <trkpt lat="44.80788" lon="1.5808">
        <ele>184.71</ele>
        <time>2011-03-20T08:21:38Z</time>
      </trkpt>
      <trkpt lat="44.80785" lon="1.58082">
        <ele>186.15</ele>
        <time>2011-03-20T08:21:41Z</time>
      </trkpt>
      <trkpt lat="44.80782" lon="1.58082">
        <ele>189.52</ele>
        <time>2011-03-20T08:21:46Z</time>
      </trkpt>
      <trkpt lat="44.8078" lon="1.58083">
        <ele>189.52</ele>
        <time>2011-03-20T08:21:47Z</time>
      </trkpt>
      <trkpt lat="44.80774" lon="1.58086">
        <ele>186.15</ele>
        <time>2011-03-20T08:21:55Z</time>
      </trkpt>
      <trkpt lat="44.80767" lon="1.58093">
        <ele>187.59</ele>
        <time>2011-03-20T08:22:05Z</time>
      </trkpt>
      <trkpt lat="44.80758" lon="1.58096">
        <ele>190.96</ele>
        <time>2011-03-20T08:22:15Z</time>
      </trkpt>
      <trkpt lat="44.80756" lon="1.58098">
        <ele>194.8</ele>
        <time>2011-03-20T08:22:18Z</time>
      </trkpt>
      <trkpt lat="44.80756" lon="1.58101">
        <ele>196.25</ele>
        <time>2011-03-20T08:22:20Z</time>
      </trkpt>
      <trkpt lat="44.80753" lon="1.58107">
        <ele>199.61</ele>
        <time>2011-03-20T08:22:28Z</time>
      </trkpt>
      <trkpt lat="44.8075" lon="1.58111">
        <ele>201.05</ele>
        <time>2011-03-20T08:22:34Z</time>
      </trkpt>
      <trkpt lat="44.80744" lon="1.58112">
        <ele>202.49</ele>
        <time>2011-03-20T08:22:40Z</time>
      </trkpt>
      <trkpt lat="44.80739" lon="1.58115">
        <ele>204.9</ele>
        <time>2011-03-20T08:22:47Z</time>
      </trkpt>
      <trkpt lat="44.80739" lon="1.58115">
        <ele>204.9</ele>
        <time>2011-03-20T08:22:48Z</time>
      </trkpt>
      <trkpt lat="44.80731" lon="1.58122">
        <ele>205.86</ele>
        <time>2011-03-20T08:22:59Z</time>
      </trkpt>
      <trkpt lat="44.80723" lon="1.58129">
        <ele>206.34</ele>
        <time>2011-03-20T08:23:10Z</time>
      </trkpt>
      <trkpt lat="44.80712" lon="1.58134">
        <ele>207.78</ele>
        <time>2011-03-20T08:23:21Z</time>
      </trkpt>
      <trkpt lat="44.80697" lon="1.5814">
        <ele>209.7</ele>
        <time>2011-03-20T08:23:34Z</time>
      </trkpt>
      <trkpt lat="44.80691" lon="1.58145">
        <ele>212.11</ele>
        <time>2011-03-20T08:23:44Z</time>
      </trkpt>
      <trkpt lat="44.80682" lon="1.58144">
        <ele>214.99</ele>
        <time>2011-03-20T08:23:56Z</time>
      </trkpt>
      <trkpt lat="44.80677" lon="1.58145">
        <ele>215.95</ele>
        <time>2011-03-20T08:24:03Z</time>
      </trkpt>
      <trkpt lat="44.8067" lon="1.58149">
        <ele>218.36</ele>
        <time>2011-03-20T08:24:12Z</time>
      </trkpt>
      <trkpt lat="44.80668" lon="1.58149">
        <ele>218.84</ele>
        <time>2011-03-20T08:24:14Z</time>
      </trkpt>
      <trkpt lat="44.80664" lon="1.5815">
        <ele>219.32</ele>
        <time>2011-03-20T08:24:17Z</time>
      </trkpt>
      <trkpt lat="44.80656" lon="1.58151">
        <ele>222.2</ele>
        <time>2011-03-20T08:24:26Z</time>
      </trkpt>
      <trkpt lat="44.80649" lon="1.58153">
        <ele>225.57</ele>
        <time>2011-03-20T08:24:35Z</time>
      </trkpt>
      <trkpt lat="44.80646" lon="1.58152">
        <ele>227.01</ele>
        <time>2011-03-20T08:24:37Z</time>
      </trkpt>
      <trkpt lat="44.8064" lon="1.58152">
        <ele>226.05</ele>
        <time>2011-03-20T08:24:44Z</time>
      </trkpt>
      <trkpt lat="44.80628" lon="1.58153">
        <ele>227.49</ele>
        <time>2011-03-20T08:24:55Z</time>
      </trkpt>
      <trkpt lat="44.80625" lon="1.58156">
        <ele>227.97</ele>
        <time>2011-03-20T08:24:58Z</time>
      </trkpt>
      <trkpt lat="44.80619" lon="1.58159">
        <ele>227.97</ele>
        <time>2011-03-20T08:25:01Z</time>
      </trkpt>
      <trkpt lat="44.80619" lon="1.58167">
        <ele>228.45</ele>
        <time>2011-03-20T08:25:05Z</time>
      </trkpt>
      <trkpt lat="44.80618" lon="1.58174">
        <ele>228.93</ele>
        <time>2011-03-20T08:25:08Z</time>
      </trkpt>
      <trkpt lat="44.80618" lon="1.5819">
        <ele>228.93</ele>
        <time>2011-03-20T08:25:14Z</time>
      </trkpt>
      <trkpt lat="44.80619" lon="1.58196">
        <ele>228.93</ele>
        <time>2011-03-20T08:25:18Z</time>
      </trkpt>
      <trkpt lat="44.80618" lon="1.58203">
        <ele>228.45</ele>
        <time>2011-03-20T08:25:21Z</time>
      </trkpt>
      <trkpt lat="44.80617" lon="1.58215">
        <ele>228.45</ele>
        <time>2011-03-20T08:25:27Z</time>
      </trkpt>
      <trkpt lat="44.80618" lon="1.58229">
        <ele>229.89</ele>
        <time>2011-03-20T08:25:33Z</time>
      </trkpt>
      <trkpt lat="44.80617" lon="1.58234">
        <ele>228.93</ele>
        <time>2011-03-20T08:25:35Z</time>
      </trkpt>
      <trkpt lat="44.80621" lon="1.58249">
        <ele>228.93</ele>
        <time>2011-03-20T08:25:42Z</time>
      </trkpt>
      <trkpt lat="44.8062" lon="1.58256">
        <ele>229.41</ele>
        <time>2011-03-20T08:25:48Z</time>
      </trkpt>
      <trkpt lat="44.8062" lon="1.58269">
        <ele>229.89</ele>
        <time>2011-03-20T08:25:54Z</time>
      </trkpt>
      <trkpt lat="44.80621" lon="1.58279">
        <ele>229.89</ele>
        <time>2011-03-20T08:25:59Z</time>
      </trkpt>
      <trkpt lat="44.80622" lon="1.58287">
        <ele>230.37</ele>
        <time>2011-03-20T08:26:03Z</time>
      </trkpt>
      <trkpt lat="44.80622" lon="1.58295">
        <ele>231.33</ele>
        <time>2011-03-20T08:26:07Z</time>
      </trkpt>
      <trkpt lat="44.80626" lon="1.58304">
        <ele>230.85</ele>
        <time>2011-03-20T08:26:11Z</time>
      </trkpt>
      <trkpt lat="44.80628" lon="1.5831">
        <ele>231.81</ele>
        <time>2011-03-20T08:26:13Z</time>
      </trkpt>
      <trkpt lat="44.80631" lon="1.5832">
        <ele>232.3</ele>
        <time>2011-03-20T08:26:18Z</time>
      </trkpt>
      <trkpt lat="44.80633" lon="1.58326">
        <ele>233.26</ele>
        <time>2011-03-20T08:26:22Z</time>
      </trkpt>
      <trkpt lat="44.80635" lon="1.58334">
        <ele>236.62</ele>
        <time>2011-03-20T08:26:26Z</time>
      </trkpt>
      <trkpt lat="44.80636" lon="1.58338">
        <ele>240.47</ele>
        <time>2011-03-20T08:26:31Z</time>
      </trkpt>
      <trkpt lat="44.80636" lon="1.58339">
        <ele>240.47</ele>
        <time>2011-03-20T08:26:32Z</time>
      </trkpt>
      <trkpt lat="44.80641" lon="1.58362">
        <ele>241.43</ele>
        <time>2011-03-20T08:26:40Z</time>
      </trkpt>
      <trkpt lat="44.80634" lon="1.58375">
        <ele>241.91</ele>
        <time>2011-03-20T08:26:47Z</time>
      </trkpt>
      <trkpt lat="44.80627" lon="1.5838">
        <ele>242.87</ele>
        <time>2011-03-20T08:26:53Z</time>
      </trkpt>
      <trkpt lat="44.80619" lon="1.58386">
        <ele>242.87</ele>
        <time>2011-03-20T08:26:59Z</time>
      </trkpt>
      <trkpt lat="44.80616" lon="1.58391">
        <ele>242.39</ele>
        <time>2011-03-20T08:27:03Z</time>
      </trkpt>
      <trkpt lat="44.80609" lon="1.58402">
        <ele>241.91</ele>
        <time>2011-03-20T08:27:08Z</time>
      </trkpt>
      <trkpt lat="44.80605" lon="1.58404">
        <ele>240.47</ele>
        <time>2011-03-20T08:27:11Z</time>
      </trkpt>
      <trkpt lat="44.80599" lon="1.58408">
        <ele>238.06</ele>
        <time>2011-03-20T08:27:15Z</time>
      </trkpt>
      <trkpt lat="44.80598" lon="1.58414">
        <ele>237.1</ele>
        <time>2011-03-20T08:27:19Z</time>
      </trkpt>
      <trkpt lat="44.80598" lon="1.58423">
        <ele>238.06</ele>
        <time>2011-03-20T08:27:22Z</time>
      </trkpt>
      <trkpt lat="44.806" lon="1.58428">
        <ele>237.58</ele>
        <time>2011-03-20T08:27:24Z</time>
      </trkpt>
      <trkpt lat="44.80607" lon="1.58433">
        <ele>237.58</ele>
        <time>2011-03-20T08:27:28Z</time>
      </trkpt>
      <trkpt lat="44.8061" lon="1.58438">
        <ele>237.1</ele>
        <time>2011-03-20T08:27:32Z</time>
      </trkpt>
      <trkpt lat="44.80616" lon="1.5845">
        <ele>236.14</ele>
        <time>2011-03-20T08:27:39Z</time>
      </trkpt>
      <trkpt lat="44.80619" lon="1.58453">
        <ele>236.14</ele>
        <time>2011-03-20T08:27:42Z</time>
      </trkpt>
      <trkpt lat="44.80621" lon="1.58457">
        <ele>235.66</ele>
        <time>2011-03-20T08:27:44Z</time>
      </trkpt>
      <trkpt lat="44.80628" lon="1.58468">
        <ele>235.18</ele>
        <time>2011-03-20T08:27:50Z</time>
      </trkpt>
      <trkpt lat="44.80636" lon="1.58478">
        <ele>233.74</ele>
        <time>2011-03-20T08:27:55Z</time>
      </trkpt>
      <trkpt lat="44.8064" lon="1.58482">
        <ele>232.78</ele>
        <time>2011-03-20T08:27:58Z</time>
      </trkpt>
      <trkpt lat="44.80641" lon="1.58485">
        <ele>232.78</ele>
        <time>2011-03-20T08:28:00Z</time>
      </trkpt>
      <trkpt lat="44.80648" lon="1.58492">
        <ele>231.33</ele>
        <time>2011-03-20T08:28:07Z</time>
      </trkpt>
      <trkpt lat="44.80649" lon="1.58494">
        <ele>231.33</ele>
        <time>2011-03-20T08:28:09Z</time>
      </trkpt>
      <trkpt lat="44.80656" lon="1.58499">
        <ele>229.89</ele>
        <time>2011-03-20T08:28:13Z</time>
      </trkpt>
      <trkpt lat="44.80661" lon="1.58503">
        <ele>230.37</ele>
        <time>2011-03-20T08:28:17Z</time>
      </trkpt>
      <trkpt lat="44.80672" lon="1.58515">
        <ele>228.93</ele>
        <time>2011-03-20T08:28:24Z</time>
      </trkpt>
      <trkpt lat="44.80677" lon="1.58521">
        <ele>227.49</ele>
        <time>2011-03-20T08:28:30Z</time>
      </trkpt>
      <trkpt lat="44.80677" lon="1.58523">
        <ele>227.49</ele>
        <time>2011-03-20T08:28:31Z</time>
      </trkpt>
      <trkpt lat="44.80682" lon="1.58534">
        <ele>226.53</ele>
        <time>2011-03-20T08:28:36Z</time>
      </trkpt>
      <trkpt lat="44.80684" lon="1.58541">
        <ele>226.05</ele>
        <time>2011-03-20T08:28:39Z</time>
      </trkpt>
      <trkpt lat="44.80683" lon="1.58547">
        <ele>225.57</ele>
        <time>2011-03-20T08:28:42Z</time>
      </trkpt>
      <trkpt lat="44.80687" lon="1.58565">
        <ele>224.61</ele>
        <time>2011-03-20T08:28:48Z</time>
      </trkpt>
      <trkpt lat="44.8069" lon="1.58572">
        <ele>230.37</ele>
        <time>2011-03-20T08:28:52Z</time>
      </trkpt>
      <trkpt lat="44.80691" lon="1.58578">
        <ele>226.53</ele>
        <time>2011-03-20T08:28:56Z</time>
      </trkpt>
      <trkpt lat="44.807" lon="1.58589">
        <ele>224.61</ele>
        <time>2011-03-20T08:29:02Z</time>
      </trkpt>
      <trkpt lat="44.80705" lon="1.58594">
        <ele>227.01</ele>
        <time>2011-03-20T08:29:06Z</time>
      </trkpt>
      <trkpt lat="44.8071" lon="1.586">
        <ele>223.64</ele>
        <time>2011-03-20T08:29:10Z</time>
      </trkpt>
      <trkpt lat="44.80713" lon="1.58603">
        <ele>222.2</ele>
        <time>2011-03-20T08:29:12Z</time>
      </trkpt>
      <trkpt lat="44.80718" lon="1.58611">
        <ele>221.24</ele>
        <time>2011-03-20T08:29:16Z</time>
      </trkpt>
      <trkpt lat="44.80719" lon="1.58615">
        <ele>220.76</ele>
        <time>2011-03-20T08:29:18Z</time>
      </trkpt>
      <trkpt lat="44.80724" lon="1.5862">
        <ele>220.28</ele>
        <time>2011-03-20T08:29:21Z</time>
      </trkpt>
      <trkpt lat="44.80725" lon="1.58625">
        <ele>219.8</ele>
        <time>2011-03-20T08:29:24Z</time>
      </trkpt>
      <trkpt lat="44.8073" lon="1.58638">
        <ele>218.36</ele>
        <time>2011-03-20T08:29:29Z</time>
      </trkpt>
      <trkpt lat="44.80732" lon="1.58642">
        <ele>217.4</ele>
        <time>2011-03-20T08:29:31Z</time>
      </trkpt>
      <trkpt lat="44.80733" lon="1.58642">
        <ele>216.91</ele>
        <time>2011-03-20T08:29:32Z</time>
      </trkpt>
      <trkpt lat="44.80742" lon="1.58651">
        <ele>215.47</ele>
        <time>2011-03-20T08:29:39Z</time>
      </trkpt>
      <trkpt lat="44.80745" lon="1.58654">
        <ele>218.36</ele>
        <time>2011-03-20T08:29:41Z</time>
      </trkpt>
      <trkpt lat="44.80748" lon="1.58659">
        <ele>220.76</ele>
        <time>2011-03-20T08:29:44Z</time>
      </trkpt>
      <trkpt lat="44.80753" lon="1.58662">
        <ele>219.8</ele>
        <time>2011-03-20T08:29:49Z</time>
      </trkpt>
      <trkpt lat="44.80755" lon="1.58663">
        <ele>219.8</ele>
        <time>2011-03-20T08:29:51Z</time>
      </trkpt>
      <trkpt lat="44.80762" lon="1.58676">
        <ele>218.36</ele>
        <time>2011-03-20T08:29:57Z</time>
      </trkpt>
      <trkpt lat="44.80763" lon="1.58678">
        <ele>217.4</ele>
        <time>2011-03-20T08:29:58Z</time>
      </trkpt>
      <trkpt lat="44.80759" lon="1.58684">
        <ele>215.95</ele>
        <time>2011-03-20T08:30:03Z</time>
      </trkpt>
      <trkpt lat="44.80756" lon="1.58683">
        <ele>214.99</ele>
        <time>2011-03-20T08:30:05Z</time>
      </trkpt>
      <trkpt lat="44.80747" lon="1.58683">
        <ele>213.55</ele>
        <time>2011-03-20T08:30:11Z</time>
      </trkpt>
      <trkpt lat="44.80739" lon="1.5868">
        <ele>210.19</ele>
        <time>2011-03-20T08:30:18Z</time>
      </trkpt>
      <trkpt lat="44.80737" lon="1.58678">
        <ele>210.19</ele>
        <time>2011-03-20T08:30:19Z</time>
      </trkpt>
      <trkpt lat="44.80735" lon="1.58677">
        <ele>209.22</ele>
        <time>2011-03-20T08:30:20Z</time>
      </trkpt>
      <trkpt lat="44.80726" lon="1.58682">
        <ele>207.3</ele>
        <time>2011-03-20T08:30:26Z</time>
      </trkpt>
      <trkpt lat="44.80726" lon="1.5868">
        <ele>205.38</ele>
        <time>2011-03-20T08:30:30Z</time>
      </trkpt>
      <trkpt lat="44.80721" lon="1.5868">
        <ele>203.94</ele>
        <time>2011-03-20T08:30:33Z</time>
      </trkpt>
      <trkpt lat="44.80719" lon="1.5868">
        <ele>203.46</ele>
        <time>2011-03-20T08:30:34Z</time>
      </trkpt>
      <trkpt lat="44.80715" lon="1.58682">
        <ele>202.49</ele>
        <time>2011-03-20T08:30:36Z</time>
      </trkpt>
      <trkpt lat="44.80709" lon="1.58689">
        <ele>200.09</ele>
        <time>2011-03-20T08:30:42Z</time>
      </trkpt>
      <trkpt lat="44.80704" lon="1.58693">
        <ele>198.65</ele>
        <time>2011-03-20T08:30:45Z</time>
      </trkpt>
      <trkpt lat="44.80701" lon="1.58694">
        <ele>198.65</ele>
        <time>2011-03-20T08:30:46Z</time>
      </trkpt>
      <trkpt lat="44.80695" lon="1.58694">
        <ele>196.73</ele>
        <time>2011-03-20T08:30:50Z</time>
      </trkpt>
      <trkpt lat="44.80691" lon="1.58696">
        <ele>195.77</ele>
        <time>2011-03-20T08:30:53Z</time>
      </trkpt>
      <trkpt lat="44.80684" lon="1.58695">
        <ele>193.84</ele>
        <time>2011-03-20T08:30:56Z</time>
      </trkpt>
      <trkpt lat="44.80679" lon="1.58694">
        <ele>192.4</ele>
        <time>2011-03-20T08:30:59Z</time>
      </trkpt>
      <trkpt lat="44.80677" lon="1.58697">
        <ele>191.92</ele>
        <time>2011-03-20T08:31:00Z</time>
      </trkpt>
      <trkpt lat="44.80672" lon="1.58705">
        <ele>190.96</ele>
        <time>2011-03-20T08:31:08Z</time>
      </trkpt>
      <trkpt lat="44.80674" lon="1.5871">
        <ele>187.11</ele>
        <time>2011-03-20T08:31:19Z</time>
      </trkpt>
      <trkpt lat="44.80675" lon="1.58711">
        <ele>187.59</ele>
        <time>2011-03-20T08:31:20Z</time>
      </trkpt>
      <trkpt lat="44.80687" lon="1.58722">
        <ele>185.67</ele>
        <time>2011-03-20T08:31:27Z</time>
      </trkpt>
      <trkpt lat="44.80694" lon="1.58723">
        <ele>183.75</ele>
        <time>2011-03-20T08:31:30Z</time>
      </trkpt>
      <trkpt lat="44.80695" lon="1.58726">
        <ele>182.79</ele>
        <time>2011-03-20T08:31:32Z</time>
      </trkpt>
      <trkpt lat="44.80701" lon="1.58732">
        <ele>178.94</ele>
        <time>2011-03-20T08:31:37Z</time>
      </trkpt>
      <trkpt lat="44.80704" lon="1.58733">
        <ele>177.98</ele>
        <time>2011-03-20T08:31:38Z</time>
      </trkpt>
      <trkpt lat="44.80709" lon="1.58734">
        <ele>176.06</ele>
        <time>2011-03-20T08:31:42Z</time>
      </trkpt>
      <trkpt lat="44.8071" lon="1.58734">
        <ele>175.58</ele>
        <time>2011-03-20T08:31:43Z</time>
      </trkpt>
      <trkpt lat="44.80714" lon="1.58743">
        <ele>175.58</ele>
        <time>2011-03-20T08:31:47Z</time>
      </trkpt>
      <trkpt lat="44.80717" lon="1.58747">
        <ele>174.14</ele>
        <time>2011-03-20T08:31:50Z</time>
      </trkpt>
      <trkpt lat="44.80719" lon="1.5875">
        <ele>173.17</ele>
        <time>2011-03-20T08:31:51Z</time>
      </trkpt>
      <trkpt lat="44.80723" lon="1.58761">
        <ele>172.21</ele>
        <time>2011-03-20T08:31:56Z</time>
      </trkpt>
      <trkpt lat="44.80724" lon="1.58762">
        <ele>171.73</ele>
        <time>2011-03-20T08:31:57Z</time>
      </trkpt>
      <trkpt lat="44.80724" lon="1.58768">
        <ele>169.81</ele>
        <time>2011-03-20T08:32:01Z</time>
      </trkpt>
      <trkpt lat="44.80727" lon="1.58778">
        <ele>168.85</ele>
        <time>2011-03-20T08:32:06Z</time>
      </trkpt>
      <trkpt lat="44.80728" lon="1.58793">
        <ele>165.96</ele>
        <time>2011-03-20T08:32:12Z</time>
      </trkpt>
      <trkpt lat="44.80728" lon="1.58792">
        <ele>165.96</ele>
        <time>2011-03-20T08:32:13Z</time>
      </trkpt>
      <trkpt lat="44.80729" lon="1.58794">
        <ele>165</ele>
        <time>2011-03-20T08:32:16Z</time>
      </trkpt>
      <trkpt lat="44.80733" lon="1.58797">
        <ele>165</ele>
        <time>2011-03-20T08:32:19Z</time>
      </trkpt>
      <trkpt lat="44.8074" lon="1.58807">
        <ele>162.12</ele>
        <time>2011-03-20T08:32:25Z</time>
      </trkpt>
      <trkpt lat="44.80749" lon="1.5882">
        <ele>160.68</ele>
        <time>2011-03-20T08:32:33Z</time>
      </trkpt>
      <trkpt lat="44.80759" lon="1.58827">
        <ele>158.75</ele>
        <time>2011-03-20T08:32:39Z</time>
      </trkpt>
      <trkpt lat="44.80765" lon="1.58827">
        <ele>158.75</ele>
        <time>2011-03-20T08:32:44Z</time>
      </trkpt>
      <trkpt lat="44.80768" lon="1.58828">
        <ele>158.75</ele>
        <time>2011-03-20T08:32:52Z</time>
      </trkpt>
      <trkpt lat="44.80769" lon="1.58827">
        <ele>159.24</ele>
        <time>2011-03-20T08:32:54Z</time>
      </trkpt>
      <trkpt lat="44.8077" lon="1.58829">
        <ele>158.27</ele>
        <time>2011-03-20T08:32:56Z</time>
      </trkpt>
      <trkpt lat="44.80776" lon="1.58835">
        <ele>157.31</ele>
        <time>2011-03-20T08:33:01Z</time>
      </trkpt>
      <trkpt lat="44.80781" lon="1.58838">
        <ele>157.31</ele>
        <time>2011-03-20T08:33:04Z</time>
      </trkpt>
      <trkpt lat="44.80782" lon="1.58839">
        <ele>156.35</ele>
        <time>2011-03-20T08:33:06Z</time>
      </trkpt>
      <trkpt lat="44.80777" lon="1.5884">
        <ele>155.39</ele>
        <time>2011-03-20T08:33:09Z</time>
      </trkpt>
      <trkpt lat="44.8077" lon="1.58838">
        <ele>153.47</ele>
        <time>2011-03-20T08:33:14Z</time>
      </trkpt>
      <trkpt lat="44.80771" lon="1.58845">
        <ele>151.54</ele>
        <time>2011-03-20T08:33:20Z</time>
      </trkpt>
      <trkpt lat="44.80769" lon="1.58857">
        <ele>150.1</ele>
        <time>2011-03-20T08:33:26Z</time>
      </trkpt>
      <trkpt lat="44.80766" lon="1.58864">
        <ele>149.14</ele>
        <time>2011-03-20T08:33:33Z</time>
      </trkpt>
      <trkpt lat="44.80761" lon="1.58875">
        <ele>149.14</ele>
        <time>2011-03-20T08:33:38Z</time>
      </trkpt>
      <trkpt lat="44.80759" lon="1.5888">
        <ele>150.1</ele>
        <time>2011-03-20T08:33:41Z</time>
      </trkpt>
      <trkpt lat="44.80761" lon="1.58894">
        <ele>152.51</ele>
        <time>2011-03-20T08:33:48Z</time>
      </trkpt>
      <trkpt lat="44.8076" lon="1.58897">
        <ele>153.47</ele>
        <time>2011-03-20T08:33:51Z</time>
      </trkpt>
      <trkpt lat="44.80761" lon="1.589">
        <ele>154.43</ele>
        <time>2011-03-20T08:33:53Z</time>
      </trkpt>
      <trkpt lat="44.80765" lon="1.58906">
        <ele>154.43</ele>
        <time>2011-03-20T08:33:58Z</time>
      </trkpt>
      <trkpt lat="44.80759" lon="1.58903">
        <ele>153.47</ele>
        <time>2011-03-20T08:34:03Z</time>
      </trkpt>
      <trkpt lat="44.80756" lon="1.58902">
        <ele>154.91</ele>
        <time>2011-03-20T08:34:06Z</time>
      </trkpt>
      <trkpt lat="44.80755" lon="1.58909">
        <ele>156.35</ele>
        <time>2011-03-20T08:34:09Z</time>
      </trkpt>
      <trkpt lat="44.80754" lon="1.5892">
        <ele>156.35</ele>
        <time>2011-03-20T08:34:16Z</time>
      </trkpt>
      <trkpt lat="44.80752" lon="1.58925">
        <ele>157.31</ele>
        <time>2011-03-20T08:34:20Z</time>
      </trkpt>
      <trkpt lat="44.80744" lon="1.58934">
        <ele>160.68</ele>
        <time>2011-03-20T08:34:27Z</time>
      </trkpt>
      <trkpt lat="44.80742" lon="1.58936">
        <ele>162.12</ele>
        <time>2011-03-20T08:34:30Z</time>
      </trkpt>
      <trkpt lat="44.80736" lon="1.58938">
        <ele>164.52</ele>
        <time>2011-03-20T08:34:35Z</time>
      </trkpt>
      <trkpt lat="44.80729" lon="1.58943">
        <ele>165.96</ele>
        <time>2011-03-20T08:34:42Z</time>
      </trkpt>
      <trkpt lat="44.80725" lon="1.58942">
        <ele>167.41</ele>
        <time>2011-03-20T08:34:47Z</time>
      </trkpt>
      <trkpt lat="44.80719" lon="1.58939">
        <ele>169.81</ele>
        <time>2011-03-20T08:34:52Z</time>
      </trkpt>
      <trkpt lat="44.80716" lon="1.58932">
        <ele>170.29</ele>
        <time>2011-03-20T08:34:56Z</time>
      </trkpt>
      <trkpt lat="44.80708" lon="1.58924">
        <ele>170.29</ele>
        <time>2011-03-20T08:35:03Z</time>
      </trkpt>
      <trkpt lat="44.80703" lon="1.58918">
        <ele>169.33</ele>
        <time>2011-03-20T08:35:08Z</time>
      </trkpt>
      <trkpt lat="44.80698" lon="1.58915">
        <ele>168.85</ele>
        <time>2011-03-20T08:35:11Z</time>
      </trkpt>
      <trkpt lat="44.80693" lon="1.58908">
        <ele>168.85</ele>
        <time>2011-03-20T08:35:14Z</time>
      </trkpt>
      <trkpt lat="44.80684" lon="1.58906">
        <ele>168.37</ele>
        <time>2011-03-20T08:35:19Z</time>
      </trkpt>
      <trkpt lat="44.80677" lon="1.58904">
        <ele>167.89</ele>
        <time>2011-03-20T08:35:26Z</time>
      </trkpt>
      <trkpt lat="44.80668" lon="1.58898">
        <ele>165.96</ele>
        <time>2011-03-20T08:35:34Z</time>
      </trkpt>
      <trkpt lat="44.80665" lon="1.58896">
        <ele>165</ele>
        <time>2011-03-20T08:35:38Z</time>
      </trkpt>
      <trkpt lat="44.80655" lon="1.58886">
        <ele>163.08</ele>
        <time>2011-03-20T08:35:45Z</time>
      </trkpt>
      <trkpt lat="44.80647" lon="1.58878">
        <ele>160.68</ele>
        <time>2011-03-20T08:35:48Z</time>
      </trkpt>
      <trkpt lat="44.80645" lon="1.58878">
        <ele>160.68</ele>
        <time>2011-03-20T08:35:49Z</time>
      </trkpt>
      <trkpt lat="44.80642" lon="1.58875">
        <ele>160.2</ele>
        <time>2011-03-20T08:35:52Z</time>
      </trkpt>
      <trkpt lat="44.80639" lon="1.58871">
        <ele>159.24</ele>
        <time>2011-03-20T08:35:53Z</time>
      </trkpt>
      <trkpt lat="44.80636" lon="1.58868">
        <ele>159.24</ele>
        <time>2011-03-20T08:35:54Z</time>
      </trkpt>
      <trkpt lat="44.80634" lon="1.58868">
        <ele>158.75</ele>
        <time>2011-03-20T08:35:55Z</time>
      </trkpt>
      <trkpt lat="44.80634" lon="1.5887">
        <ele>157.79</ele>
        <time>2011-03-20T08:35:56Z</time>
      </trkpt>
      <trkpt lat="44.80632" lon="1.5887">
        <ele>157.31</ele>
        <time>2011-03-20T08:35:57Z</time>
      </trkpt>
      <trkpt lat="44.80617" lon="1.58865">
        <ele>154.91</ele>
        <time>2011-03-20T08:36:04Z</time>
      </trkpt>
      <trkpt lat="44.8061" lon="1.5886">
        <ele>154.43</ele>
        <time>2011-03-20T08:36:07Z</time>
      </trkpt>
      <trkpt lat="44.80597" lon="1.58856">
        <ele>152.03</ele>
        <time>2011-03-20T08:36:13Z</time>
      </trkpt>
      <trkpt lat="44.80596" lon="1.58858">
        <ele>151.54</ele>
        <time>2011-03-20T08:36:14Z</time>
      </trkpt>
      <trkpt lat="44.80591" lon="1.58872">
        <ele>151.06</ele>
        <time>2011-03-20T08:36:19Z</time>
      </trkpt>
      <trkpt lat="44.80583" lon="1.58876">
        <ele>148.18</ele>
        <time>2011-03-20T08:36:26Z</time>
      </trkpt>
      <trkpt lat="44.80584" lon="1.58876">
        <ele>147.22</ele>
        <time>2011-03-20T08:36:33Z</time>
      </trkpt>
      <trkpt lat="44.80583" lon="1.58873">
        <ele>147.22</ele>
        <time>2011-03-20T08:36:36Z</time>
      </trkpt>
      <trkpt lat="44.80585" lon="1.58849">
        <ele>144.34</ele>
        <time>2011-03-20T08:36:43Z</time>
      </trkpt>
      <trkpt lat="44.80584" lon="1.58846">
        <ele>144.34</ele>
        <time>2011-03-20T08:36:44Z</time>
      </trkpt>
      <trkpt lat="44.80581" lon="1.58828">
        <ele>143.37</ele>
        <time>2011-03-20T08:36:49Z</time>
      </trkpt>
      <trkpt lat="44.80575" lon="1.58815">
        <ele>143.37</ele>
        <time>2011-03-20T08:36:54Z</time>
      </trkpt>
      <trkpt lat="44.80565" lon="1.58815">
        <ele>141.45</ele>
        <time>2011-03-20T08:36:59Z</time>
      </trkpt>
      <trkpt lat="44.80559" lon="1.58816">
        <ele>141.93</ele>
        <time>2011-03-20T08:37:04Z</time>
      </trkpt>
      <trkpt lat="44.80549" lon="1.58808">
        <ele>142.41</ele>
        <time>2011-03-20T08:37:10Z</time>
      </trkpt>
      <trkpt lat="44.80539" lon="1.58802">
        <ele>141.45</ele>
        <time>2011-03-20T08:37:15Z</time>
      </trkpt>
      <trkpt lat="44.80528" lon="1.58792">
        <ele>141.45</ele>
        <time>2011-03-20T08:37:21Z</time>
      </trkpt>
      <trkpt lat="44.80521" lon="1.58783">
        <ele>141.45</ele>
        <time>2011-03-20T08:37:27Z</time>
      </trkpt>
      <trkpt lat="44.80517" lon="1.58784">
        <ele>140.97</ele>
        <time>2011-03-20T08:37:30Z</time>
      </trkpt>
      <trkpt lat="44.80508" lon="1.58776">
        <ele>141.93</ele>
        <time>2011-03-20T08:37:35Z</time>
      </trkpt>
      <trkpt lat="44.80504" lon="1.58768">
        <ele>141.93</ele>
        <time>2011-03-20T08:37:39Z</time>
      </trkpt>
      <trkpt lat="44.80499" lon="1.58764">
        <ele>142.89</ele>
        <time>2011-03-20T08:37:42Z</time>
      </trkpt>
      <trkpt lat="44.80498" lon="1.58763">
        <ele>143.37</ele>
        <time>2011-03-20T08:37:43Z</time>
      </trkpt>
      <trkpt lat="44.8049" lon="1.58755">
        <ele>143.85</ele>
        <time>2011-03-20T08:37:48Z</time>
      </trkpt>
      <trkpt lat="44.80484" lon="1.58752">
        <ele>145.3</ele>
        <time>2011-03-20T08:37:52Z</time>
      </trkpt>
      <trkpt lat="44.80482" lon="1.58744">
        <ele>147.22</ele>
        <time>2011-03-20T08:37:54Z</time>
      </trkpt>
      <trkpt lat="44.80478" lon="1.58741">
        <ele>148.18</ele>
        <time>2011-03-20T08:37:56Z</time>
      </trkpt>
      <trkpt lat="44.80474" lon="1.58732">
        <ele>149.62</ele>
        <time>2011-03-20T08:37:59Z</time>
      </trkpt>
      <trkpt lat="44.80469" lon="1.58724">
        <ele>150.1</ele>
        <time>2011-03-20T08:38:04Z</time>
      </trkpt>
      <trkpt lat="44.80464" lon="1.58716">
        <ele>150.58</ele>
        <time>2011-03-20T08:38:10Z</time>
      </trkpt>
      <trkpt lat="44.80462" lon="1.58714">
        <ele>151.54</ele>
        <time>2011-03-20T08:38:12Z</time>
      </trkpt>
      <trkpt lat="44.80454" lon="1.58705">
        <ele>152.03</ele>
        <time>2011-03-20T08:38:20Z</time>
      </trkpt>
      <trkpt lat="44.80449" lon="1.58699">
        <ele>152.51</ele>
        <time>2011-03-20T08:38:24Z</time>
      </trkpt>
      <trkpt lat="44.80445" lon="1.58689">
        <ele>152.51</ele>
        <time>2011-03-20T08:38:30Z</time>
      </trkpt>
      <trkpt lat="44.8044" lon="1.58683">
        <ele>152.03</ele>
        <time>2011-03-20T08:38:35Z</time>
      </trkpt>
      <trkpt lat="44.80435" lon="1.5868">
        <ele>151.54</ele>
        <time>2011-03-20T08:38:38Z</time>
      </trkpt>
      <trkpt lat="44.80431" lon="1.58671">
        <ele>152.03</ele>
        <time>2011-03-20T08:38:43Z</time>
      </trkpt>
      <trkpt lat="44.80426" lon="1.58661">
        <ele>151.54</ele>
        <time>2011-03-20T08:38:47Z</time>
      </trkpt>
      <trkpt lat="44.80417" lon="1.58656">
        <ele>151.54</ele>
        <time>2011-03-20T08:38:52Z</time>
      </trkpt>
      <trkpt lat="44.80412" lon="1.5865">
        <ele>150.58</ele>
        <time>2011-03-20T08:38:56Z</time>
      </trkpt>
      <trkpt lat="44.8041" lon="1.5865">
        <ele>150.58</ele>
        <time>2011-03-20T08:38:57Z</time>
      </trkpt>
      <trkpt lat="44.80401" lon="1.58639">
        <ele>151.06</ele>
        <time>2011-03-20T08:39:04Z</time>
      </trkpt>
      <trkpt lat="44.80392" lon="1.5863">
        <ele>152.03</ele>
        <time>2011-03-20T08:39:10Z</time>
      </trkpt>
      <trkpt lat="44.8039" lon="1.58627">
        <ele>152.03</ele>
        <time>2011-03-20T08:39:13Z</time>
      </trkpt>
      <trkpt lat="44.80385" lon="1.58614">
        <ele>152.51</ele>
        <time>2011-03-20T08:39:20Z</time>
      </trkpt>
      <trkpt lat="44.80381" lon="1.58609">
        <ele>152.03</ele>
        <time>2011-03-20T08:39:25Z</time>
      </trkpt>
      <trkpt lat="44.80378" lon="1.58603">
        <ele>152.51</ele>
        <time>2011-03-20T08:39:28Z</time>
      </trkpt>
      <trkpt lat="44.80369" lon="1.58594">
        <ele>153.47</ele>
        <time>2011-03-20T08:39:34Z</time>
      </trkpt>
      <trkpt lat="44.80366" lon="1.5858">
        <ele>154.43</ele>
        <time>2011-03-20T08:39:38Z</time>
      </trkpt>
      <trkpt lat="44.80359" lon="1.58572">
        <ele>153.95</ele>
        <time>2011-03-20T08:39:42Z</time>
      </trkpt>
      <trkpt lat="44.80354" lon="1.58558">
        <ele>153.47</ele>
        <time>2011-03-20T08:39:48Z</time>
      </trkpt>
      <trkpt lat="44.80352" lon="1.58552">
        <ele>155.39</ele>
        <time>2011-03-20T08:39:54Z</time>
      </trkpt>
      <trkpt lat="44.8035" lon="1.5855">
        <ele>155.87</ele>
        <time>2011-03-20T08:39:57Z</time>
      </trkpt>
      <trkpt lat="44.80338" lon="1.58557">
        <ele>157.79</ele>
        <time>2011-03-20T08:40:05Z</time>
      </trkpt>
      <trkpt lat="44.80332" lon="1.58552">
        <ele>160.68</ele>
        <time>2011-03-20T08:40:12Z</time>
      </trkpt>
      <trkpt lat="44.80331" lon="1.58548">
        <ele>160.68</ele>
        <time>2011-03-20T08:40:14Z</time>
      </trkpt>
      <trkpt lat="44.80317" lon="1.58544">
        <ele>164.04</ele>
        <time>2011-03-20T08:40:23Z</time>
      </trkpt>
      <trkpt lat="44.80306" lon="1.58538">
        <ele>164.52</ele>
        <time>2011-03-20T08:40:30Z</time>
      </trkpt>
      <trkpt lat="44.80296" lon="1.58533">
        <ele>164.52</ele>
        <time>2011-03-20T08:40:37Z</time>
      </trkpt>
      <trkpt lat="44.80291" lon="1.58534">
        <ele>164.04</ele>
        <time>2011-03-20T08:40:42Z</time>
      </trkpt>
      <trkpt lat="44.80286" lon="1.58527">
        <ele>163.08</ele>
        <time>2011-03-20T08:40:45Z</time>
      </trkpt>
      <trkpt lat="44.8028" lon="1.5852">
        <ele>164.04</ele>
        <time>2011-03-20T08:40:52Z</time>
      </trkpt>
      <trkpt lat="44.80279" lon="1.58519">
        <ele>164.52</ele>
        <time>2011-03-20T08:40:53Z</time>
      </trkpt>
      <trkpt lat="44.80265" lon="1.58508">
        <ele>164.52</ele>
        <time>2011-03-20T08:41:01Z</time>
      </trkpt>
      <trkpt lat="44.80264" lon="1.58508">
        <ele>164.52</ele>
        <time>2011-03-20T08:41:02Z</time>
      </trkpt>
      <trkpt lat="44.8026" lon="1.58503">
        <ele>165.96</ele>
        <time>2011-03-20T08:41:07Z</time>
      </trkpt>
      <trkpt lat="44.80256" lon="1.58502">
        <ele>166.93</ele>
        <time>2011-03-20T08:41:11Z</time>
      </trkpt>
      <trkpt lat="44.8025" lon="1.585">
        <ele>166.93</ele>
        <time>2011-03-20T08:41:16Z</time>
      </trkpt>
      <trkpt lat="44.80239" lon="1.58501">
        <ele>165.96</ele>
        <time>2011-03-20T08:41:22Z</time>
      </trkpt>
      <trkpt lat="44.80236" lon="1.58502">
        <ele>166.45</ele>
        <time>2011-03-20T08:41:24Z</time>
      </trkpt>
      <trkpt lat="44.80224" lon="1.58496">
        <ele>168.85</ele>
        <time>2011-03-20T08:41:32Z</time>
      </trkpt>
      <trkpt lat="44.80223" lon="1.58494">
        <ele>168.85</ele>
        <time>2011-03-20T08:41:33Z</time>
      </trkpt>
      <trkpt lat="44.80221" lon="1.58493">
        <ele>168.85</ele>
        <time>2011-03-20T08:41:34Z</time>
      </trkpt>
      <trkpt lat="44.80214" lon="1.58488">
        <ele>170.29</ele>
        <time>2011-03-20T08:41:40Z</time>
      </trkpt>
      <trkpt lat="44.8021" lon="1.58487">
        <ele>170.77</ele>
        <time>2011-03-20T08:41:42Z</time>
      </trkpt>
      <trkpt lat="44.80202" lon="1.58485">
        <ele>170.77</ele>
        <time>2011-03-20T08:41:46Z</time>
      </trkpt>
      <trkpt lat="44.80196" lon="1.58481">
        <ele>170.77</ele>
        <time>2011-03-20T08:41:51Z</time>
      </trkpt>
      <trkpt lat="44.80189" lon="1.58479">
        <ele>171.25</ele>
        <time>2011-03-20T08:41:56Z</time>
      </trkpt>
      <trkpt lat="44.80179" lon="1.58469">
        <ele>171.25</ele>
        <time>2011-03-20T08:42:02Z</time>
      </trkpt>
      <trkpt lat="44.8017" lon="1.58459">
        <ele>171.73</ele>
        <time>2011-03-20T08:42:08Z</time>
      </trkpt>
      <trkpt lat="44.80163" lon="1.58455">
        <ele>173.17</ele>
        <time>2011-03-20T08:42:12Z</time>
      </trkpt>
      <trkpt lat="44.80156" lon="1.58449">
        <ele>173.66</ele>
        <time>2011-03-20T08:42:20Z</time>
      </trkpt>
      <trkpt lat="44.80147" lon="1.58443">
        <ele>175.1</ele>
        <time>2011-03-20T08:42:26Z</time>
      </trkpt>
      <trkpt lat="44.8014" lon="1.58436">
        <ele>175.1</ele>
        <time>2011-03-20T08:42:32Z</time>
      </trkpt>
      <trkpt lat="44.80135" lon="1.58427">
        <ele>175.1</ele>
        <time>2011-03-20T08:42:38Z</time>
      </trkpt>
      <trkpt lat="44.80129" lon="1.58426">
        <ele>175.58</ele>
        <time>2011-03-20T08:42:41Z</time>
      </trkpt>
      <trkpt lat="44.80126" lon="1.58416">
        <ele>179.9</ele>
        <time>2011-03-20T08:42:46Z</time>
      </trkpt>
      <trkpt lat="44.80126" lon="1.58414">
        <ele>179.9</ele>
        <time>2011-03-20T08:42:47Z</time>
      </trkpt>
      <trkpt lat="44.80124" lon="1.58401">
        <ele>179.9</ele>
        <time>2011-03-20T08:42:54Z</time>
      </trkpt>
      <trkpt lat="44.80111" lon="1.58391">
        <ele>181.35</ele>
        <time>2011-03-20T08:43:00Z</time>
      </trkpt>
      <trkpt lat="44.80103" lon="1.58387">
        <ele>180.87</ele>
        <time>2011-03-20T08:43:05Z</time>
      </trkpt>
      <trkpt lat="44.80099" lon="1.58384">
        <ele>180.38</ele>
        <time>2011-03-20T08:43:08Z</time>
      </trkpt>
      <trkpt lat="44.80093" lon="1.58376">
        <ele>178.94</ele>
        <time>2011-03-20T08:43:11Z</time>
      </trkpt>
      <trkpt lat="44.80085" lon="1.58373">
        <ele>177.5</ele>
        <time>2011-03-20T08:43:15Z</time>
      </trkpt>
      <trkpt lat="44.8008" lon="1.58367">
        <ele>176.06</ele>
        <time>2011-03-20T08:43:18Z</time>
      </trkpt>
      <trkpt lat="44.80074" lon="1.5836">
        <ele>176.06</ele>
        <time>2011-03-20T08:43:22Z</time>
      </trkpt>
      <trkpt lat="44.80065" lon="1.58351">
        <ele>175.58</ele>
        <time>2011-03-20T08:43:27Z</time>
      </trkpt>
      <trkpt lat="44.8006" lon="1.58343">
        <ele>173.66</ele>
        <time>2011-03-20T08:43:32Z</time>
      </trkpt>
      <trkpt lat="44.80056" lon="1.58334">
        <ele>172.21</ele>
        <time>2011-03-20T08:43:38Z</time>
      </trkpt>
      <trkpt lat="44.80051" lon="1.58324">
        <ele>170.77</ele>
        <time>2011-03-20T08:43:44Z</time>
      </trkpt>
      <trkpt lat="44.8005" lon="1.58322">
        <ele>170.77</ele>
        <time>2011-03-20T08:43:45Z</time>
      </trkpt>
      <trkpt lat="44.80049" lon="1.58317">
        <ele>170.29</ele>
        <time>2011-03-20T08:43:47Z</time>
      </trkpt>
      <trkpt lat="44.80046" lon="1.5831">
        <ele>168.85</ele>
        <time>2011-03-20T08:43:50Z</time>
      </trkpt>
      <trkpt lat="44.80039" lon="1.58293">
        <ele>165.96</ele>
        <time>2011-03-20T08:43:56Z</time>
      </trkpt>
      <trkpt lat="44.80038" lon="1.5829">
        <ele>166.45</ele>
        <time>2011-03-20T08:43:58Z</time>
      </trkpt>
      <trkpt lat="44.80037" lon="1.58281">
        <ele>165.96</ele>
        <time>2011-03-20T08:44:03Z</time>
      </trkpt>
      <trkpt lat="44.80037" lon="1.58279">
        <ele>165</ele>
        <time>2011-03-20T08:44:04Z</time>
      </trkpt>
      <trkpt lat="44.80036" lon="1.58272">
        <ele>165.48</ele>
        <time>2011-03-20T08:44:07Z</time>
      </trkpt>
      <trkpt lat="44.80036" lon="1.58269">
        <ele>164.04</ele>
        <time>2011-03-20T08:44:09Z</time>
      </trkpt>
      <trkpt lat="44.80035" lon="1.58265">
        <ele>163.56</ele>
        <time>2011-03-20T08:44:12Z</time>
      </trkpt>
      <trkpt lat="44.80033" lon="1.58258">
        <ele>159.72</ele>
        <time>2011-03-20T08:44:16Z</time>
      </trkpt>
      <trkpt lat="44.80028" lon="1.58253">
        <ele>157.31</ele>
        <time>2011-03-20T08:44:19Z</time>
      </trkpt>
      <trkpt lat="44.80028" lon="1.58248">
        <ele>154.43</ele>
        <time>2011-03-20T08:44:21Z</time>
      </trkpt>
      <trkpt lat="44.80028" lon="1.58244">
        <ele>153.47</ele>
        <time>2011-03-20T08:44:23Z</time>
      </trkpt>
      <trkpt lat="44.80027" lon="1.5824">
        <ele>153.95</ele>
        <time>2011-03-20T08:44:24Z</time>
      </trkpt>
      <trkpt lat="44.80025" lon="1.58224">
        <ele>155.87</ele>
        <time>2011-03-20T08:44:29Z</time>
      </trkpt>
      <trkpt lat="44.80024" lon="1.58217">
        <ele>154.43</ele>
        <time>2011-03-20T08:44:33Z</time>
      </trkpt>
      <trkpt lat="44.80024" lon="1.58212">
        <ele>155.39</ele>
        <time>2011-03-20T08:44:36Z</time>
      </trkpt>
      <trkpt lat="44.80027" lon="1.58203">
        <ele>154.43</ele>
        <time>2011-03-20T08:44:42Z</time>
      </trkpt>
      <trkpt lat="44.80027" lon="1.58201">
        <ele>153.47</ele>
        <time>2011-03-20T08:44:43Z</time>
      </trkpt>
      <trkpt lat="44.8003" lon="1.58184">
        <ele>153.95</ele>
        <time>2011-03-20T08:44:49Z</time>
      </trkpt>
      <trkpt lat="44.80031" lon="1.58174">
        <ele>152.51</ele>
        <time>2011-03-20T08:44:53Z</time>
      </trkpt>
      <trkpt lat="44.80032" lon="1.58167">
        <ele>152.51</ele>
        <time>2011-03-20T08:44:57Z</time>
      </trkpt>
      <trkpt lat="44.80032" lon="1.5816">
        <ele>152.03</ele>
        <time>2011-03-20T08:45:00Z</time>
      </trkpt>
      <trkpt lat="44.80033" lon="1.58149">
        <ele>151.54</ele>
        <time>2011-03-20T08:45:05Z</time>
      </trkpt>
      <trkpt lat="44.80034" lon="1.58143">
        <ele>149.62</ele>
        <time>2011-03-20T08:45:07Z</time>
      </trkpt>
      <trkpt lat="44.80034" lon="1.58137">
        <ele>144.34</ele>
        <time>2011-03-20T08:45:09Z</time>
      </trkpt>
      <trkpt lat="44.80036" lon="1.58125">
        <ele>143.37</ele>
        <time>2011-03-20T08:45:16Z</time>
      </trkpt>
      <trkpt lat="44.80034" lon="1.58111">
        <ele>145.78</ele>
        <time>2011-03-20T08:45:21Z</time>
      </trkpt>
      <trkpt lat="44.80035" lon="1.58099">
        <ele>146.74</ele>
        <time>2011-03-20T08:45:26Z</time>
      </trkpt>
      <trkpt lat="44.80036" lon="1.58094">
        <ele>146.26</ele>
        <time>2011-03-20T08:45:29Z</time>
      </trkpt>
      <trkpt lat="44.80038" lon="1.58077">
        <ele>146.74</ele>
        <time>2011-03-20T08:45:35Z</time>
      </trkpt>
      <trkpt lat="44.8004" lon="1.58064">
        <ele>145.3</ele>
        <time>2011-03-20T08:45:41Z</time>
      </trkpt>
      <trkpt lat="44.80041" lon="1.58053">
        <ele>144.82</ele>
        <time>2011-03-20T08:45:46Z</time>
      </trkpt>
      <trkpt lat="44.80041" lon="1.58046">
        <ele>144.34</ele>
        <time>2011-03-20T08:45:50Z</time>
      </trkpt>
      <trkpt lat="44.80041" lon="1.58041">
        <ele>143.85</ele>
        <time>2011-03-20T08:45:52Z</time>
      </trkpt>
      <trkpt lat="44.80041" lon="1.58034">
        <ele>143.37</ele>
        <time>2011-03-20T08:45:55Z</time>
      </trkpt>
      <trkpt lat="44.8004" lon="1.58024">
        <ele>142.41</ele>
        <time>2011-03-20T08:46:01Z</time>
      </trkpt>
      <trkpt lat="44.80041" lon="1.58014">
        <ele>140.49</ele>
        <time>2011-03-20T08:46:08Z</time>
      </trkpt>
      <trkpt lat="44.80044" lon="1.57995">
        <ele>138.09</ele>
        <time>2011-03-20T08:46:15Z</time>
      </trkpt>
      <trkpt lat="44.8005" lon="1.57988">
        <ele>137.13</ele>
        <time>2011-03-20T08:46:18Z</time>
      </trkpt>
      <trkpt lat="44.80054" lon="1.57975">
        <ele>136.16</ele>
        <time>2011-03-20T08:46:22Z</time>
      </trkpt>
      <trkpt lat="44.80048" lon="1.57969">
        <ele>135.68</ele>
        <time>2011-03-20T08:46:27Z</time>
      </trkpt>
      <trkpt lat="44.80042" lon="1.57964">
        <ele>133.76</ele>
        <time>2011-03-20T08:46:32Z</time>
      </trkpt>
      <trkpt lat="44.80038" lon="1.57962">
        <ele>131.84</ele>
        <time>2011-03-20T08:46:35Z</time>
      </trkpt>
      <trkpt lat="44.80041" lon="1.57944">
        <ele>130.88</ele>
        <time>2011-03-20T08:46:43Z</time>
      </trkpt>
      <trkpt lat="44.80042" lon="1.57933">
        <ele>128.47</ele>
        <time>2011-03-20T08:46:49Z</time>
      </trkpt>
      <trkpt lat="44.80047" lon="1.57921">
        <ele>125.59</ele>
        <time>2011-03-20T08:46:57Z</time>
      </trkpt>
      <trkpt lat="44.80047" lon="1.5791">
        <ele>124.63</ele>
        <time>2011-03-20T08:47:02Z</time>
      </trkpt>
      <trkpt lat="44.80049" lon="1.57902">
        <ele>123.67</ele>
        <time>2011-03-20T08:47:05Z</time>
      </trkpt>
      <trkpt lat="44.80049" lon="1.57895">
        <ele>122.22</ele>
        <time>2011-03-20T08:47:08Z</time>
      </trkpt>
      <trkpt lat="44.80047" lon="1.57883">
        <ele>121.74</ele>
        <time>2011-03-20T08:47:14Z</time>
      </trkpt>
      <trkpt lat="44.80046" lon="1.5788">
        <ele>121.74</ele>
        <time>2011-03-20T08:47:15Z</time>
      </trkpt>
      <trkpt lat="44.80043" lon="1.57874">
        <ele>120.78</ele>
        <time>2011-03-20T08:47:18Z</time>
      </trkpt>
      <trkpt lat="44.80041" lon="1.57863">
        <ele>119.34</ele>
        <time>2011-03-20T08:47:24Z</time>
      </trkpt>
      <trkpt lat="44.8004" lon="1.57862">
        <ele>118.86</ele>
        <time>2011-03-20T08:47:27Z</time>
      </trkpt>
      <trkpt lat="44.80039" lon="1.57842">
        <ele>116.94</ele>
        <time>2011-03-20T08:47:35Z</time>
      </trkpt>
      <trkpt lat="44.80036" lon="1.57826">
        <ele>115.98</ele>
        <time>2011-03-20T08:47:40Z</time>
      </trkpt>
      <trkpt lat="44.80035" lon="1.57822">
        <ele>116.46</ele>
        <time>2011-03-20T08:47:41Z</time>
      </trkpt>
      <trkpt lat="44.80036" lon="1.57813">
        <ele>115.5</ele>
        <time>2011-03-20T08:47:44Z</time>
      </trkpt>
      <trkpt lat="44.80032" lon="1.57803">
        <ele>112.61</ele>
        <time>2011-03-20T08:47:49Z</time>
      </trkpt>
      <trkpt lat="44.80028" lon="1.57789">
        <ele>109.73</ele>
        <time>2011-03-20T08:47:55Z</time>
      </trkpt>
      <trkpt lat="44.80027" lon="1.57781">
        <ele>108.29</ele>
        <time>2011-03-20T08:48:00Z</time>
      </trkpt>
      <trkpt lat="44.80025" lon="1.57764">
        <ele>107.32</ele>
        <time>2011-03-20T08:48:07Z</time>
      </trkpt>
      <trkpt lat="44.80023" lon="1.57752">
        <ele>106.84</ele>
        <time>2011-03-20T08:48:14Z</time>
      </trkpt>
      <trkpt lat="44.80017" lon="1.57748">
        <ele>105.4</ele>
        <time>2011-03-20T08:48:20Z</time>
      </trkpt>
      <trkpt lat="44.80011" lon="1.57742">
        <ele>103.48</ele>
        <time>2011-03-20T08:48:27Z</time>
      </trkpt>
      <trkpt lat="44.80011" lon="1.5774">
        <ele>102.52</ele>
        <time>2011-03-20T08:48:29Z</time>
      </trkpt>
      <trkpt lat="44.80007" lon="1.57732">
        <ele>100.6</ele>
        <time>2011-03-20T08:48:33Z</time>
      </trkpt>
      <trkpt lat="44.79997" lon="1.57735">
        <ele>101.56</ele>
        <time>2011-03-20T08:48:40Z</time>
      </trkpt>
      <trkpt lat="44.79994" lon="1.57732">
        <ele>101.56</ele>
        <time>2011-03-20T08:48:47Z</time>
      </trkpt>
      <trkpt lat="44.79993" lon="1.57723">
        <ele>103.96</ele>
        <time>2011-03-20T08:48:50Z</time>
      </trkpt>
      <trkpt lat="44.7999" lon="1.57715">
        <ele>106.84</ele>
        <time>2011-03-20T08:48:53Z</time>
      </trkpt>
      <trkpt lat="44.79989" lon="1.57697">
        <ele>106.84</ele>
        <time>2011-03-20T08:48:59Z</time>
      </trkpt>
      <trkpt lat="44.79991" lon="1.57686">
        <ele>106.84</ele>
        <time>2011-03-20T08:49:03Z</time>
      </trkpt>
      <trkpt lat="44.79995" lon="1.57678">
        <ele>106.36</ele>
        <time>2011-03-20T08:49:07Z</time>
      </trkpt>
      <trkpt lat="44.80009" lon="1.57659">
        <ele>104.92</ele>
        <time>2011-03-20T08:49:18Z</time>
      </trkpt>
      <trkpt lat="44.80018" lon="1.57645">
        <ele>104.44</ele>
        <time>2011-03-20T08:49:25Z</time>
      </trkpt>
      <trkpt lat="44.80022" lon="1.57637">
        <ele>103.96</ele>
        <time>2011-03-20T08:49:30Z</time>
      </trkpt>
      <trkpt lat="44.80024" lon="1.57634">
        <ele>103.96</ele>
        <time>2011-03-20T08:49:32Z</time>
      </trkpt>
      <trkpt lat="44.80027" lon="1.57618">
        <ele>104.44</ele>
        <time>2011-03-20T08:49:40Z</time>
      </trkpt>
      <trkpt lat="44.80031" lon="1.57615">
        <ele>102.04</ele>
        <time>2011-03-20T08:49:43Z</time>
      </trkpt>
      <trkpt lat="44.80038" lon="1.57614">
        <ele>102.04</ele>
        <time>2011-03-20T08:49:49Z</time>
      </trkpt>
      <trkpt lat="44.80043" lon="1.57608">
        <ele>102.04</ele>
        <time>2011-03-20T08:49:54Z</time>
      </trkpt>
      <trkpt lat="44.80047" lon="1.57594">
        <ele>101.56</ele>
        <time>2011-03-20T08:50:01Z</time>
      </trkpt>
      <trkpt lat="44.80045" lon="1.57571">
        <ele>103.48</ele>
        <time>2011-03-20T08:50:08Z</time>
      </trkpt>
      <trkpt lat="44.80044" lon="1.57557">
        <ele>105.4</ele>
        <time>2011-03-20T08:50:14Z</time>
      </trkpt>
      <trkpt lat="44.80045" lon="1.57554">
        <ele>106.36</ele>
        <time>2011-03-20T08:50:16Z</time>
      </trkpt>
      <trkpt lat="44.80046" lon="1.57545">
        <ele>107.81</ele>
        <time>2011-03-20T08:50:22Z</time>
      </trkpt>
      <trkpt lat="44.80047" lon="1.57529">
        <ele>107.81</ele>
        <time>2011-03-20T08:50:30Z</time>
      </trkpt>
      <trkpt lat="44.80046" lon="1.57505">
        <ele>107.81</ele>
        <time>2011-03-20T08:50:39Z</time>
      </trkpt>
      <trkpt lat="44.80045" lon="1.57499">
        <ele>108.29</ele>
        <time>2011-03-20T08:50:41Z</time>
      </trkpt>
      <trkpt lat="44.80042" lon="1.57481">
        <ele>108.29</ele>
        <time>2011-03-20T08:50:49Z</time>
      </trkpt>
      <trkpt lat="44.80035" lon="1.57473">
        <ele>109.25</ele>
        <time>2011-03-20T08:50:54Z</time>
      </trkpt>
      <trkpt lat="44.80033" lon="1.57474">
        <ele>110.21</ele>
        <time>2011-03-20T08:50:59Z</time>
      </trkpt>
      <trkpt lat="44.80025" lon="1.57477">
        <ele>110.69</ele>
        <time>2011-03-20T08:51:03Z</time>
      </trkpt>
      <trkpt lat="44.80018" lon="1.57484">
        <ele>111.17</ele>
        <time>2011-03-20T08:51:09Z</time>
      </trkpt>
      <trkpt lat="44.80017" lon="1.57484">
        <ele>110.69</ele>
        <time>2011-03-20T08:51:10Z</time>
      </trkpt>
      <trkpt lat="44.80011" lon="1.57486">
        <ele>110.69</ele>
        <time>2011-03-20T08:51:13Z</time>
      </trkpt>
      <trkpt lat="44.80001" lon="1.57485">
        <ele>113.09</ele>
        <time>2011-03-20T08:51:19Z</time>
      </trkpt>
      <trkpt lat="44.79999" lon="1.57486">
        <ele>114.53</ele>
        <time>2011-03-20T08:51:20Z</time>
      </trkpt>
      <trkpt lat="44.79997" lon="1.57489">
        <ele>115.5</ele>
        <time>2011-03-20T08:51:24Z</time>
      </trkpt>
      <trkpt lat="44.79992" lon="1.57505">
        <ele>114.05</ele>
        <time>2011-03-20T08:51:31Z</time>
      </trkpt>
      <trkpt lat="44.79989" lon="1.57509">
        <ele>115.01</ele>
        <time>2011-03-20T08:51:35Z</time>
      </trkpt>
      <trkpt lat="44.79985" lon="1.57518">
        <ele>116.94</ele>
        <time>2011-03-20T08:51:41Z</time>
      </trkpt>
      <trkpt lat="44.7998" lon="1.57521">
        <ele>116.94</ele>
        <time>2011-03-20T08:51:45Z</time>
      </trkpt>
      <trkpt lat="44.79973" lon="1.57528">
        <ele>115.5</ele>
        <time>2011-03-20T08:51:49Z</time>
      </trkpt>
      <trkpt lat="44.79966" lon="1.57529">
        <ele>115.5</ele>
        <time>2011-03-20T08:51:53Z</time>
      </trkpt>
      <trkpt lat="44.79959" lon="1.57534">
        <ele>117.9</ele>
        <time>2011-03-20T08:52:01Z</time>
      </trkpt>
      <trkpt lat="44.79941" lon="1.57538">
        <ele>115.5</ele>
        <time>2011-03-20T08:52:08Z</time>
      </trkpt>
      <trkpt lat="44.79934" lon="1.57539">
        <ele>115.98</ele>
        <time>2011-03-20T08:52:14Z</time>
      </trkpt>
      <trkpt lat="44.79928" lon="1.57535">
        <ele>115.01</ele>
        <time>2011-03-20T08:52:20Z</time>
      </trkpt>
      <trkpt lat="44.79926" lon="1.57535">
        <ele>115.5</ele>
        <time>2011-03-20T08:52:23Z</time>
      </trkpt>
      <trkpt lat="44.79923" lon="1.57534">
        <ele>114.53</ele>
        <time>2011-03-20T08:52:26Z</time>
      </trkpt>
      <trkpt lat="44.79912" lon="1.57529">
        <ele>113.57</ele>
        <time>2011-03-20T08:52:32Z</time>
      </trkpt>
      <trkpt lat="44.79909" lon="1.57526">
        <ele>114.05</ele>
        <time>2011-03-20T08:52:34Z</time>
      </trkpt>
      <trkpt lat="44.79899" lon="1.57522">
        <ele>115.01</ele>
        <time>2011-03-20T08:52:39Z</time>
      </trkpt>
      <trkpt lat="44.79887" lon="1.57516">
        <ele>115.5</ele>
        <time>2011-03-20T08:52:45Z</time>
      </trkpt>
      <trkpt lat="44.79876" lon="1.57513">
        <ele>117.9</ele>
        <time>2011-03-20T08:52:52Z</time>
      </trkpt>
      <trkpt lat="44.7987" lon="1.57507">
        <ele>119.82</ele>
        <time>2011-03-20T08:52:58Z</time>
      </trkpt>
      <trkpt lat="44.79867" lon="1.57506">
        <ele>120.3</ele>
        <time>2011-03-20T08:53:00Z</time>
      </trkpt>
      <trkpt lat="44.79857" lon="1.57504">
        <ele>122.71</ele>
        <time>2011-03-20T08:53:06Z</time>
      </trkpt>
      <trkpt lat="44.79845" lon="1.57499">
        <ele>122.71</ele>
        <time>2011-03-20T08:53:14Z</time>
      </trkpt>
      <trkpt lat="44.79838" lon="1.57496">
        <ele>123.67</ele>
        <time>2011-03-20T08:53:20Z</time>
      </trkpt>
      <trkpt lat="44.79833" lon="1.57494">
        <ele>122.22</ele>
        <time>2011-03-20T08:53:25Z</time>
      </trkpt>
      <trkpt lat="44.79825" lon="1.57493">
        <ele>120.78</ele>
        <time>2011-03-20T08:53:30Z</time>
      </trkpt>
      <trkpt lat="44.79818" lon="1.57491">
        <ele>119.82</ele>
        <time>2011-03-20T08:53:34Z</time>
      </trkpt>
      <trkpt lat="44.79808" lon="1.57485">
        <ele>119.34</ele>
        <time>2011-03-20T08:53:41Z</time>
      </trkpt>
      <trkpt lat="44.79802" lon="1.57485">
        <ele>116.46</ele>
        <time>2011-03-20T08:53:45Z</time>
      </trkpt>
      <trkpt lat="44.79792" lon="1.5748">
        <ele>115.98</ele>
        <time>2011-03-20T08:53:51Z</time>
      </trkpt>
      <trkpt lat="44.79775" lon="1.5747">
        <ele>117.42</ele>
        <time>2011-03-20T08:53:59Z</time>
      </trkpt>
      <trkpt lat="44.79765" lon="1.57468">
        <ele>120.78</ele>
        <time>2011-03-20T08:54:05Z</time>
      </trkpt>
      <trkpt lat="44.7976" lon="1.57467">
        <ele>122.22</ele>
        <time>2011-03-20T08:54:08Z</time>
      </trkpt>
      <trkpt lat="44.79752" lon="1.57467">
        <ele>123.67</ele>
        <time>2011-03-20T08:54:13Z</time>
      </trkpt>
      <trkpt lat="44.79747" lon="1.57459">
        <ele>125.11</ele>
        <time>2011-03-20T08:54:19Z</time>
      </trkpt>
      <trkpt lat="44.79735" lon="1.57452">
        <ele>126.07</ele>
        <time>2011-03-20T08:54:27Z</time>
      </trkpt>
      <trkpt lat="44.79732" lon="1.5745">
        <ele>127.51</ele>
        <time>2011-03-20T08:54:29Z</time>
      </trkpt>
      <trkpt lat="44.79729" lon="1.57448">
        <ele>128.47</ele>
        <time>2011-03-20T08:54:32Z</time>
      </trkpt>
      <trkpt lat="44.79725" lon="1.57444">
        <ele>132.8</ele>
        <time>2011-03-20T08:54:35Z</time>
      </trkpt>
      <trkpt lat="44.79723" lon="1.57441">
        <ele>134.72</ele>
        <time>2011-03-20T08:54:36Z</time>
      </trkpt>
      <trkpt lat="44.79726" lon="1.57433">
        <ele>134.24</ele>
        <time>2011-03-20T08:54:39Z</time>
      </trkpt>
      <trkpt lat="44.79723" lon="1.57424">
        <ele>133.76</ele>
        <time>2011-03-20T08:54:45Z</time>
      </trkpt>
      <trkpt lat="44.7972" lon="1.57413">
        <ele>133.28</ele>
        <time>2011-03-20T08:54:52Z</time>
      </trkpt>
      <trkpt lat="44.79721" lon="1.5741">
        <ele>136.16</ele>
        <time>2011-03-20T08:54:55Z</time>
      </trkpt>
      <trkpt lat="44.79722" lon="1.57404">
        <ele>138.09</ele>
        <time>2011-03-20T08:54:58Z</time>
      </trkpt>
      <trkpt lat="44.79723" lon="1.57401">
        <ele>139.53</ele>
        <time>2011-03-20T08:55:01Z</time>
      </trkpt>
      <trkpt lat="44.79722" lon="1.57381">
        <ele>142.41</ele>
        <time>2011-03-20T08:55:09Z</time>
      </trkpt>
      <trkpt lat="44.79723" lon="1.57378">
        <ele>142.41</ele>
        <time>2011-03-20T08:55:11Z</time>
      </trkpt>
      <trkpt lat="44.7972" lon="1.57361">
        <ele>144.82</ele>
        <time>2011-03-20T08:55:19Z</time>
      </trkpt>
      <trkpt lat="44.79724" lon="1.5735">
        <ele>146.26</ele>
        <time>2011-03-20T08:55:26Z</time>
      </trkpt>
      <trkpt lat="44.79725" lon="1.57337">
        <ele>145.78</ele>
        <time>2011-03-20T08:55:33Z</time>
      </trkpt>
      <trkpt lat="44.79726" lon="1.57325">
        <ele>145.3</ele>
        <time>2011-03-20T08:55:38Z</time>
      </trkpt>
      <trkpt lat="44.79727" lon="1.57317">
        <ele>144.82</ele>
        <time>2011-03-20T08:55:44Z</time>
      </trkpt>
      <trkpt lat="44.79727" lon="1.57316">
        <ele>144.82</ele>
        <time>2011-03-20T08:55:45Z</time>
      </trkpt>
      <trkpt lat="44.79731" lon="1.57304">
        <ele>145.3</ele>
        <time>2011-03-20T08:55:54Z</time>
      </trkpt>
      <trkpt lat="44.79732" lon="1.57285">
        <ele>146.26</ele>
        <time>2011-03-20T08:56:05Z</time>
      </trkpt>
      <trkpt lat="44.79734" lon="1.57279">
        <ele>147.22</ele>
        <time>2011-03-20T08:56:09Z</time>
      </trkpt>
      <trkpt lat="44.79737" lon="1.57275">
        <ele>147.7</ele>
        <time>2011-03-20T08:56:13Z</time>
      </trkpt>
      <trkpt lat="44.79738" lon="1.57261">
        <ele>150.1</ele>
        <time>2011-03-20T08:56:22Z</time>
      </trkpt>
      <trkpt lat="44.79737" lon="1.57241">
        <ele>151.54</ele>
        <time>2011-03-20T08:56:34Z</time>
      </trkpt>
      <trkpt lat="44.79741" lon="1.57233">
        <ele>153.95</ele>
        <time>2011-03-20T08:56:40Z</time>
      </trkpt>
      <trkpt lat="44.7974" lon="1.5723">
        <ele>154.43</ele>
        <time>2011-03-20T08:56:42Z</time>
      </trkpt>
      <trkpt lat="44.79739" lon="1.5722">
        <ele>157.31</ele>
        <time>2011-03-20T08:56:47Z</time>
      </trkpt>
      <trkpt lat="44.79739" lon="1.57218">
        <ele>157.31</ele>
        <time>2011-03-20T08:56:48Z</time>
      </trkpt>
      <trkpt lat="44.7974" lon="1.57214">
        <ele>161.64</ele>
        <time>2011-03-20T08:56:52Z</time>
      </trkpt>
      <trkpt lat="44.7974" lon="1.57205">
        <ele>164.52</ele>
        <time>2011-03-20T08:57:00Z</time>
      </trkpt>
      <trkpt lat="44.79739" lon="1.57193">
        <ele>166.93</ele>
        <time>2011-03-20T08:57:09Z</time>
      </trkpt>
      <trkpt lat="44.79736" lon="1.57179">
        <ele>169.33</ele>
        <time>2011-03-20T08:57:18Z</time>
      </trkpt>
      <trkpt lat="44.79737" lon="1.57167">
        <ele>171.73</ele>
        <time>2011-03-20T08:57:28Z</time>
      </trkpt>
      <trkpt lat="44.79736" lon="1.57153">
        <ele>173.17</ele>
        <time>2011-03-20T08:57:38Z</time>
      </trkpt>
      <trkpt lat="44.79736" lon="1.57143">
        <ele>174.62</ele>
        <time>2011-03-20T08:57:44Z</time>
      </trkpt>
      <trkpt lat="44.79734" lon="1.57134">
        <ele>176.06</ele>
        <time>2011-03-20T08:57:51Z</time>
      </trkpt>
      <trkpt lat="44.79736" lon="1.57122">
        <ele>177.5</ele>
        <time>2011-03-20T08:58:00Z</time>
      </trkpt>
      <trkpt lat="44.79735" lon="1.57116">
        <ele>178.94</ele>
        <time>2011-03-20T08:58:06Z</time>
      </trkpt>
      <trkpt lat="44.79727" lon="1.57108">
        <ele>179.9</ele>
        <time>2011-03-20T08:58:14Z</time>
      </trkpt>
      <trkpt lat="44.79717" lon="1.57111">
        <ele>178.94</ele>
        <time>2011-03-20T08:58:19Z</time>
      </trkpt>
      <trkpt lat="44.79714" lon="1.57113">
        <ele>178.94</ele>
        <time>2011-03-20T08:58:21Z</time>
      </trkpt>
      <trkpt lat="44.79711" lon="1.57122">
        <ele>177.98</ele>
        <time>2011-03-20T08:58:28Z</time>
      </trkpt>
      <trkpt lat="44.79709" lon="1.57138">
        <ele>176.06</ele>
        <time>2011-03-20T08:58:38Z</time>
      </trkpt>
      <trkpt lat="44.79705" lon="1.57144">
        <ele>175.58</ele>
        <time>2011-03-20T08:58:43Z</time>
      </trkpt>
      <trkpt lat="44.79697" lon="1.57164">
        <ele>175.1</ele>
        <time>2011-03-20T08:58:51Z</time>
      </trkpt>
      <trkpt lat="44.79696" lon="1.57166">
        <ele>175.1</ele>
        <time>2011-03-20T08:58:52Z</time>
      </trkpt>
      <trkpt lat="44.79692" lon="1.57171">
        <ele>174.62</ele>
        <time>2011-03-20T08:58:56Z</time>
      </trkpt>
      <trkpt lat="44.79684" lon="1.57178">
        <ele>175.1</ele>
        <time>2011-03-20T08:59:03Z</time>
      </trkpt>
      <trkpt lat="44.79683" lon="1.57182">
        <ele>175.1</ele>
        <time>2011-03-20T08:59:06Z</time>
      </trkpt>
      <trkpt lat="44.79678" lon="1.57199">
        <ele>173.66</ele>
        <time>2011-03-20T08:59:13Z</time>
      </trkpt>
      <trkpt lat="44.79677" lon="1.57202">
        <ele>174.14</ele>
        <time>2011-03-20T08:59:15Z</time>
      </trkpt>
      <trkpt lat="44.7967" lon="1.57217">
        <ele>173.66</ele>
        <time>2011-03-20T08:59:22Z</time>
      </trkpt>
      <trkpt lat="44.79668" lon="1.57226">
        <ele>174.62</ele>
        <time>2011-03-20T08:59:27Z</time>
      </trkpt>
      <trkpt lat="44.79662" lon="1.57246">
        <ele>175.1</ele>
        <time>2011-03-20T08:59:32Z</time>
      </trkpt>
      <trkpt lat="44.79659" lon="1.57252">
        <ele>175.1</ele>
        <time>2011-03-20T08:59:34Z</time>
      </trkpt>
      <trkpt lat="44.79653" lon="1.57259">
        <ele>174.14</ele>
        <time>2011-03-20T08:59:38Z</time>
      </trkpt>
      <trkpt lat="44.79645" lon="1.57265">
        <ele>174.62</ele>
        <time>2011-03-20T08:59:45Z</time>
      </trkpt>
      <trkpt lat="44.79641" lon="1.57271">
        <ele>174.62</ele>
        <time>2011-03-20T08:59:50Z</time>
      </trkpt>
      <trkpt lat="44.79641" lon="1.57273">
        <ele>175.1</ele>
        <time>2011-03-20T08:59:52Z</time>
      </trkpt>
      <trkpt lat="44.79631" lon="1.57285">
        <ele>176.06</ele>
        <time>2011-03-20T09:00:01Z</time>
      </trkpt>
      <trkpt lat="44.79622" lon="1.57292">
        <ele>175.1</ele>
        <time>2011-03-20T09:00:08Z</time>
      </trkpt>
      <trkpt lat="44.79618" lon="1.57296">
        <ele>176.06</ele>
        <time>2011-03-20T09:00:11Z</time>
      </trkpt>
      <trkpt lat="44.79609" lon="1.57302">
        <ele>176.06</ele>
        <time>2011-03-20T09:00:18Z</time>
      </trkpt>
      <trkpt lat="44.79608" lon="1.57301">
        <ele>176.06</ele>
        <time>2011-03-20T09:00:19Z</time>
      </trkpt>
      <trkpt lat="44.79604" lon="1.57305">
        <ele>176.06</ele>
        <time>2011-03-20T09:00:23Z</time>
      </trkpt>
      <trkpt lat="44.79589" lon="1.57312">
        <ele>177.02</ele>
        <time>2011-03-20T09:00:34Z</time>
      </trkpt>
      <trkpt lat="44.79587" lon="1.57312">
        <ele>177.02</ele>
        <time>2011-03-20T09:00:36Z</time>
      </trkpt>
      <trkpt lat="44.79579" lon="1.57314">
        <ele>176.54</ele>
        <time>2011-03-20T09:00:41Z</time>
      </trkpt>
      <trkpt lat="44.79567" lon="1.57314">
        <ele>175.1</ele>
        <time>2011-03-20T09:00:47Z</time>
      </trkpt>
      <trkpt lat="44.7956" lon="1.57316">
        <ele>175.58</ele>
        <time>2011-03-20T09:00:51Z</time>
      </trkpt>
      <trkpt lat="44.79553" lon="1.57317">
        <ele>175.1</ele>
        <time>2011-03-20T09:00:55Z</time>
      </trkpt>
      <trkpt lat="44.79546" lon="1.57317">
        <ele>173.17</ele>
        <time>2011-03-20T09:00:59Z</time>
      </trkpt>
      <trkpt lat="44.79541" lon="1.57324">
        <ele>172.21</ele>
        <time>2011-03-20T09:01:05Z</time>
      </trkpt>
      <trkpt lat="44.79531" lon="1.57334">
        <ele>172.21</ele>
        <time>2011-03-20T09:01:10Z</time>
      </trkpt>
      <trkpt lat="44.79518" lon="1.57345">
        <ele>171.25</ele>
        <time>2011-03-20T09:01:16Z</time>
      </trkpt>
      <trkpt lat="44.79511" lon="1.57354">
        <ele>171.25</ele>
        <time>2011-03-20T09:01:20Z</time>
      </trkpt>
      <trkpt lat="44.79499" lon="1.57351">
        <ele>170.77</ele>
        <time>2011-03-20T09:01:26Z</time>
      </trkpt>
      <trkpt lat="44.79488" lon="1.57355">
        <ele>168.85</ele>
        <time>2011-03-20T09:01:33Z</time>
      </trkpt>
      <trkpt lat="44.79487" lon="1.57355">
        <ele>169.81</ele>
        <time>2011-03-20T09:01:34Z</time>
      </trkpt>
      <trkpt lat="44.79486" lon="1.57359">
        <ele>168.85</ele>
        <time>2011-03-20T09:01:36Z</time>
      </trkpt>
      <trkpt lat="44.79479" lon="1.57368">
        <ele>168.37</ele>
        <time>2011-03-20T09:01:42Z</time>
      </trkpt>
      <trkpt lat="44.79475" lon="1.57371">
        <ele>166.45</ele>
        <time>2011-03-20T09:01:47Z</time>
      </trkpt>
      <trkpt lat="44.7946" lon="1.57375">
        <ele>165.48</ele>
        <time>2011-03-20T09:01:53Z</time>
      </trkpt>
      <trkpt lat="44.79455" lon="1.57383">
        <ele>165.48</ele>
        <time>2011-03-20T09:01:57Z</time>
      </trkpt>
      <trkpt lat="44.79448" lon="1.57384">
        <ele>165</ele>
        <time>2011-03-20T09:02:01Z</time>
      </trkpt>
      <trkpt lat="44.79442" lon="1.57406">
        <ele>163.56</ele>
        <time>2011-03-20T09:02:12Z</time>
      </trkpt>
      <trkpt lat="44.79438" lon="1.57412">
        <ele>163.56</ele>
        <time>2011-03-20T09:02:15Z</time>
      </trkpt>
      <trkpt lat="44.79426" lon="1.57423">
        <ele>162.12</ele>
        <time>2011-03-20T09:02:21Z</time>
      </trkpt>
      <trkpt lat="44.79425" lon="1.57425">
        <ele>161.64</ele>
        <time>2011-03-20T09:02:22Z</time>
      </trkpt>
      <trkpt lat="44.79418" lon="1.5743">
        <ele>161.16</ele>
        <time>2011-03-20T09:02:27Z</time>
      </trkpt>
      <trkpt lat="44.79413" lon="1.57444">
        <ele>160.2</ele>
        <time>2011-03-20T09:02:34Z</time>
      </trkpt>
      <trkpt lat="44.79411" lon="1.57447">
        <ele>159.24</ele>
        <time>2011-03-20T09:02:36Z</time>
      </trkpt>
      <trkpt lat="44.794" lon="1.57453">
        <ele>162.12</ele>
        <time>2011-03-20T09:02:41Z</time>
      </trkpt>
      <trkpt lat="44.79398" lon="1.57455">
        <ele>165</ele>
        <time>2011-03-20T09:02:42Z</time>
      </trkpt>
      <trkpt lat="44.79394" lon="1.57461">
        <ele>167.89</ele>
        <time>2011-03-20T09:02:44Z</time>
      </trkpt>
      <trkpt lat="44.79383" lon="1.57477">
        <ele>165.96</ele>
        <time>2011-03-20T09:02:49Z</time>
      </trkpt>
      <trkpt lat="44.79372" lon="1.57495">
        <ele>163.56</ele>
        <time>2011-03-20T09:02:56Z</time>
      </trkpt>
      <trkpt lat="44.79369" lon="1.57498">
        <ele>163.56</ele>
        <time>2011-03-20T09:02:57Z</time>
      </trkpt>
      <trkpt lat="44.79361" lon="1.57513">
        <ele>162.12</ele>
        <time>2011-03-20T09:03:02Z</time>
      </trkpt>
      <trkpt lat="44.79358" lon="1.57519">
        <ele>160.68</ele>
        <time>2011-03-20T09:03:04Z</time>
      </trkpt>
      <trkpt lat="44.79348" lon="1.57537">
        <ele>158.27</ele>
        <time>2011-03-20T09:03:10Z</time>
      </trkpt>
      <trkpt lat="44.79338" lon="1.57551">
        <ele>157.79</ele>
        <time>2011-03-20T09:03:15Z</time>
      </trkpt>
      <trkpt lat="44.79327" lon="1.57567">
        <ele>157.79</ele>
        <time>2011-03-20T09:03:21Z</time>
      </trkpt>
      <trkpt lat="44.79321" lon="1.57575">
        <ele>155.87</ele>
        <time>2011-03-20T09:03:27Z</time>
      </trkpt>
      <trkpt lat="44.79318" lon="1.57581">
        <ele>154.91</ele>
        <time>2011-03-20T09:03:30Z</time>
      </trkpt>
      <trkpt lat="44.79313" lon="1.57588">
        <ele>152.99</ele>
        <time>2011-03-20T09:03:34Z</time>
      </trkpt>
      <trkpt lat="44.79311" lon="1.5759">
        <ele>152.51</ele>
        <time>2011-03-20T09:03:35Z</time>
      </trkpt>
      <trkpt lat="44.79309" lon="1.57601">
        <ele>152.99</ele>
        <time>2011-03-20T09:03:38Z</time>
      </trkpt>
      <trkpt lat="44.79306" lon="1.5761">
        <ele>152.51</ele>
        <time>2011-03-20T09:03:42Z</time>
      </trkpt>
      <trkpt lat="44.79298" lon="1.57615">
        <ele>151.54</ele>
        <time>2011-03-20T09:03:47Z</time>
      </trkpt>
      <trkpt lat="44.79294" lon="1.5762">
        <ele>151.54</ele>
        <time>2011-03-20T09:03:50Z</time>
      </trkpt>
      <trkpt lat="44.79285" lon="1.57637">
        <ele>149.62</ele>
        <time>2011-03-20T09:03:57Z</time>
      </trkpt>
      <trkpt lat="44.79279" lon="1.57642">
        <ele>147.7</ele>
        <time>2011-03-20T09:04:00Z</time>
      </trkpt>
      <trkpt lat="44.79271" lon="1.57654">
        <ele>144.34</ele>
        <time>2011-03-20T09:04:06Z</time>
      </trkpt>
      <trkpt lat="44.79263" lon="1.57662">
        <ele>142.89</ele>
        <time>2011-03-20T09:04:11Z</time>
      </trkpt>
      <trkpt lat="44.79258" lon="1.57671">
        <ele>140.97</ele>
        <time>2011-03-20T09:04:17Z</time>
      </trkpt>
      <trkpt lat="44.79256" lon="1.57674">
        <ele>142.89</ele>
        <time>2011-03-20T09:04:19Z</time>
      </trkpt>
      <trkpt lat="44.79253" lon="1.57677">
        <ele>144.34</ele>
        <time>2011-03-20T09:04:21Z</time>
      </trkpt>
      <trkpt lat="44.79246" lon="1.57682">
        <ele>145.3</ele>
        <time>2011-03-20T09:04:26Z</time>
      </trkpt>
      <trkpt lat="44.79237" lon="1.57693">
        <ele>144.34</ele>
        <time>2011-03-20T09:04:32Z</time>
      </trkpt>
      <trkpt lat="44.79233" lon="1.57697">
        <ele>142.89</ele>
        <time>2011-03-20T09:04:35Z</time>
      </trkpt>
      <trkpt lat="44.79229" lon="1.57703">
        <ele>139.53</ele>
        <time>2011-03-20T09:04:40Z</time>
      </trkpt>
      <trkpt lat="44.79228" lon="1.57705">
        <ele>138.57</ele>
        <time>2011-03-20T09:04:42Z</time>
      </trkpt>
      <trkpt lat="44.79224" lon="1.57712">
        <ele>135.68</ele>
        <time>2011-03-20T09:04:50Z</time>
      </trkpt>
      <trkpt lat="44.79221" lon="1.57718">
        <ele>133.76</ele>
        <time>2011-03-20T09:04:54Z</time>
      </trkpt>
      <trkpt lat="44.79216" lon="1.57725">
        <ele>132.8</ele>
        <time>2011-03-20T09:05:00Z</time>
      </trkpt>
      <trkpt lat="44.79206" lon="1.57734">
        <ele>131.36</ele>
        <time>2011-03-20T09:05:06Z</time>
      </trkpt>
      <trkpt lat="44.79194" lon="1.57742">
        <ele>128.95</ele>
        <time>2011-03-20T09:05:13Z</time>
      </trkpt>
      <trkpt lat="44.79188" lon="1.57745">
        <ele>128.47</ele>
        <time>2011-03-20T09:05:16Z</time>
      </trkpt>
      <trkpt lat="44.79184" lon="1.57751">
        <ele>127.51</ele>
        <time>2011-03-20T09:05:19Z</time>
      </trkpt>
      <trkpt lat="44.79178" lon="1.57759">
        <ele>127.51</ele>
        <time>2011-03-20T09:05:24Z</time>
      </trkpt>
      <trkpt lat="44.79174" lon="1.57766">
        <ele>126.07</ele>
        <time>2011-03-20T09:05:28Z</time>
      </trkpt>
      <trkpt lat="44.79172" lon="1.57769">
        <ele>125.59</ele>
        <time>2011-03-20T09:05:30Z</time>
      </trkpt>
      <trkpt lat="44.79163" lon="1.57778">
        <ele>125.59</ele>
        <time>2011-03-20T09:05:35Z</time>
      </trkpt>
      <trkpt lat="44.79154" lon="1.57794">
        <ele>123.67</ele>
        <time>2011-03-20T09:05:42Z</time>
      </trkpt>
      <trkpt lat="44.79149" lon="1.57807">
        <ele>122.22</ele>
        <time>2011-03-20T09:05:48Z</time>
      </trkpt>
      <trkpt lat="44.7914" lon="1.57818">
        <ele>121.74</ele>
        <time>2011-03-20T09:05:56Z</time>
      </trkpt>
      <trkpt lat="44.79133" lon="1.57829">
        <ele>120.78</ele>
        <time>2011-03-20T09:06:03Z</time>
      </trkpt>
      <trkpt lat="44.79132" lon="1.57844">
        <ele>119.34</ele>
        <time>2011-03-20T09:06:09Z</time>
      </trkpt>
      <trkpt lat="44.79133" lon="1.57847">
        <ele>119.34</ele>
        <time>2011-03-20T09:06:10Z</time>
      </trkpt>
      <trkpt lat="44.79133" lon="1.57851">
        <ele>119.82</ele>
        <time>2011-03-20T09:06:15Z</time>
      </trkpt>
      <trkpt lat="44.79133" lon="1.57856">
        <ele>117.9</ele>
        <time>2011-03-20T09:06:17Z</time>
      </trkpt>
      <trkpt lat="44.79133" lon="1.57874">
        <ele>120.78</ele>
        <time>2011-03-20T09:06:24Z</time>
      </trkpt>
      <trkpt lat="44.79135" lon="1.57894">
        <ele>120.78</ele>
        <time>2011-03-20T09:06:31Z</time>
      </trkpt>
      <trkpt lat="44.79132" lon="1.57908">
        <ele>120.3</ele>
        <time>2011-03-20T09:06:37Z</time>
      </trkpt>
      <trkpt lat="44.79131" lon="1.57914">
        <ele>120.78</ele>
        <time>2011-03-20T09:06:42Z</time>
      </trkpt>
      <trkpt lat="44.79132" lon="1.57918">
        <ele>120.3</ele>
        <time>2011-03-20T09:06:45Z</time>
      </trkpt>
      <trkpt lat="44.79134" lon="1.57931">
        <ele>120.3</ele>
        <time>2011-03-20T09:06:51Z</time>
      </trkpt>
      <trkpt lat="44.79136" lon="1.57952">
        <ele>118.86</ele>
        <time>2011-03-20T09:06:59Z</time>
      </trkpt>
      <trkpt lat="44.79139" lon="1.57963">
        <ele>117.9</ele>
        <time>2011-03-20T09:07:03Z</time>
      </trkpt>
      <trkpt lat="44.7914" lon="1.57975">
        <ele>118.38</ele>
        <time>2011-03-20T09:07:09Z</time>
      </trkpt>
      <trkpt lat="44.79138" lon="1.57986">
        <ele>118.38</ele>
        <time>2011-03-20T09:07:13Z</time>
      </trkpt>
      <trkpt lat="44.7914" lon="1.57991">
        <ele>117.42</ele>
        <time>2011-03-20T09:07:15Z</time>
      </trkpt>
      <trkpt lat="44.7914" lon="1.57997">
        <ele>118.38</ele>
        <time>2011-03-20T09:07:19Z</time>
      </trkpt>
      <trkpt lat="44.79141" lon="1.58005">
        <ele>117.9</ele>
        <time>2011-03-20T09:07:23Z</time>
      </trkpt>
      <trkpt lat="44.7914" lon="1.58017">
        <ele>117.9</ele>
        <time>2011-03-20T09:07:30Z</time>
      </trkpt>
      <trkpt lat="44.79136" lon="1.58035">
        <ele>118.38</ele>
        <time>2011-03-20T09:07:38Z</time>
      </trkpt>
      <trkpt lat="44.79143" lon="1.58053">
        <ele>117.42</ele>
        <time>2011-03-20T09:07:47Z</time>
      </trkpt>
      <trkpt lat="44.79145" lon="1.58073">
        <ele>117.9</ele>
        <time>2011-03-20T09:07:55Z</time>
      </trkpt>
      <trkpt lat="44.79144" lon="1.58088">
        <ele>117.42</ele>
        <time>2011-03-20T09:08:02Z</time>
      </trkpt>
      <trkpt lat="44.79146" lon="1.58098">
        <ele>115.98</ele>
        <time>2011-03-20T09:08:06Z</time>
      </trkpt>
      <trkpt lat="44.79149" lon="1.58107">
        <ele>117.9</ele>
        <time>2011-03-20T09:08:09Z</time>
      </trkpt>
      <trkpt lat="44.79149" lon="1.58131">
        <ele>118.38</ele>
        <time>2011-03-20T09:08:16Z</time>
      </trkpt>
      <trkpt lat="44.79148" lon="1.5814">
        <ele>115.98</ele>
        <time>2011-03-20T09:08:19Z</time>
      </trkpt>
      <trkpt lat="44.79149" lon="1.58146">
        <ele>117.42</ele>
        <time>2011-03-20T09:08:22Z</time>
      </trkpt>
      <trkpt lat="44.79153" lon="1.58156">
        <ele>115.98</ele>
        <time>2011-03-20T09:08:27Z</time>
      </trkpt>
      <trkpt lat="44.79155" lon="1.58164">
        <ele>115.5</ele>
        <time>2011-03-20T09:08:30Z</time>
      </trkpt>
      <trkpt lat="44.79157" lon="1.58172">
        <ele>115.5</ele>
        <time>2011-03-20T09:08:37Z</time>
      </trkpt>
      <trkpt lat="44.79157" lon="1.58179">
        <ele>115.5</ele>
        <time>2011-03-20T09:08:42Z</time>
      </trkpt>
      <trkpt lat="44.79157" lon="1.58181">
        <ele>115.98</ele>
        <time>2011-03-20T09:08:43Z</time>
      </trkpt>
      <trkpt lat="44.7916" lon="1.58189">
        <ele>119.34</ele>
        <time>2011-03-20T09:08:47Z</time>
      </trkpt>
      <trkpt lat="44.7916" lon="1.58194">
        <ele>120.78</ele>
        <time>2011-03-20T09:08:49Z</time>
      </trkpt>
      <trkpt lat="44.7916" lon="1.5821">
        <ele>117.9</ele>
        <time>2011-03-20T09:08:55Z</time>
      </trkpt>
      <trkpt lat="44.7916" lon="1.58216">
        <ele>116.94</ele>
        <time>2011-03-20T09:08:57Z</time>
      </trkpt>
      <trkpt lat="44.79166" lon="1.58222">
        <ele>113.57</ele>
        <time>2011-03-20T09:09:01Z</time>
      </trkpt>
      <trkpt lat="44.79177" lon="1.58233">
        <ele>111.17</ele>
        <time>2011-03-20T09:09:07Z</time>
      </trkpt>
      <trkpt lat="44.79182" lon="1.58241">
        <ele>113.09</ele>
        <time>2011-03-20T09:09:10Z</time>
      </trkpt>
      <trkpt lat="44.79185" lon="1.58253">
        <ele>112.61</ele>
        <time>2011-03-20T09:09:15Z</time>
      </trkpt>
      <trkpt lat="44.79184" lon="1.58255">
        <ele>114.53</ele>
        <time>2011-03-20T09:09:16Z</time>
      </trkpt>
      <trkpt lat="44.79183" lon="1.58263">
        <ele>116.94</ele>
        <time>2011-03-20T09:09:19Z</time>
      </trkpt>
      <trkpt lat="44.79181" lon="1.58271">
        <ele>115.01</ele>
        <time>2011-03-20T09:09:22Z</time>
      </trkpt>
      <trkpt lat="44.7918" lon="1.58276">
        <ele>115.01</ele>
        <time>2011-03-20T09:09:23Z</time>
      </trkpt>
      <trkpt lat="44.79178" lon="1.58294">
        <ele>116.94</ele>
        <time>2011-03-20T09:09:30Z</time>
      </trkpt>
      <trkpt lat="44.79172" lon="1.58307">
        <ele>118.86</ele>
        <time>2011-03-20T09:09:36Z</time>
      </trkpt>
      <trkpt lat="44.79169" lon="1.58312">
        <ele>119.34</ele>
        <time>2011-03-20T09:09:38Z</time>
      </trkpt>
      <trkpt lat="44.79165" lon="1.58322">
        <ele>124.15</ele>
        <time>2011-03-20T09:09:42Z</time>
      </trkpt>
      <trkpt lat="44.79165" lon="1.58323">
        <ele>124.63</ele>
        <time>2011-03-20T09:09:43Z</time>
      </trkpt>
      <trkpt lat="44.79168" lon="1.58337">
        <ele>126.55</ele>
        <time>2011-03-20T09:09:50Z</time>
      </trkpt>
      <trkpt lat="44.79167" lon="1.58343">
        <ele>127.03</ele>
        <time>2011-03-20T09:09:52Z</time>
      </trkpt>
      <trkpt lat="44.79169" lon="1.58355">
        <ele>126.07</ele>
        <time>2011-03-20T09:09:58Z</time>
      </trkpt>
      <trkpt lat="44.79168" lon="1.58357">
        <ele>127.51</ele>
        <time>2011-03-20T09:10:01Z</time>
      </trkpt>
      <trkpt lat="44.79166" lon="1.58359">
        <ele>126.07</ele>
        <time>2011-03-20T09:10:03Z</time>
      </trkpt>
      <trkpt lat="44.79166" lon="1.58371">
        <ele>127.03</ele>
        <time>2011-03-20T09:10:07Z</time>
      </trkpt>
      <trkpt lat="44.79167" lon="1.58376">
        <ele>128.47</ele>
        <time>2011-03-20T09:10:09Z</time>
      </trkpt>
      <trkpt lat="44.79172" lon="1.58396">
        <ele>127.99</ele>
        <time>2011-03-20T09:10:18Z</time>
      </trkpt>
      <trkpt lat="44.79177" lon="1.58413">
        <ele>129.43</ele>
        <time>2011-03-20T09:10:24Z</time>
      </trkpt>
      <trkpt lat="44.79177" lon="1.58415">
        <ele>129.43</ele>
        <time>2011-03-20T09:10:25Z</time>
      </trkpt>
      <trkpt lat="44.79178" lon="1.58427">
        <ele>129.92</ele>
        <time>2011-03-20T09:10:32Z</time>
      </trkpt>
      <trkpt lat="44.79178" lon="1.58432">
        <ele>128.47</ele>
        <time>2011-03-20T09:10:35Z</time>
      </trkpt>
      <trkpt lat="44.79178" lon="1.58434">
        <ele>129.92</ele>
        <time>2011-03-20T09:10:36Z</time>
      </trkpt>
      <trkpt lat="44.79178" lon="1.5844">
        <ele>128.95</ele>
        <time>2011-03-20T09:10:39Z</time>
      </trkpt>
      <trkpt lat="44.7918" lon="1.58447">
        <ele>130.4</ele>
        <time>2011-03-20T09:10:42Z</time>
      </trkpt>
      <trkpt lat="44.79185" lon="1.58462">
        <ele>131.84</ele>
        <time>2011-03-20T09:10:49Z</time>
      </trkpt>
      <trkpt lat="44.79187" lon="1.58473">
        <ele>130.88</ele>
        <time>2011-03-20T09:10:53Z</time>
      </trkpt>
      <trkpt lat="44.79187" lon="1.58483">
        <ele>130.4</ele>
        <time>2011-03-20T09:10:57Z</time>
      </trkpt>
      <trkpt lat="44.7919" lon="1.58492">
        <ele>130.88</ele>
        <time>2011-03-20T09:11:02Z</time>
      </trkpt>
      <trkpt lat="44.79197" lon="1.58516">
        <ele>130.88</ele>
        <time>2011-03-20T09:11:13Z</time>
      </trkpt>
      <trkpt lat="44.79198" lon="1.58521">
        <ele>129.92</ele>
        <time>2011-03-20T09:11:15Z</time>
      </trkpt>
      <trkpt lat="44.79199" lon="1.58528">
        <ele>129.43</ele>
        <time>2011-03-20T09:11:17Z</time>
      </trkpt>
      <trkpt lat="44.79202" lon="1.58533">
        <ele>130.4</ele>
        <time>2011-03-20T09:11:19Z</time>
      </trkpt>
      <trkpt lat="44.79203" lon="1.58543">
        <ele>131.36</ele>
        <time>2011-03-20T09:11:24Z</time>
      </trkpt>
      <trkpt lat="44.79203" lon="1.58546">
        <ele>131.84</ele>
        <time>2011-03-20T09:11:25Z</time>
      </trkpt>
      <trkpt lat="44.7921" lon="1.58559">
        <ele>130.4</ele>
        <time>2011-03-20T09:11:33Z</time>
      </trkpt>
      <trkpt lat="44.79215" lon="1.58564">
        <ele>129.92</ele>
        <time>2011-03-20T09:11:38Z</time>
      </trkpt>
      <trkpt lat="44.79218" lon="1.58567">
        <ele>130.88</ele>
        <time>2011-03-20T09:11:40Z</time>
      </trkpt>
      <trkpt lat="44.79221" lon="1.58572">
        <ele>129.43</ele>
        <time>2011-03-20T09:11:42Z</time>
      </trkpt>
      <trkpt lat="44.79224" lon="1.58575">
        <ele>130.4</ele>
        <time>2011-03-20T09:11:44Z</time>
      </trkpt>
      <trkpt lat="44.79224" lon="1.58576">
        <ele>129.43</ele>
        <time>2011-03-20T09:11:45Z</time>
      </trkpt>
      <trkpt lat="44.7923" lon="1.5859">
        <ele>129.92</ele>
        <time>2011-03-20T09:11:51Z</time>
      </trkpt>
      <trkpt lat="44.79237" lon="1.58602">
        <ele>128.47</ele>
        <time>2011-03-20T09:11:56Z</time>
      </trkpt>
      <trkpt lat="44.79239" lon="1.5861">
        <ele>128.95</ele>
        <time>2011-03-20T09:12:01Z</time>
      </trkpt>
      <trkpt lat="44.79241" lon="1.58615">
        <ele>129.92</ele>
        <time>2011-03-20T09:12:04Z</time>
      </trkpt>
      <trkpt lat="44.79246" lon="1.58624">
        <ele>128.47</ele>
        <time>2011-03-20T09:12:10Z</time>
      </trkpt>
      <trkpt lat="44.79247" lon="1.58631">
        <ele>129.92</ele>
        <time>2011-03-20T09:12:13Z</time>
      </trkpt>
      <trkpt lat="44.79249" lon="1.58645">
        <ele>130.4</ele>
        <time>2011-03-20T09:12:19Z</time>
      </trkpt>
      <trkpt lat="44.79252" lon="1.58666">
        <ele>128.47</ele>
        <time>2011-03-20T09:12:27Z</time>
      </trkpt>
      <trkpt lat="44.79255" lon="1.58678">
        <ele>128.95</ele>
        <time>2011-03-20T09:12:33Z</time>
      </trkpt>
      <trkpt lat="44.79252" lon="1.58688">
        <ele>129.43</ele>
        <time>2011-03-20T09:12:37Z</time>
      </trkpt>
      <trkpt lat="44.79254" lon="1.58693">
        <ele>130.4</ele>
        <time>2011-03-20T09:12:40Z</time>
      </trkpt>
      <trkpt lat="44.79253" lon="1.58699">
        <ele>129.43</ele>
        <time>2011-03-20T09:12:42Z</time>
      </trkpt>
      <trkpt lat="44.79257" lon="1.58708">
        <ele>131.36</ele>
        <time>2011-03-20T09:12:48Z</time>
      </trkpt>
      <trkpt lat="44.79258" lon="1.5872">
        <ele>130.4</ele>
        <time>2011-03-20T09:12:54Z</time>
      </trkpt>
      <trkpt lat="44.79259" lon="1.58725">
        <ele>130.4</ele>
        <time>2011-03-20T09:12:56Z</time>
      </trkpt>
      <trkpt lat="44.7926" lon="1.58731">
        <ele>131.36</ele>
        <time>2011-03-20T09:12:58Z</time>
      </trkpt>
      <trkpt lat="44.79263" lon="1.58736">
        <ele>129.92</ele>
        <time>2011-03-20T09:13:00Z</time>
      </trkpt>
      <trkpt lat="44.79264" lon="1.58746">
        <ele>132.32</ele>
        <time>2011-03-20T09:13:03Z</time>
      </trkpt>
      <trkpt lat="44.79266" lon="1.58756">
        <ele>132.32</ele>
        <time>2011-03-20T09:13:08Z</time>
      </trkpt>
      <trkpt lat="44.79266" lon="1.58766">
        <ele>133.28</ele>
        <time>2011-03-20T09:13:14Z</time>
      </trkpt>
      <trkpt lat="44.79266" lon="1.58772">
        <ele>131.36</ele>
        <time>2011-03-20T09:13:17Z</time>
      </trkpt>
      <trkpt lat="44.79267" lon="1.58777">
        <ele>132.8</ele>
        <time>2011-03-20T09:13:19Z</time>
      </trkpt>
      <trkpt lat="44.79269" lon="1.58793">
        <ele>132.8</ele>
        <time>2011-03-20T09:13:25Z</time>
      </trkpt>
      <trkpt lat="44.7927" lon="1.58797">
        <ele>131.84</ele>
        <time>2011-03-20T09:13:27Z</time>
      </trkpt>
      <trkpt lat="44.7927" lon="1.58799">
        <ele>133.76</ele>
        <time>2011-03-20T09:13:29Z</time>
      </trkpt>
      <trkpt lat="44.79271" lon="1.58805">
        <ele>133.28</ele>
        <time>2011-03-20T09:13:35Z</time>
      </trkpt>
      <trkpt lat="44.79271" lon="1.58807">
        <ele>134.24</ele>
        <time>2011-03-20T09:13:36Z</time>
      </trkpt>
      <trkpt lat="44.79274" lon="1.58825">
        <ele>132.8</ele>
        <time>2011-03-20T09:13:43Z</time>
      </trkpt>
      <trkpt lat="44.79275" lon="1.58828">
        <ele>134.24</ele>
        <time>2011-03-20T09:13:45Z</time>
      </trkpt>
      <trkpt lat="44.79279" lon="1.58836">
        <ele>133.76</ele>
        <time>2011-03-20T09:13:49Z</time>
      </trkpt>
      <trkpt lat="44.79278" lon="1.58838">
        <ele>133.28</ele>
        <time>2011-03-20T09:13:50Z</time>
      </trkpt>
      <trkpt lat="44.7928" lon="1.58855">
        <ele>134.72</ele>
        <time>2011-03-20T09:13:57Z</time>
      </trkpt>
      <trkpt lat="44.79279" lon="1.58858">
        <ele>135.2</ele>
        <time>2011-03-20T09:13:58Z</time>
      </trkpt>
      <trkpt lat="44.7928" lon="1.58868">
        <ele>135.68</ele>
        <time>2011-03-20T09:14:02Z</time>
      </trkpt>
      <trkpt lat="44.79284" lon="1.58877">
        <ele>136.16</ele>
        <time>2011-03-20T09:14:08Z</time>
      </trkpt>
      <trkpt lat="44.79282" lon="1.58884">
        <ele>135.2</ele>
        <time>2011-03-20T09:14:12Z</time>
      </trkpt>
      <trkpt lat="44.79282" lon="1.58892">
        <ele>138.09</ele>
        <time>2011-03-20T09:14:17Z</time>
      </trkpt>
      <trkpt lat="44.7928" lon="1.58906">
        <ele>138.57</ele>
        <time>2011-03-20T09:14:23Z</time>
      </trkpt>
      <trkpt lat="44.79279" lon="1.58914">
        <ele>135.68</ele>
        <time>2011-03-20T09:14:27Z</time>
      </trkpt>
      <trkpt lat="44.79276" lon="1.58925">
        <ele>136.16</ele>
        <time>2011-03-20T09:14:32Z</time>
      </trkpt>
      <trkpt lat="44.79276" lon="1.58939">
        <ele>136.16</ele>
        <time>2011-03-20T09:14:37Z</time>
      </trkpt>
      <trkpt lat="44.79275" lon="1.58949">
        <ele>136.16</ele>
        <time>2011-03-20T09:14:41Z</time>
      </trkpt>
      <trkpt lat="44.79274" lon="1.58972">
        <ele>139.53</ele>
        <time>2011-03-20T09:14:51Z</time>
      </trkpt>
      <trkpt lat="44.79276" lon="1.5899">
        <ele>139.05</ele>
        <time>2011-03-20T09:15:00Z</time>
      </trkpt>
      <trkpt lat="44.79275" lon="1.58992">
        <ele>139.05</ele>
        <time>2011-03-20T09:15:01Z</time>
      </trkpt>
      <trkpt lat="44.79278" lon="1.59004">
        <ele>140.01</ele>
        <time>2011-03-20T09:15:07Z</time>
      </trkpt>
      <trkpt lat="44.79278" lon="1.59011">
        <ele>141.45</ele>
        <time>2011-03-20T09:15:10Z</time>
      </trkpt>
      <trkpt lat="44.79279" lon="1.59028">
        <ele>141.93</ele>
        <time>2011-03-20T09:15:18Z</time>
      </trkpt>
      <trkpt lat="44.79278" lon="1.5904">
        <ele>142.41</ele>
        <time>2011-03-20T09:15:23Z</time>
      </trkpt>
      <trkpt lat="44.79275" lon="1.59062">
        <ele>143.37</ele>
        <time>2011-03-20T09:15:32Z</time>
      </trkpt>
      <trkpt lat="44.79275" lon="1.59069">
        <ele>146.74</ele>
        <time>2011-03-20T09:15:35Z</time>
      </trkpt>
      <trkpt lat="44.79275" lon="1.59079">
        <ele>146.26</ele>
        <time>2011-03-20T09:15:39Z</time>
      </trkpt>
      <trkpt lat="44.79277" lon="1.59082">
        <ele>146.74</ele>
        <time>2011-03-20T09:15:41Z</time>
      </trkpt>
      <trkpt lat="44.79277" lon="1.59093">
        <ele>148.18</ele>
        <time>2011-03-20T09:15:46Z</time>
      </trkpt>
      <trkpt lat="44.79276" lon="1.59102">
        <ele>147.7</ele>
        <time>2011-03-20T09:15:52Z</time>
      </trkpt>
      <trkpt lat="44.79276" lon="1.59102">
        <ele>150.58</ele>
        <time>2011-03-20T09:15:58Z</time>
      </trkpt>
      <trkpt lat="44.79276" lon="1.59109">
        <ele>150.58</ele>
        <time>2011-03-20T09:16:03Z</time>
      </trkpt>
      <trkpt lat="44.79273" lon="1.59126">
        <ele>150.58</ele>
        <time>2011-03-20T09:16:08Z</time>
      </trkpt>
      <trkpt lat="44.7927" lon="1.59134">
        <ele>149.62</ele>
        <time>2011-03-20T09:16:10Z</time>
      </trkpt>
      <trkpt lat="44.79268" lon="1.59143">
        <ele>152.03</ele>
        <time>2011-03-20T09:16:13Z</time>
      </trkpt>
      <trkpt lat="44.7926" lon="1.59168">
        <ele>152.99</ele>
        <time>2011-03-20T09:16:21Z</time>
      </trkpt>
      <trkpt lat="44.79259" lon="1.59181">
        <ele>151.54</ele>
        <time>2011-03-20T09:16:26Z</time>
      </trkpt>
      <trkpt lat="44.79259" lon="1.5919">
        <ele>152.51</ele>
        <time>2011-03-20T09:16:32Z</time>
      </trkpt>
      <trkpt lat="44.79254" lon="1.59199">
        <ele>152.99</ele>
        <time>2011-03-20T09:16:37Z</time>
      </trkpt>
      <trkpt lat="44.79253" lon="1.59201">
        <ele>153.47</ele>
        <time>2011-03-20T09:16:39Z</time>
      </trkpt>
      <trkpt lat="44.79252" lon="1.59205">
        <ele>152.03</ele>
        <time>2011-03-20T09:16:41Z</time>
      </trkpt>
      <trkpt lat="44.79251" lon="1.59213">
        <ele>153.47</ele>
        <time>2011-03-20T09:16:45Z</time>
      </trkpt>
      <trkpt lat="44.7925" lon="1.59224">
        <ele>156.35</ele>
        <time>2011-03-20T09:16:50Z</time>
      </trkpt>
      <trkpt lat="44.7925" lon="1.59228">
        <ele>157.31</ele>
        <time>2011-03-20T09:16:52Z</time>
      </trkpt>
      <trkpt lat="44.7925" lon="1.5923">
        <ele>154.43</ele>
        <time>2011-03-20T09:16:56Z</time>
      </trkpt>
      <trkpt lat="44.79246" lon="1.59241">
        <ele>155.87</ele>
        <time>2011-03-20T09:17:01Z</time>
      </trkpt>
      <trkpt lat="44.79241" lon="1.59265">
        <ele>153.95</ele>
        <time>2011-03-20T09:17:07Z</time>
      </trkpt>
      <trkpt lat="44.79242" lon="1.59265">
        <ele>153.47</ele>
        <time>2011-03-20T09:17:08Z</time>
      </trkpt>
      <trkpt lat="44.79242" lon="1.59278">
        <ele>154.91</ele>
        <time>2011-03-20T09:17:13Z</time>
      </trkpt>
      <trkpt lat="44.79241" lon="1.59294">
        <ele>153.47</ele>
        <time>2011-03-20T09:17:19Z</time>
      </trkpt>
      <trkpt lat="44.7924" lon="1.59306">
        <ele>153.47</ele>
        <time>2011-03-20T09:17:24Z</time>
      </trkpt>
      <trkpt lat="44.79239" lon="1.5931">
        <ele>155.39</ele>
        <time>2011-03-20T09:17:27Z</time>
      </trkpt>
      <trkpt lat="44.79237" lon="1.59313">
        <ele>153.47</ele>
        <time>2011-03-20T09:17:30Z</time>
      </trkpt>
      <trkpt lat="44.79236" lon="1.59315">
        <ele>155.87</ele>
        <time>2011-03-20T09:17:34Z</time>
      </trkpt>
      <trkpt lat="44.79233" lon="1.59321">
        <ele>154.91</ele>
        <time>2011-03-20T09:17:36Z</time>
      </trkpt>
      <trkpt lat="44.79226" lon="1.59335">
        <ele>157.31</ele>
        <time>2011-03-20T09:17:42Z</time>
      </trkpt>
      <trkpt lat="44.79224" lon="1.59345">
        <ele>158.75</ele>
        <time>2011-03-20T09:17:48Z</time>
      </trkpt>
      <trkpt lat="44.79217" lon="1.59362">
        <ele>159.24</ele>
        <time>2011-03-20T09:17:57Z</time>
      </trkpt>
      <trkpt lat="44.79215" lon="1.59364">
        <ele>159.24</ele>
        <time>2011-03-20T09:18:00Z</time>
      </trkpt>
      <trkpt lat="44.79212" lon="1.5937">
        <ele>160.68</ele>
        <time>2011-03-20T09:18:03Z</time>
      </trkpt>
      <trkpt lat="44.79211" lon="1.59371">
        <ele>160.68</ele>
        <time>2011-03-20T09:18:04Z</time>
      </trkpt>
      <trkpt lat="44.79207" lon="1.59382">
        <ele>160.2</ele>
        <time>2011-03-20T09:18:11Z</time>
      </trkpt>
      <trkpt lat="44.79203" lon="1.59391">
        <ele>163.08</ele>
        <time>2011-03-20T09:18:15Z</time>
      </trkpt>
      <trkpt lat="44.79201" lon="1.59396">
        <ele>163.08</ele>
        <time>2011-03-20T09:18:17Z</time>
      </trkpt>
      <trkpt lat="44.792" lon="1.59398">
        <ele>162.6</ele>
        <time>2011-03-20T09:18:19Z</time>
      </trkpt>
      <trkpt lat="44.79194" lon="1.59406">
        <ele>165.48</ele>
        <time>2011-03-20T09:18:26Z</time>
      </trkpt>
      <trkpt lat="44.7919" lon="1.59413">
        <ele>166.93</ele>
        <time>2011-03-20T09:18:33Z</time>
      </trkpt>
      <trkpt lat="44.79186" lon="1.59416">
        <ele>165.48</ele>
        <time>2011-03-20T09:18:37Z</time>
      </trkpt>
      <trkpt lat="44.79183" lon="1.59421">
        <ele>168.37</ele>
        <time>2011-03-20T09:18:42Z</time>
      </trkpt>
      <trkpt lat="44.7918" lon="1.59426">
        <ele>166.93</ele>
        <time>2011-03-20T09:18:46Z</time>
      </trkpt>
      <trkpt lat="44.79174" lon="1.59436">
        <ele>170.77</ele>
        <time>2011-03-20T09:18:54Z</time>
      </trkpt>
      <trkpt lat="44.79173" lon="1.59438">
        <ele>170.77</ele>
        <time>2011-03-20T09:18:55Z</time>
      </trkpt>
      <trkpt lat="44.79168" lon="1.59444">
        <ele>169.33</ele>
        <time>2011-03-20T09:19:00Z</time>
      </trkpt>
      <trkpt lat="44.79167" lon="1.59447">
        <ele>171.25</ele>
        <time>2011-03-20T09:19:03Z</time>
      </trkpt>
      <trkpt lat="44.7916" lon="1.5946">
        <ele>173.17</ele>
        <time>2011-03-20T09:19:11Z</time>
      </trkpt>
      <trkpt lat="44.79159" lon="1.59463">
        <ele>172.69</ele>
        <time>2011-03-20T09:19:14Z</time>
      </trkpt>
      <trkpt lat="44.79157" lon="1.59467">
        <ele>176.54</ele>
        <time>2011-03-20T09:19:18Z</time>
      </trkpt>
      <trkpt lat="44.79156" lon="1.59469">
        <ele>180.38</ele>
        <time>2011-03-20T09:19:20Z</time>
      </trkpt>
      <trkpt lat="44.79155" lon="1.59472">
        <ele>180.87</ele>
        <time>2011-03-20T09:19:22Z</time>
      </trkpt>
      <trkpt lat="44.79151" lon="1.59481">
        <ele>181.83</ele>
        <time>2011-03-20T09:19:29Z</time>
      </trkpt>
      <trkpt lat="44.79149" lon="1.59484">
        <ele>185.19</ele>
        <time>2011-03-20T09:19:33Z</time>
      </trkpt>
      <trkpt lat="44.79145" lon="1.5949">
        <ele>186.15</ele>
        <time>2011-03-20T09:19:38Z</time>
      </trkpt>
      <trkpt lat="44.79142" lon="1.59498">
        <ele>187.59</ele>
        <time>2011-03-20T09:19:44Z</time>
      </trkpt>
      <trkpt lat="44.79138" lon="1.59505">
        <ele>189.04</ele>
        <time>2011-03-20T09:19:51Z</time>
      </trkpt>
      <trkpt lat="44.79136" lon="1.59508">
        <ele>188.08</ele>
        <time>2011-03-20T09:19:54Z</time>
      </trkpt>
      <trkpt lat="44.79135" lon="1.5951">
        <ele>190</ele>
        <time>2011-03-20T09:19:56Z</time>
      </trkpt>
      <trkpt lat="44.79134" lon="1.59514">
        <ele>190.48</ele>
        <time>2011-03-20T09:20:00Z</time>
      </trkpt>
      <trkpt lat="44.7913" lon="1.59527">
        <ele>189.52</ele>
        <time>2011-03-20T09:20:09Z</time>
      </trkpt>
      <trkpt lat="44.79128" lon="1.5953">
        <ele>187.11</ele>
        <time>2011-03-20T09:20:12Z</time>
      </trkpt>
      <trkpt lat="44.79126" lon="1.59535">
        <ele>188.56</ele>
        <time>2011-03-20T09:20:15Z</time>
      </trkpt>
      <trkpt lat="44.79124" lon="1.59546">
        <ele>188.56</ele>
        <time>2011-03-20T09:20:22Z</time>
      </trkpt>
      <trkpt lat="44.79121" lon="1.59552">
        <ele>189.04</ele>
        <time>2011-03-20T09:20:29Z</time>
      </trkpt>
      <trkpt lat="44.7912" lon="1.59556">
        <ele>190.96</ele>
        <time>2011-03-20T09:20:32Z</time>
      </trkpt>
      <trkpt lat="44.79118" lon="1.59558">
        <ele>188.56</ele>
        <time>2011-03-20T09:20:34Z</time>
      </trkpt>
      <trkpt lat="44.79113" lon="1.59567">
        <ele>191.44</ele>
        <time>2011-03-20T09:20:42Z</time>
      </trkpt>
      <trkpt lat="44.79111" lon="1.59571">
        <ele>190.48</ele>
        <time>2011-03-20T09:20:44Z</time>
      </trkpt>
      <trkpt lat="44.79109" lon="1.59578">
        <ele>192.88</ele>
        <time>2011-03-20T09:20:49Z</time>
      </trkpt>
      <trkpt lat="44.79105" lon="1.59584">
        <ele>192.88</ele>
        <time>2011-03-20T09:20:53Z</time>
      </trkpt>
      <trkpt lat="44.79101" lon="1.59596">
        <ele>192.88</ele>
        <time>2011-03-20T09:21:02Z</time>
      </trkpt>
      <trkpt lat="44.79096" lon="1.59598">
        <ele>194.8</ele>
        <time>2011-03-20T09:21:06Z</time>
      </trkpt>
      <trkpt lat="44.79094" lon="1.59601">
        <ele>195.77</ele>
        <time>2011-03-20T09:21:08Z</time>
      </trkpt>
      <trkpt lat="44.7909" lon="1.59607">
        <ele>197.69</ele>
        <time>2011-03-20T09:21:13Z</time>
      </trkpt>
      <trkpt lat="44.79088" lon="1.59611">
        <ele>200.57</ele>
        <time>2011-03-20T09:21:17Z</time>
      </trkpt>
      <trkpt lat="44.79083" lon="1.59621">
        <ele>202.49</ele>
        <time>2011-03-20T09:21:23Z</time>
      </trkpt>
      <trkpt lat="44.79079" lon="1.59623">
        <ele>204.42</ele>
        <time>2011-03-20T09:21:27Z</time>
      </trkpt>
      <trkpt lat="44.79078" lon="1.59623">
        <ele>203.94</ele>
        <time>2011-03-20T09:21:28Z</time>
      </trkpt>
      <trkpt lat="44.79072" lon="1.59629">
        <ele>205.38</ele>
        <time>2011-03-20T09:21:35Z</time>
      </trkpt>
      <trkpt lat="44.79068" lon="1.59631">
        <ele>207.3</ele>
        <time>2011-03-20T09:21:41Z</time>
      </trkpt>
      <trkpt lat="44.79064" lon="1.59638">
        <ele>207.78</ele>
        <time>2011-03-20T09:21:46Z</time>
      </trkpt>
      <trkpt lat="44.79061" lon="1.59642">
        <ele>208.26</ele>
        <time>2011-03-20T09:21:50Z</time>
      </trkpt>
      <trkpt lat="44.7906" lon="1.59642">
        <ele>209.22</ele>
        <time>2011-03-20T09:21:51Z</time>
      </trkpt>
      <trkpt lat="44.79057" lon="1.59648">
        <ele>208.74</ele>
        <time>2011-03-20T09:21:54Z</time>
      </trkpt>
      <trkpt lat="44.79056" lon="1.59652">
        <ele>210.19</ele>
        <time>2011-03-20T09:21:56Z</time>
      </trkpt>
      <trkpt lat="44.79053" lon="1.59653">
        <ele>210.67</ele>
        <time>2011-03-20T09:22:02Z</time>
      </trkpt>
      <trkpt lat="44.79045" lon="1.5966">
        <ele>213.07</ele>
        <time>2011-03-20T09:22:13Z</time>
      </trkpt>
      <trkpt lat="44.79036" lon="1.59673">
        <ele>213.07</ele>
        <time>2011-03-20T09:22:26Z</time>
      </trkpt>
      <trkpt lat="44.79029" lon="1.59685">
        <ele>214.03</ele>
        <time>2011-03-20T09:22:38Z</time>
      </trkpt>
      <trkpt lat="44.7902" lon="1.59699">
        <ele>215.47</ele>
        <time>2011-03-20T09:22:52Z</time>
      </trkpt>
      <trkpt lat="44.7901" lon="1.59716">
        <ele>215.47</ele>
        <time>2011-03-20T09:23:05Z</time>
      </trkpt>
      <trkpt lat="44.79008" lon="1.59716">
        <ele>217.4</ele>
        <time>2011-03-20T09:23:07Z</time>
      </trkpt>
      <trkpt lat="44.79003" lon="1.59732">
        <ele>218.36</ele>
        <time>2011-03-20T09:23:21Z</time>
      </trkpt>
      <trkpt lat="44.78996" lon="1.59749">
        <ele>220.76</ele>
        <time>2011-03-20T09:23:33Z</time>
      </trkpt>
      <trkpt lat="44.78995" lon="1.59766">
        <ele>222.2</ele>
        <time>2011-03-20T09:23:46Z</time>
      </trkpt>
      <trkpt lat="44.78992" lon="1.59781">
        <ele>225.57</ele>
        <time>2011-03-20T09:23:55Z</time>
      </trkpt>
      <trkpt lat="44.78989" lon="1.59795">
        <ele>225.57</ele>
        <time>2011-03-20T09:24:03Z</time>
      </trkpt>
      <trkpt lat="44.78989" lon="1.59807">
        <ele>227.97</ele>
        <time>2011-03-20T09:24:11Z</time>
      </trkpt>
      <trkpt lat="44.78988" lon="1.59815">
        <ele>229.41</ele>
        <time>2011-03-20T09:24:18Z</time>
      </trkpt>
      <trkpt lat="44.78988" lon="1.59818">
        <ele>230.85</ele>
        <time>2011-03-20T09:24:21Z</time>
      </trkpt>
      <trkpt lat="44.78986" lon="1.59825">
        <ele>234.22</ele>
        <time>2011-03-20T09:24:28Z</time>
      </trkpt>
      <trkpt lat="44.78985" lon="1.59832">
        <ele>237.1</ele>
        <time>2011-03-20T09:24:34Z</time>
      </trkpt>
      <trkpt lat="44.78985" lon="1.59837">
        <ele>237.58</ele>
        <time>2011-03-20T09:24:36Z</time>
      </trkpt>
      <trkpt lat="44.78985" lon="1.5985">
        <ele>240.95</ele>
        <time>2011-03-20T09:24:43Z</time>
      </trkpt>
      <trkpt lat="44.78984" lon="1.59865">
        <ele>239.99</ele>
        <time>2011-03-20T09:24:52Z</time>
      </trkpt>
      <trkpt lat="44.78984" lon="1.59868">
        <ele>239.99</ele>
        <time>2011-03-20T09:24:53Z</time>
      </trkpt>
      <trkpt lat="44.78984" lon="1.59886">
        <ele>242.87</ele>
        <time>2011-03-20T09:25:06Z</time>
      </trkpt>
      <trkpt lat="44.78988" lon="1.59908">
        <ele>241.91</ele>
        <time>2011-03-20T09:25:18Z</time>
      </trkpt>
      <trkpt lat="44.78988" lon="1.59912">
        <ele>242.39</ele>
        <time>2011-03-20T09:25:20Z</time>
      </trkpt>
      <trkpt lat="44.78988" lon="1.59914">
        <ele>240.47</ele>
        <time>2011-03-20T09:25:21Z</time>
      </trkpt>
      <trkpt lat="44.78989" lon="1.59917">
        <ele>241.43</ele>
        <time>2011-03-20T09:25:23Z</time>
      </trkpt>
      <trkpt lat="44.78991" lon="1.59923">
        <ele>241.91</ele>
        <time>2011-03-20T09:25:27Z</time>
      </trkpt>
      <trkpt lat="44.78994" lon="1.59927">
        <ele>242.87</ele>
        <time>2011-03-20T09:25:31Z</time>
      </trkpt>
      <trkpt lat="44.78998" lon="1.59936">
        <ele>242.87</ele>
        <time>2011-03-20T09:25:36Z</time>
      </trkpt>
      <trkpt lat="44.78999" lon="1.59941">
        <ele>242.87</ele>
        <time>2011-03-20T09:25:39Z</time>
      </trkpt>
      <trkpt lat="44.79" lon="1.59955">
        <ele>242.39</ele>
        <time>2011-03-20T09:25:48Z</time>
      </trkpt>
      <trkpt lat="44.79001" lon="1.59971">
        <ele>244.31</ele>
        <time>2011-03-20T09:25:57Z</time>
      </trkpt>
      <trkpt lat="44.79009" lon="1.59989">
        <ele>244.79</ele>
        <time>2011-03-20T09:26:09Z</time>
      </trkpt>
      <trkpt lat="44.7901" lon="1.59999">
        <ele>245.75</ele>
        <time>2011-03-20T09:26:14Z</time>
      </trkpt>
      <trkpt lat="44.79011" lon="1.60013">
        <ele>246.72</ele>
        <time>2011-03-20T09:26:21Z</time>
      </trkpt>
      <trkpt lat="44.79012" lon="1.60024">
        <ele>247.2</ele>
        <time>2011-03-20T09:26:25Z</time>
      </trkpt>
      <trkpt lat="44.7901" lon="1.60031">
        <ele>249.6</ele>
        <time>2011-03-20T09:26:30Z</time>
      </trkpt>
      <trkpt lat="44.79011" lon="1.60036">
        <ele>251.04</ele>
        <time>2011-03-20T09:26:32Z</time>
      </trkpt>
      <trkpt lat="44.79015" lon="1.60045">
        <ele>252.48</ele>
        <time>2011-03-20T09:26:36Z</time>
      </trkpt>
      <trkpt lat="44.79014" lon="1.60047">
        <ele>251.04</ele>
        <time>2011-03-20T09:26:37Z</time>
      </trkpt>
      <trkpt lat="44.79012" lon="1.60062">
        <ele>252.96</ele>
        <time>2011-03-20T09:26:43Z</time>
      </trkpt>
      <trkpt lat="44.79012" lon="1.60069">
        <ele>252.48</ele>
        <time>2011-03-20T09:26:45Z</time>
      </trkpt>
      <trkpt lat="44.79015" lon="1.60075">
        <ele>253.93</ele>
        <time>2011-03-20T09:26:49Z</time>
      </trkpt>
      <trkpt lat="44.79016" lon="1.60076">
        <ele>254.89</ele>
        <time>2011-03-20T09:26:51Z</time>
      </trkpt>
      <trkpt lat="44.79012" lon="1.60089">
        <ele>253.93</ele>
        <time>2011-03-20T09:26:57Z</time>
      </trkpt>
      <trkpt lat="44.79013" lon="1.601">
        <ele>254.89</ele>
        <time>2011-03-20T09:27:02Z</time>
      </trkpt>
      <trkpt lat="44.79015" lon="1.60102">
        <ele>254.41</ele>
        <time>2011-03-20T09:27:05Z</time>
      </trkpt>
      <trkpt lat="44.79017" lon="1.60105">
        <ele>255.85</ele>
        <time>2011-03-20T09:27:07Z</time>
      </trkpt>
      <trkpt lat="44.79025" lon="1.60112">
        <ele>253.93</ele>
        <time>2011-03-20T09:27:11Z</time>
      </trkpt>
      <trkpt lat="44.79029" lon="1.60116">
        <ele>255.85</ele>
        <time>2011-03-20T09:27:14Z</time>
      </trkpt>
      <trkpt lat="44.7903" lon="1.60118">
        <ele>255.85</ele>
        <time>2011-03-20T09:27:15Z</time>
      </trkpt>
      <trkpt lat="44.79033" lon="1.60119">
        <ele>254.41</ele>
        <time>2011-03-20T09:27:17Z</time>
      </trkpt>
      <trkpt lat="44.79038" lon="1.60131">
        <ele>254.89</ele>
        <time>2011-03-20T09:27:23Z</time>
      </trkpt>
      <trkpt lat="44.7904" lon="1.60136">
        <ele>254.89</ele>
        <time>2011-03-20T09:27:28Z</time>
      </trkpt>
      <trkpt lat="44.7904" lon="1.60137">
        <ele>254.89</ele>
        <time>2011-03-20T09:27:29Z</time>
      </trkpt>
      <trkpt lat="44.79038" lon="1.60141">
        <ele>256.81</ele>
        <time>2011-03-20T09:27:31Z</time>
      </trkpt>
      <trkpt lat="44.79037" lon="1.60149">
        <ele>255.85</ele>
        <time>2011-03-20T09:27:35Z</time>
      </trkpt>
      <trkpt lat="44.79036" lon="1.60158">
        <ele>255.85</ele>
        <time>2011-03-20T09:27:41Z</time>
      </trkpt>
      <trkpt lat="44.79044" lon="1.60178">
        <ele>254.89</ele>
        <time>2011-03-20T09:27:49Z</time>
      </trkpt>
      <trkpt lat="44.79057" lon="1.60183">
        <ele>253.44</ele>
        <time>2011-03-20T09:27:57Z</time>
      </trkpt>
      <trkpt lat="44.79058" lon="1.60182">
        <ele>253.44</ele>
        <time>2011-03-20T09:27:58Z</time>
      </trkpt>
      <trkpt lat="44.79064" lon="1.60185">
        <ele>255.37</ele>
        <time>2011-03-20T09:28:06Z</time>
      </trkpt>
      <trkpt lat="44.79069" lon="1.60197">
        <ele>252.96</ele>
        <time>2011-03-20T09:28:12Z</time>
      </trkpt>
      <trkpt lat="44.7907" lon="1.60198">
        <ele>253.93</ele>
        <time>2011-03-20T09:28:13Z</time>
      </trkpt>
      <trkpt lat="44.79071" lon="1.60206">
        <ele>254.89</ele>
        <time>2011-03-20T09:28:16Z</time>
      </trkpt>
      <trkpt lat="44.79071" lon="1.6021">
        <ele>252.96</ele>
        <time>2011-03-20T09:28:19Z</time>
      </trkpt>
      <trkpt lat="44.79069" lon="1.60233">
        <ele>251.52</ele>
        <time>2011-03-20T09:28:27Z</time>
      </trkpt>
      <trkpt lat="44.7907" lon="1.60236">
        <ele>252</ele>
        <time>2011-03-20T09:28:28Z</time>
      </trkpt>
      <trkpt lat="44.79065" lon="1.60246">
        <ele>250.56</ele>
        <time>2011-03-20T09:28:33Z</time>
      </trkpt>
      <trkpt lat="44.79066" lon="1.60248">
        <ele>250.08</ele>
        <time>2011-03-20T09:28:34Z</time>
      </trkpt>
      <trkpt lat="44.79066" lon="1.60259">
        <ele>250.56</ele>
        <time>2011-03-20T09:28:39Z</time>
      </trkpt>
      <trkpt lat="44.79062" lon="1.60274">
        <ele>251.52</ele>
        <time>2011-03-20T09:28:46Z</time>
      </trkpt>
      <trkpt lat="44.79059" lon="1.60283">
        <ele>252</ele>
        <time>2011-03-20T09:28:51Z</time>
      </trkpt>
      <trkpt lat="44.79055" lon="1.60314">
        <ele>251.52</ele>
        <time>2011-03-20T09:29:06Z</time>
      </trkpt>
      <trkpt lat="44.79054" lon="1.60331">
        <ele>251.52</ele>
        <time>2011-03-20T09:29:13Z</time>
      </trkpt>
      <trkpt lat="44.79054" lon="1.60336">
        <ele>252.96</ele>
        <time>2011-03-20T09:29:15Z</time>
      </trkpt>
      <trkpt lat="44.79051" lon="1.60343">
        <ele>251.04</ele>
        <time>2011-03-20T09:29:19Z</time>
      </trkpt>
      <trkpt lat="44.79049" lon="1.6035">
        <ele>249.6</ele>
        <time>2011-03-20T09:29:24Z</time>
      </trkpt>
      <trkpt lat="44.79049" lon="1.60354">
        <ele>250.56</ele>
        <time>2011-03-20T09:29:27Z</time>
      </trkpt>
      <trkpt lat="44.79049" lon="1.60359">
        <ele>250.08</ele>
        <time>2011-03-20T09:29:29Z</time>
      </trkpt>
      <trkpt lat="44.79048" lon="1.60371">
        <ele>250.56</ele>
        <time>2011-03-20T09:29:35Z</time>
      </trkpt>
      <trkpt lat="44.79046" lon="1.60384">
        <ele>249.6</ele>
        <time>2011-03-20T09:29:41Z</time>
      </trkpt>
      <trkpt lat="44.79043" lon="1.60402">
        <ele>251.04</ele>
        <time>2011-03-20T09:29:47Z</time>
      </trkpt>
      <trkpt lat="44.79043" lon="1.60412">
        <ele>249.12</ele>
        <time>2011-03-20T09:29:52Z</time>
      </trkpt>
      <trkpt lat="44.79041" lon="1.60414">
        <ele>250.56</ele>
        <time>2011-03-20T09:29:54Z</time>
      </trkpt>
      <trkpt lat="44.7904" lon="1.60418">
        <ele>249.12</ele>
        <time>2011-03-20T09:29:58Z</time>
      </trkpt>
      <trkpt lat="44.79039" lon="1.60424">
        <ele>251.04</ele>
        <time>2011-03-20T09:30:01Z</time>
      </trkpt>
      <trkpt lat="44.79035" lon="1.60434">
        <ele>250.08</ele>
        <time>2011-03-20T09:30:07Z</time>
      </trkpt>
      <trkpt lat="44.79034" lon="1.60446">
        <ele>249.12</ele>
        <time>2011-03-20T09:30:13Z</time>
      </trkpt>
      <trkpt lat="44.79033" lon="1.60462">
        <ele>249.12</ele>
        <time>2011-03-20T09:30:19Z</time>
      </trkpt>
      <trkpt lat="44.79032" lon="1.60468">
        <ele>249.6</ele>
        <time>2011-03-20T09:30:23Z</time>
      </trkpt>
      <trkpt lat="44.79032" lon="1.60476">
        <ele>249.6</ele>
        <time>2011-03-20T09:30:27Z</time>
      </trkpt>
      <trkpt lat="44.79031" lon="1.60482">
        <ele>247.68</ele>
        <time>2011-03-20T09:30:29Z</time>
      </trkpt>
      <trkpt lat="44.7903" lon="1.60486">
        <ele>248.16</ele>
        <time>2011-03-20T09:30:30Z</time>
      </trkpt>
      <trkpt lat="44.7903" lon="1.6049">
        <ele>249.6</ele>
        <time>2011-03-20T09:30:32Z</time>
      </trkpt>
      <trkpt lat="44.79025" lon="1.60502">
        <ele>246.72</ele>
        <time>2011-03-20T09:30:39Z</time>
      </trkpt>
      <trkpt lat="44.79025" lon="1.60502">
        <ele>247.68</ele>
        <time>2011-03-20T09:30:40Z</time>
      </trkpt>
      <trkpt lat="44.79026" lon="1.60509">
        <ele>245.75</ele>
        <time>2011-03-20T09:30:43Z</time>
      </trkpt>
      <trkpt lat="44.79024" lon="1.60526">
        <ele>246.23</ele>
        <time>2011-03-20T09:30:50Z</time>
      </trkpt>
      <trkpt lat="44.79023" lon="1.60534">
        <ele>246.23</ele>
        <time>2011-03-20T09:30:56Z</time>
      </trkpt>
      <trkpt lat="44.79021" lon="1.60554">
        <ele>247.68</ele>
        <time>2011-03-20T09:31:04Z</time>
      </trkpt>
      <trkpt lat="44.7902" lon="1.60565">
        <ele>247.2</ele>
        <time>2011-03-20T09:31:10Z</time>
      </trkpt>
      <trkpt lat="44.79017" lon="1.60571">
        <ele>249.6</ele>
        <time>2011-03-20T09:31:13Z</time>
      </trkpt>
      <trkpt lat="44.79018" lon="1.60577">
        <ele>247.68</ele>
        <time>2011-03-20T09:31:16Z</time>
      </trkpt>
      <trkpt lat="44.79016" lon="1.60582">
        <ele>250.08</ele>
        <time>2011-03-20T09:31:18Z</time>
      </trkpt>
      <trkpt lat="44.79016" lon="1.60589">
        <ele>249.6</ele>
        <time>2011-03-20T09:31:21Z</time>
      </trkpt>
      <trkpt lat="44.79012" lon="1.60606">
        <ele>250.08</ele>
        <time>2011-03-20T09:31:28Z</time>
      </trkpt>
      <trkpt lat="44.79007" lon="1.6062">
        <ele>248.16</ele>
        <time>2011-03-20T09:31:35Z</time>
      </trkpt>
      <trkpt lat="44.79008" lon="1.60622">
        <ele>249.12</ele>
        <time>2011-03-20T09:31:37Z</time>
      </trkpt>
      <trkpt lat="44.79008" lon="1.60628">
        <ele>248.64</ele>
        <time>2011-03-20T09:31:40Z</time>
      </trkpt>
      <trkpt lat="44.79007" lon="1.60639">
        <ele>248.16</ele>
        <time>2011-03-20T09:31:45Z</time>
      </trkpt>
      <trkpt lat="44.79004" lon="1.60645">
        <ele>246.23</ele>
        <time>2011-03-20T09:31:48Z</time>
      </trkpt>
      <trkpt lat="44.79004" lon="1.60647">
        <ele>246.23</ele>
        <time>2011-03-20T09:31:49Z</time>
      </trkpt>
      <trkpt lat="44.79003" lon="1.60658">
        <ele>247.2</ele>
        <time>2011-03-20T09:31:57Z</time>
      </trkpt>
      <trkpt lat="44.79002" lon="1.60659">
        <ele>247.2</ele>
        <time>2011-03-20T09:31:58Z</time>
      </trkpt>
      <trkpt lat="44.79001" lon="1.60661">
        <ele>247.2</ele>
        <time>2011-03-20T09:31:59Z</time>
      </trkpt>
      <trkpt lat="44.79" lon="1.6067">
        <ele>245.75</ele>
        <time>2011-03-20T09:32:02Z</time>
      </trkpt>
      <trkpt lat="44.78998" lon="1.6069">
        <ele>246.23</ele>
        <time>2011-03-20T09:32:11Z</time>
      </trkpt>
      <trkpt lat="44.78995" lon="1.60705">
        <ele>246.23</ele>
        <time>2011-03-20T09:32:18Z</time>
      </trkpt>
      <trkpt lat="44.78994" lon="1.60707">
        <ele>246.23</ele>
        <time>2011-03-20T09:32:19Z</time>
      </trkpt>
      <trkpt lat="44.78993" lon="1.60721">
        <ele>245.75</ele>
        <time>2011-03-20T09:32:25Z</time>
      </trkpt>
      <trkpt lat="44.78993" lon="1.60737">
        <ele>248.16</ele>
        <time>2011-03-20T09:32:32Z</time>
      </trkpt>
      <trkpt lat="44.78993" lon="1.60739">
        <ele>248.16</ele>
        <time>2011-03-20T09:32:34Z</time>
      </trkpt>
      <trkpt lat="44.78987" lon="1.60747">
        <ele>248.64</ele>
        <time>2011-03-20T09:32:42Z</time>
      </trkpt>
      <trkpt lat="44.78986" lon="1.60751">
        <ele>248.16</ele>
        <time>2011-03-20T09:32:44Z</time>
      </trkpt>
      <trkpt lat="44.78984" lon="1.60755">
        <ele>248.16</ele>
        <time>2011-03-20T09:32:46Z</time>
      </trkpt>
      <trkpt lat="44.78982" lon="1.60777">
        <ele>247.2</ele>
        <time>2011-03-20T09:32:54Z</time>
      </trkpt>
      <trkpt lat="44.78982" lon="1.60784">
        <ele>248.64</ele>
        <time>2011-03-20T09:32:58Z</time>
      </trkpt>
      <trkpt lat="44.7898" lon="1.60788">
        <ele>249.6</ele>
        <time>2011-03-20T09:33:03Z</time>
      </trkpt>
      <trkpt lat="44.78981" lon="1.60789">
        <ele>247.68</ele>
        <time>2011-03-20T09:33:04Z</time>
      </trkpt>
      <trkpt lat="44.78978" lon="1.60811">
        <ele>249.6</ele>
        <time>2011-03-20T09:33:11Z</time>
      </trkpt>
      <trkpt lat="44.78978" lon="1.60825">
        <ele>249.12</ele>
        <time>2011-03-20T09:33:19Z</time>
      </trkpt>
      <trkpt lat="44.78974" lon="1.60839">
        <ele>250.56</ele>
        <time>2011-03-20T09:33:26Z</time>
      </trkpt>
      <trkpt lat="44.78972" lon="1.60847">
        <ele>249.12</ele>
        <time>2011-03-20T09:33:31Z</time>
      </trkpt>
      <trkpt lat="44.78968" lon="1.60854">
        <ele>250.56</ele>
        <time>2011-03-20T09:33:36Z</time>
      </trkpt>
      <trkpt lat="44.7897" lon="1.60861">
        <ele>249.12</ele>
        <time>2011-03-20T09:33:39Z</time>
      </trkpt>
      <trkpt lat="44.78968" lon="1.6088">
        <ele>249.6</ele>
        <time>2011-03-20T09:33:46Z</time>
      </trkpt>
      <trkpt lat="44.78968" lon="1.60885">
        <ele>249.6</ele>
        <time>2011-03-20T09:33:48Z</time>
      </trkpt>
      <trkpt lat="44.78968" lon="1.60886">
        <ele>249.12</ele>
        <time>2011-03-20T09:33:50Z</time>
      </trkpt>
      <trkpt lat="44.78962" lon="1.60897">
        <ele>250.56</ele>
        <time>2011-03-20T09:33:55Z</time>
      </trkpt>
      <trkpt lat="44.78962" lon="1.60905">
        <ele>252</ele>
        <time>2011-03-20T09:34:00Z</time>
      </trkpt>
      <trkpt lat="44.7896" lon="1.60911">
        <ele>251.04</ele>
        <time>2011-03-20T09:34:04Z</time>
      </trkpt>
      <trkpt lat="44.78959" lon="1.60917">
        <ele>252.48</ele>
        <time>2011-03-20T09:34:08Z</time>
      </trkpt>
      <trkpt lat="44.7896" lon="1.60931">
        <ele>251.04</ele>
        <time>2011-03-20T09:34:12Z</time>
      </trkpt>
      <trkpt lat="44.78957" lon="1.60944">
        <ele>252.48</ele>
        <time>2011-03-20T09:34:17Z</time>
      </trkpt>
      <trkpt lat="44.78953" lon="1.60959">
        <ele>252.48</ele>
        <time>2011-03-20T09:34:24Z</time>
      </trkpt>
      <trkpt lat="44.78955" lon="1.60974">
        <ele>252.96</ele>
        <time>2011-03-20T09:34:31Z</time>
      </trkpt>
      <trkpt lat="44.78956" lon="1.60975">
        <ele>253.93</ele>
        <time>2011-03-20T09:34:33Z</time>
      </trkpt>
      <trkpt lat="44.78947" lon="1.6098">
        <ele>252.48</ele>
        <time>2011-03-20T09:34:38Z</time>
      </trkpt>
      <trkpt lat="44.78938" lon="1.60983">
        <ele>252.48</ele>
        <time>2011-03-20T09:34:43Z</time>
      </trkpt>
      <trkpt lat="44.78925" lon="1.60982">
        <ele>250.56</ele>
        <time>2011-03-20T09:34:51Z</time>
      </trkpt>
      <trkpt lat="44.7892" lon="1.60982">
        <ele>250.56</ele>
        <time>2011-03-20T09:34:55Z</time>
      </trkpt>
      <trkpt lat="44.78909" lon="1.60979">
        <ele>251.04</ele>
        <time>2011-03-20T09:35:02Z</time>
      </trkpt>
      <trkpt lat="44.78901" lon="1.6098">
        <ele>252</ele>
        <time>2011-03-20T09:35:06Z</time>
      </trkpt>
      <trkpt lat="44.78888" lon="1.60983">
        <ele>252.48</ele>
        <time>2011-03-20T09:35:13Z</time>
      </trkpt>
      <trkpt lat="44.78886" lon="1.60984">
        <ele>251.04</ele>
        <time>2011-03-20T09:35:15Z</time>
      </trkpt>
      <trkpt lat="44.78882" lon="1.60982">
        <ele>251.52</ele>
        <time>2011-03-20T09:35:21Z</time>
      </trkpt>
      <trkpt lat="44.78879" lon="1.60983">
        <ele>251.52</ele>
        <time>2011-03-20T09:35:23Z</time>
      </trkpt>
      <trkpt lat="44.7887" lon="1.60985">
        <ele>252</ele>
        <time>2011-03-20T09:35:29Z</time>
      </trkpt>
      <trkpt lat="44.78859" lon="1.60991">
        <ele>252.96</ele>
        <time>2011-03-20T09:35:37Z</time>
      </trkpt>
      <trkpt lat="44.78847" lon="1.61001">
        <ele>255.37</ele>
        <time>2011-03-20T09:35:43Z</time>
      </trkpt>
      <trkpt lat="44.78838" lon="1.61005">
        <ele>255.85</ele>
        <time>2011-03-20T09:35:48Z</time>
      </trkpt>
      <trkpt lat="44.78827" lon="1.61008">
        <ele>257.29</ele>
        <time>2011-03-20T09:35:55Z</time>
      </trkpt>
      <trkpt lat="44.78818" lon="1.61013">
        <ele>257.77</ele>
        <time>2011-03-20T09:36:02Z</time>
      </trkpt>
      <trkpt lat="44.7881" lon="1.61018">
        <ele>258.25</ele>
        <time>2011-03-20T09:36:08Z</time>
      </trkpt>
      <trkpt lat="44.78802" lon="1.61024">
        <ele>257.29</ele>
        <time>2011-03-20T09:36:16Z</time>
      </trkpt>
      <trkpt lat="44.78798" lon="1.61027">
        <ele>258.25</ele>
        <time>2011-03-20T09:36:21Z</time>
      </trkpt>
      <trkpt lat="44.78785" lon="1.61035">
        <ele>258.25</ele>
        <time>2011-03-20T09:36:29Z</time>
      </trkpt>
      <trkpt lat="44.78771" lon="1.61046">
        <ele>258.25</ele>
        <time>2011-03-20T09:36:37Z</time>
      </trkpt>
      <trkpt lat="44.78767" lon="1.61048">
        <ele>259.21</ele>
        <time>2011-03-20T09:36:39Z</time>
      </trkpt>
      <trkpt lat="44.78765" lon="1.6105">
        <ele>258.73</ele>
        <time>2011-03-20T09:36:41Z</time>
      </trkpt>
      <trkpt lat="44.78758" lon="1.61056">
        <ele>259.21</ele>
        <time>2011-03-20T09:36:46Z</time>
      </trkpt>
      <trkpt lat="44.78755" lon="1.61059">
        <ele>258.73</ele>
        <time>2011-03-20T09:36:50Z</time>
      </trkpt>
      <trkpt lat="44.78749" lon="1.61063">
        <ele>260.65</ele>
        <time>2011-03-20T09:36:56Z</time>
      </trkpt>
      <trkpt lat="44.78741" lon="1.6107">
        <ele>260.17</ele>
        <time>2011-03-20T09:37:03Z</time>
      </trkpt>
      <trkpt lat="44.78733" lon="1.61077">
        <ele>261.14</ele>
        <time>2011-03-20T09:37:09Z</time>
      </trkpt>
      <trkpt lat="44.78715" lon="1.61084">
        <ele>261.14</ele>
        <time>2011-03-20T09:37:20Z</time>
      </trkpt>
      <trkpt lat="44.78695" lon="1.61078">
        <ele>263.06</ele>
        <time>2011-03-20T09:37:33Z</time>
      </trkpt>
      <trkpt lat="44.78679" lon="1.6107">
        <ele>261.62</ele>
        <time>2011-03-20T09:37:45Z</time>
      </trkpt>
      <trkpt lat="44.78657" lon="1.61058">
        <ele>260.17</ele>
        <time>2011-03-20T09:38:01Z</time>
      </trkpt>
      <trkpt lat="44.7865" lon="1.61056">
        <ele>258.73</ele>
        <time>2011-03-20T09:38:07Z</time>
      </trkpt>
      <trkpt lat="44.78649" lon="1.61056">
        <ele>260.17</ele>
        <time>2011-03-20T09:38:08Z</time>
      </trkpt>
      <trkpt lat="44.78642" lon="1.61055">
        <ele>259.21</ele>
        <time>2011-03-20T09:38:14Z</time>
      </trkpt>
      <trkpt lat="44.78627" lon="1.61058">
        <ele>259.69</ele>
        <time>2011-03-20T09:38:24Z</time>
      </trkpt>
      <trkpt lat="44.78616" lon="1.61072">
        <ele>258.73</ele>
        <time>2011-03-20T09:38:33Z</time>
      </trkpt>
      <trkpt lat="44.78612" lon="1.61077">
        <ele>258.25</ele>
        <time>2011-03-20T09:38:38Z</time>
      </trkpt>
      <trkpt lat="44.78603" lon="1.61083">
        <ele>257.77</ele>
        <time>2011-03-20T09:38:45Z</time>
      </trkpt>
      <trkpt lat="44.78597" lon="1.61091">
        <ele>258.25</ele>
        <time>2011-03-20T09:38:50Z</time>
      </trkpt>
      <trkpt lat="44.78593" lon="1.61094">
        <ele>256.81</ele>
        <time>2011-03-20T09:38:53Z</time>
      </trkpt>
      <trkpt lat="44.78585" lon="1.61106">
        <ele>256.33</ele>
        <time>2011-03-20T09:38:59Z</time>
      </trkpt>
      <trkpt lat="44.78579" lon="1.61114">
        <ele>255.85</ele>
        <time>2011-03-20T09:39:06Z</time>
      </trkpt>
      <trkpt lat="44.78575" lon="1.61127">
        <ele>257.29</ele>
        <time>2011-03-20T09:39:10Z</time>
      </trkpt>
      <trkpt lat="44.78575" lon="1.61129">
        <ele>255.85</ele>
        <time>2011-03-20T09:39:11Z</time>
      </trkpt>
      <trkpt lat="44.78572" lon="1.61141">
        <ele>255.85</ele>
        <time>2011-03-20T09:39:16Z</time>
      </trkpt>
      <trkpt lat="44.7857" lon="1.61154">
        <ele>255.37</ele>
        <time>2011-03-20T09:39:21Z</time>
      </trkpt>
      <trkpt lat="44.78568" lon="1.61161">
        <ele>256.81</ele>
        <time>2011-03-20T09:39:23Z</time>
      </trkpt>
      <trkpt lat="44.78567" lon="1.61169">
        <ele>254.89</ele>
        <time>2011-03-20T09:39:28Z</time>
      </trkpt>
      <trkpt lat="44.78565" lon="1.61174">
        <ele>256.33</ele>
        <time>2011-03-20T09:39:31Z</time>
      </trkpt>
      <trkpt lat="44.78559" lon="1.61186">
        <ele>255.37</ele>
        <time>2011-03-20T09:39:39Z</time>
      </trkpt>
      <trkpt lat="44.78556" lon="1.61193">
        <ele>254.89</ele>
        <time>2011-03-20T09:39:44Z</time>
      </trkpt>
      <trkpt lat="44.78554" lon="1.61197">
        <ele>253.93</ele>
        <time>2011-03-20T09:39:46Z</time>
      </trkpt>
      <trkpt lat="44.7855" lon="1.61205">
        <ele>253.44</ele>
        <time>2011-03-20T09:39:50Z</time>
      </trkpt>
      <trkpt lat="44.78549" lon="1.61214">
        <ele>252.48</ele>
        <time>2011-03-20T09:39:53Z</time>
      </trkpt>
      <trkpt lat="44.78548" lon="1.61226">
        <ele>253.44</ele>
        <time>2011-03-20T09:39:58Z</time>
      </trkpt>
      <trkpt lat="44.78548" lon="1.61234">
        <ele>251.52</ele>
        <time>2011-03-20T09:40:01Z</time>
      </trkpt>
      <trkpt lat="44.78547" lon="1.61238">
        <ele>253.44</ele>
        <time>2011-03-20T09:40:03Z</time>
      </trkpt>
      <trkpt lat="44.78549" lon="1.6125">
        <ele>252.96</ele>
        <time>2011-03-20T09:40:08Z</time>
      </trkpt>
      <trkpt lat="44.78549" lon="1.61254">
        <ele>251.52</ele>
        <time>2011-03-20T09:40:12Z</time>
      </trkpt>
      <trkpt lat="44.7855" lon="1.61264">
        <ele>247.68</ele>
        <time>2011-03-20T09:40:17Z</time>
      </trkpt>
      <trkpt lat="44.7855" lon="1.61269">
        <ele>245.75</ele>
        <time>2011-03-20T09:40:19Z</time>
      </trkpt>
      <trkpt lat="44.7855" lon="1.61275">
        <ele>243.83</ele>
        <time>2011-03-20T09:40:22Z</time>
      </trkpt>
      <trkpt lat="44.78551" lon="1.61286">
        <ele>242.87</ele>
        <time>2011-03-20T09:40:26Z</time>
      </trkpt>
      <trkpt lat="44.78551" lon="1.61293">
        <ele>241.43</ele>
        <time>2011-03-20T09:40:28Z</time>
      </trkpt>
      <trkpt lat="44.78553" lon="1.61306">
        <ele>241.43</ele>
        <time>2011-03-20T09:40:34Z</time>
      </trkpt>
      <trkpt lat="44.78554" lon="1.61309">
        <ele>239.02</ele>
        <time>2011-03-20T09:40:37Z</time>
      </trkpt>
      <trkpt lat="44.78553" lon="1.61313">
        <ele>239.99</ele>
        <time>2011-03-20T09:40:39Z</time>
      </trkpt>
      <trkpt lat="44.78552" lon="1.61327">
        <ele>240.47</ele>
        <time>2011-03-20T09:40:44Z</time>
      </trkpt>
      <trkpt lat="44.78553" lon="1.61332">
        <ele>239.51</ele>
        <time>2011-03-20T09:40:46Z</time>
      </trkpt>
      <trkpt lat="44.78556" lon="1.61341">
        <ele>238.54</ele>
        <time>2011-03-20T09:40:52Z</time>
      </trkpt>
      <trkpt lat="44.7856" lon="1.61347">
        <ele>237.58</ele>
        <time>2011-03-20T09:40:57Z</time>
      </trkpt>
      <trkpt lat="44.7856" lon="1.61353">
        <ele>238.06</ele>
        <time>2011-03-20T09:41:00Z</time>
      </trkpt>
      <trkpt lat="44.78561" lon="1.61372">
        <ele>236.14</ele>
        <time>2011-03-20T09:41:10Z</time>
      </trkpt>
      <trkpt lat="44.78561" lon="1.61383">
        <ele>237.58</ele>
        <time>2011-03-20T09:41:15Z</time>
      </trkpt>
      <trkpt lat="44.78561" lon="1.61394">
        <ele>234.7</ele>
        <time>2011-03-20T09:41:19Z</time>
      </trkpt>
      <trkpt lat="44.78562" lon="1.61396">
        <ele>235.18</ele>
        <time>2011-03-20T09:41:20Z</time>
      </trkpt>
      <trkpt lat="44.7856" lon="1.61402">
        <ele>234.22</ele>
        <time>2011-03-20T09:41:22Z</time>
      </trkpt>
      <trkpt lat="44.78558" lon="1.61415">
        <ele>236.14</ele>
        <time>2011-03-20T09:41:26Z</time>
      </trkpt>
      <trkpt lat="44.78555" lon="1.61428">
        <ele>235.66</ele>
        <time>2011-03-20T09:41:31Z</time>
      </trkpt>
      <trkpt lat="44.78557" lon="1.61442">
        <ele>235.66</ele>
        <time>2011-03-20T09:41:38Z</time>
      </trkpt>
      <trkpt lat="44.78556" lon="1.61452">
        <ele>236.62</ele>
        <time>2011-03-20T09:41:42Z</time>
      </trkpt>
      <trkpt lat="44.78557" lon="1.61457">
        <ele>235.66</ele>
        <time>2011-03-20T09:41:50Z</time>
      </trkpt>
      <trkpt lat="44.78555" lon="1.6146">
        <ele>236.14</ele>
        <time>2011-03-20T09:41:53Z</time>
      </trkpt>
      <trkpt lat="44.7855" lon="1.61468">
        <ele>235.18</ele>
        <time>2011-03-20T09:41:57Z</time>
      </trkpt>
      <trkpt lat="44.78538" lon="1.6148">
        <ele>235.66</ele>
        <time>2011-03-20T09:42:06Z</time>
      </trkpt>
      <trkpt lat="44.78532" lon="1.6148">
        <ele>236.14</ele>
        <time>2011-03-20T09:42:09Z</time>
      </trkpt>
      <trkpt lat="44.78521" lon="1.61486">
        <ele>235.18</ele>
        <time>2011-03-20T09:42:16Z</time>
      </trkpt>
      <trkpt lat="44.78514" lon="1.61485">
        <ele>235.66</ele>
        <time>2011-03-20T09:42:21Z</time>
      </trkpt>
      <trkpt lat="44.78508" lon="1.61483">
        <ele>236.62</ele>
        <time>2011-03-20T09:42:27Z</time>
      </trkpt>
      <trkpt lat="44.78498" lon="1.61477">
        <ele>237.1</ele>
        <time>2011-03-20T09:42:34Z</time>
      </trkpt>
      <trkpt lat="44.78496" lon="1.61475">
        <ele>237.58</ele>
        <time>2011-03-20T09:42:36Z</time>
      </trkpt>
      <trkpt lat="44.78488" lon="1.61464">
        <ele>236.62</ele>
        <time>2011-03-20T09:42:42Z</time>
      </trkpt>
      <trkpt lat="44.78486" lon="1.61463">
        <ele>236.14</ele>
        <time>2011-03-20T09:42:43Z</time>
      </trkpt>
      <trkpt lat="44.78485" lon="1.61461">
        <ele>235.66</ele>
        <time>2011-03-20T09:42:45Z</time>
      </trkpt>
      <trkpt lat="44.78472" lon="1.61453">
        <ele>234.22</ele>
        <time>2011-03-20T09:42:52Z</time>
      </trkpt>
      <trkpt lat="44.7847" lon="1.61451">
        <ele>232.78</ele>
        <time>2011-03-20T09:42:53Z</time>
      </trkpt>
      <trkpt lat="44.78465" lon="1.61447">
        <ele>234.7</ele>
        <time>2011-03-20T09:42:56Z</time>
      </trkpt>
      <trkpt lat="44.78458" lon="1.61442">
        <ele>235.18</ele>
        <time>2011-03-20T09:43:01Z</time>
      </trkpt>
      <trkpt lat="44.78451" lon="1.61442">
        <ele>233.26</ele>
        <time>2011-03-20T09:43:06Z</time>
      </trkpt>
      <trkpt lat="44.7844" lon="1.61445">
        <ele>231.33</ele>
        <time>2011-03-20T09:43:14Z</time>
      </trkpt>
      <trkpt lat="44.78433" lon="1.6144">
        <ele>233.26</ele>
        <time>2011-03-20T09:43:19Z</time>
      </trkpt>
      <trkpt lat="44.7842" lon="1.61445">
        <ele>232.78</ele>
        <time>2011-03-20T09:43:27Z</time>
      </trkpt>
      <trkpt lat="44.78413" lon="1.61448">
        <ele>232.3</ele>
        <time>2011-03-20T09:43:32Z</time>
      </trkpt>
      <trkpt lat="44.78404" lon="1.61454">
        <ele>231.81</ele>
        <time>2011-03-20T09:43:39Z</time>
      </trkpt>
      <trkpt lat="44.78403" lon="1.61454">
        <ele>233.26</ele>
        <time>2011-03-20T09:43:40Z</time>
      </trkpt>
      <trkpt lat="44.78401" lon="1.61455">
        <ele>232.78</ele>
        <time>2011-03-20T09:43:42Z</time>
      </trkpt>
      <trkpt lat="44.78388" lon="1.61458">
        <ele>230.85</ele>
        <time>2011-03-20T09:43:50Z</time>
      </trkpt>
      <trkpt lat="44.7838" lon="1.6146">
        <ele>230.85</ele>
        <time>2011-03-20T09:43:55Z</time>
      </trkpt>
      <trkpt lat="44.78367" lon="1.61461">
        <ele>227.49</ele>
        <time>2011-03-20T09:44:01Z</time>
      </trkpt>
      <trkpt lat="44.78363" lon="1.61462">
        <ele>225.09</ele>
        <time>2011-03-20T09:44:06Z</time>
      </trkpt>
      <trkpt lat="44.78358" lon="1.61464">
        <ele>226.53</ele>
        <time>2011-03-20T09:44:09Z</time>
      </trkpt>
      <trkpt lat="44.78352" lon="1.61465">
        <ele>225.09</ele>
        <time>2011-03-20T09:44:13Z</time>
      </trkpt>
      <trkpt lat="44.78347" lon="1.61471">
        <ele>224.12</ele>
        <time>2011-03-20T09:44:18Z</time>
      </trkpt>
      <trkpt lat="44.78342" lon="1.61475">
        <ele>223.16</ele>
        <time>2011-03-20T09:44:24Z</time>
      </trkpt>
      <trkpt lat="44.7834" lon="1.61479">
        <ele>222.68</ele>
        <time>2011-03-20T09:44:25Z</time>
      </trkpt>
      <trkpt lat="44.78334" lon="1.61488">
        <ele>221.24</ele>
        <time>2011-03-20T09:44:32Z</time>
      </trkpt>
      <trkpt lat="44.78329" lon="1.61497">
        <ele>217.88</ele>
        <time>2011-03-20T09:44:38Z</time>
      </trkpt>
      <trkpt lat="44.78322" lon="1.61505">
        <ele>217.4</ele>
        <time>2011-03-20T09:44:44Z</time>
      </trkpt>
      <trkpt lat="44.78319" lon="1.61509">
        <ele>214.51</ele>
        <time>2011-03-20T09:44:46Z</time>
      </trkpt>
      <trkpt lat="44.78317" lon="1.6151">
        <ele>214.99</ele>
        <time>2011-03-20T09:44:47Z</time>
      </trkpt>
      <trkpt lat="44.78308" lon="1.6152">
        <ele>212.59</ele>
        <time>2011-03-20T09:44:54Z</time>
      </trkpt>
      <trkpt lat="44.78307" lon="1.61522">
        <ele>213.07</ele>
        <time>2011-03-20T09:44:55Z</time>
      </trkpt>
      <trkpt lat="44.78302" lon="1.61534">
        <ele>211.63</ele>
        <time>2011-03-20T09:45:00Z</time>
      </trkpt>
      <trkpt lat="44.78301" lon="1.61542">
        <ele>210.19</ele>
        <time>2011-03-20T09:45:07Z</time>
      </trkpt>
      <trkpt lat="44.78296" lon="1.61552">
        <ele>205.86</ele>
        <time>2011-03-20T09:45:13Z</time>
      </trkpt>
      <trkpt lat="44.78295" lon="1.61553">
        <ele>207.3</ele>
        <time>2011-03-20T09:45:15Z</time>
      </trkpt>
      <trkpt lat="44.7829" lon="1.61556">
        <ele>205.38</ele>
        <time>2011-03-20T09:45:19Z</time>
      </trkpt>
      <trkpt lat="44.78288" lon="1.61562">
        <ele>204.9</ele>
        <time>2011-03-20T09:45:22Z</time>
      </trkpt>
      <trkpt lat="44.78287" lon="1.61569">
        <ele>204.42</ele>
        <time>2011-03-20T09:45:28Z</time>
      </trkpt>
      <trkpt lat="44.78283" lon="1.61581">
        <ele>202.01</ele>
        <time>2011-03-20T09:45:34Z</time>
      </trkpt>
      <trkpt lat="44.78278" lon="1.61589">
        <ele>202.01</ele>
        <time>2011-03-20T09:45:39Z</time>
      </trkpt>
      <trkpt lat="44.78273" lon="1.61596">
        <ele>199.61</ele>
        <time>2011-03-20T09:45:44Z</time>
      </trkpt>
      <trkpt lat="44.78265" lon="1.61611">
        <ele>199.13</ele>
        <time>2011-03-20T09:45:54Z</time>
      </trkpt>
      <trkpt lat="44.78262" lon="1.61613">
        <ele>197.21</ele>
        <time>2011-03-20T09:45:57Z</time>
      </trkpt>
      <trkpt lat="44.7826" lon="1.61619">
        <ele>195.77</ele>
        <time>2011-03-20T09:46:03Z</time>
      </trkpt>
      <trkpt lat="44.7826" lon="1.61622">
        <ele>194.32</ele>
        <time>2011-03-20T09:46:05Z</time>
      </trkpt>
      <trkpt lat="44.78256" lon="1.61624">
        <ele>192.88</ele>
        <time>2011-03-20T09:46:08Z</time>
      </trkpt>
      <trkpt lat="44.78249" lon="1.61627">
        <ele>193.36</ele>
        <time>2011-03-20T09:46:13Z</time>
      </trkpt>
      <trkpt lat="44.78241" lon="1.6163">
        <ele>192.88</ele>
        <time>2011-03-20T09:46:18Z</time>
      </trkpt>
      <trkpt lat="44.78239" lon="1.61631">
        <ele>192.88</ele>
        <time>2011-03-20T09:46:20Z</time>
      </trkpt>
      <trkpt lat="44.78234" lon="1.61634">
        <ele>190.96</ele>
        <time>2011-03-20T09:46:23Z</time>
      </trkpt>
      <trkpt lat="44.78227" lon="1.61642">
        <ele>192.4</ele>
        <time>2011-03-20T09:46:28Z</time>
      </trkpt>
      <trkpt lat="44.78225" lon="1.61645">
        <ele>190.48</ele>
        <time>2011-03-20T09:46:30Z</time>
      </trkpt>
      <trkpt lat="44.78221" lon="1.61649">
        <ele>190</ele>
        <time>2011-03-20T09:46:34Z</time>
      </trkpt>
      <trkpt lat="44.78215" lon="1.61654">
        <ele>189.04</ele>
        <time>2011-03-20T09:46:38Z</time>
      </trkpt>
      <trkpt lat="44.78212" lon="1.61655">
        <ele>190</ele>
        <time>2011-03-20T09:46:40Z</time>
      </trkpt>
      <trkpt lat="44.78197" lon="1.61665">
        <ele>190</ele>
        <time>2011-03-20T09:46:49Z</time>
      </trkpt>
      <trkpt lat="44.78191" lon="1.61665">
        <ele>188.08</ele>
        <time>2011-03-20T09:46:52Z</time>
      </trkpt>
      <trkpt lat="44.78186" lon="1.61665">
        <ele>187.11</ele>
        <time>2011-03-20T09:46:55Z</time>
      </trkpt>
      <trkpt lat="44.78175" lon="1.61674">
        <ele>185.19</ele>
        <time>2011-03-20T09:47:03Z</time>
      </trkpt>
      <trkpt lat="44.78166" lon="1.61685">
        <ele>184.71</ele>
        <time>2011-03-20T09:47:10Z</time>
      </trkpt>
      <trkpt lat="44.7816" lon="1.61696">
        <ele>185.19</ele>
        <time>2011-03-20T09:47:17Z</time>
      </trkpt>
      <trkpt lat="44.78148" lon="1.61717">
        <ele>182.79</ele>
        <time>2011-03-20T09:47:30Z</time>
      </trkpt>
      <trkpt lat="44.78148" lon="1.61723">
        <ele>181.83</ele>
        <time>2011-03-20T09:47:35Z</time>
      </trkpt>
      <trkpt lat="44.78147" lon="1.61727">
        <ele>181.35</ele>
        <time>2011-03-20T09:47:41Z</time>
      </trkpt>
      <trkpt lat="44.7814" lon="1.61736">
        <ele>182.79</ele>
        <time>2011-03-20T09:47:46Z</time>
      </trkpt>
      <trkpt lat="44.78137" lon="1.61742">
        <ele>182.31</ele>
        <time>2011-03-20T09:47:50Z</time>
      </trkpt>
      <trkpt lat="44.78135" lon="1.61742">
        <ele>180.38</ele>
        <time>2011-03-20T09:47:52Z</time>
      </trkpt>
      <trkpt lat="44.78131" lon="1.61737">
        <ele>180.87</ele>
        <time>2011-03-20T09:47:58Z</time>
      </trkpt>
      <trkpt lat="44.7813" lon="1.61738">
        <ele>180.87</ele>
        <time>2011-03-20T09:47:59Z</time>
      </trkpt>
      <trkpt lat="44.7813" lon="1.61752">
        <ele>178.94</ele>
        <time>2011-03-20T09:48:07Z</time>
      </trkpt>
      <trkpt lat="44.7812" lon="1.61765">
        <ele>179.42</ele>
        <time>2011-03-20T09:48:14Z</time>
      </trkpt>
      <trkpt lat="44.78119" lon="1.61769">
        <ele>178.46</ele>
        <time>2011-03-20T09:48:18Z</time>
      </trkpt>
      <trkpt lat="44.78123" lon="1.61764">
        <ele>179.42</ele>
        <time>2011-03-20T09:48:21Z</time>
      </trkpt>
      <trkpt lat="44.7813" lon="1.6175">
        <ele>179.9</ele>
        <time>2011-03-20T09:48:28Z</time>
      </trkpt>
      <trkpt lat="44.78131" lon="1.61747">
        <ele>181.35</ele>
        <time>2011-03-20T09:48:30Z</time>
      </trkpt>
      <trkpt lat="44.7813" lon="1.61741">
        <ele>181.83</ele>
        <time>2011-03-20T09:48:34Z</time>
      </trkpt>
      <trkpt lat="44.78131" lon="1.61729">
        <ele>177.98</ele>
        <time>2011-03-20T09:48:39Z</time>
      </trkpt>
      <trkpt lat="44.7813" lon="1.61723">
        <ele>176.54</ele>
        <time>2011-03-20T09:48:42Z</time>
      </trkpt>
      <trkpt lat="44.78137" lon="1.61708">
        <ele>176.54</ele>
        <time>2011-03-20T09:48:50Z</time>
      </trkpt>
      <trkpt lat="44.78139" lon="1.61706">
        <ele>175.58</ele>
        <time>2011-03-20T09:48:51Z</time>
      </trkpt>
      <trkpt lat="44.78141" lon="1.61695">
        <ele>175.58</ele>
        <time>2011-03-20T09:48:57Z</time>
      </trkpt>
      <trkpt lat="44.78147" lon="1.61687">
        <ele>173.17</ele>
        <time>2011-03-20T09:49:01Z</time>
      </trkpt>
      <trkpt lat="44.78147" lon="1.61679">
        <ele>170.77</ele>
        <time>2011-03-20T09:49:05Z</time>
      </trkpt>
      <trkpt lat="44.78149" lon="1.61669">
        <ele>168.85</ele>
        <time>2011-03-20T09:49:12Z</time>
      </trkpt>
      <trkpt lat="44.78153" lon="1.61659">
        <ele>170.29</ele>
        <time>2011-03-20T09:49:16Z</time>
      </trkpt>
      <trkpt lat="44.78159" lon="1.61648">
        <ele>170.77</ele>
        <time>2011-03-20T09:49:22Z</time>
      </trkpt>
      <trkpt lat="44.78163" lon="1.61643">
        <ele>171.25</ele>
        <time>2011-03-20T09:49:28Z</time>
      </trkpt>
      <trkpt lat="44.78175" lon="1.6163">
        <ele>169.33</ele>
        <time>2011-03-20T09:49:38Z</time>
      </trkpt>
      <trkpt lat="44.78179" lon="1.61625">
        <ele>168.37</ele>
        <time>2011-03-20T09:49:41Z</time>
      </trkpt>
      <trkpt lat="44.78189" lon="1.61616">
        <ele>167.89</ele>
        <time>2011-03-20T09:49:51Z</time>
      </trkpt>
      <trkpt lat="44.78201" lon="1.61605">
        <ele>166.45</ele>
        <time>2011-03-20T09:49:59Z</time>
      </trkpt>
      <trkpt lat="44.78203" lon="1.61603">
        <ele>166.93</ele>
        <time>2011-03-20T09:50:00Z</time>
      </trkpt>
      <trkpt lat="44.78207" lon="1.61593">
        <ele>167.41</ele>
        <time>2011-03-20T09:50:05Z</time>
      </trkpt>
      <trkpt lat="44.78212" lon="1.61587">
        <ele>168.37</ele>
        <time>2011-03-20T09:50:09Z</time>
      </trkpt>
      <trkpt lat="44.78213" lon="1.61584">
        <ele>167.41</ele>
        <time>2011-03-20T09:50:11Z</time>
      </trkpt>
      <trkpt lat="44.78217" lon="1.61576">
        <ele>166.45</ele>
        <time>2011-03-20T09:50:16Z</time>
      </trkpt>
      <trkpt lat="44.7822" lon="1.61558">
        <ele>167.41</ele>
        <time>2011-03-20T09:50:24Z</time>
      </trkpt>
      <trkpt lat="44.78224" lon="1.61543">
        <ele>165.96</ele>
        <time>2011-03-20T09:50:30Z</time>
      </trkpt>
      <trkpt lat="44.78224" lon="1.61541">
        <ele>165</ele>
        <time>2011-03-20T09:50:31Z</time>
      </trkpt>
      <trkpt lat="44.78224" lon="1.61534">
        <ele>165.48</ele>
        <time>2011-03-20T09:50:35Z</time>
      </trkpt>
      <trkpt lat="44.78222" lon="1.61527">
        <ele>166.45</ele>
        <time>2011-03-20T09:50:39Z</time>
      </trkpt>
      <trkpt lat="44.7822" lon="1.61508">
        <ele>163.56</ele>
        <time>2011-03-20T09:50:46Z</time>
      </trkpt>
      <trkpt lat="44.78221" lon="1.61498">
        <ele>163.56</ele>
        <time>2011-03-20T09:50:50Z</time>
      </trkpt>
      <trkpt lat="44.7822" lon="1.61493">
        <ele>164.04</ele>
        <time>2011-03-20T09:50:52Z</time>
      </trkpt>
      <trkpt lat="44.78219" lon="1.6148">
        <ele>163.08</ele>
        <time>2011-03-20T09:50:57Z</time>
      </trkpt>
      <trkpt lat="44.78217" lon="1.61469">
        <ele>163.08</ele>
        <time>2011-03-20T09:51:04Z</time>
      </trkpt>
      <trkpt lat="44.78217" lon="1.61464">
        <ele>163.08</ele>
        <time>2011-03-20T09:51:09Z</time>
      </trkpt>
      <trkpt lat="44.78207" lon="1.61453">
        <ele>160.68</ele>
        <time>2011-03-20T09:51:17Z</time>
      </trkpt>
      <trkpt lat="44.78206" lon="1.61444">
        <ele>163.08</ele>
        <time>2011-03-20T09:51:22Z</time>
      </trkpt>
      <trkpt lat="44.78202" lon="1.61431">
        <ele>162.12</ele>
        <time>2011-03-20T09:51:28Z</time>
      </trkpt>
      <trkpt lat="44.78199" lon="1.61416">
        <ele>161.16</ele>
        <time>2011-03-20T09:51:37Z</time>
      </trkpt>
      <trkpt lat="44.78193" lon="1.61393">
        <ele>159.24</ele>
        <time>2011-03-20T09:51:48Z</time>
      </trkpt>
      <trkpt lat="44.78189" lon="1.61383">
        <ele>158.75</ele>
        <time>2011-03-20T09:51:52Z</time>
      </trkpt>
      <trkpt lat="44.7819" lon="1.61371">
        <ele>157.31</ele>
        <time>2011-03-20T09:51:58Z</time>
      </trkpt>
      <trkpt lat="44.78193" lon="1.61355">
        <ele>159.24</ele>
        <time>2011-03-20T09:52:04Z</time>
      </trkpt>
      <trkpt lat="44.782" lon="1.61344">
        <ele>159.24</ele>
        <time>2011-03-20T09:52:08Z</time>
      </trkpt>
      <trkpt lat="44.78206" lon="1.6134">
        <ele>157.31</ele>
        <time>2011-03-20T09:52:11Z</time>
      </trkpt>
      <trkpt lat="44.78205" lon="1.61326">
        <ele>158.75</ele>
        <time>2011-03-20T09:52:18Z</time>
      </trkpt>
      <trkpt lat="44.78206" lon="1.61328">
        <ele>157.79</ele>
        <time>2011-03-20T09:52:20Z</time>
      </trkpt>
      <trkpt lat="44.78208" lon="1.6132">
        <ele>156.83</ele>
        <time>2011-03-20T09:52:26Z</time>
      </trkpt>
      <trkpt lat="44.78222" lon="1.61312">
        <ele>153.95</ele>
        <time>2011-03-20T09:52:36Z</time>
      </trkpt>
      <trkpt lat="44.78222" lon="1.61309">
        <ele>152.51</ele>
        <time>2011-03-20T09:52:39Z</time>
      </trkpt>
      <trkpt lat="44.78231" lon="1.61297">
        <ele>152.99</ele>
        <time>2011-03-20T09:52:47Z</time>
      </trkpt>
      <trkpt lat="44.78232" lon="1.61297">
        <ele>152.51</ele>
        <time>2011-03-20T09:52:48Z</time>
      </trkpt>
      <trkpt lat="44.78236" lon="1.6128">
        <ele>155.39</ele>
        <time>2011-03-20T09:52:56Z</time>
      </trkpt>
      <trkpt lat="44.78233" lon="1.61271">
        <ele>153.95</ele>
        <time>2011-03-20T09:53:02Z</time>
      </trkpt>
      <trkpt lat="44.78227" lon="1.61267">
        <ele>155.39</ele>
        <time>2011-03-20T09:53:10Z</time>
      </trkpt>
      <trkpt lat="44.78224" lon="1.61264">
        <ele>152.03</ele>
        <time>2011-03-20T09:53:13Z</time>
      </trkpt>
      <trkpt lat="44.78221" lon="1.61258">
        <ele>155.39</ele>
        <time>2011-03-20T09:53:16Z</time>
      </trkpt>
      <trkpt lat="44.78214" lon="1.61252">
        <ele>157.31</ele>
        <time>2011-03-20T09:53:20Z</time>
      </trkpt>
      <trkpt lat="44.78206" lon="1.61247">
        <ele>156.83</ele>
        <time>2011-03-20T09:53:27Z</time>
      </trkpt>
      <trkpt lat="44.78204" lon="1.61243">
        <ele>154.91</ele>
        <time>2011-03-20T09:53:29Z</time>
      </trkpt>
      <trkpt lat="44.78202" lon="1.61238">
        <ele>156.83</ele>
        <time>2011-03-20T09:53:33Z</time>
      </trkpt>
      <trkpt lat="44.78196" lon="1.61231">
        <ele>155.87</ele>
        <time>2011-03-20T09:53:39Z</time>
      </trkpt>
      <trkpt lat="44.78194" lon="1.61229">
        <ele>154.43</ele>
        <time>2011-03-20T09:53:40Z</time>
      </trkpt>
      <trkpt lat="44.78193" lon="1.61227">
        <ele>154.91</ele>
        <time>2011-03-20T09:53:42Z</time>
      </trkpt>
      <trkpt lat="44.78191" lon="1.61217">
        <ele>153.47</ele>
        <time>2011-03-20T09:53:46Z</time>
      </trkpt>
      <trkpt lat="44.78188" lon="1.61212">
        <ele>154.43</ele>
        <time>2011-03-20T09:53:48Z</time>
      </trkpt>
      <trkpt lat="44.78188" lon="1.61206">
        <ele>152.03</ele>
        <time>2011-03-20T09:53:51Z</time>
      </trkpt>
      <trkpt lat="44.78189" lon="1.61192">
        <ele>152.99</ele>
        <time>2011-03-20T09:53:57Z</time>
      </trkpt>
      <trkpt lat="44.78184" lon="1.61177">
        <ele>154.91</ele>
        <time>2011-03-20T09:54:03Z</time>
      </trkpt>
      <trkpt lat="44.7818" lon="1.61168">
        <ele>153.47</ele>
        <time>2011-03-20T09:54:07Z</time>
      </trkpt>
      <trkpt lat="44.78184" lon="1.61146">
        <ele>152.99</ele>
        <time>2011-03-20T09:54:16Z</time>
      </trkpt>
      <trkpt lat="44.78185" lon="1.61141">
        <ele>153.47</ele>
        <time>2011-03-20T09:54:19Z</time>
      </trkpt>
      <trkpt lat="44.78187" lon="1.61128">
        <ele>152.51</ele>
        <time>2011-03-20T09:54:24Z</time>
      </trkpt>
      <trkpt lat="44.78182" lon="1.61112">
        <ele>153.95</ele>
        <time>2011-03-20T09:54:30Z</time>
      </trkpt>
      <trkpt lat="44.78177" lon="1.61097">
        <ele>153.95</ele>
        <time>2011-03-20T09:54:36Z</time>
      </trkpt>
      <trkpt lat="44.78181" lon="1.61087">
        <ele>152.51</ele>
        <time>2011-03-20T09:54:39Z</time>
      </trkpt>
      <trkpt lat="44.78185" lon="1.61075">
        <ele>153.95</ele>
        <time>2011-03-20T09:54:46Z</time>
      </trkpt>
      <trkpt lat="44.78192" lon="1.61063">
        <ele>152.99</ele>
        <time>2011-03-20T09:54:55Z</time>
      </trkpt>
      <trkpt lat="44.78193" lon="1.6106">
        <ele>152.51</ele>
        <time>2011-03-20T09:54:58Z</time>
      </trkpt>
      <trkpt lat="44.78191" lon="1.61046">
        <ele>151.54</ele>
        <time>2011-03-20T09:55:05Z</time>
      </trkpt>
      <trkpt lat="44.78199" lon="1.61027">
        <ele>152.99</ele>
        <time>2011-03-20T09:55:12Z</time>
      </trkpt>
      <trkpt lat="44.782" lon="1.61016">
        <ele>151.54</ele>
        <time>2011-03-20T09:55:18Z</time>
      </trkpt>
      <trkpt lat="44.78196" lon="1.60988">
        <ele>151.06</ele>
        <time>2011-03-20T09:55:32Z</time>
      </trkpt>
      <trkpt lat="44.782" lon="1.60969">
        <ele>149.14</ele>
        <time>2011-03-20T09:55:41Z</time>
      </trkpt>
      <trkpt lat="44.78198" lon="1.60965">
        <ele>150.1</ele>
        <time>2011-03-20T09:55:42Z</time>
      </trkpt>
      <trkpt lat="44.78202" lon="1.60958">
        <ele>149.62</ele>
        <time>2011-03-20T09:55:46Z</time>
      </trkpt>
      <trkpt lat="44.78216" lon="1.60943">
        <ele>149.14</ele>
        <time>2011-03-20T09:55:54Z</time>
      </trkpt>
      <trkpt lat="44.78226" lon="1.60939">
        <ele>150.58</ele>
        <time>2011-03-20T09:56:00Z</time>
      </trkpt>
      <trkpt lat="44.7823" lon="1.60939">
        <ele>148.66</ele>
        <time>2011-03-20T09:56:04Z</time>
      </trkpt>
      <trkpt lat="44.78239" lon="1.60935">
        <ele>147.7</ele>
        <time>2011-03-20T09:56:12Z</time>
      </trkpt>
      <trkpt lat="44.78257" lon="1.60935">
        <ele>146.74</ele>
        <time>2011-03-20T09:56:22Z</time>
      </trkpt>
      <trkpt lat="44.78272" lon="1.6094">
        <ele>149.14</ele>
        <time>2011-03-20T09:56:33Z</time>
      </trkpt>
      <trkpt lat="44.78279" lon="1.60942">
        <ele>149.14</ele>
        <time>2011-03-20T09:56:39Z</time>
      </trkpt>
      <trkpt lat="44.78286" lon="1.6094">
        <ele>147.7</ele>
        <time>2011-03-20T09:56:43Z</time>
      </trkpt>
      <trkpt lat="44.78298" lon="1.60935">
        <ele>148.66</ele>
        <time>2011-03-20T09:56:48Z</time>
      </trkpt>
      <trkpt lat="44.783" lon="1.60935">
        <ele>148.66</ele>
        <time>2011-03-20T09:56:50Z</time>
      </trkpt>
      <trkpt lat="44.78306" lon="1.60934">
        <ele>148.18</ele>
        <time>2011-03-20T09:56:54Z</time>
      </trkpt>
      <trkpt lat="44.78309" lon="1.60935">
        <ele>147.7</ele>
        <time>2011-03-20T09:56:56Z</time>
      </trkpt>
      <trkpt lat="44.78318" lon="1.60926">
        <ele>147.22</ele>
        <time>2011-03-20T09:57:01Z</time>
      </trkpt>
      <trkpt lat="44.78325" lon="1.6092">
        <ele>148.18</ele>
        <time>2011-03-20T09:57:07Z</time>
      </trkpt>
      <trkpt lat="44.78327" lon="1.60918">
        <ele>148.66</ele>
        <time>2011-03-20T09:57:09Z</time>
      </trkpt>
      <trkpt lat="44.78333" lon="1.6091">
        <ele>147.7</ele>
        <time>2011-03-20T09:57:13Z</time>
      </trkpt>
      <trkpt lat="44.78336" lon="1.60904">
        <ele>147.7</ele>
        <time>2011-03-20T09:57:19Z</time>
      </trkpt>
      <trkpt lat="44.78339" lon="1.60885">
        <ele>148.18</ele>
        <time>2011-03-20T09:57:29Z</time>
      </trkpt>
      <trkpt lat="44.7834" lon="1.60877">
        <ele>147.22</ele>
        <time>2011-03-20T09:57:32Z</time>
      </trkpt>
      <trkpt lat="44.78338" lon="1.60864">
        <ele>146.74</ele>
        <time>2011-03-20T09:57:37Z</time>
      </trkpt>
      <trkpt lat="44.78338" lon="1.60848">
        <ele>144.82</ele>
        <time>2011-03-20T09:57:42Z</time>
      </trkpt>
      <trkpt lat="44.78337" lon="1.60832">
        <ele>145.3</ele>
        <time>2011-03-20T09:57:49Z</time>
      </trkpt>
      <trkpt lat="44.78338" lon="1.6083">
        <ele>143.85</ele>
        <time>2011-03-20T09:57:50Z</time>
      </trkpt>
      <trkpt lat="44.7834" lon="1.60827">
        <ele>144.34</ele>
        <time>2011-03-20T09:57:52Z</time>
      </trkpt>
      <trkpt lat="44.78338" lon="1.60819">
        <ele>146.74</ele>
        <time>2011-03-20T09:57:56Z</time>
      </trkpt>
      <trkpt lat="44.78337" lon="1.60808">
        <ele>144.82</ele>
        <time>2011-03-20T09:58:02Z</time>
      </trkpt>
      <trkpt lat="44.78327" lon="1.60796">
        <ele>143.85</ele>
        <time>2011-03-20T09:58:11Z</time>
      </trkpt>
      <trkpt lat="44.78324" lon="1.60788">
        <ele>142.41</ele>
        <time>2011-03-20T09:58:17Z</time>
      </trkpt>
      <trkpt lat="44.78321" lon="1.60781">
        <ele>140.49</ele>
        <time>2011-03-20T09:58:22Z</time>
      </trkpt>
      <trkpt lat="44.7831" lon="1.60775">
        <ele>140.49</ele>
        <time>2011-03-20T09:58:30Z</time>
      </trkpt>
      <trkpt lat="44.7831" lon="1.60775">
        <ele>140.97</ele>
        <time>2011-03-20T09:58:31Z</time>
      </trkpt>
      <trkpt lat="44.78306" lon="1.60773">
        <ele>140.01</ele>
        <time>2011-03-20T09:58:35Z</time>
      </trkpt>
      <trkpt lat="44.78301" lon="1.60767">
        <ele>138.57</ele>
        <time>2011-03-20T09:58:39Z</time>
      </trkpt>
      <trkpt lat="44.78289" lon="1.60758">
        <ele>139.53</ele>
        <time>2011-03-20T09:58:46Z</time>
      </trkpt>
      <trkpt lat="44.78282" lon="1.60757">
        <ele>138.57</ele>
        <time>2011-03-20T09:58:50Z</time>
      </trkpt>
      <trkpt lat="44.78276" lon="1.60745">
        <ele>138.09</ele>
        <time>2011-03-20T09:58:57Z</time>
      </trkpt>
      <trkpt lat="44.78273" lon="1.60736">
        <ele>139.53</ele>
        <time>2011-03-20T09:59:03Z</time>
      </trkpt>
      <trkpt lat="44.78269" lon="1.60715">
        <ele>137.13</ele>
        <time>2011-03-20T09:59:12Z</time>
      </trkpt>
      <trkpt lat="44.78269" lon="1.6071">
        <ele>137.61</ele>
        <time>2011-03-20T09:59:14Z</time>
      </trkpt>
      <trkpt lat="44.78271" lon="1.60702">
        <ele>138.57</ele>
        <time>2011-03-20T09:59:18Z</time>
      </trkpt>
      <trkpt lat="44.78268" lon="1.60694">
        <ele>137.61</ele>
        <time>2011-03-20T09:59:22Z</time>
      </trkpt>
      <trkpt lat="44.78267" lon="1.60686">
        <ele>139.05</ele>
        <time>2011-03-20T09:59:26Z</time>
      </trkpt>
      <trkpt lat="44.78266" lon="1.60674">
        <ele>140.49</ele>
        <time>2011-03-20T09:59:33Z</time>
      </trkpt>
      <trkpt lat="44.78257" lon="1.60655">
        <ele>139.05</ele>
        <time>2011-03-20T09:59:42Z</time>
      </trkpt>
      <trkpt lat="44.78254" lon="1.60647">
        <ele>139.05</ele>
        <time>2011-03-20T09:59:46Z</time>
      </trkpt>
      <trkpt lat="44.7826" lon="1.60623">
        <ele>140.01</ele>
        <time>2011-03-20T09:59:58Z</time>
      </trkpt>
      <trkpt lat="44.78267" lon="1.60619">
        <ele>138.57</ele>
        <time>2011-03-20T10:00:04Z</time>
      </trkpt>
      <trkpt lat="44.7828" lon="1.6061">
        <ele>140.01</ele>
        <time>2011-03-20T10:00:14Z</time>
      </trkpt>
      <trkpt lat="44.78289" lon="1.60602">
        <ele>140.01</ele>
        <time>2011-03-20T10:00:23Z</time>
      </trkpt>
      <trkpt lat="44.783" lon="1.60588">
        <ele>141.93</ele>
        <time>2011-03-20T10:00:33Z</time>
      </trkpt>
      <trkpt lat="44.78302" lon="1.60572">
        <ele>140.97</ele>
        <time>2011-03-20T10:00:41Z</time>
      </trkpt>
      <trkpt lat="44.78303" lon="1.60569">
        <ele>142.41</ele>
        <time>2011-03-20T10:00:42Z</time>
      </trkpt>
      <trkpt lat="44.78305" lon="1.60554">
        <ele>141.45</ele>
        <time>2011-03-20T10:00:50Z</time>
      </trkpt>
      <trkpt lat="44.78303" lon="1.60537">
        <ele>140.49</ele>
        <time>2011-03-20T10:00:59Z</time>
      </trkpt>
      <trkpt lat="44.78301" lon="1.60522">
        <ele>140.01</ele>
        <time>2011-03-20T10:01:04Z</time>
      </trkpt>
      <trkpt lat="44.78301" lon="1.60513">
        <ele>139.05</ele>
        <time>2011-03-20T10:01:08Z</time>
      </trkpt>
      <trkpt lat="44.78302" lon="1.60505">
        <ele>140.01</ele>
        <time>2011-03-20T10:01:11Z</time>
      </trkpt>
      <trkpt lat="44.783" lon="1.60491">
        <ele>138.09</ele>
        <time>2011-03-20T10:01:18Z</time>
      </trkpt>
      <trkpt lat="44.78293" lon="1.60478">
        <ele>138.09</ele>
        <time>2011-03-20T10:01:25Z</time>
      </trkpt>
      <trkpt lat="44.78287" lon="1.60471">
        <ele>137.13</ele>
        <time>2011-03-20T10:01:30Z</time>
      </trkpt>
      <trkpt lat="44.78284" lon="1.60465">
        <ele>137.61</ele>
        <time>2011-03-20T10:01:33Z</time>
      </trkpt>
      <trkpt lat="44.78269" lon="1.60461">
        <ele>136.16</ele>
        <time>2011-03-20T10:01:41Z</time>
      </trkpt>
      <trkpt lat="44.78267" lon="1.60462">
        <ele>137.13</ele>
        <time>2011-03-20T10:01:42Z</time>
      </trkpt>
      <trkpt lat="44.78265" lon="1.6046">
        <ele>135.68</ele>
        <time>2011-03-20T10:01:44Z</time>
      </trkpt>
      <trkpt lat="44.78257" lon="1.60464">
        <ele>137.13</ele>
        <time>2011-03-20T10:01:50Z</time>
      </trkpt>
      <trkpt lat="44.78256" lon="1.6046">
        <ele>136.16</ele>
        <time>2011-03-20T10:01:52Z</time>
      </trkpt>
      <trkpt lat="44.78249" lon="1.60457">
        <ele>137.13</ele>
        <time>2011-03-20T10:01:59Z</time>
      </trkpt>
      <trkpt lat="44.7824" lon="1.6045">
        <ele>135.68</ele>
        <time>2011-03-20T10:02:04Z</time>
      </trkpt>
      <trkpt lat="44.7823" lon="1.60447">
        <ele>135.68</ele>
        <time>2011-03-20T10:02:10Z</time>
      </trkpt>
      <trkpt lat="44.78229" lon="1.60444">
        <ele>137.13</ele>
        <time>2011-03-20T10:02:13Z</time>
      </trkpt>
      <trkpt lat="44.78222" lon="1.60434">
        <ele>133.76</ele>
        <time>2011-03-20T10:02:18Z</time>
      </trkpt>
      <trkpt lat="44.78219" lon="1.60426">
        <ele>135.68</ele>
        <time>2011-03-20T10:02:23Z</time>
      </trkpt>
      <trkpt lat="44.78217" lon="1.60414">
        <ele>133.76</ele>
        <time>2011-03-20T10:02:29Z</time>
      </trkpt>
      <trkpt lat="44.78216" lon="1.60412">
        <ele>135.68</ele>
        <time>2011-03-20T10:02:30Z</time>
      </trkpt>
      <trkpt lat="44.78216" lon="1.60404">
        <ele>133.76</ele>
        <time>2011-03-20T10:02:34Z</time>
      </trkpt>
      <trkpt lat="44.7822" lon="1.60391">
        <ele>135.2</ele>
        <time>2011-03-20T10:02:39Z</time>
      </trkpt>
      <trkpt lat="44.78222" lon="1.60384">
        <ele>134.72</ele>
        <time>2011-03-20T10:02:44Z</time>
      </trkpt>
      <trkpt lat="44.78223" lon="1.6038">
        <ele>133.28</ele>
        <time>2011-03-20T10:02:46Z</time>
      </trkpt>
      <trkpt lat="44.78223" lon="1.60375">
        <ele>134.72</ele>
        <time>2011-03-20T10:02:49Z</time>
      </trkpt>
      <trkpt lat="44.78226" lon="1.60364">
        <ele>134.24</ele>
        <time>2011-03-20T10:02:53Z</time>
      </trkpt>
      <trkpt lat="44.7822" lon="1.60357">
        <ele>134.24</ele>
        <time>2011-03-20T10:02:57Z</time>
      </trkpt>
      <trkpt lat="44.78218" lon="1.60355">
        <ele>132.8</ele>
        <time>2011-03-20T10:02:59Z</time>
      </trkpt>
      <trkpt lat="44.78208" lon="1.60362">
        <ele>130.88</ele>
        <time>2011-03-20T10:03:07Z</time>
      </trkpt>
      <trkpt lat="44.78206" lon="1.60363">
        <ele>132.32</ele>
        <time>2011-03-20T10:03:08Z</time>
      </trkpt>
      <trkpt lat="44.78201" lon="1.60372">
        <ele>130.88</ele>
        <time>2011-03-20T10:03:15Z</time>
      </trkpt>
      <trkpt lat="44.782" lon="1.60375">
        <ele>130.88</ele>
        <time>2011-03-20T10:03:17Z</time>
      </trkpt>
      <trkpt lat="44.78189" lon="1.60387">
        <ele>132.8</ele>
        <time>2011-03-20T10:03:24Z</time>
      </trkpt>
      <trkpt lat="44.78186" lon="1.60389">
        <ele>132.32</ele>
        <time>2011-03-20T10:03:26Z</time>
      </trkpt>
      <trkpt lat="44.78177" lon="1.60394">
        <ele>133.28</ele>
        <time>2011-03-20T10:03:32Z</time>
      </trkpt>
      <trkpt lat="44.78168" lon="1.60401">
        <ele>132.32</ele>
        <time>2011-03-20T10:03:40Z</time>
      </trkpt>
      <trkpt lat="44.78167" lon="1.60403">
        <ele>131.36</ele>
        <time>2011-03-20T10:03:41Z</time>
      </trkpt>
      <trkpt lat="44.78165" lon="1.6041">
        <ele>132.8</ele>
        <time>2011-03-20T10:03:44Z</time>
      </trkpt>
      <trkpt lat="44.78156" lon="1.60422">
        <ele>131.84</ele>
        <time>2011-03-20T10:03:50Z</time>
      </trkpt>
      <trkpt lat="44.7815" lon="1.60428">
        <ele>133.28</ele>
        <time>2011-03-20T10:03:56Z</time>
      </trkpt>
      <trkpt lat="44.78149" lon="1.60429">
        <ele>133.28</ele>
        <time>2011-03-20T10:03:57Z</time>
      </trkpt>
      <trkpt lat="44.78141" lon="1.60435">
        <ele>134.24</ele>
        <time>2011-03-20T10:04:04Z</time>
      </trkpt>
      <trkpt lat="44.78135" lon="1.6044">
        <ele>132.8</ele>
        <time>2011-03-20T10:04:09Z</time>
      </trkpt>
      <trkpt lat="44.7813" lon="1.6045">
        <ele>134.72</ele>
        <time>2011-03-20T10:04:14Z</time>
      </trkpt>
      <trkpt lat="44.78123" lon="1.60457">
        <ele>134.24</ele>
        <time>2011-03-20T10:04:18Z</time>
      </trkpt>
      <trkpt lat="44.78115" lon="1.6046">
        <ele>133.28</ele>
        <time>2011-03-20T10:04:24Z</time>
      </trkpt>
      <trkpt lat="44.78109" lon="1.60468">
        <ele>134.72</ele>
        <time>2011-03-20T10:04:30Z</time>
      </trkpt>
      <trkpt lat="44.78101" lon="1.60479">
        <ele>132.8</ele>
        <time>2011-03-20T10:04:36Z</time>
      </trkpt>
      <trkpt lat="44.78096" lon="1.60489">
        <ele>134.24</ele>
        <time>2011-03-20T10:04:42Z</time>
      </trkpt>
      <trkpt lat="44.78089" lon="1.60497">
        <ele>134.72</ele>
        <time>2011-03-20T10:04:48Z</time>
      </trkpt>
      <trkpt lat="44.78084" lon="1.60507">
        <ele>132.8</ele>
        <time>2011-03-20T10:04:52Z</time>
      </trkpt>
      <trkpt lat="44.78077" lon="1.6051">
        <ele>132.8</ele>
        <time>2011-03-20T10:04:58Z</time>
      </trkpt>
      <trkpt lat="44.7807" lon="1.60517">
        <ele>133.28</ele>
        <time>2011-03-20T10:05:05Z</time>
      </trkpt>
      <trkpt lat="44.7806" lon="1.60519">
        <ele>133.28</ele>
        <time>2011-03-20T10:05:12Z</time>
      </trkpt>
      <trkpt lat="44.78053" lon="1.60518">
        <ele>133.76</ele>
        <time>2011-03-20T10:05:15Z</time>
      </trkpt>
      <trkpt lat="44.78046" lon="1.60512">
        <ele>132.8</ele>
        <time>2011-03-20T10:05:22Z</time>
      </trkpt>
      <trkpt lat="44.78035" lon="1.60503">
        <ele>132.32</ele>
        <time>2011-03-20T10:05:29Z</time>
      </trkpt>
      <trkpt lat="44.7803" lon="1.60492">
        <ele>133.28</ele>
        <time>2011-03-20T10:05:34Z</time>
      </trkpt>
      <trkpt lat="44.78027" lon="1.60484">
        <ele>132.8</ele>
        <time>2011-03-20T10:05:39Z</time>
      </trkpt>
      <trkpt lat="44.78022" lon="1.60472">
        <ele>133.76</ele>
        <time>2011-03-20T10:05:44Z</time>
      </trkpt>
      <trkpt lat="44.78021" lon="1.60468">
        <ele>133.76</ele>
        <time>2011-03-20T10:05:46Z</time>
      </trkpt>
      <trkpt lat="44.7802" lon="1.60465">
        <ele>135.2</ele>
        <time>2011-03-20T10:05:49Z</time>
      </trkpt>
      <trkpt lat="44.78022" lon="1.60465">
        <ele>134.72</ele>
        <time>2011-03-20T10:05:51Z</time>
      </trkpt>
      <trkpt lat="44.78013" lon="1.60455">
        <ele>135.68</ele>
        <time>2011-03-20T10:05:57Z</time>
      </trkpt>
      <trkpt lat="44.7801" lon="1.60446">
        <ele>133.76</ele>
        <time>2011-03-20T10:06:01Z</time>
      </trkpt>
      <trkpt lat="44.78008" lon="1.60436">
        <ele>133.76</ele>
        <time>2011-03-20T10:06:08Z</time>
      </trkpt>
      <trkpt lat="44.78007" lon="1.60432">
        <ele>135.2</ele>
        <time>2011-03-20T10:06:10Z</time>
      </trkpt>
      <trkpt lat="44.78007" lon="1.6043">
        <ele>135.2</ele>
        <time>2011-03-20T10:06:12Z</time>
      </trkpt>
      <trkpt lat="44.78005" lon="1.60424">
        <ele>136.16</ele>
        <time>2011-03-20T10:06:16Z</time>
      </trkpt>
      <trkpt lat="44.78003" lon="1.60418">
        <ele>136.64</ele>
        <time>2011-03-20T10:06:18Z</time>
      </trkpt>
      <trkpt lat="44.77998" lon="1.60407">
        <ele>137.13</ele>
        <time>2011-03-20T10:06:22Z</time>
      </trkpt>
      <trkpt lat="44.77994" lon="1.60401">
        <ele>135.68</ele>
        <time>2011-03-20T10:06:26Z</time>
      </trkpt>
      <trkpt lat="44.77992" lon="1.60392">
        <ele>136.64</ele>
        <time>2011-03-20T10:06:31Z</time>
      </trkpt>
      <trkpt lat="44.77989" lon="1.60391">
        <ele>137.13</ele>
        <time>2011-03-20T10:06:33Z</time>
      </trkpt>
      <trkpt lat="44.77986" lon="1.60386">
        <ele>136.16</ele>
        <time>2011-03-20T10:06:36Z</time>
      </trkpt>
      <trkpt lat="44.77981" lon="1.60368">
        <ele>136.64</ele>
        <time>2011-03-20T10:06:44Z</time>
      </trkpt>
      <trkpt lat="44.77978" lon="1.60364">
        <ele>135.68</ele>
        <time>2011-03-20T10:06:48Z</time>
      </trkpt>
      <trkpt lat="44.7797" lon="1.60355">
        <ele>136.64</ele>
        <time>2011-03-20T10:06:55Z</time>
      </trkpt>
      <trkpt lat="44.7797" lon="1.60354">
        <ele>137.61</ele>
        <time>2011-03-20T10:06:56Z</time>
      </trkpt>
      <trkpt lat="44.77966" lon="1.6035">
        <ele>138.09</ele>
        <time>2011-03-20T10:07:00Z</time>
      </trkpt>
      <trkpt lat="44.77966" lon="1.60327">
        <ele>137.61</ele>
        <time>2011-03-20T10:07:07Z</time>
      </trkpt>
      <trkpt lat="44.77964" lon="1.60325">
        <ele>138.09</ele>
        <time>2011-03-20T10:07:09Z</time>
      </trkpt>
      <trkpt lat="44.7796" lon="1.60314">
        <ele>138.57</ele>
        <time>2011-03-20T10:07:15Z</time>
      </trkpt>
      <trkpt lat="44.77957" lon="1.60296">
        <ele>138.09</ele>
        <time>2011-03-20T10:07:25Z</time>
      </trkpt>
      <trkpt lat="44.77954" lon="1.6028">
        <ele>136.64</ele>
        <time>2011-03-20T10:07:32Z</time>
      </trkpt>
      <trkpt lat="44.77952" lon="1.60267">
        <ele>135.68</ele>
        <time>2011-03-20T10:07:38Z</time>
      </trkpt>
      <trkpt lat="44.7795" lon="1.60261">
        <ele>136.64</ele>
        <time>2011-03-20T10:07:41Z</time>
      </trkpt>
      <trkpt lat="44.77953" lon="1.60257">
        <ele>136.16</ele>
        <time>2011-03-20T10:07:44Z</time>
      </trkpt>
      <trkpt lat="44.77951" lon="1.60254">
        <ele>135.68</ele>
        <time>2011-03-20T10:07:46Z</time>
      </trkpt>
      <trkpt lat="44.77952" lon="1.6024">
        <ele>136.16</ele>
        <time>2011-03-20T10:07:52Z</time>
      </trkpt>
      <trkpt lat="44.77953" lon="1.60234">
        <ele>136.16</ele>
        <time>2011-03-20T10:07:55Z</time>
      </trkpt>
      <trkpt lat="44.77953" lon="1.60222">
        <ele>135.68</ele>
        <time>2011-03-20T10:07:59Z</time>
      </trkpt>
      <trkpt lat="44.77953" lon="1.60216">
        <ele>136.64</ele>
        <time>2011-03-20T10:08:05Z</time>
      </trkpt>
      <trkpt lat="44.77952" lon="1.60207">
        <ele>136.64</ele>
        <time>2011-03-20T10:08:09Z</time>
      </trkpt>
      <trkpt lat="44.77952" lon="1.60199">
        <ele>136.16</ele>
        <time>2011-03-20T10:08:13Z</time>
      </trkpt>
      <trkpt lat="44.7795" lon="1.60193">
        <ele>138.09</ele>
        <time>2011-03-20T10:08:17Z</time>
      </trkpt>
      <trkpt lat="44.77951" lon="1.60185">
        <ele>138.09</ele>
        <time>2011-03-20T10:08:20Z</time>
      </trkpt>
      <trkpt lat="44.77951" lon="1.60174">
        <ele>138.09</ele>
        <time>2011-03-20T10:08:24Z</time>
      </trkpt>
      <trkpt lat="44.77948" lon="1.60158">
        <ele>137.13</ele>
        <time>2011-03-20T10:08:30Z</time>
      </trkpt>
      <trkpt lat="44.77948" lon="1.60152">
        <ele>135.68</ele>
        <time>2011-03-20T10:08:36Z</time>
      </trkpt>
      <trkpt lat="44.77947" lon="1.60146">
        <ele>134.72</ele>
        <time>2011-03-20T10:08:39Z</time>
      </trkpt>
      <trkpt lat="44.77945" lon="1.60133">
        <ele>136.64</ele>
        <time>2011-03-20T10:08:45Z</time>
      </trkpt>
      <trkpt lat="44.77943" lon="1.60131">
        <ele>135.2</ele>
        <time>2011-03-20T10:08:47Z</time>
      </trkpt>
      <trkpt lat="44.77942" lon="1.60121">
        <ele>135.68</ele>
        <time>2011-03-20T10:08:51Z</time>
      </trkpt>
      <trkpt lat="44.77939" lon="1.60104">
        <ele>135.2</ele>
        <time>2011-03-20T10:08:59Z</time>
      </trkpt>
      <trkpt lat="44.77937" lon="1.60096">
        <ele>137.13</ele>
        <time>2011-03-20T10:09:03Z</time>
      </trkpt>
      <trkpt lat="44.77935" lon="1.6009">
        <ele>136.16</ele>
        <time>2011-03-20T10:09:07Z</time>
      </trkpt>
      <trkpt lat="44.77931" lon="1.60085">
        <ele>137.61</ele>
        <time>2011-03-20T10:09:10Z</time>
      </trkpt>
      <trkpt lat="44.77932" lon="1.60075">
        <ele>139.05</ele>
        <time>2011-03-20T10:09:14Z</time>
      </trkpt>
      <trkpt lat="44.77929" lon="1.6007">
        <ele>137.61</ele>
        <time>2011-03-20T10:09:18Z</time>
      </trkpt>
      <trkpt lat="44.77926" lon="1.60053">
        <ele>138.09</ele>
        <time>2011-03-20T10:09:25Z</time>
      </trkpt>
      <trkpt lat="44.77926" lon="1.60044">
        <ele>138.09</ele>
        <time>2011-03-20T10:09:31Z</time>
      </trkpt>
      <trkpt lat="44.77925" lon="1.60043">
        <ele>138.09</ele>
        <time>2011-03-20T10:09:32Z</time>
      </trkpt>
      <trkpt lat="44.7792" lon="1.60037">
        <ele>138.09</ele>
        <time>2011-03-20T10:09:35Z</time>
      </trkpt>
      <trkpt lat="44.77917" lon="1.60028">
        <ele>138.09</ele>
        <time>2011-03-20T10:09:39Z</time>
      </trkpt>
      <trkpt lat="44.77913" lon="1.60021">
        <ele>138.57</ele>
        <time>2011-03-20T10:09:44Z</time>
      </trkpt>
      <trkpt lat="44.7791" lon="1.60012">
        <ele>140.49</ele>
        <time>2011-03-20T10:09:49Z</time>
      </trkpt>
      <trkpt lat="44.77908" lon="1.60007">
        <ele>140.01</ele>
        <time>2011-03-20T10:09:52Z</time>
      </trkpt>
      <trkpt lat="44.77907" lon="1.60005">
        <ele>139.53</ele>
        <time>2011-03-20T10:09:54Z</time>
      </trkpt>
      <trkpt lat="44.77905" lon="1.60001">
        <ele>140.49</ele>
        <time>2011-03-20T10:09:57Z</time>
      </trkpt>
      <trkpt lat="44.77898" lon="1.59989">
        <ele>138.57</ele>
        <time>2011-03-20T10:10:04Z</time>
      </trkpt>
      <trkpt lat="44.77894" lon="1.59989">
        <ele>140.01</ele>
        <time>2011-03-20T10:10:07Z</time>
      </trkpt>
      <trkpt lat="44.7789" lon="1.59979">
        <ele>142.89</ele>
        <time>2011-03-20T10:10:12Z</time>
      </trkpt>
      <trkpt lat="44.77888" lon="1.59968">
        <ele>141.45</ele>
        <time>2011-03-20T10:10:18Z</time>
      </trkpt>
      <trkpt lat="44.77883" lon="1.59962">
        <ele>140.97</ele>
        <time>2011-03-20T10:10:23Z</time>
      </trkpt>
      <trkpt lat="44.77879" lon="1.59945">
        <ele>140.97</ele>
        <time>2011-03-20T10:10:30Z</time>
      </trkpt>
      <trkpt lat="44.77879" lon="1.59933">
        <ele>140.97</ele>
        <time>2011-03-20T10:10:35Z</time>
      </trkpt>
      <trkpt lat="44.77877" lon="1.59918">
        <ele>139.53</ele>
        <time>2011-03-20T10:10:43Z</time>
      </trkpt>
      <trkpt lat="44.77872" lon="1.59907">
        <ele>141.45</ele>
        <time>2011-03-20T10:10:49Z</time>
      </trkpt>
      <trkpt lat="44.77871" lon="1.59907">
        <ele>141.45</ele>
        <time>2011-03-20T10:10:50Z</time>
      </trkpt>
      <trkpt lat="44.77866" lon="1.59897">
        <ele>141.45</ele>
        <time>2011-03-20T10:10:56Z</time>
      </trkpt>
      <trkpt lat="44.77862" lon="1.59885">
        <ele>141.93</ele>
        <time>2011-03-20T10:11:01Z</time>
      </trkpt>
      <trkpt lat="44.77861" lon="1.59883">
        <ele>140.01</ele>
        <time>2011-03-20T10:11:02Z</time>
      </trkpt>
      <trkpt lat="44.77861" lon="1.59872">
        <ele>138.09</ele>
        <time>2011-03-20T10:11:08Z</time>
      </trkpt>
      <trkpt lat="44.77856" lon="1.59855">
        <ele>139.05</ele>
        <time>2011-03-20T10:11:15Z</time>
      </trkpt>
      <trkpt lat="44.77856" lon="1.59853">
        <ele>140.01</ele>
        <time>2011-03-20T10:11:17Z</time>
      </trkpt>
      <trkpt lat="44.77851" lon="1.59842">
        <ele>140.01</ele>
        <time>2011-03-20T10:11:24Z</time>
      </trkpt>
      <trkpt lat="44.77851" lon="1.59835">
        <ele>139.53</ele>
        <time>2011-03-20T10:11:27Z</time>
      </trkpt>
      <trkpt lat="44.7785" lon="1.59824">
        <ele>141.45</ele>
        <time>2011-03-20T10:11:32Z</time>
      </trkpt>
      <trkpt lat="44.77848" lon="1.59814">
        <ele>137.61</ele>
        <time>2011-03-20T10:11:39Z</time>
      </trkpt>
      <trkpt lat="44.77847" lon="1.59809">
        <ele>137.13</ele>
        <time>2011-03-20T10:11:41Z</time>
      </trkpt>
      <trkpt lat="44.77847" lon="1.598">
        <ele>136.16</ele>
        <time>2011-03-20T10:11:46Z</time>
      </trkpt>
      <trkpt lat="44.77845" lon="1.59796">
        <ele>136.64</ele>
        <time>2011-03-20T10:11:49Z</time>
      </trkpt>
      <trkpt lat="44.77845" lon="1.59789">
        <ele>137.13</ele>
        <time>2011-03-20T10:11:52Z</time>
      </trkpt>
      <trkpt lat="44.77847" lon="1.59777">
        <ele>138.09</ele>
        <time>2011-03-20T10:11:58Z</time>
      </trkpt>
      <trkpt lat="44.77846" lon="1.59773">
        <ele>138.57</ele>
        <time>2011-03-20T10:12:01Z</time>
      </trkpt>
      <trkpt lat="44.77848" lon="1.5975">
        <ele>141.45</ele>
        <time>2011-03-20T10:12:09Z</time>
      </trkpt>
      <trkpt lat="44.77847" lon="1.59742">
        <ele>139.53</ele>
        <time>2011-03-20T10:12:13Z</time>
      </trkpt>
      <trkpt lat="44.77847" lon="1.59738">
        <ele>141.45</ele>
        <time>2011-03-20T10:12:17Z</time>
      </trkpt>
      <trkpt lat="44.77849" lon="1.59721">
        <ele>140.49</ele>
        <time>2011-03-20T10:12:25Z</time>
      </trkpt>
      <trkpt lat="44.77846" lon="1.59705">
        <ele>142.41</ele>
        <time>2011-03-20T10:12:33Z</time>
      </trkpt>
      <trkpt lat="44.77846" lon="1.59704">
        <ele>140.97</ele>
        <time>2011-03-20T10:12:34Z</time>
      </trkpt>
      <trkpt lat="44.77846" lon="1.59698">
        <ele>141.93</ele>
        <time>2011-03-20T10:12:40Z</time>
      </trkpt>
      <trkpt lat="44.77847" lon="1.59683">
        <ele>142.41</ele>
        <time>2011-03-20T10:12:49Z</time>
      </trkpt>
      <trkpt lat="44.77847" lon="1.59669">
        <ele>142.41</ele>
        <time>2011-03-20T10:12:56Z</time>
      </trkpt>
      <trkpt lat="44.77849" lon="1.59649">
        <ele>142.89</ele>
        <time>2011-03-20T10:13:04Z</time>
      </trkpt>
      <trkpt lat="44.77842" lon="1.59639">
        <ele>144.34</ele>
        <time>2011-03-20T10:13:12Z</time>
      </trkpt>
      <trkpt lat="44.77836" lon="1.59633">
        <ele>144.34</ele>
        <time>2011-03-20T10:13:16Z</time>
      </trkpt>
      <trkpt lat="44.77827" lon="1.5963">
        <ele>144.34</ele>
        <time>2011-03-20T10:13:23Z</time>
      </trkpt>
      <trkpt lat="44.77818" lon="1.59632">
        <ele>143.85</ele>
        <time>2011-03-20T10:13:28Z</time>
      </trkpt>
      <trkpt lat="44.77803" lon="1.59644">
        <ele>143.85</ele>
        <time>2011-03-20T10:13:37Z</time>
      </trkpt>
      <trkpt lat="44.77796" lon="1.59648">
        <ele>143.37</ele>
        <time>2011-03-20T10:13:42Z</time>
      </trkpt>
      <trkpt lat="44.77788" lon="1.59655">
        <ele>144.34</ele>
        <time>2011-03-20T10:13:48Z</time>
      </trkpt>
      <trkpt lat="44.77779" lon="1.5966">
        <ele>144.82</ele>
        <time>2011-03-20T10:13:53Z</time>
      </trkpt>
      <trkpt lat="44.77775" lon="1.59663">
        <ele>145.3</ele>
        <time>2011-03-20T10:13:56Z</time>
      </trkpt>
      <trkpt lat="44.77772" lon="1.59664">
        <ele>144.82</ele>
        <time>2011-03-20T10:13:58Z</time>
      </trkpt>
      <trkpt lat="44.77761" lon="1.59671">
        <ele>143.85</ele>
        <time>2011-03-20T10:14:05Z</time>
      </trkpt>
      <trkpt lat="44.77753" lon="1.59675">
        <ele>143.37</ele>
        <time>2011-03-20T10:14:10Z</time>
      </trkpt>
      <trkpt lat="44.77751" lon="1.59674">
        <ele>144.82</ele>
        <time>2011-03-20T10:14:11Z</time>
      </trkpt>
      <trkpt lat="44.77744" lon="1.59672">
        <ele>144.34</ele>
        <time>2011-03-20T10:14:16Z</time>
      </trkpt>
      <trkpt lat="44.77736" lon="1.59672">
        <ele>144.34</ele>
        <time>2011-03-20T10:14:22Z</time>
      </trkpt>
      <trkpt lat="44.77728" lon="1.59677">
        <ele>143.37</ele>
        <time>2011-03-20T10:14:27Z</time>
      </trkpt>
      <trkpt lat="44.77723" lon="1.59679">
        <ele>145.3</ele>
        <time>2011-03-20T10:14:31Z</time>
      </trkpt>
      <trkpt lat="44.77714" lon="1.59679">
        <ele>145.78</ele>
        <time>2011-03-20T10:14:36Z</time>
      </trkpt>
      <trkpt lat="44.77709" lon="1.59678">
        <ele>144.34</ele>
        <time>2011-03-20T10:14:39Z</time>
      </trkpt>
      <trkpt lat="44.77698" lon="1.59683">
        <ele>145.3</ele>
        <time>2011-03-20T10:14:47Z</time>
      </trkpt>
      <trkpt lat="44.7769" lon="1.59684">
        <ele>145.3</ele>
        <time>2011-03-20T10:14:53Z</time>
      </trkpt>
      <trkpt lat="44.7768" lon="1.59683">
        <ele>145.78</ele>
        <time>2011-03-20T10:14:59Z</time>
      </trkpt>
      <trkpt lat="44.77673" lon="1.59683">
        <ele>144.82</ele>
        <time>2011-03-20T10:15:04Z</time>
      </trkpt>
      <trkpt lat="44.77669" lon="1.59681">
        <ele>146.26</ele>
        <time>2011-03-20T10:15:07Z</time>
      </trkpt>
      <trkpt lat="44.77652" lon="1.59693">
        <ele>146.26</ele>
        <time>2011-03-20T10:15:16Z</time>
      </trkpt>
      <trkpt lat="44.77649" lon="1.59694">
        <ele>147.7</ele>
        <time>2011-03-20T10:15:17Z</time>
      </trkpt>
      <trkpt lat="44.77646" lon="1.59695">
        <ele>146.26</ele>
        <time>2011-03-20T10:15:20Z</time>
      </trkpt>
      <trkpt lat="44.77634" lon="1.59697">
        <ele>146.26</ele>
        <time>2011-03-20T10:15:27Z</time>
      </trkpt>
      <trkpt lat="44.77626" lon="1.59697">
        <ele>145.3</ele>
        <time>2011-03-20T10:15:31Z</time>
      </trkpt>
      <trkpt lat="44.77617" lon="1.59698">
        <ele>146.26</ele>
        <time>2011-03-20T10:15:36Z</time>
      </trkpt>
      <trkpt lat="44.77602" lon="1.59706">
        <ele>145.78</ele>
        <time>2011-03-20T10:15:46Z</time>
      </trkpt>
      <trkpt lat="44.776" lon="1.59708">
        <ele>147.22</ele>
        <time>2011-03-20T10:15:47Z</time>
      </trkpt>
      <trkpt lat="44.77596" lon="1.59706">
        <ele>146.26</ele>
        <time>2011-03-20T10:15:49Z</time>
      </trkpt>
      <trkpt lat="44.77581" lon="1.59704">
        <ele>147.7</ele>
        <time>2011-03-20T10:15:59Z</time>
      </trkpt>
      <trkpt lat="44.77573" lon="1.59703">
        <ele>145.3</ele>
        <time>2011-03-20T10:16:05Z</time>
      </trkpt>
      <trkpt lat="44.77567" lon="1.59705">
        <ele>143.85</ele>
        <time>2011-03-20T10:16:09Z</time>
      </trkpt>
      <trkpt lat="44.77559" lon="1.59704">
        <ele>145.3</ele>
        <time>2011-03-20T10:16:13Z</time>
      </trkpt>
      <trkpt lat="44.77555" lon="1.59706">
        <ele>144.34</ele>
        <time>2011-03-20T10:16:16Z</time>
      </trkpt>
      <trkpt lat="44.77553" lon="1.59705">
        <ele>143.85</ele>
        <time>2011-03-20T10:16:18Z</time>
      </trkpt>
      <trkpt lat="44.7754" lon="1.59704">
        <ele>143.85</ele>
        <time>2011-03-20T10:16:26Z</time>
      </trkpt>
      <trkpt lat="44.77536" lon="1.59704">
        <ele>143.37</ele>
        <time>2011-03-20T10:16:28Z</time>
      </trkpt>
      <trkpt lat="44.77523" lon="1.59701">
        <ele>143.37</ele>
        <time>2011-03-20T10:16:35Z</time>
      </trkpt>
      <trkpt lat="44.77509" lon="1.59695">
        <ele>143.85</ele>
        <time>2011-03-20T10:16:43Z</time>
      </trkpt>
      <trkpt lat="44.77503" lon="1.59693">
        <ele>142.41</ele>
        <time>2011-03-20T10:16:47Z</time>
      </trkpt>
      <trkpt lat="44.77502" lon="1.59691">
        <ele>142.89</ele>
        <time>2011-03-20T10:16:52Z</time>
      </trkpt>
      <trkpt lat="44.77494" lon="1.59688">
        <ele>142.89</ele>
        <time>2011-03-20T10:16:58Z</time>
      </trkpt>
      <trkpt lat="44.77485" lon="1.5968">
        <ele>142.89</ele>
        <time>2011-03-20T10:17:03Z</time>
      </trkpt>
      <trkpt lat="44.77479" lon="1.59676">
        <ele>144.34</ele>
        <time>2011-03-20T10:17:06Z</time>
      </trkpt>
      <trkpt lat="44.77466" lon="1.59666">
        <ele>145.3</ele>
        <time>2011-03-20T10:17:15Z</time>
      </trkpt>
      <trkpt lat="44.77464" lon="1.59667">
        <ele>145.78</ele>
        <time>2011-03-20T10:17:17Z</time>
      </trkpt>
      <trkpt lat="44.77462" lon="1.59664">
        <ele>146.74</ele>
        <time>2011-03-20T10:17:19Z</time>
      </trkpt>
      <trkpt lat="44.77457" lon="1.5966">
        <ele>146.26</ele>
        <time>2011-03-20T10:17:23Z</time>
      </trkpt>
      <trkpt lat="44.7745" lon="1.59658">
        <ele>147.7</ele>
        <time>2011-03-20T10:17:28Z</time>
      </trkpt>
      <trkpt lat="44.77446" lon="1.59653">
        <ele>149.14</ele>
        <time>2011-03-20T10:17:31Z</time>
      </trkpt>
      <trkpt lat="44.77433" lon="1.59641">
        <ele>148.18</ele>
        <time>2011-03-20T10:17:39Z</time>
      </trkpt>
      <trkpt lat="44.77428" lon="1.59637">
        <ele>145.78</ele>
        <time>2011-03-20T10:17:43Z</time>
      </trkpt>
      <trkpt lat="44.77425" lon="1.59636">
        <ele>146.74</ele>
        <time>2011-03-20T10:17:47Z</time>
      </trkpt>
      <trkpt lat="44.77421" lon="1.59632">
        <ele>146.74</ele>
        <time>2011-03-20T10:17:50Z</time>
      </trkpt>
      <trkpt lat="44.77413" lon="1.59624">
        <ele>146.74</ele>
        <time>2011-03-20T10:17:55Z</time>
      </trkpt>
      <trkpt lat="44.77402" lon="1.59616">
        <ele>147.22</ele>
        <time>2011-03-20T10:18:02Z</time>
      </trkpt>
      <trkpt lat="44.77401" lon="1.59615">
        <ele>147.7</ele>
        <time>2011-03-20T10:18:03Z</time>
      </trkpt>
      <trkpt lat="44.77389" lon="1.59619">
        <ele>148.66</ele>
        <time>2011-03-20T10:18:10Z</time>
      </trkpt>
      <trkpt lat="44.77381" lon="1.59622">
        <ele>148.18</ele>
        <time>2011-03-20T10:18:15Z</time>
      </trkpt>
      <trkpt lat="44.77378" lon="1.59624">
        <ele>147.7</ele>
        <time>2011-03-20T10:18:17Z</time>
      </trkpt>
      <trkpt lat="44.77364" lon="1.59626">
        <ele>148.66</ele>
        <time>2011-03-20T10:18:26Z</time>
      </trkpt>
      <trkpt lat="44.77359" lon="1.59627">
        <ele>151.06</ele>
        <time>2011-03-20T10:18:30Z</time>
      </trkpt>
      <trkpt lat="44.77354" lon="1.59622">
        <ele>150.1</ele>
        <time>2011-03-20T10:18:35Z</time>
      </trkpt>
      <trkpt lat="44.7735" lon="1.59624">
        <ele>151.54</ele>
        <time>2011-03-20T10:18:37Z</time>
      </trkpt>
      <trkpt lat="44.77347" lon="1.59621">
        <ele>150.1</ele>
        <time>2011-03-20T10:18:39Z</time>
      </trkpt>
      <trkpt lat="44.77337" lon="1.5962">
        <ele>151.06</ele>
        <time>2011-03-20T10:18:46Z</time>
      </trkpt>
      <trkpt lat="44.77336" lon="1.5962">
        <ele>152.03</ele>
        <time>2011-03-20T10:18:47Z</time>
      </trkpt>
      <trkpt lat="44.77317" lon="1.59614">
        <ele>152.99</ele>
        <time>2011-03-20T10:19:00Z</time>
      </trkpt>
      <trkpt lat="44.77307" lon="1.59609">
        <ele>154.43</ele>
        <time>2011-03-20T10:19:08Z</time>
      </trkpt>
      <trkpt lat="44.77298" lon="1.59602">
        <ele>154.43</ele>
        <time>2011-03-20T10:19:15Z</time>
      </trkpt>
      <trkpt lat="44.77287" lon="1.59592">
        <ele>155.39</ele>
        <time>2011-03-20T10:19:24Z</time>
      </trkpt>
      <trkpt lat="44.77273" lon="1.5958">
        <ele>156.35</ele>
        <time>2011-03-20T10:19:35Z</time>
      </trkpt>
      <trkpt lat="44.77262" lon="1.59575">
        <ele>157.31</ele>
        <time>2011-03-20T10:19:41Z</time>
      </trkpt>
      <trkpt lat="44.77254" lon="1.59569">
        <ele>155.39</ele>
        <time>2011-03-20T10:19:47Z</time>
      </trkpt>
      <trkpt lat="44.77248" lon="1.59566">
        <ele>156.35</ele>
        <time>2011-03-20T10:19:51Z</time>
      </trkpt>
      <trkpt lat="44.77242" lon="1.59564">
        <ele>157.79</ele>
        <time>2011-03-20T10:19:56Z</time>
      </trkpt>
      <trkpt lat="44.7724" lon="1.59563">
        <ele>156.35</ele>
        <time>2011-03-20T10:19:57Z</time>
      </trkpt>
      <trkpt lat="44.77231" lon="1.59565">
        <ele>157.31</ele>
        <time>2011-03-20T10:20:03Z</time>
      </trkpt>
      <trkpt lat="44.77228" lon="1.59564">
        <ele>157.79</ele>
        <time>2011-03-20T10:20:07Z</time>
      </trkpt>
      <trkpt lat="44.77217" lon="1.59568">
        <ele>155.39</ele>
        <time>2011-03-20T10:20:14Z</time>
      </trkpt>
      <trkpt lat="44.77204" lon="1.59572">
        <ele>157.31</ele>
        <time>2011-03-20T10:20:21Z</time>
      </trkpt>
      <trkpt lat="44.77193" lon="1.59574">
        <ele>156.83</ele>
        <time>2011-03-20T10:20:28Z</time>
      </trkpt>
      <trkpt lat="44.77182" lon="1.59577">
        <ele>156.83</ele>
        <time>2011-03-20T10:20:35Z</time>
      </trkpt>
      <trkpt lat="44.77176" lon="1.59577">
        <ele>158.27</ele>
        <time>2011-03-20T10:20:41Z</time>
      </trkpt>
      <trkpt lat="44.77173" lon="1.59576">
        <ele>157.79</ele>
        <time>2011-03-20T10:20:44Z</time>
      </trkpt>
      <trkpt lat="44.77163" lon="1.59579">
        <ele>160.68</ele>
        <time>2011-03-20T10:20:50Z</time>
      </trkpt>
      <trkpt lat="44.7716" lon="1.59577">
        <ele>160.2</ele>
        <time>2011-03-20T10:20:52Z</time>
      </trkpt>
      <trkpt lat="44.77152" lon="1.59578">
        <ele>159.72</ele>
        <time>2011-03-20T10:20:58Z</time>
      </trkpt>
      <trkpt lat="44.77146" lon="1.59578">
        <ele>160.68</ele>
        <time>2011-03-20T10:21:02Z</time>
      </trkpt>
      <trkpt lat="44.77143" lon="1.59579">
        <ele>161.16</ele>
        <time>2011-03-20T10:21:04Z</time>
      </trkpt>
      <trkpt lat="44.77134" lon="1.59584">
        <ele>162.12</ele>
        <time>2011-03-20T10:21:11Z</time>
      </trkpt>
      <trkpt lat="44.77132" lon="1.59585">
        <ele>161.64</ele>
        <time>2011-03-20T10:21:12Z</time>
      </trkpt>
      <trkpt lat="44.77126" lon="1.59587">
        <ele>162.12</ele>
        <time>2011-03-20T10:21:17Z</time>
      </trkpt>
      <trkpt lat="44.77118" lon="1.59588">
        <ele>163.08</ele>
        <time>2011-03-20T10:21:21Z</time>
      </trkpt>
      <trkpt lat="44.77116" lon="1.59588">
        <ele>163.56</ele>
        <time>2011-03-20T10:21:23Z</time>
      </trkpt>
      <trkpt lat="44.77107" lon="1.59589">
        <ele>163.08</ele>
        <time>2011-03-20T10:21:27Z</time>
      </trkpt>
      <trkpt lat="44.77099" lon="1.59589">
        <ele>163.56</ele>
        <time>2011-03-20T10:21:33Z</time>
      </trkpt>
      <trkpt lat="44.7709" lon="1.59592">
        <ele>164.52</ele>
        <time>2011-03-20T10:21:40Z</time>
      </trkpt>
      <trkpt lat="44.77083" lon="1.59591">
        <ele>164.52</ele>
        <time>2011-03-20T10:21:47Z</time>
      </trkpt>
      <trkpt lat="44.77082" lon="1.59591">
        <ele>166.45</ele>
        <time>2011-03-20T10:21:48Z</time>
      </trkpt>
      <trkpt lat="44.77075" lon="1.59592">
        <ele>165</ele>
        <time>2011-03-20T10:21:52Z</time>
      </trkpt>
      <trkpt lat="44.77067" lon="1.59592">
        <ele>164.52</ele>
        <time>2011-03-20T10:21:56Z</time>
      </trkpt>
      <trkpt lat="44.77055" lon="1.59598">
        <ele>167.41</ele>
        <time>2011-03-20T10:22:06Z</time>
      </trkpt>
      <trkpt lat="44.77049" lon="1.59598">
        <ele>166.93</ele>
        <time>2011-03-20T10:22:10Z</time>
      </trkpt>
      <trkpt lat="44.77037" lon="1.59605">
        <ele>167.41</ele>
        <time>2011-03-20T10:22:17Z</time>
      </trkpt>
      <trkpt lat="44.77033" lon="1.59606">
        <ele>168.85</ele>
        <time>2011-03-20T10:22:20Z</time>
      </trkpt>
      <trkpt lat="44.77031" lon="1.59608">
        <ele>167.89</ele>
        <time>2011-03-20T10:22:22Z</time>
      </trkpt>
      <trkpt lat="44.77025" lon="1.59613">
        <ele>169.81</ele>
        <time>2011-03-20T10:22:28Z</time>
      </trkpt>
      <trkpt lat="44.77018" lon="1.5962">
        <ele>168.85</ele>
        <time>2011-03-20T10:22:33Z</time>
      </trkpt>
      <trkpt lat="44.77015" lon="1.59621">
        <ele>170.77</ele>
        <time>2011-03-20T10:22:35Z</time>
      </trkpt>
      <trkpt lat="44.77005" lon="1.59629">
        <ele>169.33</ele>
        <time>2011-03-20T10:22:44Z</time>
      </trkpt>
      <trkpt lat="44.76999" lon="1.59633">
        <ele>171.73</ele>
        <time>2011-03-20T10:22:48Z</time>
      </trkpt>
      <trkpt lat="44.76996" lon="1.59634">
        <ele>171.73</ele>
        <time>2011-03-20T10:22:50Z</time>
      </trkpt>
      <trkpt lat="44.76986" lon="1.59641">
        <ele>171.25</ele>
        <time>2011-03-20T10:22:58Z</time>
      </trkpt>
      <trkpt lat="44.76977" lon="1.59649">
        <ele>171.73</ele>
        <time>2011-03-20T10:23:04Z</time>
      </trkpt>
      <trkpt lat="44.76972" lon="1.59653">
        <ele>171.73</ele>
        <time>2011-03-20T10:23:08Z</time>
      </trkpt>
      <trkpt lat="44.76964" lon="1.59655">
        <ele>172.69</ele>
        <time>2011-03-20T10:23:14Z</time>
      </trkpt>
      <trkpt lat="44.76953" lon="1.59667">
        <ele>171.73</ele>
        <time>2011-03-20T10:23:21Z</time>
      </trkpt>
      <trkpt lat="44.76946" lon="1.59675">
        <ele>171.25</ele>
        <time>2011-03-20T10:23:28Z</time>
      </trkpt>
      <trkpt lat="44.76942" lon="1.59687">
        <ele>172.69</ele>
        <time>2011-03-20T10:23:35Z</time>
      </trkpt>
      <trkpt lat="44.76942" lon="1.59694">
        <ele>171.73</ele>
        <time>2011-03-20T10:23:38Z</time>
      </trkpt>
      <trkpt lat="44.76936" lon="1.59703">
        <ele>172.69</ele>
        <time>2011-03-20T10:23:44Z</time>
      </trkpt>
      <trkpt lat="44.76934" lon="1.5971">
        <ele>174.14</ele>
        <time>2011-03-20T10:23:48Z</time>
      </trkpt>
      <trkpt lat="44.76931" lon="1.59717">
        <ele>172.69</ele>
        <time>2011-03-20T10:23:51Z</time>
      </trkpt>
      <trkpt lat="44.76927" lon="1.5972">
        <ele>173.17</ele>
        <time>2011-03-20T10:23:55Z</time>
      </trkpt>
      <trkpt lat="44.76924" lon="1.59725">
        <ele>174.62</ele>
        <time>2011-03-20T10:23:58Z</time>
      </trkpt>
      <trkpt lat="44.76923" lon="1.59728">
        <ele>173.66</ele>
        <time>2011-03-20T10:24:00Z</time>
      </trkpt>
      <trkpt lat="44.76921" lon="1.59731">
        <ele>174.14</ele>
        <time>2011-03-20T10:24:02Z</time>
      </trkpt>
      <trkpt lat="44.76919" lon="1.59734">
        <ele>175.1</ele>
        <time>2011-03-20T10:24:04Z</time>
      </trkpt>
      <trkpt lat="44.76915" lon="1.59743">
        <ele>173.66</ele>
        <time>2011-03-20T10:24:08Z</time>
      </trkpt>
      <trkpt lat="44.76912" lon="1.59745">
        <ele>175.1</ele>
        <time>2011-03-20T10:24:12Z</time>
      </trkpt>
      <trkpt lat="44.76908" lon="1.59758">
        <ele>175.58</ele>
        <time>2011-03-20T10:24:17Z</time>
      </trkpt>
      <trkpt lat="44.76906" lon="1.59769">
        <ele>177.02</ele>
        <time>2011-03-20T10:24:23Z</time>
      </trkpt>
      <trkpt lat="44.76899" lon="1.59777">
        <ele>177.5</ele>
        <time>2011-03-20T10:24:29Z</time>
      </trkpt>
      <trkpt lat="44.76898" lon="1.59778">
        <ele>177.5</ele>
        <time>2011-03-20T10:24:30Z</time>
      </trkpt>
      <trkpt lat="44.76897" lon="1.59782">
        <ele>176.54</ele>
        <time>2011-03-20T10:24:32Z</time>
      </trkpt>
      <trkpt lat="44.76896" lon="1.59784">
        <ele>176.54</ele>
        <time>2011-03-20T10:24:33Z</time>
      </trkpt>
      <trkpt lat="44.76896" lon="1.59788">
        <ele>177.98</ele>
        <time>2011-03-20T10:24:35Z</time>
      </trkpt>
      <trkpt lat="44.76891" lon="1.59797">
        <ele>178.46</ele>
        <time>2011-03-20T10:24:41Z</time>
      </trkpt>
      <trkpt lat="44.76885" lon="1.59823">
        <ele>183.75</ele>
        <time>2011-03-20T10:24:54Z</time>
      </trkpt>
      <trkpt lat="44.76885" lon="1.59825">
        <ele>182.79</ele>
        <time>2011-03-20T10:24:55Z</time>
      </trkpt>
      <trkpt lat="44.7688" lon="1.5984">
        <ele>181.83</ele>
        <time>2011-03-20T10:25:04Z</time>
      </trkpt>
      <trkpt lat="44.76879" lon="1.59843">
        <ele>182.31</ele>
        <time>2011-03-20T10:25:06Z</time>
      </trkpt>
      <trkpt lat="44.76875" lon="1.59851">
        <ele>183.75</ele>
        <time>2011-03-20T10:25:12Z</time>
      </trkpt>
      <trkpt lat="44.76872" lon="1.59859">
        <ele>182.79</ele>
        <time>2011-03-20T10:25:18Z</time>
      </trkpt>
      <trkpt lat="44.7687" lon="1.59868">
        <ele>184.71</ele>
        <time>2011-03-20T10:25:23Z</time>
      </trkpt>
      <trkpt lat="44.76871" lon="1.59869">
        <ele>185.19</ele>
        <time>2011-03-20T10:25:24Z</time>
      </trkpt>
      <trkpt lat="44.76871" lon="1.59878">
        <ele>183.75</ele>
        <time>2011-03-20T10:25:27Z</time>
      </trkpt>
      <trkpt lat="44.76871" lon="1.59894">
        <ele>184.23</ele>
        <time>2011-03-20T10:25:35Z</time>
      </trkpt>
      <trkpt lat="44.76871" lon="1.59901">
        <ele>185.19</ele>
        <time>2011-03-20T10:25:38Z</time>
      </trkpt>
      <trkpt lat="44.7687" lon="1.59913">
        <ele>185.67</ele>
        <time>2011-03-20T10:25:44Z</time>
      </trkpt>
      <trkpt lat="44.7687" lon="1.59917">
        <ele>184.71</ele>
        <time>2011-03-20T10:25:46Z</time>
      </trkpt>
      <trkpt lat="44.76868" lon="1.59932">
        <ele>186.15</ele>
        <time>2011-03-20T10:25:53Z</time>
      </trkpt>
      <trkpt lat="44.7687" lon="1.59948">
        <ele>185.67</ele>
        <time>2011-03-20T10:26:00Z</time>
      </trkpt>
      <trkpt lat="44.76871" lon="1.59951">
        <ele>187.59</ele>
        <time>2011-03-20T10:26:02Z</time>
      </trkpt>
      <trkpt lat="44.76872" lon="1.59958">
        <ele>188.08</ele>
        <time>2011-03-20T10:26:06Z</time>
      </trkpt>
      <trkpt lat="44.76871" lon="1.59974">
        <ele>190</ele>
        <time>2011-03-20T10:26:14Z</time>
      </trkpt>
      <trkpt lat="44.76871" lon="1.59982">
        <ele>188.08</ele>
        <time>2011-03-20T10:26:19Z</time>
      </trkpt>
      <trkpt lat="44.76871" lon="1.59996">
        <ele>189.52</ele>
        <time>2011-03-20T10:26:25Z</time>
      </trkpt>
      <trkpt lat="44.76871" lon="1.59998">
        <ele>188.56</ele>
        <time>2011-03-20T10:26:28Z</time>
      </trkpt>
      <trkpt lat="44.76872" lon="1.60012">
        <ele>192.4</ele>
        <time>2011-03-20T10:26:35Z</time>
      </trkpt>
      <trkpt lat="44.76876" lon="1.60019">
        <ele>191.92</ele>
        <time>2011-03-20T10:26:38Z</time>
      </trkpt>
      <trkpt lat="44.76877" lon="1.60033">
        <ele>192.88</ele>
        <time>2011-03-20T10:26:45Z</time>
      </trkpt>
      <trkpt lat="44.76879" lon="1.60041">
        <ele>193.36</ele>
        <time>2011-03-20T10:26:50Z</time>
      </trkpt>
      <trkpt lat="44.7688" lon="1.60045">
        <ele>192.88</ele>
        <time>2011-03-20T10:26:52Z</time>
      </trkpt>
      <trkpt lat="44.76884" lon="1.60058">
        <ele>192.4</ele>
        <time>2011-03-20T10:27:00Z</time>
      </trkpt>
      <trkpt lat="44.76886" lon="1.60061">
        <ele>193.84</ele>
        <time>2011-03-20T10:27:02Z</time>
      </trkpt>
      <trkpt lat="44.76892" lon="1.60072">
        <ele>194.32</ele>
        <time>2011-03-20T10:27:09Z</time>
      </trkpt>
      <trkpt lat="44.76897" lon="1.60087">
        <ele>196.73</ele>
        <time>2011-03-20T10:27:18Z</time>
      </trkpt>
      <trkpt lat="44.76903" lon="1.60101">
        <ele>196.25</ele>
        <time>2011-03-20T10:27:25Z</time>
      </trkpt>
      <trkpt lat="44.76904" lon="1.60102">
        <ele>196.25</ele>
        <time>2011-03-20T10:27:26Z</time>
      </trkpt>
      <trkpt lat="44.76911" lon="1.60114">
        <ele>197.21</ele>
        <time>2011-03-20T10:27:34Z</time>
      </trkpt>
      <trkpt lat="44.76916" lon="1.60124">
        <ele>200.57</ele>
        <time>2011-03-20T10:27:39Z</time>
      </trkpt>
      <trkpt lat="44.76918" lon="1.60134">
        <ele>203.46</ele>
        <time>2011-03-20T10:27:46Z</time>
      </trkpt>
      <trkpt lat="44.76922" lon="1.60141">
        <ele>204.42</ele>
        <time>2011-03-20T10:27:52Z</time>
      </trkpt>
      <trkpt lat="44.76928" lon="1.60149">
        <ele>205.38</ele>
        <time>2011-03-20T10:27:57Z</time>
      </trkpt>
      <trkpt lat="44.76934" lon="1.60157">
        <ele>205.38</ele>
        <time>2011-03-20T10:28:04Z</time>
      </trkpt>
      <trkpt lat="44.76938" lon="1.60164">
        <ele>207.3</ele>
        <time>2011-03-20T10:28:10Z</time>
      </trkpt>
      <trkpt lat="44.76943" lon="1.60168">
        <ele>207.3</ele>
        <time>2011-03-20T10:28:15Z</time>
      </trkpt>
      <trkpt lat="44.76948" lon="1.60176">
        <ele>207.78</ele>
        <time>2011-03-20T10:28:19Z</time>
      </trkpt>
      <trkpt lat="44.76951" lon="1.60176">
        <ele>208.74</ele>
        <time>2011-03-20T10:28:22Z</time>
      </trkpt>
      <trkpt lat="44.76957" lon="1.60181">
        <ele>209.7</ele>
        <time>2011-03-20T10:28:29Z</time>
      </trkpt>
      <trkpt lat="44.76964" lon="1.60191">
        <ele>209.22</ele>
        <time>2011-03-20T10:28:35Z</time>
      </trkpt>
      <trkpt lat="44.76966" lon="1.602">
        <ele>208.26</ele>
        <time>2011-03-20T10:28:38Z</time>
      </trkpt>
      <trkpt lat="44.76978" lon="1.60209">
        <ele>208.74</ele>
        <time>2011-03-20T10:28:47Z</time>
      </trkpt>
      <trkpt lat="44.76986" lon="1.60217">
        <ele>207.3</ele>
        <time>2011-03-20T10:28:53Z</time>
      </trkpt>
      <trkpt lat="44.76992" lon="1.60222">
        <ele>206.82</ele>
        <time>2011-03-20T10:29:00Z</time>
      </trkpt>
      <trkpt lat="44.77001" lon="1.60227">
        <ele>210.19</ele>
        <time>2011-03-20T10:29:07Z</time>
      </trkpt>
      <trkpt lat="44.77002" lon="1.60227">
        <ele>209.7</ele>
        <time>2011-03-20T10:29:08Z</time>
      </trkpt>
      <trkpt lat="44.77007" lon="1.60232">
        <ele>210.67</ele>
        <time>2011-03-20T10:29:12Z</time>
      </trkpt>
      <trkpt lat="44.77015" lon="1.60239">
        <ele>211.15</ele>
        <time>2011-03-20T10:29:20Z</time>
      </trkpt>
      <trkpt lat="44.77017" lon="1.60241">
        <ele>211.63</ele>
        <time>2011-03-20T10:29:22Z</time>
      </trkpt>
      <trkpt lat="44.7702" lon="1.60246">
        <ele>210.67</ele>
        <time>2011-03-20T10:29:26Z</time>
      </trkpt>
      <trkpt lat="44.77027" lon="1.60253">
        <ele>212.59</ele>
        <time>2011-03-20T10:29:33Z</time>
      </trkpt>
      <trkpt lat="44.77037" lon="1.60262">
        <ele>212.59</ele>
        <time>2011-03-20T10:29:41Z</time>
      </trkpt>
      <trkpt lat="44.77043" lon="1.60269">
        <ele>212.11</ele>
        <time>2011-03-20T10:29:48Z</time>
      </trkpt>
      <trkpt lat="44.77049" lon="1.60275">
        <ele>212.11</ele>
        <time>2011-03-20T10:29:54Z</time>
      </trkpt>
      <trkpt lat="44.77056" lon="1.60284">
        <ele>214.03</ele>
        <time>2011-03-20T10:30:02Z</time>
      </trkpt>
      <trkpt lat="44.77062" lon="1.60292">
        <ele>213.55</ele>
        <time>2011-03-20T10:30:08Z</time>
      </trkpt>
      <trkpt lat="44.77067" lon="1.60295">
        <ele>214.51</ele>
        <time>2011-03-20T10:30:12Z</time>
      </trkpt>
      <trkpt lat="44.77068" lon="1.60302">
        <ele>214.99</ele>
        <time>2011-03-20T10:30:16Z</time>
      </trkpt>
      <trkpt lat="44.77073" lon="1.60309">
        <ele>214.51</ele>
        <time>2011-03-20T10:30:22Z</time>
      </trkpt>
      <trkpt lat="44.77075" lon="1.60316">
        <ele>215.47</ele>
        <time>2011-03-20T10:30:25Z</time>
      </trkpt>
      <trkpt lat="44.77081" lon="1.60326">
        <ele>214.03</ele>
        <time>2011-03-20T10:30:31Z</time>
      </trkpt>
      <trkpt lat="44.77085" lon="1.60341">
        <ele>216.91</ele>
        <time>2011-03-20T10:30:40Z</time>
      </trkpt>
      <trkpt lat="44.77086" lon="1.60343">
        <ele>216.91</ele>
        <time>2011-03-20T10:30:41Z</time>
      </trkpt>
      <trkpt lat="44.77087" lon="1.60346">
        <ele>219.32</ele>
        <time>2011-03-20T10:30:43Z</time>
      </trkpt>
      <trkpt lat="44.77088" lon="1.60351">
        <ele>221.24</ele>
        <time>2011-03-20T10:30:46Z</time>
      </trkpt>
      <trkpt lat="44.77088" lon="1.60354">
        <ele>220.28</ele>
        <time>2011-03-20T10:30:48Z</time>
      </trkpt>
      <trkpt lat="44.77093" lon="1.60367">
        <ele>221.24</ele>
        <time>2011-03-20T10:30:55Z</time>
      </trkpt>
      <trkpt lat="44.77093" lon="1.60369">
        <ele>221.24</ele>
        <time>2011-03-20T10:30:56Z</time>
      </trkpt>
      <trkpt lat="44.77096" lon="1.60383">
        <ele>221.72</ele>
        <time>2011-03-20T10:31:03Z</time>
      </trkpt>
      <trkpt lat="44.77094" lon="1.6039">
        <ele>222.68</ele>
        <time>2011-03-20T10:31:08Z</time>
      </trkpt>
      <trkpt lat="44.77095" lon="1.60396">
        <ele>221.24</ele>
        <time>2011-03-20T10:31:11Z</time>
      </trkpt>
      <trkpt lat="44.77094" lon="1.60398">
        <ele>220.76</ele>
        <time>2011-03-20T10:31:13Z</time>
      </trkpt>
      <trkpt lat="44.77096" lon="1.60409">
        <ele>221.24</ele>
        <time>2011-03-20T10:31:19Z</time>
      </trkpt>
      <trkpt lat="44.77097" lon="1.60418">
        <ele>222.2</ele>
        <time>2011-03-20T10:31:24Z</time>
      </trkpt>
      <trkpt lat="44.77097" lon="1.6042">
        <ele>221.24</ele>
        <time>2011-03-20T10:31:26Z</time>
      </trkpt>
      <trkpt lat="44.77096" lon="1.60429">
        <ele>223.64</ele>
        <time>2011-03-20T10:31:31Z</time>
      </trkpt>
      <trkpt lat="44.77095" lon="1.60447">
        <ele>222.2</ele>
        <time>2011-03-20T10:31:40Z</time>
      </trkpt>
      <trkpt lat="44.77096" lon="1.60454">
        <ele>222.68</ele>
        <time>2011-03-20T10:31:46Z</time>
      </trkpt>
      <trkpt lat="44.77094" lon="1.60469">
        <ele>224.12</ele>
        <time>2011-03-20T10:31:55Z</time>
      </trkpt>
      <trkpt lat="44.77095" lon="1.60476">
        <ele>224.61</ele>
        <time>2011-03-20T10:31:58Z</time>
      </trkpt>
      <trkpt lat="44.77092" lon="1.60488">
        <ele>223.64</ele>
        <time>2011-03-20T10:32:05Z</time>
      </trkpt>
      <trkpt lat="44.77091" lon="1.60489">
        <ele>222.68</ele>
        <time>2011-03-20T10:32:06Z</time>
      </trkpt>
      <trkpt lat="44.77087" lon="1.60498">
        <ele>225.57</ele>
        <time>2011-03-20T10:32:10Z</time>
      </trkpt>
      <trkpt lat="44.77081" lon="1.60507">
        <ele>226.05</ele>
        <time>2011-03-20T10:32:16Z</time>
      </trkpt>
      <trkpt lat="44.77078" lon="1.60513">
        <ele>223.16</ele>
        <time>2011-03-20T10:32:21Z</time>
      </trkpt>
      <trkpt lat="44.77077" lon="1.60516">
        <ele>225.57</ele>
        <time>2011-03-20T10:32:23Z</time>
      </trkpt>
      <trkpt lat="44.77071" lon="1.60523">
        <ele>225.09</ele>
        <time>2011-03-20T10:32:27Z</time>
      </trkpt>
      <trkpt lat="44.77069" lon="1.60527">
        <ele>227.49</ele>
        <time>2011-03-20T10:32:30Z</time>
      </trkpt>
      <trkpt lat="44.77067" lon="1.60538">
        <ele>227.97</ele>
        <time>2011-03-20T10:32:36Z</time>
      </trkpt>
      <trkpt lat="44.77065" lon="1.60549">
        <ele>229.41</ele>
        <time>2011-03-20T10:32:43Z</time>
      </trkpt>
      <trkpt lat="44.77057" lon="1.60562">
        <ele>229.41</ele>
        <time>2011-03-20T10:32:53Z</time>
      </trkpt>
      <trkpt lat="44.77055" lon="1.60566">
        <ele>229.89</ele>
        <time>2011-03-20T10:32:55Z</time>
      </trkpt>
      <trkpt lat="44.7705" lon="1.60572">
        <ele>229.89</ele>
        <time>2011-03-20T10:33:00Z</time>
      </trkpt>
      <trkpt lat="44.77048" lon="1.60585">
        <ele>230.85</ele>
        <time>2011-03-20T10:33:07Z</time>
      </trkpt>
      <trkpt lat="44.77047" lon="1.60594">
        <ele>230.37</ele>
        <time>2011-03-20T10:33:12Z</time>
      </trkpt>
      <trkpt lat="44.77045" lon="1.60605">
        <ele>233.74</ele>
        <time>2011-03-20T10:33:16Z</time>
      </trkpt>
      <trkpt lat="44.77045" lon="1.60607">
        <ele>234.22</ele>
        <time>2011-03-20T10:33:17Z</time>
      </trkpt>
      <trkpt lat="44.77043" lon="1.60611">
        <ele>237.1</ele>
        <time>2011-03-20T10:33:23Z</time>
      </trkpt>
      <trkpt lat="44.77041" lon="1.60614">
        <ele>238.54</ele>
        <time>2011-03-20T10:33:25Z</time>
      </trkpt>
      <trkpt lat="44.77037" lon="1.60621">
        <ele>238.06</ele>
        <time>2011-03-20T10:33:29Z</time>
      </trkpt>
      <trkpt lat="44.77035" lon="1.60627">
        <ele>238.06</ele>
        <time>2011-03-20T10:33:31Z</time>
      </trkpt>
      <trkpt lat="44.77031" lon="1.60636">
        <ele>238.54</ele>
        <time>2011-03-20T10:33:37Z</time>
      </trkpt>
      <trkpt lat="44.77029" lon="1.60637">
        <ele>237.1</ele>
        <time>2011-03-20T10:33:39Z</time>
      </trkpt>
      <trkpt lat="44.77022" lon="1.60652">
        <ele>237.1</ele>
        <time>2011-03-20T10:33:48Z</time>
      </trkpt>
      <trkpt lat="44.77017" lon="1.60659">
        <ele>238.54</ele>
        <time>2011-03-20T10:33:54Z</time>
      </trkpt>
      <trkpt lat="44.77017" lon="1.6066">
        <ele>238.06</ele>
        <time>2011-03-20T10:33:55Z</time>
      </trkpt>
      <trkpt lat="44.77014" lon="1.60666">
        <ele>238.54</ele>
        <time>2011-03-20T10:33:59Z</time>
      </trkpt>
      <trkpt lat="44.77008" lon="1.60672">
        <ele>238.06</ele>
        <time>2011-03-20T10:34:05Z</time>
      </trkpt>
      <trkpt lat="44.77002" lon="1.60683">
        <ele>239.51</ele>
        <time>2011-03-20T10:34:11Z</time>
      </trkpt>
      <trkpt lat="44.77001" lon="1.60685">
        <ele>240.95</ele>
        <time>2011-03-20T10:34:13Z</time>
      </trkpt>
      <trkpt lat="44.76996" lon="1.60693">
        <ele>241.91</ele>
        <time>2011-03-20T10:34:21Z</time>
      </trkpt>
      <trkpt lat="44.76989" lon="1.60701">
        <ele>241.43</ele>
        <time>2011-03-20T10:34:28Z</time>
      </trkpt>
      <trkpt lat="44.76979" lon="1.60715">
        <ele>243.35</ele>
        <time>2011-03-20T10:34:38Z</time>
      </trkpt>
      <trkpt lat="44.7697" lon="1.60719">
        <ele>245.27</ele>
        <time>2011-03-20T10:34:46Z</time>
      </trkpt>
      <trkpt lat="44.76969" lon="1.6072">
        <ele>245.75</ele>
        <time>2011-03-20T10:34:47Z</time>
      </trkpt>
      <trkpt lat="44.76963" lon="1.60728">
        <ele>247.68</ele>
        <time>2011-03-20T10:34:54Z</time>
      </trkpt>
      <trkpt lat="44.7696" lon="1.60729">
        <ele>248.64</ele>
        <time>2011-03-20T10:34:57Z</time>
      </trkpt>
      <trkpt lat="44.76954" lon="1.60733">
        <ele>250.56</ele>
        <time>2011-03-20T10:35:05Z</time>
      </trkpt>
      <trkpt lat="44.76946" lon="1.60738">
        <ele>250.56</ele>
        <time>2011-03-20T10:35:12Z</time>
      </trkpt>
      <trkpt lat="44.76932" lon="1.60741">
        <ele>252.48</ele>
        <time>2011-03-20T10:35:23Z</time>
      </trkpt>
      <trkpt lat="44.76921" lon="1.60745">
        <ele>252.96</ele>
        <time>2011-03-20T10:35:35Z</time>
      </trkpt>
      <trkpt lat="44.76907" lon="1.60756">
        <ele>253.93</ele>
        <time>2011-03-20T10:35:46Z</time>
      </trkpt>
      <trkpt lat="44.76895" lon="1.60769">
        <ele>254.89</ele>
        <time>2011-03-20T10:35:58Z</time>
      </trkpt>
      <trkpt lat="44.76893" lon="1.60769">
        <ele>255.37</ele>
        <time>2011-03-20T10:35:59Z</time>
      </trkpt>
      <trkpt lat="44.76881" lon="1.6078">
        <ele>256.81</ele>
        <time>2011-03-20T10:36:11Z</time>
      </trkpt>
      <trkpt lat="44.76874" lon="1.60793">
        <ele>257.77</ele>
        <time>2011-03-20T10:36:20Z</time>
      </trkpt>
      <trkpt lat="44.76866" lon="1.60812">
        <ele>259.69</ele>
        <time>2011-03-20T10:36:31Z</time>
      </trkpt>
      <trkpt lat="44.76857" lon="1.60834">
        <ele>260.65</ele>
        <time>2011-03-20T10:36:42Z</time>
      </trkpt>
      <trkpt lat="44.76857" lon="1.60837">
        <ele>260.65</ele>
        <time>2011-03-20T10:36:43Z</time>
      </trkpt>
      <trkpt lat="44.76854" lon="1.60841">
        <ele>261.14</ele>
        <time>2011-03-20T10:36:46Z</time>
      </trkpt>
      <trkpt lat="44.76852" lon="1.60864">
        <ele>262.1</ele>
        <time>2011-03-20T10:36:54Z</time>
      </trkpt>
      <trkpt lat="44.76852" lon="1.60872">
        <ele>261.62</ele>
        <time>2011-03-20T10:36:57Z</time>
      </trkpt>
      <trkpt lat="44.76849" lon="1.60885">
        <ele>260.65</ele>
        <time>2011-03-20T10:37:04Z</time>
      </trkpt>
      <trkpt lat="44.76845" lon="1.60895">
        <ele>260.65</ele>
        <time>2011-03-20T10:37:11Z</time>
      </trkpt>
      <trkpt lat="44.76844" lon="1.60902">
        <ele>261.62</ele>
        <time>2011-03-20T10:37:15Z</time>
      </trkpt>
      <trkpt lat="44.76841" lon="1.60912">
        <ele>261.62</ele>
        <time>2011-03-20T10:37:20Z</time>
      </trkpt>
      <trkpt lat="44.76836" lon="1.60927">
        <ele>259.21</ele>
        <time>2011-03-20T10:37:29Z</time>
      </trkpt>
      <trkpt lat="44.76834" lon="1.60938">
        <ele>259.69</ele>
        <time>2011-03-20T10:37:35Z</time>
      </trkpt>
      <trkpt lat="44.76832" lon="1.60943">
        <ele>259.69</ele>
        <time>2011-03-20T10:37:39Z</time>
      </trkpt>
      <trkpt lat="44.76827" lon="1.60957">
        <ele>260.65</ele>
        <time>2011-03-20T10:37:47Z</time>
      </trkpt>
      <trkpt lat="44.76826" lon="1.60963">
        <ele>259.69</ele>
        <time>2011-03-20T10:37:50Z</time>
      </trkpt>
      <trkpt lat="44.76823" lon="1.6097">
        <ele>259.69</ele>
        <time>2011-03-20T10:37:55Z</time>
      </trkpt>
      <trkpt lat="44.76823" lon="1.60974">
        <ele>259.69</ele>
        <time>2011-03-20T10:37:58Z</time>
      </trkpt>
      <trkpt lat="44.76823" lon="1.60981">
        <ele>260.65</ele>
        <time>2011-03-20T10:38:02Z</time>
      </trkpt>
      <trkpt lat="44.76818" lon="1.60998">
        <ele>262.1</ele>
        <time>2011-03-20T10:38:13Z</time>
      </trkpt>
      <trkpt lat="44.76818" lon="1.61005">
        <ele>262.58</ele>
        <time>2011-03-20T10:38:16Z</time>
      </trkpt>
      <trkpt lat="44.76815" lon="1.61013">
        <ele>262.1</ele>
        <time>2011-03-20T10:38:20Z</time>
      </trkpt>
      <trkpt lat="44.76812" lon="1.6102">
        <ele>262.58</ele>
        <time>2011-03-20T10:38:25Z</time>
      </trkpt>
      <trkpt lat="44.76808" lon="1.61027">
        <ele>263.54</ele>
        <time>2011-03-20T10:38:30Z</time>
      </trkpt>
      <trkpt lat="44.76801" lon="1.61036">
        <ele>264.5</ele>
        <time>2011-03-20T10:38:37Z</time>
      </trkpt>
      <trkpt lat="44.76792" lon="1.61041">
        <ele>265.46</ele>
        <time>2011-03-20T10:38:45Z</time>
      </trkpt>
      <trkpt lat="44.76785" lon="1.61045">
        <ele>266.9</ele>
        <time>2011-03-20T10:38:51Z</time>
      </trkpt>
      <trkpt lat="44.76779" lon="1.61046">
        <ele>265.46</ele>
        <time>2011-03-20T10:38:55Z</time>
      </trkpt>
      <trkpt lat="44.76776" lon="1.61047">
        <ele>269.31</ele>
        <time>2011-03-20T10:38:58Z</time>
      </trkpt>
      <trkpt lat="44.76774" lon="1.61047">
        <ele>269.31</ele>
        <time>2011-03-20T10:38:59Z</time>
      </trkpt>
      <trkpt lat="44.76767" lon="1.61045">
        <ele>268.83</ele>
        <time>2011-03-20T10:39:05Z</time>
      </trkpt>
      <trkpt lat="44.76759" lon="1.61038">
        <ele>268.83</ele>
        <time>2011-03-20T10:39:12Z</time>
      </trkpt>
      <trkpt lat="44.76757" lon="1.61037">
        <ele>268.83</ele>
        <time>2011-03-20T10:39:13Z</time>
      </trkpt>
      <trkpt lat="44.76747" lon="1.61028">
        <ele>268.83</ele>
        <time>2011-03-20T10:39:21Z</time>
      </trkpt>
      <trkpt lat="44.76743" lon="1.61026">
        <ele>269.79</ele>
        <time>2011-03-20T10:39:25Z</time>
      </trkpt>
      <trkpt lat="44.76736" lon="1.61021">
        <ele>272.19</ele>
        <time>2011-03-20T10:39:31Z</time>
      </trkpt>
      <trkpt lat="44.76725" lon="1.61016">
        <ele>273.15</ele>
        <time>2011-03-20T10:39:40Z</time>
      </trkpt>
      <trkpt lat="44.76716" lon="1.61015">
        <ele>274.11</ele>
        <time>2011-03-20T10:39:48Z</time>
      </trkpt>
      <trkpt lat="44.76708" lon="1.61016">
        <ele>275.07</ele>
        <time>2011-03-20T10:39:54Z</time>
      </trkpt>
      <trkpt lat="44.76696" lon="1.61023">
        <ele>276.04</ele>
        <time>2011-03-20T10:40:03Z</time>
      </trkpt>
      <trkpt lat="44.76689" lon="1.61028">
        <ele>276.52</ele>
        <time>2011-03-20T10:40:10Z</time>
      </trkpt>
      <trkpt lat="44.76682" lon="1.61034">
        <ele>277.48</ele>
        <time>2011-03-20T10:40:16Z</time>
      </trkpt>
      <trkpt lat="44.76676" lon="1.61045">
        <ele>278.44</ele>
        <time>2011-03-20T10:40:24Z</time>
      </trkpt>
      <trkpt lat="44.76673" lon="1.6105">
        <ele>278.92</ele>
        <time>2011-03-20T10:40:28Z</time>
      </trkpt>
      <trkpt lat="44.76672" lon="1.61056">
        <ele>280.36</ele>
        <time>2011-03-20T10:40:31Z</time>
      </trkpt>
      <trkpt lat="44.76669" lon="1.61064">
        <ele>280.84</ele>
        <time>2011-03-20T10:40:35Z</time>
      </trkpt>
      <trkpt lat="44.7667" lon="1.61073">
        <ele>284.21</ele>
        <time>2011-03-20T10:40:39Z</time>
      </trkpt>
      <trkpt lat="44.76669" lon="1.61076">
        <ele>284.21</ele>
        <time>2011-03-20T10:40:41Z</time>
      </trkpt>
      <trkpt lat="44.76667" lon="1.61092">
        <ele>284.21</ele>
        <time>2011-03-20T10:40:50Z</time>
      </trkpt>
      <trkpt lat="44.76668" lon="1.61101">
        <ele>283.73</ele>
        <time>2011-03-20T10:40:57Z</time>
      </trkpt>
      <trkpt lat="44.76668" lon="1.61107">
        <ele>283.25</ele>
        <time>2011-03-20T10:41:00Z</time>
      </trkpt>
      <trkpt lat="44.76664" lon="1.61119">
        <ele>284.21</ele>
        <time>2011-03-20T10:41:06Z</time>
      </trkpt>
      <trkpt lat="44.76664" lon="1.61126">
        <ele>283.73</ele>
        <time>2011-03-20T10:41:09Z</time>
      </trkpt>
      <trkpt lat="44.76663" lon="1.6114">
        <ele>283.25</ele>
        <time>2011-03-20T10:41:17Z</time>
      </trkpt>
      <trkpt lat="44.76663" lon="1.61146">
        <ele>282.77</ele>
        <time>2011-03-20T10:41:20Z</time>
      </trkpt>
      <trkpt lat="44.76664" lon="1.61151">
        <ele>283.25</ele>
        <time>2011-03-20T10:41:23Z</time>
      </trkpt>
      <trkpt lat="44.76664" lon="1.6116">
        <ele>284.21</ele>
        <time>2011-03-20T10:41:27Z</time>
      </trkpt>
      <trkpt lat="44.76665" lon="1.61174">
        <ele>284.21</ele>
        <time>2011-03-20T10:41:34Z</time>
      </trkpt>
      <trkpt lat="44.76665" lon="1.61179">
        <ele>282.28</ele>
        <time>2011-03-20T10:41:38Z</time>
      </trkpt>
      <trkpt lat="44.76664" lon="1.61188">
        <ele>284.69</ele>
        <time>2011-03-20T10:41:42Z</time>
      </trkpt>
      <trkpt lat="44.76667" lon="1.61193">
        <ele>284.69</ele>
        <time>2011-03-20T10:41:46Z</time>
      </trkpt>
      <trkpt lat="44.76667" lon="1.61201">
        <ele>286.13</ele>
        <time>2011-03-20T10:41:50Z</time>
      </trkpt>
      <trkpt lat="44.76668" lon="1.61213">
        <ele>286.13</ele>
        <time>2011-03-20T10:41:56Z</time>
      </trkpt>
      <trkpt lat="44.76669" lon="1.61219">
        <ele>285.65</ele>
        <time>2011-03-20T10:41:59Z</time>
      </trkpt>
      <trkpt lat="44.7667" lon="1.61234">
        <ele>286.61</ele>
        <time>2011-03-20T10:42:05Z</time>
      </trkpt>
      <trkpt lat="44.76671" lon="1.61246">
        <ele>286.13</ele>
        <time>2011-03-20T10:42:11Z</time>
      </trkpt>
      <trkpt lat="44.76671" lon="1.61261">
        <ele>284.69</ele>
        <time>2011-03-20T10:42:19Z</time>
      </trkpt>
      <trkpt lat="44.76672" lon="1.61264">
        <ele>285.17</ele>
        <time>2011-03-20T10:42:20Z</time>
      </trkpt>
      <trkpt lat="44.76672" lon="1.61267">
        <ele>284.69</ele>
        <time>2011-03-20T10:42:22Z</time>
      </trkpt>
      <trkpt lat="44.76675" lon="1.61278">
        <ele>284.21</ele>
        <time>2011-03-20T10:42:28Z</time>
      </trkpt>
      <trkpt lat="44.76676" lon="1.61288">
        <ele>286.61</ele>
        <time>2011-03-20T10:42:35Z</time>
      </trkpt>
      <trkpt lat="44.76674" lon="1.61296">
        <ele>285.65</ele>
        <time>2011-03-20T10:42:40Z</time>
      </trkpt>
      <trkpt lat="44.76676" lon="1.61304">
        <ele>288.05</ele>
        <time>2011-03-20T10:42:44Z</time>
      </trkpt>
      <trkpt lat="44.76679" lon="1.61319">
        <ele>286.61</ele>
        <time>2011-03-20T10:42:50Z</time>
      </trkpt>
      <trkpt lat="44.76679" lon="1.6132">
        <ele>286.61</ele>
        <time>2011-03-20T10:42:51Z</time>
      </trkpt>
      <trkpt lat="44.76679" lon="1.61323">
        <ele>288.05</ele>
        <time>2011-03-20T10:42:53Z</time>
      </trkpt>
      <trkpt lat="44.76679" lon="1.61334">
        <ele>286.61</ele>
        <time>2011-03-20T10:42:58Z</time>
      </trkpt>
      <trkpt lat="44.7668" lon="1.61337">
        <ele>289.01</ele>
        <time>2011-03-20T10:43:00Z</time>
      </trkpt>
      <trkpt lat="44.76682" lon="1.61353">
        <ele>289.97</ele>
        <time>2011-03-20T10:43:08Z</time>
      </trkpt>
      <trkpt lat="44.76684" lon="1.61365">
        <ele>290.46</ele>
        <time>2011-03-20T10:43:14Z</time>
      </trkpt>
      <trkpt lat="44.76683" lon="1.61378">
        <ele>290.46</ele>
        <time>2011-03-20T10:43:22Z</time>
      </trkpt>
      <trkpt lat="44.76683" lon="1.61382">
        <ele>290.94</ele>
        <time>2011-03-20T10:43:24Z</time>
      </trkpt>
      <trkpt lat="44.76686" lon="1.61392">
        <ele>290.94</ele>
        <time>2011-03-20T10:43:29Z</time>
      </trkpt>
      <trkpt lat="44.76685" lon="1.61401">
        <ele>291.42</ele>
        <time>2011-03-20T10:43:33Z</time>
      </trkpt>
      <trkpt lat="44.76684" lon="1.61412">
        <ele>292.38</ele>
        <time>2011-03-20T10:43:37Z</time>
      </trkpt>
      <trkpt lat="44.76683" lon="1.61421">
        <ele>292.86</ele>
        <time>2011-03-20T10:43:41Z</time>
      </trkpt>
      <trkpt lat="44.76683" lon="1.61428">
        <ele>292.38</ele>
        <time>2011-03-20T10:43:45Z</time>
      </trkpt>
      <trkpt lat="44.76678" lon="1.61439">
        <ele>292.38</ele>
        <time>2011-03-20T10:43:51Z</time>
      </trkpt>
      <trkpt lat="44.76673" lon="1.6145">
        <ele>295.26</ele>
        <time>2011-03-20T10:43:56Z</time>
      </trkpt>
      <trkpt lat="44.76674" lon="1.61453">
        <ele>294.78</ele>
        <time>2011-03-20T10:43:58Z</time>
      </trkpt>
      <trkpt lat="44.76675" lon="1.61459">
        <ele>295.26</ele>
        <time>2011-03-20T10:44:02Z</time>
      </trkpt>
      <trkpt lat="44.76672" lon="1.61469">
        <ele>295.74</ele>
        <time>2011-03-20T10:44:08Z</time>
      </trkpt>
      <trkpt lat="44.76674" lon="1.61473">
        <ele>295.26</ele>
        <time>2011-03-20T10:44:17Z</time>
      </trkpt>
      <trkpt lat="44.76674" lon="1.61473">
        <ele>296.22</ele>
        <time>2011-03-20T10:44:32Z</time>
      </trkpt>
      <trkpt lat="44.76674" lon="1.61473">
        <ele>294.3</ele>
        <time>2011-03-20T10:45:30Z</time>
      </trkpt>
      <trkpt lat="44.76674" lon="1.61473">
        <ele>297.67</ele>
        <time>2011-03-20T10:45:32Z</time>
      </trkpt>
      <trkpt lat="44.76674" lon="1.61473">
        <ele>296.7</ele>
        <time>2011-03-20T10:45:33Z</time>
      </trkpt>
      <trkpt lat="44.76674" lon="1.61473">
        <ele>296.7</ele>
        <time>2011-03-20T10:45:39Z</time>
      </trkpt>
      <trkpt lat="44.76675" lon="1.61472">
        <ele>296.7</ele>
        <time>2011-03-20T10:45:46Z</time>
      </trkpt>
      <trkpt lat="44.76674" lon="1.61471">
        <ele>296.7</ele>
        <time>2011-03-20T10:46:09Z</time>
      </trkpt>
      <trkpt lat="44.76676" lon="1.6147">
        <ele>297.18</ele>
        <time>2011-03-20T10:46:23Z</time>
      </trkpt>
      <trkpt lat="44.76677" lon="1.61472">
        <ele>298.15</ele>
        <time>2011-03-20T10:46:33Z</time>
      </trkpt>
      <trkpt lat="44.76679" lon="1.61477">
        <ele>298.15</ele>
        <time>2011-03-20T10:46:57Z</time>
      </trkpt>
      <trkpt lat="44.76682" lon="1.61481">
        <ele>297.67</ele>
        <time>2011-03-20T10:47:03Z</time>
      </trkpt>
      <trkpt lat="44.76697" lon="1.61486">
        <ele>295.74</ele>
        <time>2011-03-20T10:47:13Z</time>
      </trkpt>
      <trkpt lat="44.76713" lon="1.61492">
        <ele>295.74</ele>
        <time>2011-03-20T10:47:23Z</time>
      </trkpt>
      <trkpt lat="44.76714" lon="1.61493">
        <ele>297.18</ele>
        <time>2011-03-20T10:47:24Z</time>
      </trkpt>
      <trkpt lat="44.76724" lon="1.61495">
        <ele>297.18</ele>
        <time>2011-03-20T10:47:29Z</time>
      </trkpt>
      <trkpt lat="44.7673" lon="1.61491">
        <ele>296.22</ele>
        <time>2011-03-20T10:47:34Z</time>
      </trkpt>
      <trkpt lat="44.7674" lon="1.6149">
        <ele>295.74</ele>
        <time>2011-03-20T10:47:39Z</time>
      </trkpt>
      <trkpt lat="44.76756" lon="1.61493">
        <ele>294.3</ele>
        <time>2011-03-20T10:47:48Z</time>
      </trkpt>
      <trkpt lat="44.76758" lon="1.61494">
        <ele>295.26</ele>
        <time>2011-03-20T10:47:49Z</time>
      </trkpt>
      <trkpt lat="44.76766" lon="1.61492">
        <ele>295.26</ele>
        <time>2011-03-20T10:47:54Z</time>
      </trkpt>
      <trkpt lat="44.76769" lon="1.61495">
        <ele>294.78</ele>
        <time>2011-03-20T10:47:56Z</time>
      </trkpt>
      <trkpt lat="44.76777" lon="1.61495">
        <ele>294.78</ele>
        <time>2011-03-20T10:48:03Z</time>
      </trkpt>
      <trkpt lat="44.76778" lon="1.61495">
        <ele>293.82</ele>
        <time>2011-03-20T10:48:04Z</time>
      </trkpt>
      <trkpt lat="44.76787" lon="1.61498">
        <ele>294.78</ele>
        <time>2011-03-20T10:48:10Z</time>
      </trkpt>
      <trkpt lat="44.76796" lon="1.61497">
        <ele>292.86</ele>
        <time>2011-03-20T10:48:17Z</time>
      </trkpt>
      <trkpt lat="44.76802" lon="1.61499">
        <ele>293.34</ele>
        <time>2011-03-20T10:48:21Z</time>
      </trkpt>
      <trkpt lat="44.76809" lon="1.615">
        <ele>293.82</ele>
        <time>2011-03-20T10:48:25Z</time>
      </trkpt>
      <trkpt lat="44.76818" lon="1.61501">
        <ele>292.38</ele>
        <time>2011-03-20T10:48:30Z</time>
      </trkpt>
      <trkpt lat="44.76825" lon="1.61503">
        <ele>291.9</ele>
        <time>2011-03-20T10:48:34Z</time>
      </trkpt>
      <trkpt lat="44.76838" lon="1.61508">
        <ele>291.9</ele>
        <time>2011-03-20T10:48:41Z</time>
      </trkpt>
      <trkpt lat="44.76849" lon="1.61514">
        <ele>291.9</ele>
        <time>2011-03-20T10:48:47Z</time>
      </trkpt>
      <trkpt lat="44.76858" lon="1.61516">
        <ele>289.49</ele>
        <time>2011-03-20T10:48:54Z</time>
      </trkpt>
      <trkpt lat="44.76868" lon="1.61519">
        <ele>289.49</ele>
        <time>2011-03-20T10:49:00Z</time>
      </trkpt>
      <trkpt lat="44.76874" lon="1.61521">
        <ele>288.53</ele>
        <time>2011-03-20T10:49:06Z</time>
      </trkpt>
      <trkpt lat="44.76883" lon="1.61523">
        <ele>288.53</ele>
        <time>2011-03-20T10:49:14Z</time>
      </trkpt>
      <trkpt lat="44.76891" lon="1.61526">
        <ele>289.01</ele>
        <time>2011-03-20T10:49:21Z</time>
      </trkpt>
      <trkpt lat="44.76899" lon="1.61531">
        <ele>288.05</ele>
        <time>2011-03-20T10:49:27Z</time>
      </trkpt>
      <trkpt lat="44.76907" lon="1.61532">
        <ele>288.53</ele>
        <time>2011-03-20T10:49:31Z</time>
      </trkpt>
      <trkpt lat="44.76912" lon="1.61533">
        <ele>286.61</ele>
        <time>2011-03-20T10:49:34Z</time>
      </trkpt>
      <trkpt lat="44.76923" lon="1.61533">
        <ele>286.61</ele>
        <time>2011-03-20T10:49:40Z</time>
      </trkpt>
      <trkpt lat="44.76927" lon="1.61534">
        <ele>287.57</ele>
        <time>2011-03-20T10:49:43Z</time>
      </trkpt>
      <trkpt lat="44.76931" lon="1.61533">
        <ele>285.65</ele>
        <time>2011-03-20T10:49:45Z</time>
      </trkpt>
      <trkpt lat="44.76942" lon="1.61535">
        <ele>286.61</ele>
        <time>2011-03-20T10:49:51Z</time>
      </trkpt>
      <trkpt lat="44.76947" lon="1.61533">
        <ele>286.61</ele>
        <time>2011-03-20T10:49:53Z</time>
      </trkpt>
      <trkpt lat="44.7696" lon="1.61535">
        <ele>285.65</ele>
        <time>2011-03-20T10:49:59Z</time>
      </trkpt>
      <trkpt lat="44.76972" lon="1.61536">
        <ele>284.21</ele>
        <time>2011-03-20T10:50:05Z</time>
      </trkpt>
      <trkpt lat="44.76982" lon="1.61538">
        <ele>284.21</ele>
        <time>2011-03-20T10:50:10Z</time>
      </trkpt>
      <trkpt lat="44.7699" lon="1.61541">
        <ele>284.69</ele>
        <time>2011-03-20T10:50:14Z</time>
      </trkpt>
      <trkpt lat="44.76991" lon="1.6154">
        <ele>284.21</ele>
        <time>2011-03-20T10:50:15Z</time>
      </trkpt>
      <trkpt lat="44.77002" lon="1.61539">
        <ele>283.25</ele>
        <time>2011-03-20T10:50:21Z</time>
      </trkpt>
      <trkpt lat="44.77009" lon="1.61542">
        <ele>282.77</ele>
        <time>2011-03-20T10:50:28Z</time>
      </trkpt>
      <trkpt lat="44.77014" lon="1.61543">
        <ele>281.8</ele>
        <time>2011-03-20T10:50:34Z</time>
      </trkpt>
      <trkpt lat="44.77015" lon="1.61543">
        <ele>282.28</ele>
        <time>2011-03-20T10:50:35Z</time>
      </trkpt>
      <trkpt lat="44.77027" lon="1.61547">
        <ele>282.28</ele>
        <time>2011-03-20T10:50:42Z</time>
      </trkpt>
      <trkpt lat="44.77037" lon="1.61547">
        <ele>282.28</ele>
        <time>2011-03-20T10:50:47Z</time>
      </trkpt>
      <trkpt lat="44.77044" lon="1.61552">
        <ele>282.28</ele>
        <time>2011-03-20T10:50:51Z</time>
      </trkpt>
      <trkpt lat="44.7705" lon="1.61552">
        <ele>279.88</ele>
        <time>2011-03-20T10:50:56Z</time>
      </trkpt>
      <trkpt lat="44.77054" lon="1.61555">
        <ele>280.84</ele>
        <time>2011-03-20T10:50:59Z</time>
      </trkpt>
      <trkpt lat="44.7706" lon="1.61556">
        <ele>279.88</ele>
        <time>2011-03-20T10:51:03Z</time>
      </trkpt>
      <trkpt lat="44.77071" lon="1.61559">
        <ele>278.92</ele>
        <time>2011-03-20T10:51:11Z</time>
      </trkpt>
      <trkpt lat="44.77081" lon="1.61561">
        <ele>279.4</ele>
        <time>2011-03-20T10:51:18Z</time>
      </trkpt>
      <trkpt lat="44.77099" lon="1.61563">
        <ele>278.92</ele>
        <time>2011-03-20T10:51:26Z</time>
      </trkpt>
      <trkpt lat="44.7711" lon="1.61566">
        <ele>277.96</ele>
        <time>2011-03-20T10:51:32Z</time>
      </trkpt>
      <trkpt lat="44.77116" lon="1.61567">
        <ele>279.4</ele>
        <time>2011-03-20T10:51:35Z</time>
      </trkpt>
      <trkpt lat="44.77119" lon="1.61565">
        <ele>280.36</ele>
        <time>2011-03-20T10:51:38Z</time>
      </trkpt>
      <trkpt lat="44.7712" lon="1.6156">
        <ele>279.4</ele>
        <time>2011-03-20T10:51:41Z</time>
      </trkpt>
      <trkpt lat="44.77119" lon="1.61548">
        <ele>279.4</ele>
        <time>2011-03-20T10:51:47Z</time>
      </trkpt>
      <trkpt lat="44.7712" lon="1.61546">
        <ele>279.88</ele>
        <time>2011-03-20T10:51:48Z</time>
      </trkpt>
      <trkpt lat="44.77125" lon="1.61543">
        <ele>279.88</ele>
        <time>2011-03-20T10:51:51Z</time>
      </trkpt>
      <trkpt lat="44.77132" lon="1.6154">
        <ele>280.36</ele>
        <time>2011-03-20T10:51:55Z</time>
      </trkpt>
      <trkpt lat="44.7714" lon="1.61535">
        <ele>280.84</ele>
        <time>2011-03-20T10:52:01Z</time>
      </trkpt>
      <trkpt lat="44.77151" lon="1.6153">
        <ele>279.88</ele>
        <time>2011-03-20T10:52:07Z</time>
      </trkpt>
      <trkpt lat="44.77163" lon="1.61524">
        <ele>279.4</ele>
        <time>2011-03-20T10:52:14Z</time>
      </trkpt>
      <trkpt lat="44.7717" lon="1.61522">
        <ele>278.92</ele>
        <time>2011-03-20T10:52:19Z</time>
      </trkpt>
      <trkpt lat="44.77172" lon="1.61523">
        <ele>278.92</ele>
        <time>2011-03-20T10:52:21Z</time>
      </trkpt>
      <trkpt lat="44.7718" lon="1.61519">
        <ele>278.92</ele>
        <time>2011-03-20T10:52:28Z</time>
      </trkpt>
      <trkpt lat="44.77188" lon="1.61517">
        <ele>278.44</ele>
        <time>2011-03-20T10:52:34Z</time>
      </trkpt>
      <trkpt lat="44.77193" lon="1.61516">
        <ele>278.44</ele>
        <time>2011-03-20T10:52:37Z</time>
      </trkpt>
      <trkpt lat="44.77199" lon="1.61515">
        <ele>278.92</ele>
        <time>2011-03-20T10:52:41Z</time>
      </trkpt>
      <trkpt lat="44.77211" lon="1.61509">
        <ele>277.48</ele>
        <time>2011-03-20T10:52:48Z</time>
      </trkpt>
      <trkpt lat="44.77223" lon="1.61503">
        <ele>276.52</ele>
        <time>2011-03-20T10:52:54Z</time>
      </trkpt>
      <trkpt lat="44.77234" lon="1.61496">
        <ele>278.44</ele>
        <time>2011-03-20T10:53:00Z</time>
      </trkpt>
      <trkpt lat="44.77241" lon="1.6149">
        <ele>278.44</ele>
        <time>2011-03-20T10:53:06Z</time>
      </trkpt>
      <trkpt lat="44.7725" lon="1.61486">
        <ele>276.52</ele>
        <time>2011-03-20T10:53:14Z</time>
      </trkpt>
      <trkpt lat="44.77251" lon="1.61484">
        <ele>276.52</ele>
        <time>2011-03-20T10:53:15Z</time>
      </trkpt>
      <trkpt lat="44.7726" lon="1.61477">
        <ele>276.52</ele>
        <time>2011-03-20T10:53:22Z</time>
      </trkpt>
      <trkpt lat="44.77261" lon="1.61476">
        <ele>276.52</ele>
        <time>2011-03-20T10:53:23Z</time>
      </trkpt>
      <trkpt lat="44.77271" lon="1.61468">
        <ele>277.96</ele>
        <time>2011-03-20T10:53:30Z</time>
      </trkpt>
      <trkpt lat="44.77279" lon="1.61462">
        <ele>276.52</ele>
        <time>2011-03-20T10:53:35Z</time>
      </trkpt>
      <trkpt lat="44.77282" lon="1.61461">
        <ele>276.04</ele>
        <time>2011-03-20T10:53:36Z</time>
      </trkpt>
      <trkpt lat="44.77293" lon="1.61454">
        <ele>276.52</ele>
        <time>2011-03-20T10:53:42Z</time>
      </trkpt>
      <trkpt lat="44.77302" lon="1.61451">
        <ele>277</ele>
        <time>2011-03-20T10:53:47Z</time>
      </trkpt>
      <trkpt lat="44.77307" lon="1.61448">
        <ele>275.56</ele>
        <time>2011-03-20T10:53:51Z</time>
      </trkpt>
      <trkpt lat="44.77309" lon="1.61447">
        <ele>275.56</ele>
        <time>2011-03-20T10:53:52Z</time>
      </trkpt>
      <trkpt lat="44.77316" lon="1.61443">
        <ele>276.04</ele>
        <time>2011-03-20T10:53:58Z</time>
      </trkpt>
      <trkpt lat="44.77333" lon="1.61433">
        <ele>276.52</ele>
        <time>2011-03-20T10:54:11Z</time>
      </trkpt>
      <trkpt lat="44.77339" lon="1.6143">
        <ele>275.07</ele>
        <time>2011-03-20T10:54:16Z</time>
      </trkpt>
      <trkpt lat="44.77344" lon="1.61426">
        <ele>275.07</ele>
        <time>2011-03-20T10:54:21Z</time>
      </trkpt>
      <trkpt lat="44.77352" lon="1.61423">
        <ele>275.07</ele>
        <time>2011-03-20T10:54:26Z</time>
      </trkpt>
      <trkpt lat="44.77361" lon="1.61419">
        <ele>274.11</ele>
        <time>2011-03-20T10:54:31Z</time>
      </trkpt>
      <trkpt lat="44.77369" lon="1.61415">
        <ele>272.67</ele>
        <time>2011-03-20T10:54:35Z</time>
      </trkpt>
      <trkpt lat="44.77378" lon="1.61408">
        <ele>273.63</ele>
        <time>2011-03-20T10:54:40Z</time>
      </trkpt>
      <trkpt lat="44.7738" lon="1.61408">
        <ele>272.67</ele>
        <time>2011-03-20T10:54:41Z</time>
      </trkpt>
      <trkpt lat="44.7739" lon="1.61402">
        <ele>274.11</ele>
        <time>2011-03-20T10:54:47Z</time>
      </trkpt>
      <trkpt lat="44.77397" lon="1.61396">
        <ele>273.15</ele>
        <time>2011-03-20T10:54:52Z</time>
      </trkpt>
      <trkpt lat="44.77405" lon="1.61392">
        <ele>273.15</ele>
        <time>2011-03-20T10:54:58Z</time>
      </trkpt>
      <trkpt lat="44.77412" lon="1.61389">
        <ele>272.67</ele>
        <time>2011-03-20T10:55:02Z</time>
      </trkpt>
      <trkpt lat="44.77421" lon="1.61386">
        <ele>272.19</ele>
        <time>2011-03-20T10:55:09Z</time>
      </trkpt>
      <trkpt lat="44.77428" lon="1.61383">
        <ele>271.23</ele>
        <time>2011-03-20T10:55:15Z</time>
      </trkpt>
      <trkpt lat="44.77436" lon="1.61378">
        <ele>270.75</ele>
        <time>2011-03-20T10:55:22Z</time>
      </trkpt>
      <trkpt lat="44.77437" lon="1.61377">
        <ele>270.75</ele>
        <time>2011-03-20T10:55:23Z</time>
      </trkpt>
      <trkpt lat="44.7745" lon="1.61371">
        <ele>270.75</ele>
        <time>2011-03-20T10:55:31Z</time>
      </trkpt>
      <trkpt lat="44.7746" lon="1.61363">
        <ele>270.27</ele>
        <time>2011-03-20T10:55:37Z</time>
      </trkpt>
      <trkpt lat="44.77472" lon="1.61355">
        <ele>269.79</ele>
        <time>2011-03-20T10:55:44Z</time>
      </trkpt>
      <trkpt lat="44.77481" lon="1.61351">
        <ele>268.83</ele>
        <time>2011-03-20T10:55:50Z</time>
      </trkpt>
      <trkpt lat="44.77491" lon="1.61347">
        <ele>268.35</ele>
        <time>2011-03-20T10:55:56Z</time>
      </trkpt>
      <trkpt lat="44.77498" lon="1.61345">
        <ele>269.31</ele>
        <time>2011-03-20T10:56:01Z</time>
      </trkpt>
      <trkpt lat="44.77503" lon="1.61345">
        <ele>267.86</ele>
        <time>2011-03-20T10:56:04Z</time>
      </trkpt>
      <trkpt lat="44.77511" lon="1.61343">
        <ele>268.83</ele>
        <time>2011-03-20T10:56:10Z</time>
      </trkpt>
      <trkpt lat="44.77515" lon="1.6134">
        <ele>265.94</ele>
        <time>2011-03-20T10:56:12Z</time>
      </trkpt>
      <trkpt lat="44.77522" lon="1.61339">
        <ele>265.46</ele>
        <time>2011-03-20T10:56:18Z</time>
      </trkpt>
      <trkpt lat="44.77529" lon="1.61335">
        <ele>264.5</ele>
        <time>2011-03-20T10:56:24Z</time>
      </trkpt>
      <trkpt lat="44.77539" lon="1.6133">
        <ele>264.5</ele>
        <time>2011-03-20T10:56:31Z</time>
      </trkpt>
      <trkpt lat="44.77553" lon="1.61323">
        <ele>264.5</ele>
        <time>2011-03-20T10:56:38Z</time>
      </trkpt>
      <trkpt lat="44.77562" lon="1.61315">
        <ele>263.06</ele>
        <time>2011-03-20T10:56:45Z</time>
      </trkpt>
      <trkpt lat="44.77566" lon="1.61311">
        <ele>262.1</ele>
        <time>2011-03-20T10:56:48Z</time>
      </trkpt>
      <trkpt lat="44.7757" lon="1.61306">
        <ele>262.58</ele>
        <time>2011-03-20T10:56:52Z</time>
      </trkpt>
      <trkpt lat="44.77577" lon="1.61294">
        <ele>260.65</ele>
        <time>2011-03-20T10:57:00Z</time>
      </trkpt>
      <trkpt lat="44.77583" lon="1.61286">
        <ele>260.65</ele>
        <time>2011-03-20T10:57:05Z</time>
      </trkpt>
      <trkpt lat="44.77588" lon="1.61277">
        <ele>259.69</ele>
        <time>2011-03-20T10:57:11Z</time>
      </trkpt>
      <trkpt lat="44.77593" lon="1.61267">
        <ele>258.25</ele>
        <time>2011-03-20T10:57:18Z</time>
      </trkpt>
      <trkpt lat="44.77602" lon="1.61264">
        <ele>256.81</ele>
        <time>2011-03-20T10:57:23Z</time>
      </trkpt>
      <trkpt lat="44.77616" lon="1.6126">
        <ele>255.85</ele>
        <time>2011-03-20T10:57:30Z</time>
      </trkpt>
      <trkpt lat="44.77623" lon="1.61256">
        <ele>254.41</ele>
        <time>2011-03-20T10:57:36Z</time>
      </trkpt>
      <trkpt lat="44.77627" lon="1.61254">
        <ele>254.41</ele>
        <time>2011-03-20T10:57:39Z</time>
      </trkpt>
      <trkpt lat="44.77637" lon="1.61255">
        <ele>252.48</ele>
        <time>2011-03-20T10:57:46Z</time>
      </trkpt>
      <trkpt lat="44.77639" lon="1.61254">
        <ele>252</ele>
        <time>2011-03-20T10:57:48Z</time>
      </trkpt>
      <trkpt lat="44.77653" lon="1.61261">
        <ele>250.08</ele>
        <time>2011-03-20T10:57:57Z</time>
      </trkpt>
      <trkpt lat="44.7766" lon="1.61265">
        <ele>249.12</ele>
        <time>2011-03-20T10:58:02Z</time>
      </trkpt>
      <trkpt lat="44.7766" lon="1.61266">
        <ele>249.6</ele>
        <time>2011-03-20T10:58:03Z</time>
      </trkpt>
      <trkpt lat="44.7767" lon="1.61276">
        <ele>248.16</ele>
        <time>2011-03-20T10:58:09Z</time>
      </trkpt>
      <trkpt lat="44.77674" lon="1.6128">
        <ele>247.2</ele>
        <time>2011-03-20T10:58:13Z</time>
      </trkpt>
      <trkpt lat="44.7768" lon="1.61286">
        <ele>246.23</ele>
        <time>2011-03-20T10:58:19Z</time>
      </trkpt>
      <trkpt lat="44.77687" lon="1.61294">
        <ele>244.79</ele>
        <time>2011-03-20T10:58:25Z</time>
      </trkpt>
      <trkpt lat="44.77692" lon="1.61296">
        <ele>245.27</ele>
        <time>2011-03-20T10:58:28Z</time>
      </trkpt>
      <trkpt lat="44.77699" lon="1.61302">
        <ele>244.79</ele>
        <time>2011-03-20T10:58:34Z</time>
      </trkpt>
      <trkpt lat="44.77701" lon="1.61309">
        <ele>244.31</ele>
        <time>2011-03-20T10:58:39Z</time>
      </trkpt>
      <trkpt lat="44.77704" lon="1.61313">
        <ele>243.83</ele>
        <time>2011-03-20T10:58:42Z</time>
      </trkpt>
      <trkpt lat="44.77708" lon="1.61327">
        <ele>241.91</ele>
        <time>2011-03-20T10:58:49Z</time>
      </trkpt>
      <trkpt lat="44.77711" lon="1.6133">
        <ele>241.91</ele>
        <time>2011-03-20T10:58:51Z</time>
      </trkpt>
      <trkpt lat="44.77715" lon="1.61343">
        <ele>240.47</ele>
        <time>2011-03-20T10:58:59Z</time>
      </trkpt>
      <trkpt lat="44.77715" lon="1.61346">
        <ele>239.99</ele>
        <time>2011-03-20T10:59:00Z</time>
      </trkpt>
      <trkpt lat="44.77717" lon="1.6136">
        <ele>238.54</ele>
        <time>2011-03-20T10:59:07Z</time>
      </trkpt>
      <trkpt lat="44.77717" lon="1.61365">
        <ele>237.1</ele>
        <time>2011-03-20T10:59:10Z</time>
      </trkpt>
      <trkpt lat="44.77721" lon="1.61375">
        <ele>236.62</ele>
        <time>2011-03-20T10:59:16Z</time>
      </trkpt>
      <trkpt lat="44.77723" lon="1.61384">
        <ele>235.66</ele>
        <time>2011-03-20T10:59:21Z</time>
      </trkpt>
      <trkpt lat="44.77726" lon="1.61387">
        <ele>234.7</ele>
        <time>2011-03-20T10:59:23Z</time>
      </trkpt>
      <trkpt lat="44.7773" lon="1.61398">
        <ele>232.78</ele>
        <time>2011-03-20T10:59:30Z</time>
      </trkpt>
      <trkpt lat="44.77733" lon="1.61404">
        <ele>232.78</ele>
        <time>2011-03-20T10:59:37Z</time>
      </trkpt>
      <trkpt lat="44.77743" lon="1.61411">
        <ele>229.89</ele>
        <time>2011-03-20T10:59:42Z</time>
      </trkpt>
      <trkpt lat="44.77744" lon="1.61412">
        <ele>229.41</ele>
        <time>2011-03-20T10:59:43Z</time>
      </trkpt>
      <trkpt lat="44.77746" lon="1.61413">
        <ele>229.41</ele>
        <time>2011-03-20T10:59:44Z</time>
      </trkpt>
      <trkpt lat="44.77757" lon="1.61425">
        <ele>227.49</ele>
        <time>2011-03-20T10:59:51Z</time>
      </trkpt>
      <trkpt lat="44.77763" lon="1.61428">
        <ele>228.93</ele>
        <time>2011-03-20T10:59:56Z</time>
      </trkpt>
      <trkpt lat="44.77765" lon="1.61431">
        <ele>227.01</ele>
        <time>2011-03-20T10:59:59Z</time>
      </trkpt>
      <trkpt lat="44.77764" lon="1.61434">
        <ele>225.09</ele>
        <time>2011-03-20T11:00:01Z</time>
      </trkpt>
      <trkpt lat="44.77769" lon="1.61438">
        <ele>227.01</ele>
        <time>2011-03-20T11:00:05Z</time>
      </trkpt>
      <trkpt lat="44.77779" lon="1.61447">
        <ele>225.09</ele>
        <time>2011-03-20T11:00:14Z</time>
      </trkpt>
      <trkpt lat="44.77786" lon="1.61452">
        <ele>222.2</ele>
        <time>2011-03-20T11:00:21Z</time>
      </trkpt>
      <trkpt lat="44.77788" lon="1.61453">
        <ele>221.72</ele>
        <time>2011-03-20T11:00:22Z</time>
      </trkpt>
      <trkpt lat="44.77795" lon="1.61455">
        <ele>220.28</ele>
        <time>2011-03-20T11:00:31Z</time>
      </trkpt>
      <trkpt lat="44.77804" lon="1.61456">
        <ele>217.88</ele>
        <time>2011-03-20T11:00:38Z</time>
      </trkpt>
      <trkpt lat="44.77811" lon="1.61451">
        <ele>215.47</ele>
        <time>2011-03-20T11:00:43Z</time>
      </trkpt>
      <trkpt lat="44.77812" lon="1.6145">
        <ele>215.95</ele>
        <time>2011-03-20T11:00:44Z</time>
      </trkpt>
      <trkpt lat="44.77822" lon="1.61444">
        <ele>217.88</ele>
        <time>2011-03-20T11:00:50Z</time>
      </trkpt>
      <trkpt lat="44.7783" lon="1.61443">
        <ele>219.32</ele>
        <time>2011-03-20T11:00:56Z</time>
      </trkpt>
      <trkpt lat="44.77832" lon="1.61442">
        <ele>219.32</ele>
        <time>2011-03-20T11:00:57Z</time>
      </trkpt>
      <trkpt lat="44.77843" lon="1.61436">
        <ele>217.88</ele>
        <time>2011-03-20T11:01:06Z</time>
      </trkpt>
      <trkpt lat="44.77846" lon="1.61433">
        <ele>215.47</ele>
        <time>2011-03-20T11:01:09Z</time>
      </trkpt>
      <trkpt lat="44.7785" lon="1.61433">
        <ele>217.4</ele>
        <time>2011-03-20T11:01:11Z</time>
      </trkpt>
      <trkpt lat="44.77855" lon="1.61428">
        <ele>216.43</ele>
        <time>2011-03-20T11:01:15Z</time>
      </trkpt>
      <trkpt lat="44.77857" lon="1.61427">
        <ele>217.4</ele>
        <time>2011-03-20T11:01:20Z</time>
      </trkpt>
      <trkpt lat="44.77866" lon="1.61421">
        <ele>215.95</ele>
        <time>2011-03-20T11:01:29Z</time>
      </trkpt>
      <trkpt lat="44.77874" lon="1.61417">
        <ele>213.07</ele>
        <time>2011-03-20T11:01:35Z</time>
      </trkpt>
      <trkpt lat="44.77881" lon="1.61416">
        <ele>212.11</ele>
        <time>2011-03-20T11:01:41Z</time>
      </trkpt>
      <trkpt lat="44.77889" lon="1.61416">
        <ele>210.67</ele>
        <time>2011-03-20T11:01:47Z</time>
      </trkpt>
      <trkpt lat="44.77904" lon="1.6142">
        <ele>210.67</ele>
        <time>2011-03-20T11:01:55Z</time>
      </trkpt>
      <trkpt lat="44.77923" lon="1.61421">
        <ele>208.74</ele>
        <time>2011-03-20T11:02:05Z</time>
      </trkpt>
      <trkpt lat="44.77929" lon="1.61416">
        <ele>209.22</ele>
        <time>2011-03-20T11:02:10Z</time>
      </trkpt>
      <trkpt lat="44.77944" lon="1.61416">
        <ele>207.3</ele>
        <time>2011-03-20T11:02:19Z</time>
      </trkpt>
      <trkpt lat="44.77949" lon="1.61416">
        <ele>206.34</ele>
        <time>2011-03-20T11:02:23Z</time>
      </trkpt>
      <trkpt lat="44.7796" lon="1.61413">
        <ele>205.86</ele>
        <time>2011-03-20T11:02:29Z</time>
      </trkpt>
      <trkpt lat="44.77963" lon="1.61413">
        <ele>205.86</ele>
        <time>2011-03-20T11:02:30Z</time>
      </trkpt>
      <trkpt lat="44.77973" lon="1.61414">
        <ele>203.94</ele>
        <time>2011-03-20T11:02:38Z</time>
      </trkpt>
      <trkpt lat="44.77973" lon="1.61415">
        <ele>203.94</ele>
        <time>2011-03-20T11:02:39Z</time>
      </trkpt>
      <trkpt lat="44.77985" lon="1.61423">
        <ele>203.46</ele>
        <time>2011-03-20T11:02:48Z</time>
      </trkpt>
      <trkpt lat="44.77986" lon="1.61424">
        <ele>204.9</ele>
        <time>2011-03-20T11:02:49Z</time>
      </trkpt>
      <trkpt lat="44.77996" lon="1.61434">
        <ele>202.49</ele>
        <time>2011-03-20T11:02:56Z</time>
      </trkpt>
      <trkpt lat="44.78" lon="1.61444">
        <ele>202.01</ele>
        <time>2011-03-20T11:03:02Z</time>
      </trkpt>
      <trkpt lat="44.78" lon="1.61449">
        <ele>202.01</ele>
        <time>2011-03-20T11:03:06Z</time>
      </trkpt>
      <trkpt lat="44.78002" lon="1.6146">
        <ele>201.05</ele>
        <time>2011-03-20T11:03:11Z</time>
      </trkpt>
      <trkpt lat="44.78005" lon="1.61472">
        <ele>200.57</ele>
        <time>2011-03-20T11:03:18Z</time>
      </trkpt>
      <trkpt lat="44.7801" lon="1.61484">
        <ele>199.61</ele>
        <time>2011-03-20T11:03:23Z</time>
      </trkpt>
      <trkpt lat="44.78014" lon="1.6149">
        <ele>199.13</ele>
        <time>2011-03-20T11:03:26Z</time>
      </trkpt>
      <trkpt lat="44.78014" lon="1.61494">
        <ele>198.17</ele>
        <time>2011-03-20T11:03:30Z</time>
      </trkpt>
      <trkpt lat="44.78008" lon="1.61514">
        <ele>198.65</ele>
        <time>2011-03-20T11:03:36Z</time>
      </trkpt>
      <trkpt lat="44.78007" lon="1.61521">
        <ele>196.25</ele>
        <time>2011-03-20T11:03:41Z</time>
      </trkpt>
      <trkpt lat="44.78008" lon="1.61532">
        <ele>196.73</ele>
        <time>2011-03-20T11:03:47Z</time>
      </trkpt>
      <trkpt lat="44.78005" lon="1.61541">
        <ele>197.21</ele>
        <time>2011-03-20T11:03:51Z</time>
      </trkpt>
      <trkpt lat="44.78008" lon="1.61545">
        <ele>195.77</ele>
        <time>2011-03-20T11:03:54Z</time>
      </trkpt>
      <trkpt lat="44.78008" lon="1.61554">
        <ele>194.8</ele>
        <time>2011-03-20T11:04:00Z</time>
      </trkpt>
      <trkpt lat="44.7802" lon="1.61567">
        <ele>195.77</ele>
        <time>2011-03-20T11:04:08Z</time>
      </trkpt>
      <trkpt lat="44.78021" lon="1.6157">
        <ele>194.32</ele>
        <time>2011-03-20T11:04:10Z</time>
      </trkpt>
      <trkpt lat="44.78025" lon="1.61574">
        <ele>195.28</ele>
        <time>2011-03-20T11:04:13Z</time>
      </trkpt>
      <trkpt lat="44.78032" lon="1.6158">
        <ele>194.32</ele>
        <time>2011-03-20T11:04:17Z</time>
      </trkpt>
      <trkpt lat="44.78038" lon="1.61595">
        <ele>191.92</ele>
        <time>2011-03-20T11:04:26Z</time>
      </trkpt>
      <trkpt lat="44.78045" lon="1.61606">
        <ele>191.92</ele>
        <time>2011-03-20T11:04:36Z</time>
      </trkpt>
      <trkpt lat="44.78055" lon="1.61618">
        <ele>191.92</ele>
        <time>2011-03-20T11:04:45Z</time>
      </trkpt>
      <trkpt lat="44.78063" lon="1.61625">
        <ele>189.04</ele>
        <time>2011-03-20T11:04:51Z</time>
      </trkpt>
      <trkpt lat="44.78072" lon="1.61635">
        <ele>189.52</ele>
        <time>2011-03-20T11:04:58Z</time>
      </trkpt>
      <trkpt lat="44.78074" lon="1.61636">
        <ele>189.52</ele>
        <time>2011-03-20T11:04:59Z</time>
      </trkpt>
      <trkpt lat="44.78078" lon="1.61639">
        <ele>189.52</ele>
        <time>2011-03-20T11:05:02Z</time>
      </trkpt>
      <trkpt lat="44.78082" lon="1.6165">
        <ele>188.56</ele>
        <time>2011-03-20T11:05:07Z</time>
      </trkpt>
      <trkpt lat="44.78086" lon="1.61655">
        <ele>188.56</ele>
        <time>2011-03-20T11:05:09Z</time>
      </trkpt>
      <trkpt lat="44.78093" lon="1.61659">
        <ele>187.11</ele>
        <time>2011-03-20T11:05:13Z</time>
      </trkpt>
      <trkpt lat="44.78098" lon="1.6166">
        <ele>187.11</ele>
        <time>2011-03-20T11:05:19Z</time>
      </trkpt>
      <trkpt lat="44.78104" lon="1.61663">
        <ele>187.11</ele>
        <time>2011-03-20T11:05:21Z</time>
      </trkpt>
      <trkpt lat="44.78114" lon="1.61668">
        <ele>185.67</ele>
        <time>2011-03-20T11:05:30Z</time>
      </trkpt>
      <trkpt lat="44.78124" lon="1.61675">
        <ele>183.75</ele>
        <time>2011-03-20T11:05:39Z</time>
      </trkpt>
      <trkpt lat="44.78135" lon="1.61692">
        <ele>183.27</ele>
        <time>2011-03-20T11:05:48Z</time>
      </trkpt>
      <trkpt lat="44.78141" lon="1.61698">
        <ele>182.79</ele>
        <time>2011-03-20T11:05:53Z</time>
      </trkpt>
      <trkpt lat="44.78139" lon="1.61701">
        <ele>184.71</ele>
        <time>2011-03-20T11:06:00Z</time>
      </trkpt>
      <trkpt lat="44.78136" lon="1.61706">
        <ele>186.15</ele>
        <time>2011-03-20T11:06:03Z</time>
      </trkpt>
      <trkpt lat="44.78134" lon="1.61718">
        <ele>186.15</ele>
        <time>2011-03-20T11:06:08Z</time>
      </trkpt>
      <trkpt lat="44.78134" lon="1.61732">
        <ele>188.08</ele>
        <time>2011-03-20T11:06:15Z</time>
      </trkpt>
      <trkpt lat="44.78133" lon="1.61737">
        <ele>188.56</ele>
        <time>2011-03-20T11:06:17Z</time>
      </trkpt>
      <trkpt lat="44.78127" lon="1.61758">
        <ele>188.56</ele>
        <time>2011-03-20T11:06:24Z</time>
      </trkpt>
      <trkpt lat="44.78124" lon="1.61765">
        <ele>188.56</ele>
        <time>2011-03-20T11:06:27Z</time>
      </trkpt>
      <trkpt lat="44.78118" lon="1.61771">
        <ele>188.08</ele>
        <time>2011-03-20T11:06:32Z</time>
      </trkpt>
      <trkpt lat="44.78115" lon="1.61779">
        <ele>187.11</ele>
        <time>2011-03-20T11:06:37Z</time>
      </trkpt>
      <trkpt lat="44.78121" lon="1.61783">
        <ele>186.15</ele>
        <time>2011-03-20T11:06:42Z</time>
      </trkpt>
      <trkpt lat="44.78124" lon="1.61781">
        <ele>184.23</ele>
        <time>2011-03-20T11:06:44Z</time>
      </trkpt>
      <trkpt lat="44.78126" lon="1.61784">
        <ele>185.67</ele>
        <time>2011-03-20T11:06:50Z</time>
      </trkpt>
      <trkpt lat="44.78139" lon="1.61789">
        <ele>185.19</ele>
        <time>2011-03-20T11:06:59Z</time>
      </trkpt>
      <trkpt lat="44.78142" lon="1.61793">
        <ele>185.67</ele>
        <time>2011-03-20T11:07:01Z</time>
      </trkpt>
      <trkpt lat="44.78147" lon="1.61806">
        <ele>186.63</ele>
        <time>2011-03-20T11:07:07Z</time>
      </trkpt>
      <trkpt lat="44.78151" lon="1.61816">
        <ele>186.63</ele>
        <time>2011-03-20T11:07:12Z</time>
      </trkpt>
      <trkpt lat="44.78154" lon="1.61831">
        <ele>186.63</ele>
        <time>2011-03-20T11:07:20Z</time>
      </trkpt>
      <trkpt lat="44.78154" lon="1.61841">
        <ele>185.19</ele>
        <time>2011-03-20T11:07:24Z</time>
      </trkpt>
      <trkpt lat="44.7815" lon="1.61849">
        <ele>189.04</ele>
        <time>2011-03-20T11:07:27Z</time>
      </trkpt>
      <trkpt lat="44.7815" lon="1.61869">
        <ele>189.04</ele>
        <time>2011-03-20T11:07:35Z</time>
      </trkpt>
      <trkpt lat="44.78149" lon="1.61872">
        <ele>189.52</ele>
        <time>2011-03-20T11:07:37Z</time>
      </trkpt>
      <trkpt lat="44.78153" lon="1.6188">
        <ele>190.48</ele>
        <time>2011-03-20T11:07:43Z</time>
      </trkpt>
      <trkpt lat="44.78162" lon="1.61893">
        <ele>189.52</ele>
        <time>2011-03-20T11:07:50Z</time>
      </trkpt>
      <trkpt lat="44.7816" lon="1.61899">
        <ele>190.96</ele>
        <time>2011-03-20T11:07:52Z</time>
      </trkpt>
      <trkpt lat="44.78162" lon="1.6192">
        <ele>192.4</ele>
        <time>2011-03-20T11:08:02Z</time>
      </trkpt>
      <trkpt lat="44.78166" lon="1.61932">
        <ele>191.44</ele>
        <time>2011-03-20T11:08:09Z</time>
      </trkpt>
      <trkpt lat="44.78167" lon="1.61939">
        <ele>193.36</ele>
        <time>2011-03-20T11:08:14Z</time>
      </trkpt>
      <trkpt lat="44.78175" lon="1.61946">
        <ele>192.4</ele>
        <time>2011-03-20T11:08:20Z</time>
      </trkpt>
      <trkpt lat="44.78182" lon="1.61949">
        <ele>191.92</ele>
        <time>2011-03-20T11:08:23Z</time>
      </trkpt>
      <trkpt lat="44.78191" lon="1.6196">
        <ele>192.88</ele>
        <time>2011-03-20T11:08:29Z</time>
      </trkpt>
      <trkpt lat="44.78193" lon="1.61973">
        <ele>194.8</ele>
        <time>2011-03-20T11:08:36Z</time>
      </trkpt>
      <trkpt lat="44.78197" lon="1.61979">
        <ele>194.32</ele>
        <time>2011-03-20T11:08:41Z</time>
      </trkpt>
      <trkpt lat="44.78198" lon="1.61989">
        <ele>192.4</ele>
        <time>2011-03-20T11:08:46Z</time>
      </trkpt>
      <trkpt lat="44.78193" lon="1.61996">
        <ele>194.32</ele>
        <time>2011-03-20T11:08:48Z</time>
      </trkpt>
      <trkpt lat="44.78194" lon="1.62001">
        <ele>193.84</ele>
        <time>2011-03-20T11:08:52Z</time>
      </trkpt>
      <trkpt lat="44.78194" lon="1.6201">
        <ele>194.8</ele>
        <time>2011-03-20T11:08:59Z</time>
      </trkpt>
      <trkpt lat="44.78195" lon="1.62016">
        <ele>195.28</ele>
        <time>2011-03-20T11:09:04Z</time>
      </trkpt>
      <trkpt lat="44.78196" lon="1.62026">
        <ele>196.25</ele>
        <time>2011-03-20T11:09:09Z</time>
      </trkpt>
      <trkpt lat="44.78195" lon="1.62031">
        <ele>196.25</ele>
        <time>2011-03-20T11:09:10Z</time>
      </trkpt>
      <trkpt lat="44.78192" lon="1.62054">
        <ele>196.25</ele>
        <time>2011-03-20T11:09:19Z</time>
      </trkpt>
      <trkpt lat="44.78197" lon="1.6207">
        <ele>198.17</ele>
        <time>2011-03-20T11:09:24Z</time>
      </trkpt>
      <trkpt lat="44.782" lon="1.62078">
        <ele>195.28</ele>
        <time>2011-03-20T11:09:28Z</time>
      </trkpt>
      <trkpt lat="44.78202" lon="1.62085">
        <ele>196.25</ele>
        <time>2011-03-20T11:09:32Z</time>
      </trkpt>
      <trkpt lat="44.78209" lon="1.62092">
        <ele>195.77</ele>
        <time>2011-03-20T11:09:40Z</time>
      </trkpt>
      <trkpt lat="44.78216" lon="1.62097">
        <ele>195.77</ele>
        <time>2011-03-20T11:09:48Z</time>
      </trkpt>
      <trkpt lat="44.78219" lon="1.62099">
        <ele>199.13</ele>
        <time>2011-03-20T11:09:52Z</time>
      </trkpt>
      <trkpt lat="44.7822" lon="1.621">
        <ele>198.65</ele>
        <time>2011-03-20T11:09:54Z</time>
      </trkpt>
      <trkpt lat="44.78232" lon="1.62101">
        <ele>200.09</ele>
        <time>2011-03-20T11:10:01Z</time>
      </trkpt>
      <trkpt lat="44.78237" lon="1.62104">
        <ele>201.05</ele>
        <time>2011-03-20T11:10:05Z</time>
      </trkpt>
      <trkpt lat="44.78246" lon="1.62109">
        <ele>201.53</ele>
        <time>2011-03-20T11:10:12Z</time>
      </trkpt>
      <trkpt lat="44.78249" lon="1.62111">
        <ele>202.49</ele>
        <time>2011-03-20T11:10:14Z</time>
      </trkpt>
      <trkpt lat="44.78258" lon="1.62115">
        <ele>203.94</ele>
        <time>2011-03-20T11:10:19Z</time>
      </trkpt>
      <trkpt lat="44.78263" lon="1.62126">
        <ele>202.98</ele>
        <time>2011-03-20T11:10:27Z</time>
      </trkpt>
      <trkpt lat="44.78272" lon="1.62129">
        <ele>205.38</ele>
        <time>2011-03-20T11:10:34Z</time>
      </trkpt>
      <trkpt lat="44.78285" lon="1.62133">
        <ele>204.42</ele>
        <time>2011-03-20T11:10:41Z</time>
      </trkpt>
      <trkpt lat="44.78292" lon="1.62138">
        <ele>205.86</ele>
        <time>2011-03-20T11:10:47Z</time>
      </trkpt>
      <trkpt lat="44.78299" lon="1.62143">
        <ele>205.86</ele>
        <time>2011-03-20T11:10:53Z</time>
      </trkpt>
      <trkpt lat="44.78303" lon="1.62149">
        <ele>206.34</ele>
        <time>2011-03-20T11:10:59Z</time>
      </trkpt>
      <trkpt lat="44.78317" lon="1.62149">
        <ele>207.3</ele>
        <time>2011-03-20T11:11:06Z</time>
      </trkpt>
      <trkpt lat="44.78322" lon="1.62151">
        <ele>209.7</ele>
        <time>2011-03-20T11:11:11Z</time>
      </trkpt>
      <trkpt lat="44.78325" lon="1.6215">
        <ele>209.22</ele>
        <time>2011-03-20T11:11:13Z</time>
      </trkpt>
      <trkpt lat="44.78336" lon="1.62147">
        <ele>209.22</ele>
        <time>2011-03-20T11:11:19Z</time>
      </trkpt>
      <trkpt lat="44.78337" lon="1.62146">
        <ele>209.7</ele>
        <time>2011-03-20T11:11:20Z</time>
      </trkpt>
      <trkpt lat="44.78349" lon="1.62143">
        <ele>209.22</ele>
        <time>2011-03-20T11:11:27Z</time>
      </trkpt>
      <trkpt lat="44.78356" lon="1.62143">
        <ele>211.63</ele>
        <time>2011-03-20T11:11:32Z</time>
      </trkpt>
      <trkpt lat="44.78361" lon="1.62143">
        <ele>210.19</ele>
        <time>2011-03-20T11:11:35Z</time>
      </trkpt>
      <trkpt lat="44.78367" lon="1.62143">
        <ele>210.67</ele>
        <time>2011-03-20T11:11:40Z</time>
      </trkpt>
      <trkpt lat="44.78371" lon="1.6214">
        <ele>210.67</ele>
        <time>2011-03-20T11:11:45Z</time>
      </trkpt>
      <trkpt lat="44.78381" lon="1.62129">
        <ele>211.63</ele>
        <time>2011-03-20T11:11:54Z</time>
      </trkpt>
      <trkpt lat="44.78392" lon="1.62124">
        <ele>210.19</ele>
        <time>2011-03-20T11:12:00Z</time>
      </trkpt>
      <trkpt lat="44.78398" lon="1.6212">
        <ele>208.74</ele>
        <time>2011-03-20T11:12:07Z</time>
      </trkpt>
      <trkpt lat="44.78412" lon="1.62115">
        <ele>209.22</ele>
        <time>2011-03-20T11:12:14Z</time>
      </trkpt>
      <trkpt lat="44.7843" lon="1.62113">
        <ele>206.82</ele>
        <time>2011-03-20T11:12:23Z</time>
      </trkpt>
      <trkpt lat="44.78439" lon="1.62108">
        <ele>209.7</ele>
        <time>2011-03-20T11:12:32Z</time>
      </trkpt>
      <trkpt lat="44.78448" lon="1.621">
        <ele>209.7</ele>
        <time>2011-03-20T11:12:39Z</time>
      </trkpt>
      <trkpt lat="44.78459" lon="1.62096">
        <ele>211.63</ele>
        <time>2011-03-20T11:12:48Z</time>
      </trkpt>
      <trkpt lat="44.78473" lon="1.62095">
        <ele>211.63</ele>
        <time>2011-03-20T11:12:57Z</time>
      </trkpt>
      <trkpt lat="44.78475" lon="1.62097">
        <ele>212.59</ele>
        <time>2011-03-20T11:12:59Z</time>
      </trkpt>
      <trkpt lat="44.78478" lon="1.62096">
        <ele>214.51</ele>
        <time>2011-03-20T11:13:01Z</time>
      </trkpt>
      <trkpt lat="44.78487" lon="1.62098">
        <ele>214.99</ele>
        <time>2011-03-20T11:13:05Z</time>
      </trkpt>
      <trkpt lat="44.78498" lon="1.62094">
        <ele>215.95</ele>
        <time>2011-03-20T11:13:12Z</time>
      </trkpt>
      <trkpt lat="44.78507" lon="1.6209">
        <ele>215.95</ele>
        <time>2011-03-20T11:13:19Z</time>
      </trkpt>
      <trkpt lat="44.78515" lon="1.62088">
        <ele>216.43</ele>
        <time>2011-03-20T11:13:28Z</time>
      </trkpt>
      <trkpt lat="44.78528" lon="1.62082">
        <ele>218.36</ele>
        <time>2011-03-20T11:13:37Z</time>
      </trkpt>
      <trkpt lat="44.78538" lon="1.62083">
        <ele>217.88</ele>
        <time>2011-03-20T11:13:44Z</time>
      </trkpt>
      <trkpt lat="44.78551" lon="1.6208">
        <ele>219.8</ele>
        <time>2011-03-20T11:13:53Z</time>
      </trkpt>
      <trkpt lat="44.7856" lon="1.62077">
        <ele>220.76</ele>
        <time>2011-03-20T11:14:02Z</time>
      </trkpt>
      <trkpt lat="44.78577" lon="1.62077">
        <ele>222.68</ele>
        <time>2011-03-20T11:14:16Z</time>
      </trkpt>
      <trkpt lat="44.78581" lon="1.62079">
        <ele>224.12</ele>
        <time>2011-03-20T11:14:19Z</time>
      </trkpt>
      <trkpt lat="44.7859" lon="1.62084">
        <ele>227.97</ele>
        <time>2011-03-20T11:14:27Z</time>
      </trkpt>
      <trkpt lat="44.78592" lon="1.62085">
        <ele>227.49</ele>
        <time>2011-03-20T11:14:28Z</time>
      </trkpt>
      <trkpt lat="44.78595" lon="1.62086">
        <ele>228.45</ele>
        <time>2011-03-20T11:14:31Z</time>
      </trkpt>
      <trkpt lat="44.786" lon="1.6209">
        <ele>228.45</ele>
        <time>2011-03-20T11:14:35Z</time>
      </trkpt>
      <trkpt lat="44.78603" lon="1.6209">
        <ele>228.45</ele>
        <time>2011-03-20T11:14:38Z</time>
      </trkpt>
      <trkpt lat="44.78607" lon="1.62093">
        <ele>230.37</ele>
        <time>2011-03-20T11:14:42Z</time>
      </trkpt>
      <trkpt lat="44.78617" lon="1.62098">
        <ele>228.45</ele>
        <time>2011-03-20T11:14:48Z</time>
      </trkpt>
      <trkpt lat="44.78623" lon="1.62104">
        <ele>228.93</ele>
        <time>2011-03-20T11:14:54Z</time>
      </trkpt>
      <trkpt lat="44.7863" lon="1.6211">
        <ele>232.3</ele>
        <time>2011-03-20T11:14:58Z</time>
      </trkpt>
      <trkpt lat="44.7863" lon="1.62111">
        <ele>232.78</ele>
        <time>2011-03-20T11:14:59Z</time>
      </trkpt>
      <trkpt lat="44.78641" lon="1.62122">
        <ele>233.26</ele>
        <time>2011-03-20T11:15:09Z</time>
      </trkpt>
      <trkpt lat="44.78643" lon="1.62128">
        <ele>233.26</ele>
        <time>2011-03-20T11:15:12Z</time>
      </trkpt>
      <trkpt lat="44.7865" lon="1.62137">
        <ele>234.22</ele>
        <time>2011-03-20T11:15:17Z</time>
      </trkpt>
      <trkpt lat="44.78655" lon="1.62145">
        <ele>234.22</ele>
        <time>2011-03-20T11:15:23Z</time>
      </trkpt>
      <trkpt lat="44.78668" lon="1.62157">
        <ele>234.22</ele>
        <time>2011-03-20T11:15:32Z</time>
      </trkpt>
      <trkpt lat="44.78674" lon="1.62162">
        <ele>236.14</ele>
        <time>2011-03-20T11:15:35Z</time>
      </trkpt>
      <trkpt lat="44.78676" lon="1.62163">
        <ele>234.7</ele>
        <time>2011-03-20T11:15:36Z</time>
      </trkpt>
      <trkpt lat="44.78683" lon="1.62168">
        <ele>235.66</ele>
        <time>2011-03-20T11:15:41Z</time>
      </trkpt>
      <trkpt lat="44.78686" lon="1.6217">
        <ele>236.14</ele>
        <time>2011-03-20T11:15:45Z</time>
      </trkpt>
      <trkpt lat="44.78687" lon="1.62172">
        <ele>234.22</ele>
        <time>2011-03-20T11:15:47Z</time>
      </trkpt>
      <trkpt lat="44.78691" lon="1.62174">
        <ele>237.1</ele>
        <time>2011-03-20T11:15:49Z</time>
      </trkpt>
      <trkpt lat="44.78694" lon="1.62176">
        <ele>235.66</ele>
        <time>2011-03-20T11:15:51Z</time>
      </trkpt>
      <trkpt lat="44.78701" lon="1.62176">
        <ele>237.1</ele>
        <time>2011-03-20T11:15:54Z</time>
      </trkpt>
      <trkpt lat="44.78705" lon="1.62177">
        <ele>237.1</ele>
        <time>2011-03-20T11:15:58Z</time>
      </trkpt>
      <trkpt lat="44.78712" lon="1.62183">
        <ele>238.54</ele>
        <time>2011-03-20T11:16:04Z</time>
      </trkpt>
      <trkpt lat="44.78713" lon="1.62183">
        <ele>238.06</ele>
        <time>2011-03-20T11:16:05Z</time>
      </trkpt>
      <trkpt lat="44.78716" lon="1.62186">
        <ele>239.51</ele>
        <time>2011-03-20T11:16:08Z</time>
      </trkpt>
      <trkpt lat="44.78727" lon="1.62192">
        <ele>241.91</ele>
        <time>2011-03-20T11:16:17Z</time>
      </trkpt>
      <trkpt lat="44.78727" lon="1.62193">
        <ele>241.43</ele>
        <time>2011-03-20T11:16:18Z</time>
      </trkpt>
      <trkpt lat="44.78734" lon="1.62197">
        <ele>239.99</ele>
        <time>2011-03-20T11:16:25Z</time>
      </trkpt>
      <trkpt lat="44.78745" lon="1.62205">
        <ele>240.95</ele>
        <time>2011-03-20T11:16:32Z</time>
      </trkpt>
      <trkpt lat="44.78753" lon="1.62215">
        <ele>241.43</ele>
        <time>2011-03-20T11:16:40Z</time>
      </trkpt>
      <trkpt lat="44.78757" lon="1.62226">
        <ele>242.87</ele>
        <time>2011-03-20T11:16:46Z</time>
      </trkpt>
      <trkpt lat="44.78764" lon="1.62235">
        <ele>239.99</ele>
        <time>2011-03-20T11:16:52Z</time>
      </trkpt>
      <trkpt lat="44.78772" lon="1.62253">
        <ele>240.95</ele>
        <time>2011-03-20T11:17:03Z</time>
      </trkpt>
      <trkpt lat="44.78772" lon="1.62255">
        <ele>243.35</ele>
        <time>2011-03-20T11:17:04Z</time>
      </trkpt>
      <trkpt lat="44.78773" lon="1.62262">
        <ele>241.43</ele>
        <time>2011-03-20T11:17:07Z</time>
      </trkpt>
      <trkpt lat="44.78774" lon="1.62263">
        <ele>242.87</ele>
        <time>2011-03-20T11:17:08Z</time>
      </trkpt>
      <trkpt lat="44.78776" lon="1.6227">
        <ele>242.39</ele>
        <time>2011-03-20T11:17:12Z</time>
      </trkpt>
      <trkpt lat="44.78778" lon="1.6228">
        <ele>241.43</ele>
        <time>2011-03-20T11:17:18Z</time>
      </trkpt>
      <trkpt lat="44.78779" lon="1.62284">
        <ele>241.43</ele>
        <time>2011-03-20T11:17:20Z</time>
      </trkpt>
      <trkpt lat="44.78779" lon="1.62292">
        <ele>243.83</ele>
        <time>2011-03-20T11:17:25Z</time>
      </trkpt>
      <trkpt lat="44.78784" lon="1.62305">
        <ele>244.31</ele>
        <time>2011-03-20T11:17:31Z</time>
      </trkpt>
      <trkpt lat="44.78788" lon="1.62313">
        <ele>244.79</ele>
        <time>2011-03-20T11:17:35Z</time>
      </trkpt>
      <trkpt lat="44.78791" lon="1.62319">
        <ele>244.31</ele>
        <time>2011-03-20T11:17:40Z</time>
      </trkpt>
      <trkpt lat="44.788" lon="1.62329">
        <ele>247.2</ele>
        <time>2011-03-20T11:17:48Z</time>
      </trkpt>
      <trkpt lat="44.78806" lon="1.6233">
        <ele>252</ele>
        <time>2011-03-20T11:17:53Z</time>
      </trkpt>
      <trkpt lat="44.78813" lon="1.62335">
        <ele>252.96</ele>
        <time>2011-03-20T11:18:01Z</time>
      </trkpt>
      <trkpt lat="44.78821" lon="1.62344">
        <ele>256.81</ele>
        <time>2011-03-20T11:18:11Z</time>
      </trkpt>
      <trkpt lat="44.78839" lon="1.62357">
        <ele>256.33</ele>
        <time>2011-03-20T11:18:27Z</time>
      </trkpt>
      <trkpt lat="44.78852" lon="1.62368">
        <ele>259.69</ele>
        <time>2011-03-20T11:18:39Z</time>
      </trkpt>
      <trkpt lat="44.7886" lon="1.62371">
        <ele>261.62</ele>
        <time>2011-03-20T11:18:45Z</time>
      </trkpt>
      <trkpt lat="44.78876" lon="1.62376">
        <ele>263.06</ele>
        <time>2011-03-20T11:18:56Z</time>
      </trkpt>
      <trkpt lat="44.78885" lon="1.62384">
        <ele>266.9</ele>
        <time>2011-03-20T11:19:05Z</time>
      </trkpt>
      <trkpt lat="44.78886" lon="1.62385">
        <ele>265.94</ele>
        <time>2011-03-20T11:19:06Z</time>
      </trkpt>
      <trkpt lat="44.78896" lon="1.62395">
        <ele>268.83</ele>
        <time>2011-03-20T11:19:22Z</time>
      </trkpt>
      <trkpt lat="44.789" lon="1.6241">
        <ele>271.71</ele>
        <time>2011-03-20T11:19:32Z</time>
      </trkpt>
      <trkpt lat="44.78905" lon="1.62424">
        <ele>272.67</ele>
        <time>2011-03-20T11:19:42Z</time>
      </trkpt>
      <trkpt lat="44.78906" lon="1.62425">
        <ele>271.71</ele>
        <time>2011-03-20T11:19:43Z</time>
      </trkpt>
      <trkpt lat="44.78909" lon="1.62439">
        <ele>274.59</ele>
        <time>2011-03-20T11:19:51Z</time>
      </trkpt>
      <trkpt lat="44.7891" lon="1.62462">
        <ele>275.56</ele>
        <time>2011-03-20T11:20:04Z</time>
      </trkpt>
      <trkpt lat="44.78911" lon="1.62473">
        <ele>276.52</ele>
        <time>2011-03-20T11:20:12Z</time>
      </trkpt>
      <trkpt lat="44.78912" lon="1.62475">
        <ele>275.56</ele>
        <time>2011-03-20T11:20:13Z</time>
      </trkpt>
      <trkpt lat="44.78915" lon="1.62481">
        <ele>277</ele>
        <time>2011-03-20T11:20:16Z</time>
      </trkpt>
      <trkpt lat="44.7892" lon="1.62502">
        <ele>277.48</ele>
        <time>2011-03-20T11:20:27Z</time>
      </trkpt>
      <trkpt lat="44.78924" lon="1.62517">
        <ele>277.96</ele>
        <time>2011-03-20T11:20:35Z</time>
      </trkpt>
      <trkpt lat="44.78925" lon="1.62531">
        <ele>279.4</ele>
        <time>2011-03-20T11:20:43Z</time>
      </trkpt>
      <trkpt lat="44.78926" lon="1.62542">
        <ele>279.88</ele>
        <time>2011-03-20T11:20:49Z</time>
      </trkpt>
      <trkpt lat="44.78929" lon="1.62547">
        <ele>280.84</ele>
        <time>2011-03-20T11:20:52Z</time>
      </trkpt>
      <trkpt lat="44.7893" lon="1.6256">
        <ele>279.88</ele>
        <time>2011-03-20T11:20:58Z</time>
      </trkpt>
      <trkpt lat="44.78931" lon="1.62565">
        <ele>279.88</ele>
        <time>2011-03-20T11:21:01Z</time>
      </trkpt>
      <trkpt lat="44.78933" lon="1.62573">
        <ele>280.84</ele>
        <time>2011-03-20T11:21:05Z</time>
      </trkpt>
      <trkpt lat="44.7894" lon="1.62588">
        <ele>280.36</ele>
        <time>2011-03-20T11:21:12Z</time>
      </trkpt>
      <trkpt lat="44.78939" lon="1.62596">
        <ele>279.4</ele>
        <time>2011-03-20T11:21:16Z</time>
      </trkpt>
      <trkpt lat="44.78938" lon="1.626">
        <ele>281.8</ele>
        <time>2011-03-20T11:21:19Z</time>
      </trkpt>
      <trkpt lat="44.78945" lon="1.62614">
        <ele>280.84</ele>
        <time>2011-03-20T11:21:26Z</time>
      </trkpt>
      <trkpt lat="44.78947" lon="1.62628">
        <ele>280.84</ele>
        <time>2011-03-20T11:21:34Z</time>
      </trkpt>
      <trkpt lat="44.78947" lon="1.62635">
        <ele>281.8</ele>
        <time>2011-03-20T11:21:39Z</time>
      </trkpt>
      <trkpt lat="44.78946" lon="1.62661">
        <ele>283.25</ele>
        <time>2011-03-20T11:21:52Z</time>
      </trkpt>
      <trkpt lat="44.78946" lon="1.62678">
        <ele>282.28</ele>
        <time>2011-03-20T11:22:00Z</time>
      </trkpt>
      <trkpt lat="44.78947" lon="1.62691">
        <ele>283.73</ele>
        <time>2011-03-20T11:22:05Z</time>
      </trkpt>
      <trkpt lat="44.78948" lon="1.62693">
        <ele>283.73</ele>
        <time>2011-03-20T11:22:06Z</time>
      </trkpt>
      <trkpt lat="44.78947" lon="1.62719">
        <ele>283.25</ele>
        <time>2011-03-20T11:22:18Z</time>
      </trkpt>
      <trkpt lat="44.78946" lon="1.62727">
        <ele>283.73</ele>
        <time>2011-03-20T11:22:23Z</time>
      </trkpt>
      <trkpt lat="44.78943" lon="1.62735">
        <ele>283.73</ele>
        <time>2011-03-20T11:22:27Z</time>
      </trkpt>
      <trkpt lat="44.78938" lon="1.62752">
        <ele>283.25</ele>
        <time>2011-03-20T11:22:36Z</time>
      </trkpt>
      <trkpt lat="44.7894" lon="1.62764">
        <ele>283.73</ele>
        <time>2011-03-20T11:22:41Z</time>
      </trkpt>
      <trkpt lat="44.7894" lon="1.62771">
        <ele>283.25</ele>
        <time>2011-03-20T11:22:45Z</time>
      </trkpt>
      <trkpt lat="44.78939" lon="1.62776">
        <ele>284.21</ele>
        <time>2011-03-20T11:22:48Z</time>
      </trkpt>
      <trkpt lat="44.7894" lon="1.62784">
        <ele>284.69</ele>
        <time>2011-03-20T11:22:52Z</time>
      </trkpt>
      <trkpt lat="44.7894" lon="1.62789">
        <ele>285.65</ele>
        <time>2011-03-20T11:22:54Z</time>
      </trkpt>
      <trkpt lat="44.78945" lon="1.62805">
        <ele>285.17</ele>
        <time>2011-03-20T11:23:03Z</time>
      </trkpt>
      <trkpt lat="44.78945" lon="1.62822">
        <ele>286.61</ele>
        <time>2011-03-20T11:23:11Z</time>
      </trkpt>
      <trkpt lat="44.78946" lon="1.62839">
        <ele>288.05</ele>
        <time>2011-03-20T11:23:20Z</time>
      </trkpt>
      <trkpt lat="44.78949" lon="1.62855">
        <ele>288.05</ele>
        <time>2011-03-20T11:23:29Z</time>
      </trkpt>
      <trkpt lat="44.7895" lon="1.6286">
        <ele>289.49</ele>
        <time>2011-03-20T11:23:31Z</time>
      </trkpt>
      <trkpt lat="44.78952" lon="1.6288">
        <ele>289.49</ele>
        <time>2011-03-20T11:23:40Z</time>
      </trkpt>
      <trkpt lat="44.78954" lon="1.62899">
        <ele>289.49</ele>
        <time>2011-03-20T11:23:49Z</time>
      </trkpt>
      <trkpt lat="44.78957" lon="1.62921">
        <ele>291.9</ele>
        <time>2011-03-20T11:24:00Z</time>
      </trkpt>
      <trkpt lat="44.78958" lon="1.62937">
        <ele>290.46</ele>
        <time>2011-03-20T11:24:08Z</time>
      </trkpt>
      <trkpt lat="44.78958" lon="1.62943">
        <ele>289.49</ele>
        <time>2011-03-20T11:24:11Z</time>
      </trkpt>
      <trkpt lat="44.7896" lon="1.62968">
        <ele>289.49</ele>
        <time>2011-03-20T11:24:21Z</time>
      </trkpt>
      <trkpt lat="44.78961" lon="1.62973">
        <ele>290.94</ele>
        <time>2011-03-20T11:24:23Z</time>
      </trkpt>
      <trkpt lat="44.78961" lon="1.6298">
        <ele>290.46</ele>
        <time>2011-03-20T11:24:26Z</time>
      </trkpt>
      <trkpt lat="44.78962" lon="1.62986">
        <ele>289.01</ele>
        <time>2011-03-20T11:24:29Z</time>
      </trkpt>
      <trkpt lat="44.78961" lon="1.62989">
        <ele>289.97</ele>
        <time>2011-03-20T11:24:32Z</time>
      </trkpt>
      <trkpt lat="44.7897" lon="1.62991">
        <ele>289.01</ele>
        <time>2011-03-20T11:24:40Z</time>
      </trkpt>
      <trkpt lat="44.78972" lon="1.62991">
        <ele>288.53</ele>
        <time>2011-03-20T11:24:41Z</time>
      </trkpt>
      <trkpt lat="44.78975" lon="1.62984">
        <ele>289.49</ele>
        <time>2011-03-20T11:24:45Z</time>
      </trkpt>
      <trkpt lat="44.78982" lon="1.62982">
        <ele>288.05</ele>
        <time>2011-03-20T11:24:50Z</time>
      </trkpt>
      <trkpt lat="44.78985" lon="1.6298">
        <ele>289.97</ele>
        <time>2011-03-20T11:24:52Z</time>
      </trkpt>
      <trkpt lat="44.78992" lon="1.62973">
        <ele>289.01</ele>
        <time>2011-03-20T11:24:58Z</time>
      </trkpt>
      <trkpt lat="44.78997" lon="1.62971">
        <ele>288.53</ele>
        <time>2011-03-20T11:25:02Z</time>
      </trkpt>
      <trkpt lat="44.78999" lon="1.6297">
        <ele>289.49</ele>
        <time>2011-03-20T11:25:03Z</time>
      </trkpt>
      <trkpt lat="44.79008" lon="1.62966">
        <ele>288.53</ele>
        <time>2011-03-20T11:25:11Z</time>
      </trkpt>
      <trkpt lat="44.79021" lon="1.62961">
        <ele>288.53</ele>
        <time>2011-03-20T11:25:18Z</time>
      </trkpt>
      <trkpt lat="44.7903" lon="1.62959">
        <ele>287.57</ele>
        <time>2011-03-20T11:25:24Z</time>
      </trkpt>
      <trkpt lat="44.79031" lon="1.6296">
        <ele>287.57</ele>
        <time>2011-03-20T11:25:25Z</time>
      </trkpt>
      <trkpt lat="44.79038" lon="1.62957">
        <ele>288.05</ele>
        <time>2011-03-20T11:25:32Z</time>
      </trkpt>
      <trkpt lat="44.79052" lon="1.62957">
        <ele>288.53</ele>
        <time>2011-03-20T11:25:38Z</time>
      </trkpt>
      <trkpt lat="44.79058" lon="1.62956">
        <ele>287.57</ele>
        <time>2011-03-20T11:25:44Z</time>
      </trkpt>
      <trkpt lat="44.79063" lon="1.62957">
        <ele>288.05</ele>
        <time>2011-03-20T11:25:49Z</time>
      </trkpt>
      <trkpt lat="44.79071" lon="1.6296">
        <ele>288.05</ele>
        <time>2011-03-20T11:25:55Z</time>
      </trkpt>
      <trkpt lat="44.79082" lon="1.62963">
        <ele>287.57</ele>
        <time>2011-03-20T11:26:01Z</time>
      </trkpt>
      <trkpt lat="44.79091" lon="1.62965">
        <ele>289.49</ele>
        <time>2011-03-20T11:26:09Z</time>
      </trkpt>
      <trkpt lat="44.79103" lon="1.62968">
        <ele>287.57</ele>
        <time>2011-03-20T11:26:16Z</time>
      </trkpt>
      <trkpt lat="44.79108" lon="1.6297">
        <ele>289.01</ele>
        <time>2011-03-20T11:26:20Z</time>
      </trkpt>
      <trkpt lat="44.79118" lon="1.62973">
        <ele>287.57</ele>
        <time>2011-03-20T11:26:26Z</time>
      </trkpt>
      <trkpt lat="44.79123" lon="1.62974">
        <ele>284.21</ele>
        <time>2011-03-20T11:26:30Z</time>
      </trkpt>
      <trkpt lat="44.79126" lon="1.62973">
        <ele>284.69</ele>
        <time>2011-03-20T11:26:32Z</time>
      </trkpt>
      <trkpt lat="44.79131" lon="1.62973">
        <ele>282.77</ele>
        <time>2011-03-20T11:26:35Z</time>
      </trkpt>
      <trkpt lat="44.79133" lon="1.62973">
        <ele>281.8</ele>
        <time>2011-03-20T11:26:36Z</time>
      </trkpt>
      <trkpt lat="44.79144" lon="1.62971">
        <ele>281.8</ele>
        <time>2011-03-20T11:26:42Z</time>
      </trkpt>
      <trkpt lat="44.7915" lon="1.62972">
        <ele>283.25</ele>
        <time>2011-03-20T11:26:47Z</time>
      </trkpt>
      <trkpt lat="44.7916" lon="1.6297">
        <ele>284.21</ele>
        <time>2011-03-20T11:26:53Z</time>
      </trkpt>
      <trkpt lat="44.79172" lon="1.62966">
        <ele>284.69</ele>
        <time>2011-03-20T11:26:58Z</time>
      </trkpt>
      <trkpt lat="44.79177" lon="1.62964">
        <ele>283.73</ele>
        <time>2011-03-20T11:27:02Z</time>
      </trkpt>
      <trkpt lat="44.79187" lon="1.62959">
        <ele>283.73</ele>
        <time>2011-03-20T11:27:08Z</time>
      </trkpt>
      <trkpt lat="44.79193" lon="1.62953">
        <ele>284.69</ele>
        <time>2011-03-20T11:27:13Z</time>
      </trkpt>
      <trkpt lat="44.79199" lon="1.62946">
        <ele>285.17</ele>
        <time>2011-03-20T11:27:17Z</time>
      </trkpt>
      <trkpt lat="44.7921" lon="1.62938">
        <ele>285.65</ele>
        <time>2011-03-20T11:27:23Z</time>
      </trkpt>
      <trkpt lat="44.79213" lon="1.62935">
        <ele>289.49</ele>
        <time>2011-03-20T11:27:26Z</time>
      </trkpt>
      <trkpt lat="44.79213" lon="1.62934">
        <ele>289.01</ele>
        <time>2011-03-20T11:27:27Z</time>
      </trkpt>
      <trkpt lat="44.79216" lon="1.62932">
        <ele>290.46</ele>
        <time>2011-03-20T11:27:30Z</time>
      </trkpt>
      <trkpt lat="44.79219" lon="1.62923">
        <ele>291.9</ele>
        <time>2011-03-20T11:27:37Z</time>
      </trkpt>
      <trkpt lat="44.79231" lon="1.62911">
        <ele>293.34</ele>
        <time>2011-03-20T11:27:45Z</time>
      </trkpt>
      <trkpt lat="44.79235" lon="1.62905">
        <ele>292.86</ele>
        <time>2011-03-20T11:27:49Z</time>
      </trkpt>
      <trkpt lat="44.79244" lon="1.62898">
        <ele>292.38</ele>
        <time>2011-03-20T11:27:57Z</time>
      </trkpt>
      <trkpt lat="44.79253" lon="1.62889">
        <ele>292.86</ele>
        <time>2011-03-20T11:28:03Z</time>
      </trkpt>
      <trkpt lat="44.7926" lon="1.62883">
        <ele>293.34</ele>
        <time>2011-03-20T11:28:09Z</time>
      </trkpt>
      <trkpt lat="44.79268" lon="1.62877">
        <ele>292.38</ele>
        <time>2011-03-20T11:28:14Z</time>
      </trkpt>
      <trkpt lat="44.79275" lon="1.62872">
        <ele>293.34</ele>
        <time>2011-03-20T11:28:19Z</time>
      </trkpt>
      <trkpt lat="44.79283" lon="1.62863">
        <ele>291.9</ele>
        <time>2011-03-20T11:28:25Z</time>
      </trkpt>
      <trkpt lat="44.7929" lon="1.62859">
        <ele>292.38</ele>
        <time>2011-03-20T11:28:31Z</time>
      </trkpt>
      <trkpt lat="44.793" lon="1.62848">
        <ele>290.94</ele>
        <time>2011-03-20T11:28:38Z</time>
      </trkpt>
      <trkpt lat="44.79312" lon="1.62841">
        <ele>289.49</ele>
        <time>2011-03-20T11:28:46Z</time>
      </trkpt>
      <trkpt lat="44.79318" lon="1.62835">
        <ele>290.94</ele>
        <time>2011-03-20T11:28:51Z</time>
      </trkpt>
      <trkpt lat="44.79324" lon="1.62828">
        <ele>289.97</ele>
        <time>2011-03-20T11:28:57Z</time>
      </trkpt>
      <trkpt lat="44.7933" lon="1.62823">
        <ele>289.01</ele>
        <time>2011-03-20T11:29:02Z</time>
      </trkpt>
      <trkpt lat="44.79342" lon="1.6281">
        <ele>288.53</ele>
        <time>2011-03-20T11:29:09Z</time>
      </trkpt>
      <trkpt lat="44.79349" lon="1.62802">
        <ele>287.57</ele>
        <time>2011-03-20T11:29:13Z</time>
      </trkpt>
      <trkpt lat="44.79352" lon="1.62798">
        <ele>288.53</ele>
        <time>2011-03-20T11:29:15Z</time>
      </trkpt>
      <trkpt lat="44.79354" lon="1.62796">
        <ele>287.57</ele>
        <time>2011-03-20T11:29:16Z</time>
      </trkpt>
      <trkpt lat="44.79358" lon="1.62793">
        <ele>287.09</ele>
        <time>2011-03-20T11:29:21Z</time>
      </trkpt>
      <trkpt lat="44.79368" lon="1.62787">
        <ele>287.57</ele>
        <time>2011-03-20T11:29:27Z</time>
      </trkpt>
      <trkpt lat="44.7938" lon="1.62784">
        <ele>285.65</ele>
        <time>2011-03-20T11:29:34Z</time>
      </trkpt>
      <trkpt lat="44.79389" lon="1.62783">
        <ele>285.17</ele>
        <time>2011-03-20T11:29:38Z</time>
      </trkpt>
      <trkpt lat="44.79397" lon="1.62782">
        <ele>284.69</ele>
        <time>2011-03-20T11:29:44Z</time>
      </trkpt>
      <trkpt lat="44.794" lon="1.62782">
        <ele>282.77</ele>
        <time>2011-03-20T11:29:46Z</time>
      </trkpt>
      <trkpt lat="44.79406" lon="1.62784">
        <ele>280.84</ele>
        <time>2011-03-20T11:29:51Z</time>
      </trkpt>
      <trkpt lat="44.79409" lon="1.62785">
        <ele>281.32</ele>
        <time>2011-03-20T11:29:54Z</time>
      </trkpt>
      <trkpt lat="44.79412" lon="1.62786">
        <ele>281.8</ele>
        <time>2011-03-20T11:29:57Z</time>
      </trkpt>
      <trkpt lat="44.79429" lon="1.62785">
        <ele>281.8</ele>
        <time>2011-03-20T11:30:05Z</time>
      </trkpt>
      <trkpt lat="44.79439" lon="1.62787">
        <ele>278.92</ele>
        <time>2011-03-20T11:30:13Z</time>
      </trkpt>
      <trkpt lat="44.79441" lon="1.62787">
        <ele>279.4</ele>
        <time>2011-03-20T11:30:14Z</time>
      </trkpt>
      <trkpt lat="44.79447" lon="1.62786">
        <ele>278.44</ele>
        <time>2011-03-20T11:30:17Z</time>
      </trkpt>
      <trkpt lat="44.79449" lon="1.62787">
        <ele>277.96</ele>
        <time>2011-03-20T11:30:20Z</time>
      </trkpt>
      <trkpt lat="44.79461" lon="1.62786">
        <ele>279.4</ele>
        <time>2011-03-20T11:30:27Z</time>
      </trkpt>
      <trkpt lat="44.79475" lon="1.62789">
        <ele>278.92</ele>
        <time>2011-03-20T11:30:37Z</time>
      </trkpt>
      <trkpt lat="44.79488" lon="1.6279">
        <ele>278.92</ele>
        <time>2011-03-20T11:30:46Z</time>
      </trkpt>
      <trkpt lat="44.79501" lon="1.62792">
        <ele>279.4</ele>
        <time>2011-03-20T11:30:54Z</time>
      </trkpt>
      <trkpt lat="44.79519" lon="1.62794">
        <ele>278.44</ele>
        <time>2011-03-20T11:31:05Z</time>
      </trkpt>
      <trkpt lat="44.79533" lon="1.62797">
        <ele>277.48</ele>
        <time>2011-03-20T11:31:12Z</time>
      </trkpt>
      <trkpt lat="44.79545" lon="1.62798">
        <ele>276.52</ele>
        <time>2011-03-20T11:31:18Z</time>
      </trkpt>
      <trkpt lat="44.7955" lon="1.62797">
        <ele>278.44</ele>
        <time>2011-03-20T11:31:20Z</time>
      </trkpt>
      <trkpt lat="44.79565" lon="1.62796">
        <ele>277.48</ele>
        <time>2011-03-20T11:31:27Z</time>
      </trkpt>
      <trkpt lat="44.79572" lon="1.62795">
        <ele>277.48</ele>
        <time>2011-03-20T11:31:33Z</time>
      </trkpt>
      <trkpt lat="44.79577" lon="1.62793">
        <ele>277.96</ele>
        <time>2011-03-20T11:31:36Z</time>
      </trkpt>
      <trkpt lat="44.79584" lon="1.62793">
        <ele>277.96</ele>
        <time>2011-03-20T11:31:40Z</time>
      </trkpt>
      <trkpt lat="44.79593" lon="1.62793">
        <ele>275.56</ele>
        <time>2011-03-20T11:31:45Z</time>
      </trkpt>
      <trkpt lat="44.79604" lon="1.62792">
        <ele>274.11</ele>
        <time>2011-03-20T11:31:51Z</time>
      </trkpt>
      <trkpt lat="44.79613" lon="1.62791">
        <ele>274.59</ele>
        <time>2011-03-20T11:31:57Z</time>
      </trkpt>
      <trkpt lat="44.79622" lon="1.62791">
        <ele>275.56</ele>
        <time>2011-03-20T11:32:04Z</time>
      </trkpt>
      <trkpt lat="44.79634" lon="1.62791">
        <ele>273.63</ele>
        <time>2011-03-20T11:32:10Z</time>
      </trkpt>
      <trkpt lat="44.79638" lon="1.62788">
        <ele>275.56</ele>
        <time>2011-03-20T11:32:14Z</time>
      </trkpt>
      <trkpt lat="44.79648" lon="1.62788">
        <ele>272.67</ele>
        <time>2011-03-20T11:32:21Z</time>
      </trkpt>
      <trkpt lat="44.7965" lon="1.62787">
        <ele>273.15</ele>
        <time>2011-03-20T11:32:23Z</time>
      </trkpt>
      <trkpt lat="44.79661" lon="1.62778">
        <ele>270.27</ele>
        <time>2011-03-20T11:32:30Z</time>
      </trkpt>
      <trkpt lat="44.79662" lon="1.62778">
        <ele>270.75</ele>
        <time>2011-03-20T11:32:31Z</time>
      </trkpt>
      <trkpt lat="44.79667" lon="1.62778">
        <ele>273.63</ele>
        <time>2011-03-20T11:32:34Z</time>
      </trkpt>
      <trkpt lat="44.79669" lon="1.62778">
        <ele>273.15</ele>
        <time>2011-03-20T11:32:35Z</time>
      </trkpt>
      <trkpt lat="44.7968" lon="1.62774">
        <ele>274.11</ele>
        <time>2011-03-20T11:32:41Z</time>
      </trkpt>
      <trkpt lat="44.79683" lon="1.62772">
        <ele>272.67</ele>
        <time>2011-03-20T11:32:43Z</time>
      </trkpt>
      <trkpt lat="44.79687" lon="1.6277">
        <ele>271.71</ele>
        <time>2011-03-20T11:32:46Z</time>
      </trkpt>
      <trkpt lat="44.79693" lon="1.62769">
        <ele>270.27</ele>
        <time>2011-03-20T11:32:50Z</time>
      </trkpt>
      <trkpt lat="44.79707" lon="1.62767">
        <ele>271.71</ele>
        <time>2011-03-20T11:32:57Z</time>
      </trkpt>
      <trkpt lat="44.79709" lon="1.62767">
        <ele>272.67</ele>
        <time>2011-03-20T11:32:58Z</time>
      </trkpt>
      <trkpt lat="44.79721" lon="1.62768">
        <ele>270.75</ele>
        <time>2011-03-20T11:33:05Z</time>
      </trkpt>
      <trkpt lat="44.79726" lon="1.6277">
        <ele>269.31</ele>
        <time>2011-03-20T11:33:09Z</time>
      </trkpt>
      <trkpt lat="44.79737" lon="1.6277">
        <ele>267.86</ele>
        <time>2011-03-20T11:33:16Z</time>
      </trkpt>
      <trkpt lat="44.79743" lon="1.62772">
        <ele>269.31</ele>
        <time>2011-03-20T11:33:21Z</time>
      </trkpt>
      <trkpt lat="44.79747" lon="1.62773">
        <ele>266.9</ele>
        <time>2011-03-20T11:33:23Z</time>
      </trkpt>
      <trkpt lat="44.79761" lon="1.62777">
        <ele>265.94</ele>
        <time>2011-03-20T11:33:30Z</time>
      </trkpt>
      <trkpt lat="44.79765" lon="1.62776">
        <ele>265.94</ele>
        <time>2011-03-20T11:33:33Z</time>
      </trkpt>
      <trkpt lat="44.79772" lon="1.62778">
        <ele>265.94</ele>
        <time>2011-03-20T11:33:37Z</time>
      </trkpt>
      <trkpt lat="44.79775" lon="1.62778">
        <ele>264.02</ele>
        <time>2011-03-20T11:33:39Z</time>
      </trkpt>
      <trkpt lat="44.79785" lon="1.62777">
        <ele>263.54</ele>
        <time>2011-03-20T11:33:44Z</time>
      </trkpt>
      <trkpt lat="44.79789" lon="1.62773">
        <ele>263.06</ele>
        <time>2011-03-20T11:33:50Z</time>
      </trkpt>
      <trkpt lat="44.79794" lon="1.62772">
        <ele>261.62</ele>
        <time>2011-03-20T11:33:53Z</time>
      </trkpt>
      <trkpt lat="44.79795" lon="1.62773">
        <ele>263.06</ele>
        <time>2011-03-20T11:33:54Z</time>
      </trkpt>
      <trkpt lat="44.79805" lon="1.62773">
        <ele>260.65</ele>
        <time>2011-03-20T11:34:02Z</time>
      </trkpt>
      <trkpt lat="44.79813" lon="1.62778">
        <ele>260.65</ele>
        <time>2011-03-20T11:34:08Z</time>
      </trkpt>
      <trkpt lat="44.79821" lon="1.6279">
        <ele>257.77</ele>
        <time>2011-03-20T11:34:16Z</time>
      </trkpt>
      <trkpt lat="44.79821" lon="1.62795">
        <ele>255.85</ele>
        <time>2011-03-20T11:34:18Z</time>
      </trkpt>
      <trkpt lat="44.79822" lon="1.62804">
        <ele>255.37</ele>
        <time>2011-03-20T11:34:23Z</time>
      </trkpt>
      <trkpt lat="44.79823" lon="1.62812">
        <ele>251.04</ele>
        <time>2011-03-20T11:34:31Z</time>
      </trkpt>
      <trkpt lat="44.79826" lon="1.62813">
        <ele>249.6</ele>
        <time>2011-03-20T11:34:35Z</time>
      </trkpt>
      <trkpt lat="44.79829" lon="1.6281">
        <ele>247.68</ele>
        <time>2011-03-20T11:34:37Z</time>
      </trkpt>
      <trkpt lat="44.79839" lon="1.62802">
        <ele>246.72</ele>
        <time>2011-03-20T11:34:45Z</time>
      </trkpt>
      <trkpt lat="44.79845" lon="1.62786">
        <ele>241.43</ele>
        <time>2011-03-20T11:34:55Z</time>
      </trkpt>
      <trkpt lat="44.79846" lon="1.62784">
        <ele>242.39</ele>
        <time>2011-03-20T11:34:56Z</time>
      </trkpt>
      <trkpt lat="44.79848" lon="1.62777">
        <ele>239.51</ele>
        <time>2011-03-20T11:34:59Z</time>
      </trkpt>
      <trkpt lat="44.7985" lon="1.62764">
        <ele>238.54</ele>
        <time>2011-03-20T11:35:04Z</time>
      </trkpt>
      <trkpt lat="44.79849" lon="1.62756">
        <ele>238.54</ele>
        <time>2011-03-20T11:35:07Z</time>
      </trkpt>
      <trkpt lat="44.79849" lon="1.62752">
        <ele>237.1</ele>
        <time>2011-03-20T11:35:10Z</time>
      </trkpt>
      <trkpt lat="44.79855" lon="1.62736">
        <ele>237.58</ele>
        <time>2011-03-20T11:35:18Z</time>
      </trkpt>
      <trkpt lat="44.79852" lon="1.62729">
        <ele>235.18</ele>
        <time>2011-03-20T11:35:20Z</time>
      </trkpt>
      <trkpt lat="44.79851" lon="1.62722">
        <ele>233.26</ele>
        <time>2011-03-20T11:35:24Z</time>
      </trkpt>
      <trkpt lat="44.79854" lon="1.62714">
        <ele>231.81</ele>
        <time>2011-03-20T11:35:28Z</time>
      </trkpt>
      <trkpt lat="44.79861" lon="1.62705">
        <ele>232.3</ele>
        <time>2011-03-20T11:35:35Z</time>
      </trkpt>
      <trkpt lat="44.79865" lon="1.62705">
        <ele>231.33</ele>
        <time>2011-03-20T11:35:38Z</time>
      </trkpt>
      <trkpt lat="44.79867" lon="1.62699">
        <ele>231.33</ele>
        <time>2011-03-20T11:35:43Z</time>
      </trkpt>
      <trkpt lat="44.79876" lon="1.62692">
        <ele>228.93</ele>
        <time>2011-03-20T11:35:48Z</time>
      </trkpt>
      <trkpt lat="44.79879" lon="1.62689">
        <ele>227.97</ele>
        <time>2011-03-20T11:35:50Z</time>
      </trkpt>
      <trkpt lat="44.79888" lon="1.62686">
        <ele>225.09</ele>
        <time>2011-03-20T11:35:54Z</time>
      </trkpt>
      <trkpt lat="44.79898" lon="1.62679">
        <ele>224.12</ele>
        <time>2011-03-20T11:36:00Z</time>
      </trkpt>
      <trkpt lat="44.79902" lon="1.62674">
        <ele>224.12</ele>
        <time>2011-03-20T11:36:04Z</time>
      </trkpt>
      <trkpt lat="44.79904" lon="1.62672">
        <ele>220.28</ele>
        <time>2011-03-20T11:36:05Z</time>
      </trkpt>
      <trkpt lat="44.79905" lon="1.62671">
        <ele>221.24</ele>
        <time>2011-03-20T11:36:06Z</time>
      </trkpt>
      <trkpt lat="44.79901" lon="1.62662">
        <ele>221.24</ele>
        <time>2011-03-20T11:36:10Z</time>
      </trkpt>
      <trkpt lat="44.79903" lon="1.62657">
        <ele>218.84</ele>
        <time>2011-03-20T11:36:13Z</time>
      </trkpt>
      <trkpt lat="44.79915" lon="1.62645">
        <ele>217.88</ele>
        <time>2011-03-20T11:36:19Z</time>
      </trkpt>
      <trkpt lat="44.79917" lon="1.62642">
        <ele>216.91</ele>
        <time>2011-03-20T11:36:21Z</time>
      </trkpt>
      <trkpt lat="44.79918" lon="1.62639">
        <ele>217.4</ele>
        <time>2011-03-20T11:36:22Z</time>
      </trkpt>
      <trkpt lat="44.79922" lon="1.62625">
        <ele>214.03</ele>
        <time>2011-03-20T11:36:29Z</time>
      </trkpt>
      <trkpt lat="44.79929" lon="1.62616">
        <ele>210.67</ele>
        <time>2011-03-20T11:36:34Z</time>
      </trkpt>
      <trkpt lat="44.79938" lon="1.62598">
        <ele>209.22</ele>
        <time>2011-03-20T11:36:39Z</time>
      </trkpt>
      <trkpt lat="44.79942" lon="1.62589">
        <ele>207.3</ele>
        <time>2011-03-20T11:36:45Z</time>
      </trkpt>
      <trkpt lat="44.79953" lon="1.62583">
        <ele>205.86</ele>
        <time>2011-03-20T11:36:50Z</time>
      </trkpt>
      <trkpt lat="44.79957" lon="1.62574">
        <ele>205.86</ele>
        <time>2011-03-20T11:36:54Z</time>
      </trkpt>
      <trkpt lat="44.79966" lon="1.62565">
        <ele>201.53</ele>
        <time>2011-03-20T11:37:00Z</time>
      </trkpt>
      <trkpt lat="44.79969" lon="1.62561">
        <ele>198.17</ele>
        <time>2011-03-20T11:37:04Z</time>
      </trkpt>
      <trkpt lat="44.79976" lon="1.62558">
        <ele>195.77</ele>
        <time>2011-03-20T11:37:09Z</time>
      </trkpt>
      <trkpt lat="44.79982" lon="1.62554">
        <ele>197.21</ele>
        <time>2011-03-20T11:37:12Z</time>
      </trkpt>
      <trkpt lat="44.79985" lon="1.62547">
        <ele>194.32</ele>
        <time>2011-03-20T11:37:17Z</time>
      </trkpt>
      <trkpt lat="44.79989" lon="1.62542">
        <ele>193.36</ele>
        <time>2011-03-20T11:37:21Z</time>
      </trkpt>
      <trkpt lat="44.79996" lon="1.62537">
        <ele>192.4</ele>
        <time>2011-03-20T11:37:25Z</time>
      </trkpt>
      <trkpt lat="44.79996" lon="1.62533">
        <ele>191.44</ele>
        <time>2011-03-20T11:37:27Z</time>
      </trkpt>
      <trkpt lat="44.79996" lon="1.62533">
        <ele>190.96</ele>
        <time>2011-03-20T11:37:28Z</time>
      </trkpt>
      <trkpt lat="44.79999" lon="1.62531">
        <ele>190.96</ele>
        <time>2011-03-20T11:37:31Z</time>
      </trkpt>
      <trkpt lat="44.80002" lon="1.62531">
        <ele>190.96</ele>
        <time>2011-03-20T11:37:33Z</time>
      </trkpt>
      <trkpt lat="44.80009" lon="1.62528">
        <ele>189.04</ele>
        <time>2011-03-20T11:37:36Z</time>
      </trkpt>
      <trkpt lat="44.80014" lon="1.6252">
        <ele>186.15</ele>
        <time>2011-03-20T11:37:42Z</time>
      </trkpt>
      <trkpt lat="44.80018" lon="1.62516">
        <ele>185.19</ele>
        <time>2011-03-20T11:37:47Z</time>
      </trkpt>
      <trkpt lat="44.80024" lon="1.62508">
        <ele>183.27</ele>
        <time>2011-03-20T11:37:54Z</time>
      </trkpt>
      <trkpt lat="44.80029" lon="1.62505">
        <ele>181.35</ele>
        <time>2011-03-20T11:37:57Z</time>
      </trkpt>
      <trkpt lat="44.80034" lon="1.62498">
        <ele>181.35</ele>
        <time>2011-03-20T11:38:02Z</time>
      </trkpt>
      <trkpt lat="44.80033" lon="1.625">
        <ele>179.42</ele>
        <time>2011-03-20T11:38:04Z</time>
      </trkpt>
      <trkpt lat="44.80031" lon="1.62496">
        <ele>178.46</ele>
        <time>2011-03-20T11:38:08Z</time>
      </trkpt>
      <trkpt lat="44.80033" lon="1.62495">
        <ele>177.98</ele>
        <time>2011-03-20T11:38:10Z</time>
      </trkpt>
      <trkpt lat="44.80037" lon="1.62488">
        <ele>177.02</ele>
        <time>2011-03-20T11:38:16Z</time>
      </trkpt>
      <trkpt lat="44.80041" lon="1.62487">
        <ele>176.06</ele>
        <time>2011-03-20T11:38:18Z</time>
      </trkpt>
      <trkpt lat="44.80046" lon="1.62486">
        <ele>175.58</ele>
        <time>2011-03-20T11:38:20Z</time>
      </trkpt>
      <trkpt lat="44.80049" lon="1.62474">
        <ele>173.66</ele>
        <time>2011-03-20T11:38:25Z</time>
      </trkpt>
      <trkpt lat="44.80056" lon="1.62471">
        <ele>172.69</ele>
        <time>2011-03-20T11:38:29Z</time>
      </trkpt>
      <trkpt lat="44.80059" lon="1.62467">
        <ele>171.25</ele>
        <time>2011-03-20T11:38:32Z</time>
      </trkpt>
      <trkpt lat="44.80066" lon="1.62459">
        <ele>171.73</ele>
        <time>2011-03-20T11:38:38Z</time>
      </trkpt>
      <trkpt lat="44.80077" lon="1.62445">
        <ele>170.29</ele>
        <time>2011-03-20T11:38:44Z</time>
      </trkpt>
      <trkpt lat="44.80082" lon="1.62442">
        <ele>167.89</ele>
        <time>2011-03-20T11:38:47Z</time>
      </trkpt>
      <trkpt lat="44.80093" lon="1.62428">
        <ele>166.93</ele>
        <time>2011-03-20T11:38:53Z</time>
      </trkpt>
      <trkpt lat="44.80086" lon="1.62426">
        <ele>165.96</ele>
        <time>2011-03-20T11:38:55Z</time>
      </trkpt>
      <trkpt lat="44.80102" lon="1.62416">
        <ele>164.04</ele>
        <time>2011-03-20T11:39:02Z</time>
      </trkpt>
      <trkpt lat="44.80103" lon="1.62415">
        <ele>164.04</ele>
        <time>2011-03-20T11:39:03Z</time>
      </trkpt>
      <trkpt lat="44.80112" lon="1.6241">
        <ele>164.04</ele>
        <time>2011-03-20T11:39:07Z</time>
      </trkpt>
      <trkpt lat="44.80115" lon="1.624">
        <ele>163.56</ele>
        <time>2011-03-20T11:39:14Z</time>
      </trkpt>
      <trkpt lat="44.80117" lon="1.62398">
        <ele>163.56</ele>
        <time>2011-03-20T11:39:15Z</time>
      </trkpt>
      <trkpt lat="44.8012" lon="1.62395">
        <ele>162.12</ele>
        <time>2011-03-20T11:39:17Z</time>
      </trkpt>
      <trkpt lat="44.80122" lon="1.62386">
        <ele>162.12</ele>
        <time>2011-03-20T11:39:21Z</time>
      </trkpt>
      <trkpt lat="44.80123" lon="1.62383">
        <ele>160.2</ele>
        <time>2011-03-20T11:39:25Z</time>
      </trkpt>
      <trkpt lat="44.80119" lon="1.62375">
        <ele>158.75</ele>
        <time>2011-03-20T11:39:31Z</time>
      </trkpt>
      <trkpt lat="44.80119" lon="1.62359">
        <ele>158.27</ele>
        <time>2011-03-20T11:39:38Z</time>
      </trkpt>
      <trkpt lat="44.80122" lon="1.62356">
        <ele>157.79</ele>
        <time>2011-03-20T11:39:40Z</time>
      </trkpt>
      <trkpt lat="44.80122" lon="1.62346">
        <ele>155.87</ele>
        <time>2011-03-20T11:39:44Z</time>
      </trkpt>
      <trkpt lat="44.80126" lon="1.62339">
        <ele>154.43</ele>
        <time>2011-03-20T11:39:48Z</time>
      </trkpt>
      <trkpt lat="44.80129" lon="1.62329">
        <ele>153.47</ele>
        <time>2011-03-20T11:39:54Z</time>
      </trkpt>
      <trkpt lat="44.80136" lon="1.62318">
        <ele>152.51</ele>
        <time>2011-03-20T11:40:00Z</time>
      </trkpt>
      <trkpt lat="44.80143" lon="1.62306">
        <ele>149.62</ele>
        <time>2011-03-20T11:40:06Z</time>
      </trkpt>
      <trkpt lat="44.80147" lon="1.62297">
        <ele>148.66</ele>
        <time>2011-03-20T11:40:14Z</time>
      </trkpt>
      <trkpt lat="44.80151" lon="1.62289">
        <ele>145.3</ele>
        <time>2011-03-20T11:40:21Z</time>
      </trkpt>
      <trkpt lat="44.80151" lon="1.62288">
        <ele>145.3</ele>
        <time>2011-03-20T11:40:22Z</time>
      </trkpt>
      <trkpt lat="44.80147" lon="1.62272">
        <ele>143.85</ele>
        <time>2011-03-20T11:40:29Z</time>
      </trkpt>
      <trkpt lat="44.80147" lon="1.62268">
        <ele>141.93</ele>
        <time>2011-03-20T11:40:33Z</time>
      </trkpt>
      <trkpt lat="44.80148" lon="1.62268">
        <ele>141.93</ele>
        <time>2011-03-20T11:40:34Z</time>
      </trkpt>
      <trkpt lat="44.80156" lon="1.62264">
        <ele>140.97</ele>
        <time>2011-03-20T11:40:40Z</time>
      </trkpt>
      <trkpt lat="44.80164" lon="1.62254">
        <ele>141.45</ele>
        <time>2011-03-20T11:40:46Z</time>
      </trkpt>
      <trkpt lat="44.80174" lon="1.62248">
        <ele>140.97</ele>
        <time>2011-03-20T11:40:52Z</time>
      </trkpt>
      <trkpt lat="44.80182" lon="1.62245">
        <ele>141.93</ele>
        <time>2011-03-20T11:40:57Z</time>
      </trkpt>
      <trkpt lat="44.80192" lon="1.62241">
        <ele>141.45</ele>
        <time>2011-03-20T11:41:04Z</time>
      </trkpt>
      <trkpt lat="44.80193" lon="1.6224">
        <ele>141.93</ele>
        <time>2011-03-20T11:41:05Z</time>
      </trkpt>
      <trkpt lat="44.80204" lon="1.6223">
        <ele>141.93</ele>
        <time>2011-03-20T11:41:12Z</time>
      </trkpt>
      <trkpt lat="44.80204" lon="1.6223">
        <ele>140.49</ele>
        <time>2011-03-20T11:41:13Z</time>
      </trkpt>
      <trkpt lat="44.80207" lon="1.6222">
        <ele>140.49</ele>
        <time>2011-03-20T11:41:19Z</time>
      </trkpt>
      <trkpt lat="44.80208" lon="1.62213">
        <ele>140.01</ele>
        <time>2011-03-20T11:41:22Z</time>
      </trkpt>
      <trkpt lat="44.80206" lon="1.62196">
        <ele>141.45</ele>
        <time>2011-03-20T11:41:29Z</time>
      </trkpt>
      <trkpt lat="44.80202" lon="1.62177">
        <ele>141.93</ele>
        <time>2011-03-20T11:41:35Z</time>
      </trkpt>
      <trkpt lat="44.80196" lon="1.62159">
        <ele>142.89</ele>
        <time>2011-03-20T11:41:43Z</time>
      </trkpt>
      <trkpt lat="44.80189" lon="1.62155">
        <ele>143.37</ele>
        <time>2011-03-20T11:41:48Z</time>
      </trkpt>
      <trkpt lat="44.80188" lon="1.62151">
        <ele>141.93</ele>
        <time>2011-03-20T11:41:51Z</time>
      </trkpt>
      <trkpt lat="44.80189" lon="1.62147">
        <ele>143.85</ele>
        <time>2011-03-20T11:41:53Z</time>
      </trkpt>
      <trkpt lat="44.80188" lon="1.6214">
        <ele>142.41</ele>
        <time>2011-03-20T11:41:57Z</time>
      </trkpt>
      <trkpt lat="44.80184" lon="1.62123">
        <ele>144.34</ele>
        <time>2011-03-20T11:42:04Z</time>
      </trkpt>
      <trkpt lat="44.80182" lon="1.62114">
        <ele>146.74</ele>
        <time>2011-03-20T11:42:09Z</time>
      </trkpt>
      <trkpt lat="44.80178" lon="1.62107">
        <ele>146.26</ele>
        <time>2011-03-20T11:42:14Z</time>
      </trkpt>
      <trkpt lat="44.80178" lon="1.62096">
        <ele>148.66</ele>
        <time>2011-03-20T11:42:22Z</time>
      </trkpt>
      <trkpt lat="44.80179" lon="1.62086">
        <ele>149.14</ele>
        <time>2011-03-20T11:42:32Z</time>
      </trkpt>
      <trkpt lat="44.80171" lon="1.62077">
        <ele>149.62</ele>
        <time>2011-03-20T11:42:44Z</time>
      </trkpt>
      <trkpt lat="44.80174" lon="1.62064">
        <ele>153.47</ele>
        <time>2011-03-20T11:42:53Z</time>
      </trkpt>
      <trkpt lat="44.80173" lon="1.62061">
        <ele>155.39</ele>
        <time>2011-03-20T11:42:56Z</time>
      </trkpt>
      <trkpt lat="44.80172" lon="1.62051">
        <ele>157.31</ele>
        <time>2011-03-20T11:43:07Z</time>
      </trkpt>
      <trkpt lat="44.8017" lon="1.62039">
        <ele>160.68</ele>
        <time>2011-03-20T11:43:16Z</time>
      </trkpt>
      <trkpt lat="44.8017" lon="1.62037">
        <ele>159.72</ele>
        <time>2011-03-20T11:43:25Z</time>
      </trkpt>
      <trkpt lat="44.80171" lon="1.62038">
        <ele>161.16</ele>
        <time>2011-03-20T11:43:35Z</time>
      </trkpt>
      <trkpt lat="44.80175" lon="1.62026">
        <ele>161.16</ele>
        <time>2011-03-20T11:43:51Z</time>
      </trkpt>
      <trkpt lat="44.80174" lon="1.62018">
        <ele>165</ele>
        <time>2011-03-20T11:44:00Z</time>
      </trkpt>
      <trkpt lat="44.80172" lon="1.62011">
        <ele>165</ele>
        <time>2011-03-20T11:44:06Z</time>
      </trkpt>
      <trkpt lat="44.80165" lon="1.62006">
        <ele>166.93</ele>
        <time>2011-03-20T11:44:19Z</time>
      </trkpt>
      <trkpt lat="44.80153" lon="1.61991">
        <ele>169.81</ele>
        <time>2011-03-20T11:44:35Z</time>
      </trkpt>
      <trkpt lat="44.80151" lon="1.61981">
        <ele>170.77</ele>
        <time>2011-03-20T11:44:46Z</time>
      </trkpt>
      <trkpt lat="44.80148" lon="1.61975">
        <ele>172.21</ele>
        <time>2011-03-20T11:44:54Z</time>
      </trkpt>
      <trkpt lat="44.80144" lon="1.61977">
        <ele>172.69</ele>
        <time>2011-03-20T11:45:00Z</time>
      </trkpt>
      <trkpt lat="44.80143" lon="1.61966">
        <ele>174.14</ele>
        <time>2011-03-20T11:45:06Z</time>
      </trkpt>
      <trkpt lat="44.80144" lon="1.61961">
        <ele>175.1</ele>
        <time>2011-03-20T11:45:08Z</time>
      </trkpt>
      <trkpt lat="44.80151" lon="1.61958">
        <ele>175.58</ele>
        <time>2011-03-20T11:45:14Z</time>
      </trkpt>
      <trkpt lat="44.80154" lon="1.61949">
        <ele>176.54</ele>
        <time>2011-03-20T11:45:24Z</time>
      </trkpt>
      <trkpt lat="44.80153" lon="1.61939">
        <ele>180.38</ele>
        <time>2011-03-20T11:45:45Z</time>
      </trkpt>
      <trkpt lat="44.80151" lon="1.61929">
        <ele>183.27</ele>
        <time>2011-03-20T11:46:06Z</time>
      </trkpt>
      <trkpt lat="44.80149" lon="1.61928">
        <ele>183.75</ele>
        <time>2011-03-20T11:46:07Z</time>
      </trkpt>
      <trkpt lat="44.80153" lon="1.61921">
        <ele>187.59</ele>
        <time>2011-03-20T11:46:22Z</time>
      </trkpt>
      <trkpt lat="44.80157" lon="1.61917">
        <ele>189.04</ele>
        <time>2011-03-20T11:46:30Z</time>
      </trkpt>
      <trkpt lat="44.80151" lon="1.61914">
        <ele>190.48</ele>
        <time>2011-03-20T11:46:36Z</time>
      </trkpt>
      <trkpt lat="44.80154" lon="1.61914">
        <ele>191.92</ele>
        <time>2011-03-20T11:46:43Z</time>
      </trkpt>
      <trkpt lat="44.80157" lon="1.61914">
        <ele>192.88</ele>
        <time>2011-03-20T11:46:49Z</time>
      </trkpt>
      <trkpt lat="44.80158" lon="1.61914">
        <ele>191.44</ele>
        <time>2011-03-20T11:46:53Z</time>
      </trkpt>
      <trkpt lat="44.8015" lon="1.61901">
        <ele>192.88</ele>
        <time>2011-03-20T11:47:17Z</time>
      </trkpt>
      <trkpt lat="44.80149" lon="1.61898">
        <ele>193.84</ele>
        <time>2011-03-20T11:47:26Z</time>
      </trkpt>
      <trkpt lat="44.80149" lon="1.61896">
        <ele>193.84</ele>
        <time>2011-03-20T11:47:32Z</time>
      </trkpt>
      <trkpt lat="44.80148" lon="1.6189">
        <ele>195.28</ele>
        <time>2011-03-20T11:47:50Z</time>
      </trkpt>
      <trkpt lat="44.80146" lon="1.61883">
        <ele>195.77</ele>
        <time>2011-03-20T11:48:00Z</time>
      </trkpt>
      <trkpt lat="44.80143" lon="1.6188">
        <ele>195.28</ele>
        <time>2011-03-20T11:48:06Z</time>
      </trkpt>
      <trkpt lat="44.80131" lon="1.61876">
        <ele>198.65</ele>
        <time>2011-03-20T11:48:12Z</time>
      </trkpt>
      <trkpt lat="44.8013" lon="1.61875">
        <ele>198.65</ele>
        <time>2011-03-20T11:48:13Z</time>
      </trkpt>
      <trkpt lat="44.8013" lon="1.61877">
        <ele>197.21</ele>
        <time>2011-03-20T11:48:19Z</time>
      </trkpt>
      <trkpt lat="44.80127" lon="1.61863">
        <ele>198.65</ele>
        <time>2011-03-20T11:48:35Z</time>
      </trkpt>
      <trkpt lat="44.80123" lon="1.61853">
        <ele>202.01</ele>
        <time>2011-03-20T11:48:45Z</time>
      </trkpt>
      <trkpt lat="44.80124" lon="1.61851">
        <ele>202.98</ele>
        <time>2011-03-20T11:48:47Z</time>
      </trkpt>
      <trkpt lat="44.8012" lon="1.61845">
        <ele>206.34</ele>
        <time>2011-03-20T11:48:53Z</time>
      </trkpt>
      <trkpt lat="44.80118" lon="1.61843">
        <ele>207.78</ele>
        <time>2011-03-20T11:48:57Z</time>
      </trkpt>
      <trkpt lat="44.80114" lon="1.61834">
        <ele>209.22</ele>
        <time>2011-03-20T11:49:03Z</time>
      </trkpt>
      <trkpt lat="44.80109" lon="1.61827">
        <ele>208.74</ele>
        <time>2011-03-20T11:49:09Z</time>
      </trkpt>
      <trkpt lat="44.80094" lon="1.6182">
        <ele>206.34</ele>
        <time>2011-03-20T11:49:23Z</time>
      </trkpt>
      <trkpt lat="44.80085" lon="1.61814">
        <ele>205.38</ele>
        <time>2011-03-20T11:49:34Z</time>
      </trkpt>
      <trkpt lat="44.80073" lon="1.61809">
        <ele>206.34</ele>
        <time>2011-03-20T11:49:40Z</time>
      </trkpt>
      <trkpt lat="44.80066" lon="1.61807">
        <ele>205.38</ele>
        <time>2011-03-20T11:49:46Z</time>
      </trkpt>
      <trkpt lat="44.80057" lon="1.618">
        <ele>204.42</ele>
        <time>2011-03-20T11:49:54Z</time>
      </trkpt>
      <trkpt lat="44.80057" lon="1.61798">
        <ele>204.9</ele>
        <time>2011-03-20T11:49:55Z</time>
      </trkpt>
      <trkpt lat="44.80043" lon="1.6179">
        <ele>204.42</ele>
        <time>2011-03-20T11:50:05Z</time>
      </trkpt>
      <trkpt lat="44.80042" lon="1.61786">
        <ele>202.98</ele>
        <time>2011-03-20T11:50:07Z</time>
      </trkpt>
      <trkpt lat="44.80037" lon="1.61785">
        <ele>204.9</ele>
        <time>2011-03-20T11:50:10Z</time>
      </trkpt>
      <trkpt lat="44.80033" lon="1.6178">
        <ele>202.49</ele>
        <time>2011-03-20T11:50:17Z</time>
      </trkpt>
      <trkpt lat="44.80024" lon="1.61774">
        <ele>202.49</ele>
        <time>2011-03-20T11:50:23Z</time>
      </trkpt>
      <trkpt lat="44.80021" lon="1.61768">
        <ele>204.42</ele>
        <time>2011-03-20T11:50:27Z</time>
      </trkpt>
      <trkpt lat="44.80019" lon="1.61766">
        <ele>203.94</ele>
        <time>2011-03-20T11:50:29Z</time>
      </trkpt>
      <trkpt lat="44.80013" lon="1.61767">
        <ele>202.49</ele>
        <time>2011-03-20T11:50:35Z</time>
      </trkpt>
      <trkpt lat="44.80005" lon="1.61764">
        <ele>201.53</ele>
        <time>2011-03-20T11:50:46Z</time>
      </trkpt>
      <trkpt lat="44.80003" lon="1.61763">
        <ele>202.01</ele>
        <time>2011-03-20T11:50:59Z</time>
      </trkpt>
      <trkpt lat="44.80013" lon="1.6176">
        <ele>205.86</ele>
        <time>2011-03-20T11:51:04Z</time>
      </trkpt>
      <trkpt lat="44.80013" lon="1.6176">
        <ele>205.86</ele>
        <time>2011-03-20T11:51:05Z</time>
      </trkpt>
      <trkpt lat="44.80021" lon="1.6176">
        <ele>207.78</ele>
        <time>2011-03-20T11:51:18Z</time>
      </trkpt>
      <trkpt lat="44.80019" lon="1.61755">
        <ele>207.3</ele>
        <time>2011-03-20T11:51:24Z</time>
      </trkpt>
      <trkpt lat="44.80008" lon="1.61746">
        <ele>210.19</ele>
        <time>2011-03-20T11:51:35Z</time>
      </trkpt>
      <trkpt lat="44.80006" lon="1.61745">
        <ele>210.19</ele>
        <time>2011-03-20T11:51:36Z</time>
      </trkpt>
      <trkpt lat="44.79997" lon="1.61744">
        <ele>211.63</ele>
        <time>2011-03-20T11:51:48Z</time>
      </trkpt>
      <trkpt lat="44.80015" lon="1.61744">
        <ele>214.51</ele>
        <time>2011-03-20T11:52:06Z</time>
      </trkpt>
      <trkpt lat="44.80018" lon="1.61742">
        <ele>212.11</ele>
        <time>2011-03-20T11:52:11Z</time>
      </trkpt>
      <trkpt lat="44.8002" lon="1.61737">
        <ele>213.55</ele>
        <time>2011-03-20T11:52:17Z</time>
      </trkpt>
      <trkpt lat="44.8002" lon="1.61736">
        <ele>213.07</ele>
        <time>2011-03-20T11:52:20Z</time>
      </trkpt>
      <trkpt lat="44.80018" lon="1.61735">
        <ele>216.43</ele>
        <time>2011-03-20T11:52:29Z</time>
      </trkpt>
      <trkpt lat="44.80007" lon="1.61741">
        <ele>217.4</ele>
        <time>2011-03-20T11:52:41Z</time>
      </trkpt>
      <trkpt lat="44.80007" lon="1.61733">
        <ele>219.32</ele>
        <time>2011-03-20T11:52:48Z</time>
      </trkpt>
      <trkpt lat="44.80008" lon="1.61731">
        <ele>218.84</ele>
        <time>2011-03-20T11:52:49Z</time>
      </trkpt>
      <trkpt lat="44.80009" lon="1.61727">
        <ele>218.36</ele>
        <time>2011-03-20T11:52:54Z</time>
      </trkpt>
      <trkpt lat="44.80013" lon="1.61726">
        <ele>219.32</ele>
        <time>2011-03-20T11:52:58Z</time>
      </trkpt>
      <trkpt lat="44.80021" lon="1.61723">
        <ele>219.8</ele>
        <time>2011-03-20T11:53:08Z</time>
      </trkpt>
      <trkpt lat="44.80019" lon="1.61721">
        <ele>221.24</ele>
        <time>2011-03-20T11:53:17Z</time>
      </trkpt>
      <trkpt lat="44.80018" lon="1.61722">
        <ele>222.2</ele>
        <time>2011-03-20T11:53:19Z</time>
      </trkpt>
      <trkpt lat="44.80005" lon="1.61726">
        <ele>224.12</ele>
        <time>2011-03-20T11:53:34Z</time>
      </trkpt>
      <trkpt lat="44.80004" lon="1.61716">
        <ele>225.57</ele>
        <time>2011-03-20T11:53:46Z</time>
      </trkpt>
      <trkpt lat="44.80005" lon="1.61715">
        <ele>225.57</ele>
        <time>2011-03-20T11:53:47Z</time>
      </trkpt>
      <trkpt lat="44.80007" lon="1.6171">
        <ele>226.05</ele>
        <time>2011-03-20T11:53:51Z</time>
      </trkpt>
      <trkpt lat="44.80022" lon="1.61705">
        <ele>227.01</ele>
        <time>2011-03-20T11:54:02Z</time>
      </trkpt>
      <trkpt lat="44.80025" lon="1.61704">
        <ele>225.09</ele>
        <time>2011-03-20T11:54:04Z</time>
      </trkpt>
      <trkpt lat="44.80027" lon="1.61704">
        <ele>228.45</ele>
        <time>2011-03-20T11:54:06Z</time>
      </trkpt>
      <trkpt lat="44.80029" lon="1.61704">
        <ele>227.97</ele>
        <time>2011-03-20T11:54:07Z</time>
      </trkpt>
      <trkpt lat="44.80036" lon="1.61706">
        <ele>229.41</ele>
        <time>2011-03-20T11:54:13Z</time>
      </trkpt>
      <trkpt lat="44.80037" lon="1.61712">
        <ele>230.85</ele>
        <time>2011-03-20T11:54:21Z</time>
      </trkpt>
      <trkpt lat="44.80039" lon="1.61709">
        <ele>231.33</ele>
        <time>2011-03-20T11:54:28Z</time>
      </trkpt>
      <trkpt lat="44.80033" lon="1.61698">
        <ele>233.26</ele>
        <time>2011-03-20T11:54:37Z</time>
      </trkpt>
      <trkpt lat="44.8003" lon="1.61692">
        <ele>234.7</ele>
        <time>2011-03-20T11:54:43Z</time>
      </trkpt>
      <trkpt lat="44.80034" lon="1.61684">
        <ele>233.74</ele>
        <time>2011-03-20T11:54:51Z</time>
      </trkpt>
      <trkpt lat="44.80035" lon="1.61686">
        <ele>235.18</ele>
        <time>2011-03-20T11:54:54Z</time>
      </trkpt>
      <trkpt lat="44.80044" lon="1.61696">
        <ele>233.74</ele>
        <time>2011-03-20T11:55:03Z</time>
      </trkpt>
      <trkpt lat="44.8005" lon="1.61706">
        <ele>235.66</ele>
        <time>2011-03-20T11:55:12Z</time>
      </trkpt>
      <trkpt lat="44.8005" lon="1.6171">
        <ele>235.18</ele>
        <time>2011-03-20T11:55:14Z</time>
      </trkpt>
      <trkpt lat="44.80045" lon="1.617">
        <ele>235.66</ele>
        <time>2011-03-20T11:55:21Z</time>
      </trkpt>
      <trkpt lat="44.80041" lon="1.61688">
        <ele>235.18</ele>
        <time>2011-03-20T11:55:31Z</time>
      </trkpt>
      <trkpt lat="44.80041" lon="1.61687">
        <ele>234.7</ele>
        <time>2011-03-20T11:55:32Z</time>
      </trkpt>
      <trkpt lat="44.80041" lon="1.61684">
        <ele>238.06</ele>
        <time>2011-03-20T11:55:39Z</time>
      </trkpt>
      <trkpt lat="44.80042" lon="1.61684">
        <ele>237.58</ele>
        <time>2011-03-20T11:55:40Z</time>
      </trkpt>
      <trkpt lat="44.80046" lon="1.61686">
        <ele>238.54</ele>
        <time>2011-03-20T11:55:46Z</time>
      </trkpt>
      <trkpt lat="44.8005" lon="1.61693">
        <ele>240.47</ele>
        <time>2011-03-20T11:55:53Z</time>
      </trkpt>
      <trkpt lat="44.80051" lon="1.61696">
        <ele>243.83</ele>
        <time>2011-03-20T11:55:55Z</time>
      </trkpt>
      <trkpt lat="44.80052" lon="1.61697">
        <ele>245.75</ele>
        <time>2011-03-20T11:55:58Z</time>
      </trkpt>
      <trkpt lat="44.8005" lon="1.61691">
        <ele>245.27</ele>
        <time>2011-03-20T11:56:06Z</time>
      </trkpt>
      <trkpt lat="44.80049" lon="1.6169">
        <ele>246.23</ele>
        <time>2011-03-20T11:56:07Z</time>
      </trkpt>
      <trkpt lat="44.80047" lon="1.61682">
        <ele>247.2</ele>
        <time>2011-03-20T11:56:12Z</time>
      </trkpt>
      <trkpt lat="44.80043" lon="1.61677">
        <ele>245.27</ele>
        <time>2011-03-20T11:56:20Z</time>
      </trkpt>
      <trkpt lat="44.80039" lon="1.61674">
        <ele>242.87</ele>
        <time>2011-03-20T11:56:25Z</time>
      </trkpt>
      <trkpt lat="44.8003" lon="1.61675">
        <ele>244.31</ele>
        <time>2011-03-20T11:56:36Z</time>
      </trkpt>
      <trkpt lat="44.80026" lon="1.61677">
        <ele>246.23</ele>
        <time>2011-03-20T11:56:42Z</time>
      </trkpt>
      <trkpt lat="44.80021" lon="1.61678">
        <ele>246.72</ele>
        <time>2011-03-20T11:56:48Z</time>
      </trkpt>
      <trkpt lat="44.80017" lon="1.61679">
        <ele>247.2</ele>
        <time>2011-03-20T11:57:04Z</time>
      </trkpt>
      <trkpt lat="44.80017" lon="1.61673">
        <ele>250.08</ele>
        <time>2011-03-20T11:57:09Z</time>
      </trkpt>
      <trkpt lat="44.80035" lon="1.61668">
        <ele>250.08</ele>
        <time>2011-03-20T11:57:21Z</time>
      </trkpt>
      <trkpt lat="44.80048" lon="1.6167">
        <ele>252.96</ele>
        <time>2011-03-20T11:57:33Z</time>
      </trkpt>
      <trkpt lat="44.80051" lon="1.61672">
        <ele>252.48</ele>
        <time>2011-03-20T11:57:39Z</time>
      </trkpt>
      <trkpt lat="44.80047" lon="1.61667">
        <ele>255.85</ele>
        <time>2011-03-20T11:57:43Z</time>
      </trkpt>
      <trkpt lat="44.80043" lon="1.61665">
        <ele>255.85</ele>
        <time>2011-03-20T11:57:46Z</time>
      </trkpt>
      <trkpt lat="44.80041" lon="1.61663">
        <ele>256.33</ele>
        <time>2011-03-20T11:57:48Z</time>
      </trkpt>
      <trkpt lat="44.80041" lon="1.61663">
        <ele>255.37</ele>
        <time>2011-03-20T11:57:50Z</time>
      </trkpt>
      <trkpt lat="44.8004" lon="1.61662">
        <ele>254.41</ele>
        <time>2011-03-20T11:57:51Z</time>
      </trkpt>
      <trkpt lat="44.80037" lon="1.61663">
        <ele>252</ele>
        <time>2011-03-20T11:57:55Z</time>
      </trkpt>
      <trkpt lat="44.80035" lon="1.61664">
        <ele>252</ele>
        <time>2011-03-20T11:57:56Z</time>
      </trkpt>
      <trkpt lat="44.80025" lon="1.61665">
        <ele>252</ele>
        <time>2011-03-20T11:58:01Z</time>
      </trkpt>
      <trkpt lat="44.80018" lon="1.61664">
        <ele>250.56</ele>
        <time>2011-03-20T11:58:06Z</time>
      </trkpt>
      <trkpt lat="44.80005" lon="1.61668">
        <ele>252</ele>
        <time>2011-03-20T11:58:15Z</time>
      </trkpt>
      <trkpt lat="44.8" lon="1.61668">
        <ele>254.89</ele>
        <time>2011-03-20T11:58:19Z</time>
      </trkpt>
      <trkpt lat="44.8" lon="1.61666">
        <ele>254.41</ele>
        <time>2011-03-20T11:58:20Z</time>
      </trkpt>
      <trkpt lat="44.79998" lon="1.61659">
        <ele>258.25</ele>
        <time>2011-03-20T11:58:25Z</time>
      </trkpt>
      <trkpt lat="44.79996" lon="1.61649">
        <ele>259.69</ele>
        <time>2011-03-20T11:58:31Z</time>
      </trkpt>
      <trkpt lat="44.79997" lon="1.61635">
        <ele>259.69</ele>
        <time>2011-03-20T11:58:38Z</time>
      </trkpt>
      <trkpt lat="44.79994" lon="1.61634">
        <ele>258.73</ele>
        <time>2011-03-20T11:58:40Z</time>
      </trkpt>
      <trkpt lat="44.79992" lon="1.61632">
        <ele>258.25</ele>
        <time>2011-03-20T11:58:43Z</time>
      </trkpt>
      <trkpt lat="44.79994" lon="1.61625">
        <ele>260.17</ele>
        <time>2011-03-20T11:58:50Z</time>
      </trkpt>
      <trkpt lat="44.79994" lon="1.61624">
        <ele>259.21</ele>
        <time>2011-03-20T11:58:58Z</time>
      </trkpt>
    </trkseg>
  </trk>
</gpx>